<?xml version="1.0" encoding="UTF-8" standalone="no" ?>
<gpx xmlns="http://www.topografix.com/GPX/1/1" xmlns:xsi="http://www.w3.org/2001/XMLSchema-instance" xsi:schemaLocation="http://www.topografix.com/GPX/1/1 http://www.topografix.com/GPX/1/1/gpx.xsd" version="1.1" creator="VisuGPX - https://www.visugpx.com">
  <metadata>
    <name>Ultra Trail du Mont Blanc 2021  TDS  sur TraceDeTrail.fr</name>
  </metadata>
  <trk>
    <name><![CDATA[Ultra Trail du Mont Blanc 2021  TDS  sur TraceDeTrail.fr]]></name>
    <trkseg>
      <trkpt lat="45.6199" lon="6.77109">
        <ele>814</ele>
        <time>2000-01-01T08:53:29.000Z</time>
      </trkpt>
      <trkpt lat="45.61959" lon="6.77105">
        <ele>819</ele>
        <time>2000-01-01T08:53:39.000Z</time>
      </trkpt>
      <trkpt lat="45.61957" lon="6.77104">
        <ele>813.5</ele>
        <time>2000-01-01T08:53:49.000Z</time>
      </trkpt>
      <trkpt lat="45.61962" lon="6.77101">
        <ele>813.6</ele>
        <time>2000-01-01T08:53:59.000Z</time>
      </trkpt>
      <trkpt lat="45.61962" lon="6.77093">
        <ele>813.6</ele>
        <time>2000-01-01T08:54:09.000Z</time>
      </trkpt>
      <trkpt lat="45.61957" lon="6.77085">
        <ele>823</ele>
        <time>2000-01-01T08:54:19.000Z</time>
      </trkpt>
      <trkpt lat="45.61918" lon="6.77085">
        <ele>823</ele>
        <time>2000-01-01T08:54:29.000Z</time>
      </trkpt>
      <trkpt lat="45.61908" lon="6.77084">
        <ele>812.7</ele>
        <time>2000-01-01T08:54:39.000Z</time>
      </trkpt>
      <trkpt lat="45.61877" lon="6.77083">
        <ele>822</ele>
        <time>2000-01-01T08:54:49.000Z</time>
      </trkpt>
      <trkpt lat="45.61867" lon="6.77079">
        <ele>813</ele>
        <time>2000-01-01T08:54:59.000Z</time>
      </trkpt>
      <trkpt lat="45.61862" lon="6.77063">
        <ele>822</ele>
        <time>2000-01-01T08:55:09.000Z</time>
      </trkpt>
      <trkpt lat="45.61863" lon="6.77051">
        <ele>814.3</ele>
        <time>2000-01-01T08:55:19.000Z</time>
      </trkpt>
      <trkpt lat="45.61863" lon="6.7702">
        <ele>824</ele>
        <time>2000-01-01T08:55:29.000Z</time>
      </trkpt>
      <trkpt lat="45.61856" lon="6.77009">
        <ele>816.4</ele>
        <time>2000-01-01T08:55:39.000Z</time>
      </trkpt>
      <trkpt lat="45.61852" lon="6.76996">
        <ele>822</ele>
        <time>2000-01-01T08:55:49.000Z</time>
      </trkpt>
      <trkpt lat="45.61852" lon="6.76984">
        <ele>817.8</ele>
        <time>2000-01-01T08:55:59.000Z</time>
      </trkpt>
      <trkpt lat="45.6185" lon="6.76973">
        <ele>818.4</ele>
        <time>2000-01-01T08:56:09.000Z</time>
      </trkpt>
      <trkpt lat="45.61851" lon="6.76959">
        <ele>823</ele>
        <time>2000-01-01T08:56:19.000Z</time>
      </trkpt>
      <trkpt lat="45.61854" lon="6.76944">
        <ele>820</ele>
        <time>2000-01-01T08:56:29.000Z</time>
      </trkpt>
      <trkpt lat="45.61851" lon="6.76935">
        <ele>820.1</ele>
        <time>2000-01-01T08:56:39.000Z</time>
      </trkpt>
      <trkpt lat="45.61839" lon="6.76918">
        <ele>824</ele>
        <time>2000-01-01T08:56:49.000Z</time>
      </trkpt>
      <trkpt lat="45.61823" lon="6.76901">
        <ele>829</ele>
        <time>2000-01-01T08:56:59.000Z</time>
      </trkpt>
      <trkpt lat="45.61819" lon="6.76889">
        <ele>821</ele>
        <time>2000-01-01T08:57:09.000Z</time>
      </trkpt>
      <trkpt lat="45.61801" lon="6.76873">
        <ele>834</ele>
        <time>2000-01-01T08:57:19.000Z</time>
      </trkpt>
      <trkpt lat="45.61777" lon="6.76846">
        <ele>832</ele>
        <time>2000-01-01T08:57:29.000Z</time>
      </trkpt>
      <trkpt lat="45.61765" lon="6.76823">
        <ele>833</ele>
        <time>2000-01-01T08:57:39.000Z</time>
      </trkpt>
      <trkpt lat="45.61745" lon="6.7679">
        <ele>834</ele>
        <time>2000-01-01T08:57:49.000Z</time>
      </trkpt>
      <trkpt lat="45.61738" lon="6.76782">
        <ele>827.3</ele>
        <time>2000-01-01T08:57:59.000Z</time>
      </trkpt>
      <trkpt lat="45.61722" lon="6.76769">
        <ele>836</ele>
        <time>2000-01-01T08:58:09.000Z</time>
      </trkpt>
      <trkpt lat="45.61715" lon="6.76762">
        <ele>829.1</ele>
        <time>2000-01-01T08:58:19.000Z</time>
      </trkpt>
      <trkpt lat="45.61702" lon="6.76744">
        <ele>837</ele>
        <time>2000-01-01T08:58:29.000Z</time>
      </trkpt>
      <trkpt lat="45.61687" lon="6.76717">
        <ele>843</ele>
        <time>2000-01-01T08:58:39.000Z</time>
      </trkpt>
      <trkpt lat="45.61696" lon="6.76702">
        <ele>831.8</ele>
        <time>2000-01-01T08:58:49.000Z</time>
      </trkpt>
      <trkpt lat="45.617" lon="6.76685">
        <ele>842</ele>
        <time>2000-01-01T08:58:59.000Z</time>
      </trkpt>
      <trkpt lat="45.617" lon="6.76672">
        <ele>834.2</ele>
        <time>2000-01-01T08:59:09.000Z</time>
      </trkpt>
      <trkpt lat="45.61699" lon="6.76659">
        <ele>835.2</ele>
        <time>2000-01-01T08:59:19.000Z</time>
      </trkpt>
      <trkpt lat="45.61702" lon="6.76646">
        <ele>841</ele>
        <time>2000-01-01T08:59:29.000Z</time>
      </trkpt>
      <trkpt lat="45.61717" lon="6.76611">
        <ele>844</ele>
        <time>2000-01-01T08:59:39.000Z</time>
      </trkpt>
      <trkpt lat="45.61729" lon="6.76592">
        <ele>842.6</ele>
        <time>2000-01-01T08:59:49.000Z</time>
      </trkpt>
      <trkpt lat="45.61761" lon="6.76524">
        <ele>847</ele>
        <time>2000-01-01T08:59:59.000Z</time>
      </trkpt>
      <trkpt lat="45.61764" lon="6.76494">
        <ele>851</ele>
        <time>2000-01-01T09:00:09.000Z</time>
      </trkpt>
      <trkpt lat="45.61774" lon="6.76487">
        <ele>854</ele>
        <time>2000-01-01T09:00:19.000Z</time>
      </trkpt>
      <trkpt lat="45.61777" lon="6.76474">
        <ele>862</ele>
        <time>2000-01-01T09:00:29.000Z</time>
      </trkpt>
      <trkpt lat="45.61791" lon="6.76457">
        <ele>858.6</ele>
        <time>2000-01-01T09:00:39.000Z</time>
      </trkpt>
      <trkpt lat="45.61786" lon="6.76446">
        <ele>865</ele>
        <time>2000-01-01T09:00:49.000Z</time>
      </trkpt>
      <trkpt lat="45.61787" lon="6.76408">
        <ele>874</ele>
        <time>2000-01-01T09:00:59.000Z</time>
      </trkpt>
      <trkpt lat="45.61789" lon="6.76395">
        <ele>862.9</ele>
        <time>2000-01-01T09:01:09.000Z</time>
      </trkpt>
      <trkpt lat="45.61794" lon="6.76385">
        <ele>864.4</ele>
        <time>2000-01-01T09:01:19.000Z</time>
      </trkpt>
      <trkpt lat="45.61798" lon="6.76373">
        <ele>878</ele>
        <time>2000-01-01T09:01:29.000Z</time>
      </trkpt>
      <trkpt lat="45.61807" lon="6.76375">
        <ele>867.8</ele>
        <time>2000-01-01T09:01:39.000Z</time>
      </trkpt>
      <trkpt lat="45.61825" lon="6.76383">
        <ele>878</ele>
        <time>2000-01-01T09:01:49.000Z</time>
      </trkpt>
      <trkpt lat="45.61834" lon="6.76386">
        <ele>872.4</ele>
        <time>2000-01-01T09:01:59.000Z</time>
      </trkpt>
      <trkpt lat="45.61843" lon="6.76387">
        <ele>872.9</ele>
        <time>2000-01-01T09:02:09.000Z</time>
      </trkpt>
      <trkpt lat="45.6185" lon="6.7638">
        <ele>878</ele>
        <time>2000-01-01T09:02:19.000Z</time>
      </trkpt>
      <trkpt lat="45.61889" lon="6.76346">
        <ele>886</ele>
        <time>2000-01-01T09:02:29.000Z</time>
      </trkpt>
      <trkpt lat="45.61896" lon="6.76339">
        <ele>883.3</ele>
        <time>2000-01-01T09:02:39.000Z</time>
      </trkpt>
      <trkpt lat="45.61902" lon="6.76329">
        <ele>884.9</ele>
        <time>2000-01-01T09:02:49.000Z</time>
      </trkpt>
      <trkpt lat="45.6191" lon="6.76321">
        <ele>886</ele>
        <time>2000-01-01T09:02:59.000Z</time>
      </trkpt>
      <trkpt lat="45.61915" lon="6.76311">
        <ele>887.4</ele>
        <time>2000-01-01T09:03:09.000Z</time>
      </trkpt>
      <trkpt lat="45.61921" lon="6.76288">
        <ele>895</ele>
        <time>2000-01-01T09:03:19.000Z</time>
      </trkpt>
      <trkpt lat="45.61922" lon="6.76276">
        <ele>890.5</ele>
        <time>2000-01-01T09:03:29.000Z</time>
      </trkpt>
      <trkpt lat="45.61924" lon="6.76271">
        <ele>891</ele>
        <time>2000-01-01T09:03:39.000Z</time>
      </trkpt>
      <trkpt lat="45.61926" lon="6.76257">
        <ele>900</ele>
        <time>2000-01-01T09:03:49.000Z</time>
      </trkpt>
      <trkpt lat="45.6193" lon="6.76246">
        <ele>893.5</ele>
        <time>2000-01-01T09:03:59.000Z</time>
      </trkpt>
      <trkpt lat="45.61941" lon="6.76223">
        <ele>907</ele>
        <time>2000-01-01T09:04:09.000Z</time>
      </trkpt>
      <trkpt lat="45.61944" lon="6.76211">
        <ele>900</ele>
        <time>2000-01-01T09:04:19.000Z</time>
      </trkpt>
      <trkpt lat="45.61944" lon="6.76198">
        <ele>902.3</ele>
        <time>2000-01-01T09:04:29.000Z</time>
      </trkpt>
      <trkpt lat="45.61942" lon="6.76185">
        <ele>917</ele>
        <time>2000-01-01T09:04:39.000Z</time>
      </trkpt>
      <trkpt lat="45.61944" lon="6.76172">
        <ele>907.8</ele>
        <time>2000-01-01T09:04:49.000Z</time>
      </trkpt>
      <trkpt lat="45.61951" lon="6.76135">
        <ele>920</ele>
        <time>2000-01-01T09:04:59.000Z</time>
      </trkpt>
      <trkpt lat="45.61956" lon="6.76124">
        <ele>915.5</ele>
        <time>2000-01-01T09:05:09.000Z</time>
      </trkpt>
      <trkpt lat="45.61962" lon="6.76113">
        <ele>927</ele>
        <time>2000-01-01T09:05:19.000Z</time>
      </trkpt>
      <trkpt lat="45.61969" lon="6.76104">
        <ele>922.6</ele>
        <time>2000-01-01T09:05:29.000Z</time>
      </trkpt>
      <trkpt lat="45.61981" lon="6.7608">
        <ele>929</ele>
        <time>2000-01-01T09:05:39.000Z</time>
      </trkpt>
      <trkpt lat="45.61977" lon="6.76052">
        <ele>931</ele>
        <time>2000-01-01T09:05:49.000Z</time>
      </trkpt>
      <trkpt lat="45.61972" lon="6.76039">
        <ele>929.7</ele>
        <time>2000-01-01T09:05:59.000Z</time>
      </trkpt>
      <trkpt lat="45.61969" lon="6.76027">
        <ele>934</ele>
        <time>2000-01-01T09:06:09.000Z</time>
      </trkpt>
      <trkpt lat="45.61969" lon="6.76001">
        <ele>932.5</ele>
        <time>2000-01-01T09:06:19.000Z</time>
      </trkpt>
      <trkpt lat="45.6195" lon="6.7593">
        <ele>945</ele>
        <time>2000-01-01T09:06:29.000Z</time>
      </trkpt>
      <trkpt lat="45.61949" lon="6.75917">
        <ele>937.3</ele>
        <time>2000-01-01T09:06:39.000Z</time>
      </trkpt>
      <trkpt lat="45.61953" lon="6.75905">
        <ele>938.5</ele>
        <time>2000-01-01T09:06:49.000Z</time>
      </trkpt>
      <trkpt lat="45.61965" lon="6.75886">
        <ele>950</ele>
        <time>2000-01-01T09:06:59.000Z</time>
      </trkpt>
      <trkpt lat="45.61979" lon="6.7587">
        <ele>944.1</ele>
        <time>2000-01-01T09:07:09.000Z</time>
      </trkpt>
      <trkpt lat="45.61984" lon="6.75859">
        <ele>951</ele>
        <time>2000-01-01T09:07:19.000Z</time>
      </trkpt>
      <trkpt lat="45.61992" lon="6.75838">
        <ele>947.6</ele>
        <time>2000-01-01T09:07:29.000Z</time>
      </trkpt>
      <trkpt lat="45.61998" lon="6.75826">
        <ele>959</ele>
        <time>2000-01-01T09:07:39.000Z</time>
      </trkpt>
      <trkpt lat="45.62013" lon="6.75806">
        <ele>968</ele>
        <time>2000-01-01T09:07:49.000Z</time>
      </trkpt>
      <trkpt lat="45.62022" lon="6.75798">
        <ele>957</ele>
        <time>2000-01-01T09:07:59.000Z</time>
      </trkpt>
      <trkpt lat="45.62032" lon="6.75791">
        <ele>984</ele>
        <time>2000-01-01T09:08:09.000Z</time>
      </trkpt>
      <trkpt lat="45.62038" lon="6.75785">
        <ele>960.1</ele>
        <time>2000-01-01T09:08:19.000Z</time>
      </trkpt>
      <trkpt lat="45.62041" lon="6.7578">
        <ele>960.2</ele>
        <time>2000-01-01T09:08:29.000Z</time>
      </trkpt>
      <trkpt lat="45.62038" lon="6.75777">
        <ele>959.1</ele>
        <time>2000-01-01T09:08:39.000Z</time>
      </trkpt>
      <trkpt lat="45.62036" lon="6.75779">
        <ele>958.6</ele>
        <time>2000-01-01T09:08:49.000Z</time>
      </trkpt>
      <trkpt lat="45.62038" lon="6.7578">
        <ele>984</ele>
        <time>2000-01-01T09:08:59.000Z</time>
      </trkpt>
      <trkpt lat="45.62038" lon="6.75784">
        <ele>959.9</ele>
        <time>2000-01-01T09:09:09.000Z</time>
      </trkpt>
      <trkpt lat="45.62046" lon="6.75778">
        <ele>961.3</ele>
        <time>2000-01-01T09:09:19.000Z</time>
      </trkpt>
      <trkpt lat="45.62072" lon="6.75765">
        <ele>993</ele>
        <time>2000-01-01T09:09:29.000Z</time>
      </trkpt>
      <trkpt lat="45.62079" lon="6.75759">
        <ele>971.8</ele>
        <time>2000-01-01T09:09:39.000Z</time>
      </trkpt>
      <trkpt lat="45.62085" lon="6.75765">
        <ele>975.9</ele>
        <time>2000-01-01T09:09:49.000Z</time>
      </trkpt>
      <trkpt lat="45.62095" lon="6.75765">
        <ele>993</ele>
        <time>2000-01-01T09:09:59.000Z</time>
      </trkpt>
      <trkpt lat="45.621" lon="6.75788">
        <ele>987.4</ele>
        <time>2000-01-01T09:10:09.000Z</time>
      </trkpt>
      <trkpt lat="45.62106" lon="6.75779">
        <ele>1000</ele>
        <time>2000-01-01T09:10:19.000Z</time>
      </trkpt>
      <trkpt lat="45.62114" lon="6.75779">
        <ele>996</ele>
        <time>2000-01-01T09:10:29.000Z</time>
      </trkpt>
      <trkpt lat="45.62118" lon="6.7579">
        <ele>998.5</ele>
        <time>2000-01-01T09:10:39.000Z</time>
      </trkpt>
      <trkpt lat="45.62125" lon="6.758">
        <ele>1000</ele>
        <time>2000-01-01T09:10:49.000Z</time>
      </trkpt>
      <trkpt lat="45.62129" lon="6.7581">
        <ele>1005.9</ele>
        <time>2000-01-01T09:10:59.000Z</time>
      </trkpt>
      <trkpt lat="45.62132" lon="6.75822">
        <ele>1008.3</ele>
        <time>2000-01-01T09:11:09.000Z</time>
      </trkpt>
      <trkpt lat="45.62132" lon="6.75837">
        <ele>1020</ele>
        <time>2000-01-01T09:11:19.000Z</time>
      </trkpt>
      <trkpt lat="45.62133" lon="6.7585">
        <ele>1010.7</ele>
        <time>2000-01-01T09:11:29.000Z</time>
      </trkpt>
      <trkpt lat="45.62134" lon="6.75877">
        <ele>1022</ele>
        <time>2000-01-01T09:11:39.000Z</time>
      </trkpt>
      <trkpt lat="45.62133" lon="6.75889">
        <ele>1013</ele>
        <time>2000-01-01T09:11:49.000Z</time>
      </trkpt>
      <trkpt lat="45.62133" lon="6.75903">
        <ele>1013.4</ele>
        <time>2000-01-01T09:11:59.000Z</time>
      </trkpt>
      <trkpt lat="45.62136" lon="6.75917">
        <ele>1023</ele>
        <time>2000-01-01T09:12:09.000Z</time>
      </trkpt>
      <trkpt lat="45.62142" lon="6.75924">
        <ele>1019.5</ele>
        <time>2000-01-01T09:12:19.000Z</time>
      </trkpt>
      <trkpt lat="45.62144" lon="6.75913">
        <ele>1021.8</ele>
        <time>2000-01-01T09:12:29.000Z</time>
      </trkpt>
      <trkpt lat="45.62151" lon="6.75889">
        <ele>1022</ele>
        <time>2000-01-01T09:12:39.000Z</time>
      </trkpt>
      <trkpt lat="45.62155" lon="6.75862">
        <ele>1022</ele>
        <time>2000-01-01T09:12:49.000Z</time>
      </trkpt>
      <trkpt lat="45.62163" lon="6.7584">
        <ele>1035.1</ele>
        <time>2000-01-01T09:12:59.000Z</time>
      </trkpt>
      <trkpt lat="45.62168" lon="6.75828">
        <ele>1041</ele>
        <time>2000-01-01T09:13:09.000Z</time>
      </trkpt>
      <trkpt lat="45.62172" lon="6.75816">
        <ele>1039.5</ele>
        <time>2000-01-01T09:13:19.000Z</time>
      </trkpt>
      <trkpt lat="45.62173" lon="6.75803">
        <ele>1039.9</ele>
        <time>2000-01-01T09:13:29.000Z</time>
      </trkpt>
      <trkpt lat="45.62171" lon="6.75777">
        <ele>1045</ele>
        <time>2000-01-01T09:13:39.000Z</time>
      </trkpt>
      <trkpt lat="45.62174" lon="6.75765">
        <ele>1044.7</ele>
        <time>2000-01-01T09:13:49.000Z</time>
      </trkpt>
      <trkpt lat="45.62173" lon="6.75752">
        <ele>1045.1</ele>
        <time>2000-01-01T09:13:59.000Z</time>
      </trkpt>
      <trkpt lat="45.62169" lon="6.75739">
        <ele>1046</ele>
        <time>2000-01-01T09:14:09.000Z</time>
      </trkpt>
      <trkpt lat="45.62173" lon="6.75734">
        <ele>1047.9</ele>
        <time>2000-01-01T09:14:19.000Z</time>
      </trkpt>
      <trkpt lat="45.62187" lon="6.75753">
        <ele>1047</ele>
        <time>2000-01-01T09:14:29.000Z</time>
      </trkpt>
      <trkpt lat="45.62192" lon="6.75765">
        <ele>1057.7</ele>
        <time>2000-01-01T09:14:39.000Z</time>
      </trkpt>
      <trkpt lat="45.62207" lon="6.75781">
        <ele>1064</ele>
        <time>2000-01-01T09:14:49.000Z</time>
      </trkpt>
      <trkpt lat="45.62215" lon="6.75786">
        <ele>1071.6</ele>
        <time>2000-01-01T09:14:59.000Z</time>
      </trkpt>
      <trkpt lat="45.6222" lon="6.75793">
        <ele>1074.4</ele>
        <time>2000-01-01T09:15:09.000Z</time>
      </trkpt>
      <trkpt lat="45.62228" lon="6.75815">
        <ele>1080</ele>
        <time>2000-01-01T09:15:19.000Z</time>
      </trkpt>
      <trkpt lat="45.6223" lon="6.75828">
        <ele>1080.7</ele>
        <time>2000-01-01T09:15:29.000Z</time>
      </trkpt>
      <trkpt lat="45.62236" lon="6.75818">
        <ele>1085.2</ele>
        <time>2000-01-01T09:15:39.000Z</time>
      </trkpt>
      <trkpt lat="45.62239" lon="6.75807">
        <ele>1080</ele>
        <time>2000-01-01T09:15:49.000Z</time>
      </trkpt>
      <trkpt lat="45.62239" lon="6.75792">
        <ele>1089.2</ele>
        <time>2000-01-01T09:15:59.000Z</time>
      </trkpt>
      <trkpt lat="45.6224" lon="6.75779">
        <ele>1106</ele>
        <time>2000-01-01T09:16:09.000Z</time>
      </trkpt>
      <trkpt lat="45.62243" lon="6.75767">
        <ele>1093.9</ele>
        <time>2000-01-01T09:16:19.000Z</time>
      </trkpt>
      <trkpt lat="45.62248" lon="6.75756">
        <ele>1097.6</ele>
        <time>2000-01-01T09:16:29.000Z</time>
      </trkpt>
      <trkpt lat="45.62251" lon="6.75744">
        <ele>1106</ele>
        <time>2000-01-01T09:16:39.000Z</time>
      </trkpt>
      <trkpt lat="45.62251" lon="6.75754">
        <ele>1099.9</ele>
        <time>2000-01-01T09:16:49.000Z</time>
      </trkpt>
      <trkpt lat="45.62262" lon="6.75787">
        <ele>1106</ele>
        <time>2000-01-01T09:16:59.000Z</time>
      </trkpt>
      <trkpt lat="45.62268" lon="6.75796">
        <ele>1106.9</ele>
        <time>2000-01-01T09:17:09.000Z</time>
      </trkpt>
      <trkpt lat="45.62277" lon="6.75804">
        <ele>1111</ele>
        <time>2000-01-01T09:17:19.000Z</time>
      </trkpt>
      <trkpt lat="45.62294" lon="6.7581">
        <ele>1109.6</ele>
        <time>2000-01-01T09:17:29.000Z</time>
      </trkpt>
      <trkpt lat="45.62305" lon="6.75811">
        <ele>1112</ele>
        <time>2000-01-01T09:17:39.000Z</time>
      </trkpt>
      <trkpt lat="45.62314" lon="6.75815">
        <ele>1112.1</ele>
        <time>2000-01-01T09:17:49.000Z</time>
      </trkpt>
      <trkpt lat="45.62321" lon="6.75823">
        <ele>1112.7</ele>
        <time>2000-01-01T09:17:59.000Z</time>
      </trkpt>
      <trkpt lat="45.62328" lon="6.75821">
        <ele>1114</ele>
        <time>2000-01-01T09:18:09.000Z</time>
      </trkpt>
      <trkpt lat="45.62331" lon="6.75815">
        <ele>1117.8</ele>
        <time>2000-01-01T09:18:19.000Z</time>
      </trkpt>
      <trkpt lat="45.62325" lon="6.75809">
        <ele>1117.2</ele>
        <time>2000-01-01T09:18:29.000Z</time>
      </trkpt>
      <trkpt lat="45.62328" lon="6.75805">
        <ele>1119.3</ele>
        <time>2000-01-01T09:18:39.000Z</time>
      </trkpt>
      <trkpt lat="45.62345" lon="6.7581">
        <ele>1120</ele>
        <time>2000-01-01T09:18:49.000Z</time>
      </trkpt>
      <trkpt lat="45.62353" lon="6.75808">
        <ele>1132.5</ele>
        <time>2000-01-01T09:18:59.000Z</time>
      </trkpt>
      <trkpt lat="45.62359" lon="6.75821">
        <ele>1127</ele>
        <time>2000-01-01T09:19:09.000Z</time>
      </trkpt>
      <trkpt lat="45.62371" lon="6.75842">
        <ele>1127</ele>
        <time>2000-01-01T09:19:19.000Z</time>
      </trkpt>
      <trkpt lat="45.62378" lon="6.7585">
        <ele>1137.4</ele>
        <time>2000-01-01T09:19:29.000Z</time>
      </trkpt>
      <trkpt lat="45.62387" lon="6.75858">
        <ele>1138</ele>
        <time>2000-01-01T09:19:39.000Z</time>
      </trkpt>
      <trkpt lat="45.62395" lon="6.75858">
        <ele>1141.7</ele>
        <time>2000-01-01T09:19:49.000Z</time>
      </trkpt>
      <trkpt lat="45.62412" lon="6.7585">
        <ele>1160</ele>
        <time>2000-01-01T09:19:59.000Z</time>
      </trkpt>
      <trkpt lat="45.6242" lon="6.75856">
        <ele>1152.2</ele>
        <time>2000-01-01T09:20:09.000Z</time>
      </trkpt>
      <trkpt lat="45.62427" lon="6.75866">
        <ele>1160</ele>
        <time>2000-01-01T09:20:19.000Z</time>
      </trkpt>
      <trkpt lat="45.62446" lon="6.75876">
        <ele>1158</ele>
        <time>2000-01-01T09:20:29.000Z</time>
      </trkpt>
      <trkpt lat="45.62452" lon="6.75883">
        <ele>1164.8</ele>
        <time>2000-01-01T09:20:39.000Z</time>
      </trkpt>
      <trkpt lat="45.62452" lon="6.75897">
        <ele>1164.8</ele>
        <time>2000-01-01T09:20:49.000Z</time>
      </trkpt>
      <trkpt lat="45.62449" lon="6.7591">
        <ele>1157</ele>
        <time>2000-01-01T09:20:59.000Z</time>
      </trkpt>
      <trkpt lat="45.62449" lon="6.75922">
        <ele>1165.2</ele>
        <time>2000-01-01T09:21:09.000Z</time>
      </trkpt>
      <trkpt lat="45.62455" lon="6.75926">
        <ele>1167.9</ele>
        <time>2000-01-01T09:21:19.000Z</time>
      </trkpt>
      <trkpt lat="45.62457" lon="6.75917">
        <ele>1157</ele>
        <time>2000-01-01T09:21:29.000Z</time>
      </trkpt>
      <trkpt lat="45.62466" lon="6.75914">
        <ele>1175.3</ele>
        <time>2000-01-01T09:21:39.000Z</time>
      </trkpt>
      <trkpt lat="45.62479" lon="6.75886">
        <ele>1185</ele>
        <time>2000-01-01T09:21:49.000Z</time>
      </trkpt>
      <trkpt lat="45.62485" lon="6.75894">
        <ele>1186.9</ele>
        <time>2000-01-01T09:21:59.000Z</time>
      </trkpt>
      <trkpt lat="45.62488" lon="6.75906">
        <ele>1187.8</ele>
        <time>2000-01-01T09:22:09.000Z</time>
      </trkpt>
      <trkpt lat="45.62492" lon="6.75904">
        <ele>1210</ele>
        <time>2000-01-01T09:22:19.000Z</time>
      </trkpt>
      <trkpt lat="45.62496" lon="6.75895">
        <ele>1193.7</ele>
        <time>2000-01-01T09:22:29.000Z</time>
      </trkpt>
      <trkpt lat="45.62501" lon="6.75899">
        <ele>1196.2</ele>
        <time>2000-01-01T09:22:39.000Z</time>
      </trkpt>
      <trkpt lat="45.625" lon="6.75887">
        <ele>1210</ele>
        <time>2000-01-01T09:22:49.000Z</time>
      </trkpt>
      <trkpt lat="45.62509" lon="6.75883">
        <ele>1203.2</ele>
        <time>2000-01-01T09:22:59.000Z</time>
      </trkpt>
      <trkpt lat="45.62511" lon="6.75869">
        <ele>1218</ele>
        <time>2000-01-01T09:23:09.000Z</time>
      </trkpt>
      <trkpt lat="45.62517" lon="6.75866">
        <ele>1209.8</ele>
        <time>2000-01-01T09:23:19.000Z</time>
      </trkpt>
      <trkpt lat="45.62521" lon="6.75862">
        <ele>1213</ele>
        <time>2000-01-01T09:23:29.000Z</time>
      </trkpt>
      <trkpt lat="45.6253" lon="6.75827">
        <ele>1221</ele>
        <time>2000-01-01T09:23:39.000Z</time>
      </trkpt>
      <trkpt lat="45.62536" lon="6.75824">
        <ele>1223.7</ele>
        <time>2000-01-01T09:23:49.000Z</time>
      </trkpt>
      <trkpt lat="45.6254" lon="6.75829">
        <ele>1226.9</ele>
        <time>2000-01-01T09:23:59.000Z</time>
      </trkpt>
      <trkpt lat="45.62542" lon="6.75818">
        <ele>1225</ele>
        <time>2000-01-01T09:24:09.000Z</time>
      </trkpt>
      <trkpt lat="45.62559" lon="6.75787">
        <ele>1242</ele>
        <time>2000-01-01T09:24:19.000Z</time>
      </trkpt>
      <trkpt lat="45.62567" lon="6.75778">
        <ele>1241.4</ele>
        <time>2000-01-01T09:24:29.000Z</time>
      </trkpt>
      <trkpt lat="45.62578" lon="6.75757">
        <ele>1263</ele>
        <time>2000-01-01T09:24:39.000Z</time>
      </trkpt>
      <trkpt lat="45.62576" lon="6.75742">
        <ele>1251.4</ele>
        <time>2000-01-01T09:24:49.000Z</time>
      </trkpt>
      <trkpt lat="45.62571" lon="6.7573">
        <ele>1262</ele>
        <time>2000-01-01T09:24:59.000Z</time>
      </trkpt>
      <trkpt lat="45.62564" lon="6.757">
        <ele>1266</ele>
        <time>2000-01-01T09:25:09.000Z</time>
      </trkpt>
      <trkpt lat="45.62565" lon="6.75687">
        <ele>1264.8</ele>
        <time>2000-01-01T09:25:19.000Z</time>
      </trkpt>
      <trkpt lat="45.62569" lon="6.75689">
        <ele>1265.7</ele>
        <time>2000-01-01T09:25:29.000Z</time>
      </trkpt>
      <trkpt lat="45.6257" lon="6.7568">
        <ele>1271</ele>
        <time>2000-01-01T09:25:39.000Z</time>
      </trkpt>
      <trkpt lat="45.62576" lon="6.75682">
        <ele>1270.2</ele>
        <time>2000-01-01T09:25:49.000Z</time>
      </trkpt>
      <trkpt lat="45.62583" lon="6.75688">
        <ele>1271</ele>
        <time>2000-01-01T09:25:59.000Z</time>
      </trkpt>
      <trkpt lat="45.62592" lon="6.75688">
        <ele>1289</ele>
        <time>2000-01-01T09:26:09.000Z</time>
      </trkpt>
      <trkpt lat="45.62608" lon="6.75682">
        <ele>1284.6</ele>
        <time>2000-01-01T09:26:19.000Z</time>
      </trkpt>
      <trkpt lat="45.62617" lon="6.75687">
        <ele>1305</ele>
        <time>2000-01-01T09:26:29.000Z</time>
      </trkpt>
      <trkpt lat="45.62622" lon="6.75696">
        <ele>1287.8</ele>
        <time>2000-01-01T09:26:39.000Z</time>
      </trkpt>
      <trkpt lat="45.6263" lon="6.75703">
        <ele>1290.3</ele>
        <time>2000-01-01T09:26:49.000Z</time>
      </trkpt>
      <trkpt lat="45.62636" lon="6.75711">
        <ele>1305</ele>
        <time>2000-01-01T09:26:59.000Z</time>
      </trkpt>
      <trkpt lat="45.62642" lon="6.75721">
        <ele>1292.7</ele>
        <time>2000-01-01T09:27:09.000Z</time>
      </trkpt>
      <trkpt lat="45.62641" lon="6.75734">
        <ele>1293.8</ele>
        <time>2000-01-01T09:27:19.000Z</time>
      </trkpt>
      <trkpt lat="45.62637" lon="6.75746">
        <ele>1305</ele>
        <time>2000-01-01T09:27:29.000Z</time>
      </trkpt>
      <trkpt lat="45.62641" lon="6.75756">
        <ele>1297.9</ele>
        <time>2000-01-01T09:27:39.000Z</time>
      </trkpt>
      <trkpt lat="45.62647" lon="6.75757">
        <ele>1303.3</ele>
        <time>2000-01-01T09:27:49.000Z</time>
      </trkpt>
      <trkpt lat="45.62646" lon="6.7577">
        <ele>1302</ele>
        <time>2000-01-01T09:27:59.000Z</time>
      </trkpt>
      <trkpt lat="45.62646" lon="6.75783">
        <ele>1305.4</ele>
        <time>2000-01-01T09:28:09.000Z</time>
      </trkpt>
      <trkpt lat="45.6265" lon="6.75795">
        <ele>1308.4</ele>
        <time>2000-01-01T09:28:19.000Z</time>
      </trkpt>
      <trkpt lat="45.62654" lon="6.75794">
        <ele>1302</ele>
        <time>2000-01-01T09:28:29.000Z</time>
      </trkpt>
      <trkpt lat="45.62658" lon="6.75785">
        <ele>1314.4</ele>
        <time>2000-01-01T09:28:39.000Z</time>
      </trkpt>
      <trkpt lat="45.62663" lon="6.75782">
        <ele>1318.2</ele>
        <time>2000-01-01T09:28:49.000Z</time>
      </trkpt>
      <trkpt lat="45.62668" lon="6.75792">
        <ele>1315</ele>
        <time>2000-01-01T09:28:59.000Z</time>
      </trkpt>
      <trkpt lat="45.62673" lon="6.75792">
        <ele>1325.5</ele>
        <time>2000-01-01T09:29:09.000Z</time>
      </trkpt>
      <trkpt lat="45.62677" lon="6.75782">
        <ele>1327.9</ele>
        <time>2000-01-01T09:29:19.000Z</time>
      </trkpt>
      <trkpt lat="45.62678" lon="6.7577">
        <ele>1315</ele>
        <time>2000-01-01T09:29:29.000Z</time>
      </trkpt>
      <trkpt lat="45.62684" lon="6.75772">
        <ele>1332.7</ele>
        <time>2000-01-01T09:29:39.000Z</time>
      </trkpt>
      <trkpt lat="45.6269" lon="6.75782">
        <ele>1336.5</ele>
        <time>2000-01-01T09:29:49.000Z</time>
      </trkpt>
      <trkpt lat="45.62693" lon="6.7578">
        <ele>1338.3</ele>
        <time>2000-01-01T09:29:59.000Z</time>
      </trkpt>
      <trkpt lat="45.62697" lon="6.75773">
        <ele>1339</ele>
        <time>2000-01-01T09:30:09.000Z</time>
      </trkpt>
      <trkpt lat="45.627" lon="6.75785">
        <ele>1343.5</ele>
        <time>2000-01-01T09:30:19.000Z</time>
      </trkpt>
      <trkpt lat="45.62705" lon="6.75782">
        <ele>1346.7</ele>
        <time>2000-01-01T09:30:29.000Z</time>
      </trkpt>
      <trkpt lat="45.62708" lon="6.75793">
        <ele>1339</ele>
        <time>2000-01-01T09:30:39.000Z</time>
      </trkpt>
      <trkpt lat="45.62708" lon="6.75801">
        <ele>1348.8</ele>
        <time>2000-01-01T09:30:49.000Z</time>
      </trkpt>
      <trkpt lat="45.62715" lon="6.75795">
        <ele>1352.9</ele>
        <time>2000-01-01T09:30:59.000Z</time>
      </trkpt>
      <trkpt lat="45.62722" lon="6.75804">
        <ele>1362</ele>
        <time>2000-01-01T09:31:09.000Z</time>
      </trkpt>
      <trkpt lat="45.62729" lon="6.75811">
        <ele>1357.7</ele>
        <time>2000-01-01T09:31:19.000Z</time>
      </trkpt>
      <trkpt lat="45.62736" lon="6.7581">
        <ele>1360.8</ele>
        <time>2000-01-01T09:31:29.000Z</time>
      </trkpt>
      <trkpt lat="45.62739" lon="6.75804">
        <ele>1362</ele>
        <time>2000-01-01T09:31:39.000Z</time>
      </trkpt>
      <trkpt lat="45.62746" lon="6.75806">
        <ele>1366.1</ele>
        <time>2000-01-01T09:31:49.000Z</time>
      </trkpt>
      <trkpt lat="45.62752" lon="6.75802">
        <ele>1369.8</ele>
        <time>2000-01-01T09:31:59.000Z</time>
      </trkpt>
      <trkpt lat="45.62758" lon="6.758">
        <ele>1369</ele>
        <time>2000-01-01T09:32:09.000Z</time>
      </trkpt>
      <trkpt lat="45.62764" lon="6.75803">
        <ele>1373.9</ele>
        <time>2000-01-01T09:32:19.000Z</time>
      </trkpt>
      <trkpt lat="45.62768" lon="6.75801">
        <ele>1376</ele>
        <time>2000-01-01T09:32:29.000Z</time>
      </trkpt>
      <trkpt lat="45.62777" lon="6.758">
        <ele>1380</ele>
        <time>2000-01-01T09:32:39.000Z</time>
      </trkpt>
      <trkpt lat="45.62786" lon="6.75801">
        <ele>1382.3</ele>
        <time>2000-01-01T09:32:49.000Z</time>
      </trkpt>
      <trkpt lat="45.6279" lon="6.75796">
        <ele>1385.4</ele>
        <time>2000-01-01T09:32:59.000Z</time>
      </trkpt>
      <trkpt lat="45.62797" lon="6.75794">
        <ele>1380</ele>
        <time>2000-01-01T09:33:09.000Z</time>
      </trkpt>
      <trkpt lat="45.62806" lon="6.75798">
        <ele>1389.9</ele>
        <time>2000-01-01T09:33:19.000Z</time>
      </trkpt>
      <trkpt lat="45.62835" lon="6.75799">
        <ele>1420</ele>
        <time>2000-01-01T09:33:29.000Z</time>
      </trkpt>
      <trkpt lat="45.62844" lon="6.75796">
        <ele>1405.1</ele>
        <time>2000-01-01T09:33:39.000Z</time>
      </trkpt>
      <trkpt lat="45.62852" lon="6.75792">
        <ele>1410</ele>
        <time>2000-01-01T09:33:49.000Z</time>
      </trkpt>
      <trkpt lat="45.6287" lon="6.75793">
        <ele>1432</ele>
        <time>2000-01-01T09:33:59.000Z</time>
      </trkpt>
      <trkpt lat="45.62888" lon="6.75797">
        <ele>1416.4</ele>
        <time>2000-01-01T09:34:09.000Z</time>
      </trkpt>
      <trkpt lat="45.62896" lon="6.75801">
        <ele>1434</ele>
        <time>2000-01-01T09:34:19.000Z</time>
      </trkpt>
      <trkpt lat="45.62904" lon="6.75808">
        <ele>1415.8</ele>
        <time>2000-01-01T09:34:29.000Z</time>
      </trkpt>
      <trkpt lat="45.62911" lon="6.75804">
        <ele>1419.2</ele>
        <time>2000-01-01T09:34:39.000Z</time>
      </trkpt>
      <trkpt lat="45.62919" lon="6.75797">
        <ele>1450</ele>
        <time>2000-01-01T09:34:49.000Z</time>
      </trkpt>
      <trkpt lat="45.62927" lon="6.75794">
        <ele>1428.8</ele>
        <time>2000-01-01T09:34:59.000Z</time>
      </trkpt>
      <trkpt lat="45.62936" lon="6.75795">
        <ele>1430.6</ele>
        <time>2000-01-01T09:35:09.000Z</time>
      </trkpt>
      <trkpt lat="45.62944" lon="6.75793">
        <ele>1450</ele>
        <time>2000-01-01T09:35:19.000Z</time>
      </trkpt>
      <trkpt lat="45.62954" lon="6.75795">
        <ele>1436.3</ele>
        <time>2000-01-01T09:35:29.000Z</time>
      </trkpt>
      <trkpt lat="45.62978" lon="6.75811">
        <ele>1451</ele>
        <time>2000-01-01T09:35:39.000Z</time>
      </trkpt>
      <trkpt lat="45.62987" lon="6.75816">
        <ele>1442.4</ele>
        <time>2000-01-01T09:35:49.000Z</time>
      </trkpt>
      <trkpt lat="45.62997" lon="6.75818">
        <ele>1453</ele>
        <time>2000-01-01T09:35:59.000Z</time>
      </trkpt>
      <trkpt lat="45.63005" lon="6.75824">
        <ele>1446.8</ele>
        <time>2000-01-01T09:36:09.000Z</time>
      </trkpt>
      <trkpt lat="45.63021" lon="6.7582">
        <ele>1456</ele>
        <time>2000-01-01T09:36:19.000Z</time>
      </trkpt>
      <trkpt lat="45.63029" lon="6.75821">
        <ele>1454.6</ele>
        <time>2000-01-01T09:36:29.000Z</time>
      </trkpt>
      <trkpt lat="45.63038" lon="6.75828">
        <ele>1456.3</ele>
        <time>2000-01-01T09:36:39.000Z</time>
      </trkpt>
      <trkpt lat="45.63047" lon="6.75832">
        <ele>1456</ele>
        <time>2000-01-01T09:36:49.000Z</time>
      </trkpt>
      <trkpt lat="45.63055" lon="6.75838">
        <ele>1459.5</ele>
        <time>2000-01-01T09:36:59.000Z</time>
      </trkpt>
      <trkpt lat="45.63064" lon="6.75838">
        <ele>1459.9</ele>
        <time>2000-01-01T09:37:09.000Z</time>
      </trkpt>
      <trkpt lat="45.63066" lon="6.75826">
        <ele>1463</ele>
        <time>2000-01-01T09:37:19.000Z</time>
      </trkpt>
      <trkpt lat="45.63066" lon="6.75802">
        <ele>1470.7</ele>
        <time>2000-01-01T09:37:29.000Z</time>
      </trkpt>
      <trkpt lat="45.63071" lon="6.75794">
        <ele>1480</ele>
        <time>2000-01-01T09:37:39.000Z</time>
      </trkpt>
      <trkpt lat="45.63078" lon="6.7579">
        <ele>1478.5</ele>
        <time>2000-01-01T09:37:49.000Z</time>
      </trkpt>
      <trkpt lat="45.6307" lon="6.75781">
        <ele>1480.3</ele>
        <time>2000-01-01T09:37:59.000Z</time>
      </trkpt>
      <trkpt lat="45.63065" lon="6.75771">
        <ele>1498</ele>
        <time>2000-01-01T09:38:09.000Z</time>
      </trkpt>
      <trkpt lat="45.63056" lon="6.75748">
        <ele>1489.1</ele>
        <time>2000-01-01T09:38:19.000Z</time>
      </trkpt>
      <trkpt lat="45.6305" lon="6.75738">
        <ele>1522</ele>
        <time>2000-01-01T09:38:29.000Z</time>
      </trkpt>
      <trkpt lat="45.63047" lon="6.7573">
        <ele>1495.4</ele>
        <time>2000-01-01T09:38:39.000Z</time>
      </trkpt>
      <trkpt lat="45.63065" lon="6.75728">
        <ele>1524</ele>
        <time>2000-01-01T09:38:49.000Z</time>
      </trkpt>
      <trkpt lat="45.63091" lon="6.7573">
        <ele>1527</ele>
        <time>2000-01-01T09:38:59.000Z</time>
      </trkpt>
      <trkpt lat="45.63099" lon="6.75732">
        <ele>1511.4</ele>
        <time>2000-01-01T09:39:09.000Z</time>
      </trkpt>
      <trkpt lat="45.63126" lon="6.75728">
        <ele>1528</ele>
        <time>2000-01-01T09:39:19.000Z</time>
      </trkpt>
      <trkpt lat="45.63134" lon="6.75725">
        <ele>1522.5</ele>
        <time>2000-01-01T09:39:29.000Z</time>
      </trkpt>
      <trkpt lat="45.63143" lon="6.7572">
        <ele>1525.8</ele>
        <time>2000-01-01T09:39:39.000Z</time>
      </trkpt>
      <trkpt lat="45.63159" lon="6.75707">
        <ele>1533</ele>
        <time>2000-01-01T09:39:49.000Z</time>
      </trkpt>
      <trkpt lat="45.63167" lon="6.75698">
        <ele>1535.8</ele>
        <time>2000-01-01T09:39:59.000Z</time>
      </trkpt>
      <trkpt lat="45.63175" lon="6.75693">
        <ele>1538</ele>
        <time>2000-01-01T09:40:09.000Z</time>
      </trkpt>
      <trkpt lat="45.63182" lon="6.75684">
        <ele>1540.8</ele>
        <time>2000-01-01T09:40:19.000Z</time>
      </trkpt>
      <trkpt lat="45.63197" lon="6.75673">
        <ele>1553</ele>
        <time>2000-01-01T09:40:29.000Z</time>
      </trkpt>
      <trkpt lat="45.63203" lon="6.75665">
        <ele>1547.1</ele>
        <time>2000-01-01T09:40:39.000Z</time>
      </trkpt>
      <trkpt lat="45.63197" lon="6.75661">
        <ele>1549.1</ele>
        <time>2000-01-01T09:40:49.000Z</time>
      </trkpt>
      <trkpt lat="45.63201" lon="6.7565">
        <ele>1557</ele>
        <time>2000-01-01T09:40:59.000Z</time>
      </trkpt>
      <trkpt lat="45.63207" lon="6.7564">
        <ele>1557.5</ele>
        <time>2000-01-01T09:41:09.000Z</time>
      </trkpt>
      <trkpt lat="45.63212" lon="6.75629">
        <ele>1559.9</ele>
        <time>2000-01-01T09:41:19.000Z</time>
      </trkpt>
      <trkpt lat="45.63216" lon="6.75617">
        <ele>1578</ele>
        <time>2000-01-01T09:41:29.000Z</time>
      </trkpt>
      <trkpt lat="45.63233" lon="6.75609">
        <ele>1567.1</ele>
        <time>2000-01-01T09:41:39.000Z</time>
      </trkpt>
      <trkpt lat="45.63257" lon="6.75589">
        <ele>1579</ele>
        <time>2000-01-01T09:41:49.000Z</time>
      </trkpt>
      <trkpt lat="45.63265" lon="6.75584">
        <ele>1575.1</ele>
        <time>2000-01-01T09:41:59.000Z</time>
      </trkpt>
      <trkpt lat="45.63272" lon="6.75576">
        <ele>1577.6</ele>
        <time>2000-01-01T09:42:09.000Z</time>
      </trkpt>
      <trkpt lat="45.63284" lon="6.75556">
        <ele>1586</ele>
        <time>2000-01-01T09:42:19.000Z</time>
      </trkpt>
      <trkpt lat="45.63282" lon="6.75551">
        <ele>1586.9</ele>
        <time>2000-01-01T09:42:29.000Z</time>
      </trkpt>
      <trkpt lat="45.63256" lon="6.75539">
        <ele>1587</ele>
        <time>2000-01-01T09:42:39.000Z</time>
      </trkpt>
      <trkpt lat="45.63248" lon="6.75534">
        <ele>1599.7</ele>
        <time>2000-01-01T09:42:49.000Z</time>
      </trkpt>
      <trkpt lat="45.63227" lon="6.7551">
        <ele>1603</ele>
        <time>2000-01-01T09:42:59.000Z</time>
      </trkpt>
      <trkpt lat="45.63211" lon="6.75495">
        <ele>1603</ele>
        <time>2000-01-01T09:43:09.000Z</time>
      </trkpt>
      <trkpt lat="45.63194" lon="6.75483">
        <ele>1612</ele>
        <time>2000-01-01T09:43:19.000Z</time>
      </trkpt>
      <trkpt lat="45.63186" lon="6.75475">
        <ele>1619.5</ele>
        <time>2000-01-01T09:43:29.000Z</time>
      </trkpt>
      <trkpt lat="45.63186" lon="6.75467">
        <ele>1622.8</ele>
        <time>2000-01-01T09:43:39.000Z</time>
      </trkpt>
      <trkpt lat="45.63194" lon="6.75463">
        <ele>1612</ele>
        <time>2000-01-01T09:43:49.000Z</time>
      </trkpt>
      <trkpt lat="45.6322" lon="6.75454">
        <ele>1631</ele>
        <time>2000-01-01T09:43:59.000Z</time>
      </trkpt>
      <trkpt lat="45.63237" lon="6.75446">
        <ele>1637</ele>
        <time>2000-01-01T09:44:09.000Z</time>
      </trkpt>
      <trkpt lat="45.63246" lon="6.75444">
        <ele>1634</ele>
        <time>2000-01-01T09:44:19.000Z</time>
      </trkpt>
      <trkpt lat="45.63255" lon="6.75438">
        <ele>1641.4</ele>
        <time>2000-01-01T09:44:29.000Z</time>
      </trkpt>
      <trkpt lat="45.63263" lon="6.75434">
        <ele>1643.6</ele>
        <time>2000-01-01T09:44:39.000Z</time>
      </trkpt>
      <trkpt lat="45.63271" lon="6.75429">
        <ele>1654</ele>
        <time>2000-01-01T09:44:49.000Z</time>
      </trkpt>
      <trkpt lat="45.63292" lon="6.75403">
        <ele>1663</ele>
        <time>2000-01-01T09:44:59.000Z</time>
      </trkpt>
      <trkpt lat="45.63298" lon="6.75393">
        <ele>1659.8</ele>
        <time>2000-01-01T09:45:09.000Z</time>
      </trkpt>
      <trkpt lat="45.63299" lon="6.7538">
        <ele>1662.1</ele>
        <time>2000-01-01T09:45:19.000Z</time>
      </trkpt>
      <trkpt lat="45.63298" lon="6.75367">
        <ele>1669</ele>
        <time>2000-01-01T09:45:29.000Z</time>
      </trkpt>
      <trkpt lat="45.633" lon="6.75353">
        <ele>1666</ele>
        <time>2000-01-01T09:45:39.000Z</time>
      </trkpt>
      <trkpt lat="45.63306" lon="6.7533">
        <ele>1680</ele>
        <time>2000-01-01T09:45:49.000Z</time>
      </trkpt>
      <trkpt lat="45.63306" lon="6.75316">
        <ele>1671.6</ele>
        <time>2000-01-01T09:45:59.000Z</time>
      </trkpt>
      <trkpt lat="45.63307" lon="6.75303">
        <ele>1684</ele>
        <time>2000-01-01T09:46:09.000Z</time>
      </trkpt>
      <trkpt lat="45.63304" lon="6.75291">
        <ele>1674.9</ele>
        <time>2000-01-01T09:46:19.000Z</time>
      </trkpt>
      <trkpt lat="45.63303" lon="6.75278">
        <ele>1676.7</ele>
        <time>2000-01-01T09:46:29.000Z</time>
      </trkpt>
      <trkpt lat="45.63303" lon="6.75266">
        <ele>1685</ele>
        <time>2000-01-01T09:46:39.000Z</time>
      </trkpt>
      <trkpt lat="45.63306" lon="6.75254">
        <ele>1682.3</ele>
        <time>2000-01-01T09:46:49.000Z</time>
      </trkpt>
      <trkpt lat="45.63307" lon="6.75242">
        <ele>1686.1</ele>
        <time>2000-01-01T09:46:59.000Z</time>
      </trkpt>
      <trkpt lat="45.63304" lon="6.75204">
        <ele>1696</ele>
        <time>2000-01-01T09:47:09.000Z</time>
      </trkpt>
      <trkpt lat="45.63305" lon="6.7519">
        <ele>1701.3</ele>
        <time>2000-01-01T09:47:19.000Z</time>
      </trkpt>
      <trkpt lat="45.63319" lon="6.75195">
        <ele>1696</ele>
        <time>2000-01-01T09:47:29.000Z</time>
      </trkpt>
      <trkpt lat="45.63328" lon="6.75196">
        <ele>1706.1</ele>
        <time>2000-01-01T09:47:39.000Z</time>
      </trkpt>
      <trkpt lat="45.63347" lon="6.75196">
        <ele>1710</ele>
        <time>2000-01-01T09:47:49.000Z</time>
      </trkpt>
      <trkpt lat="45.63366" lon="6.752">
        <ele>1719</ele>
        <time>2000-01-01T09:47:59.000Z</time>
      </trkpt>
      <trkpt lat="45.63375" lon="6.75198">
        <ele>1714.5</ele>
        <time>2000-01-01T09:48:09.000Z</time>
      </trkpt>
      <trkpt lat="45.63384" lon="6.75195">
        <ele>1717</ele>
        <time>2000-01-01T09:48:19.000Z</time>
      </trkpt>
      <trkpt lat="45.63392" lon="6.75188">
        <ele>1724</ele>
        <time>2000-01-01T09:48:29.000Z</time>
      </trkpt>
      <trkpt lat="45.63406" lon="6.75169">
        <ele>1724</ele>
        <time>2000-01-01T09:48:39.000Z</time>
      </trkpt>
      <trkpt lat="45.63414" lon="6.75148">
        <ele>1731.5</ele>
        <time>2000-01-01T09:48:49.000Z</time>
      </trkpt>
      <trkpt lat="45.63417" lon="6.75138">
        <ele>1733</ele>
        <time>2000-01-01T09:48:59.000Z</time>
      </trkpt>
      <trkpt lat="45.63408" lon="6.75133">
        <ele>1736</ele>
        <time>2000-01-01T09:49:09.000Z</time>
      </trkpt>
      <trkpt lat="45.63404" lon="6.75123">
        <ele>1738.4</ele>
        <time>2000-01-01T09:49:19.000Z</time>
      </trkpt>
      <trkpt lat="45.63414" lon="6.75101">
        <ele>1739</ele>
        <time>2000-01-01T09:49:29.000Z</time>
      </trkpt>
      <trkpt lat="45.63412" lon="6.7509">
        <ele>1745.6</ele>
        <time>2000-01-01T09:49:39.000Z</time>
      </trkpt>
      <trkpt lat="45.63405" lon="6.7508">
        <ele>1747.9</ele>
        <time>2000-01-01T09:49:49.000Z</time>
      </trkpt>
      <trkpt lat="45.63405" lon="6.75069">
        <ele>1750</ele>
        <time>2000-01-01T09:49:59.000Z</time>
      </trkpt>
      <trkpt lat="45.6341" lon="6.75059">
        <ele>1753.1</ele>
        <time>2000-01-01T09:50:09.000Z</time>
      </trkpt>
      <trkpt lat="45.63416" lon="6.75049">
        <ele>1755</ele>
        <time>2000-01-01T09:50:19.000Z</time>
      </trkpt>
      <trkpt lat="45.6342" lon="6.75038">
        <ele>1753</ele>
        <time>2000-01-01T09:50:29.000Z</time>
      </trkpt>
      <trkpt lat="45.63436" lon="6.75027">
        <ele>1761.9</ele>
        <time>2000-01-01T09:50:39.000Z</time>
      </trkpt>
      <trkpt lat="45.63445" lon="6.75026">
        <ele>1757</ele>
        <time>2000-01-01T09:50:49.000Z</time>
      </trkpt>
      <trkpt lat="45.63454" lon="6.75022">
        <ele>1764.6</ele>
        <time>2000-01-01T09:50:59.000Z</time>
      </trkpt>
      <trkpt lat="45.63463" lon="6.75016">
        <ele>1771</ele>
        <time>2000-01-01T09:51:09.000Z</time>
      </trkpt>
      <trkpt lat="45.6347" lon="6.75009">
        <ele>1769.9</ele>
        <time>2000-01-01T09:51:19.000Z</time>
      </trkpt>
      <trkpt lat="45.63475" lon="6.74999">
        <ele>1773.3</ele>
        <time>2000-01-01T09:51:29.000Z</time>
      </trkpt>
      <trkpt lat="45.63481" lon="6.7499">
        <ele>1771</ele>
        <time>2000-01-01T09:51:39.000Z</time>
      </trkpt>
      <trkpt lat="45.63487" lon="6.74979">
        <ele>1778.9</ele>
        <time>2000-01-01T09:51:49.000Z</time>
      </trkpt>
      <trkpt lat="45.63491" lon="6.74968">
        <ele>1782.1</ele>
        <time>2000-01-01T09:51:59.000Z</time>
      </trkpt>
      <trkpt lat="45.6349" lon="6.74955">
        <ele>1780</ele>
        <time>2000-01-01T09:52:09.000Z</time>
      </trkpt>
      <trkpt lat="45.6348" lon="6.74934">
        <ele>1788.9</ele>
        <time>2000-01-01T09:52:19.000Z</time>
      </trkpt>
      <trkpt lat="45.63476" lon="6.74921">
        <ele>1791</ele>
        <time>2000-01-01T09:52:29.000Z</time>
      </trkpt>
      <trkpt lat="45.63471" lon="6.74896">
        <ele>1795.5</ele>
        <time>2000-01-01T09:52:39.000Z</time>
      </trkpt>
      <trkpt lat="45.6347" lon="6.74883">
        <ele>1796</ele>
        <time>2000-01-01T09:52:49.000Z</time>
      </trkpt>
      <trkpt lat="45.63479" lon="6.74882">
        <ele>1799.5</ele>
        <time>2000-01-01T09:52:59.000Z</time>
      </trkpt>
      <trkpt lat="45.63488" lon="6.7488">
        <ele>1801</ele>
        <time>2000-01-01T09:53:09.000Z</time>
      </trkpt>
      <trkpt lat="45.63493" lon="6.7487">
        <ele>1804</ele>
        <time>2000-01-01T09:53:19.000Z</time>
      </trkpt>
      <trkpt lat="45.63494" lon="6.74857">
        <ele>1805.9</ele>
        <time>2000-01-01T09:53:29.000Z</time>
      </trkpt>
      <trkpt lat="45.6349" lon="6.74845">
        <ele>1809.1</ele>
        <time>2000-01-01T09:53:39.000Z</time>
      </trkpt>
      <trkpt lat="45.63484" lon="6.74836">
        <ele>1806</ele>
        <time>2000-01-01T09:53:49.000Z</time>
      </trkpt>
      <trkpt lat="45.63474" lon="6.74833">
        <ele>1813.1</ele>
        <time>2000-01-01T09:53:59.000Z</time>
      </trkpt>
      <trkpt lat="45.63468" lon="6.74825">
        <ele>1815.4</ele>
        <time>2000-01-01T09:54:09.000Z</time>
      </trkpt>
      <trkpt lat="45.63463" lon="6.74815">
        <ele>1813</ele>
        <time>2000-01-01T09:54:19.000Z</time>
      </trkpt>
      <trkpt lat="45.63464" lon="6.74804">
        <ele>1820.9</ele>
        <time>2000-01-01T09:54:29.000Z</time>
      </trkpt>
      <trkpt lat="45.63469" lon="6.74794">
        <ele>1824</ele>
        <time>2000-01-01T09:54:39.000Z</time>
      </trkpt>
      <trkpt lat="45.63477" lon="6.74786">
        <ele>1819</ele>
        <time>2000-01-01T09:54:49.000Z</time>
      </trkpt>
      <trkpt lat="45.63485" lon="6.7478">
        <ele>1830.5</ele>
        <time>2000-01-01T09:54:59.000Z</time>
      </trkpt>
      <trkpt lat="45.63492" lon="6.74772">
        <ele>1833.7</ele>
        <time>2000-01-01T09:55:09.000Z</time>
      </trkpt>
      <trkpt lat="45.63511" lon="6.74741">
        <ele>1834</ele>
        <time>2000-01-01T09:55:19.000Z</time>
      </trkpt>
      <trkpt lat="45.63516" lon="6.7473">
        <ele>1845.5</ele>
        <time>2000-01-01T09:55:29.000Z</time>
      </trkpt>
      <trkpt lat="45.63532" lon="6.74686">
        <ele>1843</ele>
        <time>2000-01-01T09:55:39.000Z</time>
      </trkpt>
      <trkpt lat="45.63539" lon="6.74664">
        <ele>1864.3</ele>
        <time>2000-01-01T09:55:49.000Z</time>
      </trkpt>
      <trkpt lat="45.63544" lon="6.74655">
        <ele>1844</ele>
        <time>2000-01-01T09:55:59.000Z</time>
      </trkpt>
      <trkpt lat="45.63547" lon="6.74643">
        <ele>1871.9</ele>
        <time>2000-01-01T09:56:09.000Z</time>
      </trkpt>
      <trkpt lat="45.63553" lon="6.74633">
        <ele>1875.9</ele>
        <time>2000-01-01T09:56:19.000Z</time>
      </trkpt>
      <trkpt lat="45.63555" lon="6.74621">
        <ele>1862</ele>
        <time>2000-01-01T09:56:29.000Z</time>
      </trkpt>
      <trkpt lat="45.63559" lon="6.74608">
        <ele>1880.9</ele>
        <time>2000-01-01T09:56:39.000Z</time>
      </trkpt>
      <trkpt lat="45.63565" lon="6.74603">
        <ele>1883</ele>
        <time>2000-01-01T09:56:49.000Z</time>
      </trkpt>
      <trkpt lat="45.63571" lon="6.74596">
        <ele>1879</ele>
        <time>2000-01-01T09:56:59.000Z</time>
      </trkpt>
      <trkpt lat="45.6358" lon="6.74596">
        <ele>1890.1</ele>
        <time>2000-01-01T09:57:09.000Z</time>
      </trkpt>
      <trkpt lat="45.63589" lon="6.74593">
        <ele>1893.9</ele>
        <time>2000-01-01T09:57:19.000Z</time>
      </trkpt>
      <trkpt lat="45.63596" lon="6.74586">
        <ele>1879</ele>
        <time>2000-01-01T09:57:29.000Z</time>
      </trkpt>
      <trkpt lat="45.63603" lon="6.74582">
        <ele>1900.5</ele>
        <time>2000-01-01T09:57:39.000Z</time>
      </trkpt>
      <trkpt lat="45.63621" lon="6.74584">
        <ele>1884</ele>
        <time>2000-01-01T09:57:49.000Z</time>
      </trkpt>
      <trkpt lat="45.63628" lon="6.74576">
        <ele>1907.1</ele>
        <time>2000-01-01T09:57:59.000Z</time>
      </trkpt>
      <trkpt lat="45.63631" lon="6.74562">
        <ele>1909</ele>
        <time>2000-01-01T09:58:09.000Z</time>
      </trkpt>
      <trkpt lat="45.63629" lon="6.74549">
        <ele>1913.1</ele>
        <time>2000-01-01T09:58:19.000Z</time>
      </trkpt>
      <trkpt lat="45.63629" lon="6.74536">
        <ele>1914.9</ele>
        <time>2000-01-01T09:58:29.000Z</time>
      </trkpt>
      <trkpt lat="45.63632" lon="6.74497">
        <ele>1910</ele>
        <time>2000-01-01T09:58:39.000Z</time>
      </trkpt>
      <trkpt lat="45.63632" lon="6.74485">
        <ele>1926.5</ele>
        <time>2000-01-01T09:58:49.000Z</time>
      </trkpt>
      <trkpt lat="45.63633" lon="6.74473">
        <ele>1929.8</ele>
        <time>2000-01-01T09:58:59.000Z</time>
      </trkpt>
      <trkpt lat="45.63632" lon="6.74448">
        <ele>1911</ele>
        <time>2000-01-01T09:59:09.000Z</time>
      </trkpt>
      <trkpt lat="45.63635" lon="6.74439">
        <ele>1939.8</ele>
        <time>2000-01-01T09:59:19.000Z</time>
      </trkpt>
      <trkpt lat="45.63649" lon="6.74423">
        <ele>1912</ele>
        <time>2000-01-01T09:59:29.000Z</time>
      </trkpt>
      <trkpt lat="45.63672" lon="6.74402">
        <ele>1921</ele>
        <time>2000-01-01T09:59:39.000Z</time>
      </trkpt>
      <trkpt lat="45.63681" lon="6.74398">
        <ele>1953.9</ele>
        <time>2000-01-01T09:59:49.000Z</time>
      </trkpt>
      <trkpt lat="45.63688" lon="6.74392">
        <ele>1957.8</ele>
        <time>2000-01-01T09:59:59.000Z</time>
      </trkpt>
      <trkpt lat="45.63703" lon="6.74377">
        <ele>1937</ele>
        <time>2000-01-01T10:00:09.000Z</time>
      </trkpt>
      <trkpt lat="45.63709" lon="6.74368">
        <ele>1966.3</ele>
        <time>2000-01-01T10:00:19.000Z</time>
      </trkpt>
      <trkpt lat="45.63741" lon="6.74342">
        <ele>1980</ele>
        <time>2000-01-01T10:00:29.000Z</time>
      </trkpt>
      <trkpt lat="45.63778" lon="6.74301">
        <ele>1984</ele>
        <time>2000-01-01T10:00:39.000Z</time>
      </trkpt>
      <trkpt lat="45.63786" lon="6.74294">
        <ele>1986.9</ele>
        <time>2000-01-01T10:00:49.000Z</time>
      </trkpt>
      <trkpt lat="45.63792" lon="6.74284">
        <ele>1986.2</ele>
        <time>2000-01-01T10:00:59.000Z</time>
      </trkpt>
      <trkpt lat="45.63802" lon="6.74262">
        <ele>1984</ele>
        <time>2000-01-01T10:01:09.000Z</time>
      </trkpt>
      <trkpt lat="45.63807" lon="6.74267">
        <ele>1990.9</ele>
        <time>2000-01-01T10:01:19.000Z</time>
      </trkpt>
      <trkpt lat="45.63808" lon="6.7427">
        <ele>1990.8</ele>
        <time>2000-01-01T10:01:29.000Z</time>
      </trkpt>
      <trkpt lat="45.63807" lon="6.74259">
        <ele>1990.9</ele>
        <time>2000-01-01T10:01:39.000Z</time>
      </trkpt>
      <trkpt lat="45.63808" lon="6.74262">
        <ele>1990.8</ele>
        <time>2000-01-01T10:01:49.000Z</time>
      </trkpt>
      <trkpt lat="45.63807" lon="6.74262">
        <ele>1984</ele>
        <time>2000-01-01T10:01:59.000Z</time>
      </trkpt>
      <trkpt lat="45.63809" lon="6.7426">
        <ele>1990.8</ele>
        <time>2000-01-01T10:02:09.000Z</time>
      </trkpt>
      <trkpt lat="45.63809" lon="6.74249">
        <ele>1990.5</ele>
        <time>2000-01-01T10:02:19.000Z</time>
      </trkpt>
      <trkpt lat="45.63821" lon="6.7423">
        <ele>1972</ele>
        <time>2000-01-01T10:02:29.000Z</time>
      </trkpt>
      <trkpt lat="45.63829" lon="6.74223">
        <ele>1985.1</ele>
        <time>2000-01-01T10:02:39.000Z</time>
      </trkpt>
      <trkpt lat="45.63835" lon="6.74214">
        <ele>1984</ele>
        <time>2000-01-01T10:02:49.000Z</time>
      </trkpt>
      <trkpt lat="45.63851" lon="6.74178">
        <ele>1969</ele>
        <time>2000-01-01T10:02:59.000Z</time>
      </trkpt>
      <trkpt lat="45.63866" lon="6.74147">
        <ele>1966</ele>
        <time>2000-01-01T10:03:09.000Z</time>
      </trkpt>
      <trkpt lat="45.63867" lon="6.74134">
        <ele>1983.5</ele>
        <time>2000-01-01T10:03:19.000Z</time>
      </trkpt>
      <trkpt lat="45.63873" lon="6.74122">
        <ele>1964</ele>
        <time>2000-01-01T10:03:29.000Z</time>
      </trkpt>
      <trkpt lat="45.63881" lon="6.74114">
        <ele>1986.4</ele>
        <time>2000-01-01T10:03:39.000Z</time>
      </trkpt>
      <trkpt lat="45.63903" lon="6.74087">
        <ele>1964</ele>
        <time>2000-01-01T10:03:49.000Z</time>
      </trkpt>
      <trkpt lat="45.6391" lon="6.7408">
        <ele>1988.5</ele>
        <time>2000-01-01T10:03:59.000Z</time>
      </trkpt>
      <trkpt lat="45.63917" lon="6.74069">
        <ele>1973</ele>
        <time>2000-01-01T10:04:09.000Z</time>
      </trkpt>
      <trkpt lat="45.63922" lon="6.74058">
        <ele>1988.8</ele>
        <time>2000-01-01T10:04:19.000Z</time>
      </trkpt>
      <trkpt lat="45.6393" lon="6.74021">
        <ele>1977</ele>
        <time>2000-01-01T10:04:29.000Z</time>
      </trkpt>
      <trkpt lat="45.63934" lon="6.74009">
        <ele>1993</ele>
        <time>2000-01-01T10:04:39.000Z</time>
      </trkpt>
      <trkpt lat="45.63944" lon="6.73986">
        <ele>1991</ele>
        <time>2000-01-01T10:04:49.000Z</time>
      </trkpt>
      <trkpt lat="45.63948" lon="6.73974">
        <ele>1995.8</ele>
        <time>2000-01-01T10:04:59.000Z</time>
      </trkpt>
      <trkpt lat="45.63951" lon="6.7396">
        <ele>1991</ele>
        <time>2000-01-01T10:05:09.000Z</time>
      </trkpt>
      <trkpt lat="45.63951" lon="6.73947">
        <ele>1999.3</ele>
        <time>2000-01-01T10:05:19.000Z</time>
      </trkpt>
      <trkpt lat="45.63956" lon="6.73943">
        <ele>2002.3</ele>
        <time>2000-01-01T10:05:29.000Z</time>
      </trkpt>
      <trkpt lat="45.63961" lon="6.73955">
        <ele>2000</ele>
        <time>2000-01-01T10:05:39.000Z</time>
      </trkpt>
      <trkpt lat="45.63968" lon="6.73963">
        <ele>2006.3</ele>
        <time>2000-01-01T10:05:49.000Z</time>
      </trkpt>
      <trkpt lat="45.63976" lon="6.73966">
        <ele>2008.4</ele>
        <time>2000-01-01T10:05:59.000Z</time>
      </trkpt>
      <trkpt lat="45.63981" lon="6.73959">
        <ele>2000</ele>
        <time>2000-01-01T10:06:09.000Z</time>
      </trkpt>
      <trkpt lat="45.63978" lon="6.73947">
        <ele>2011.8</ele>
        <time>2000-01-01T10:06:19.000Z</time>
      </trkpt>
      <trkpt lat="45.63978" lon="6.73934">
        <ele>2013.2</ele>
        <time>2000-01-01T10:06:29.000Z</time>
      </trkpt>
      <trkpt lat="45.63983" lon="6.73896">
        <ele>2011</ele>
        <time>2000-01-01T10:06:39.000Z</time>
      </trkpt>
      <trkpt lat="45.63984" lon="6.73882">
        <ele>2021.8</ele>
        <time>2000-01-01T10:06:49.000Z</time>
      </trkpt>
      <trkpt lat="45.63987" lon="6.7387">
        <ele>2024.5</ele>
        <time>2000-01-01T10:06:59.000Z</time>
      </trkpt>
      <trkpt lat="45.63995" lon="6.73847">
        <ele>2031</ele>
        <time>2000-01-01T10:07:09.000Z</time>
      </trkpt>
      <trkpt lat="45.63998" lon="6.73835">
        <ele>2032.9</ele>
        <time>2000-01-01T10:07:19.000Z</time>
      </trkpt>
      <trkpt lat="45.64002" lon="6.73824">
        <ele>2035.2</ele>
        <time>2000-01-01T10:07:29.000Z</time>
      </trkpt>
      <trkpt lat="45.64009" lon="6.73818">
        <ele>2036</ele>
        <time>2000-01-01T10:07:39.000Z</time>
      </trkpt>
      <trkpt lat="45.64014" lon="6.73808">
        <ele>2041.9</ele>
        <time>2000-01-01T10:07:49.000Z</time>
      </trkpt>
      <trkpt lat="45.64019" lon="6.73796">
        <ele>2044.6</ele>
        <time>2000-01-01T10:07:59.000Z</time>
      </trkpt>
      <trkpt lat="45.64022" lon="6.73784">
        <ele>2046</ele>
        <time>2000-01-01T10:08:09.000Z</time>
      </trkpt>
      <trkpt lat="45.64027" lon="6.73772">
        <ele>2048.7</ele>
        <time>2000-01-01T10:08:19.000Z</time>
      </trkpt>
      <trkpt lat="45.64043" lon="6.73741">
        <ele>2050</ele>
        <time>2000-01-01T10:08:29.000Z</time>
      </trkpt>
      <trkpt lat="45.64047" lon="6.73729">
        <ele>2055.7</ele>
        <time>2000-01-01T10:08:39.000Z</time>
      </trkpt>
      <trkpt lat="45.64074" lon="6.73676">
        <ele>2071</ele>
        <time>2000-01-01T10:08:49.000Z</time>
      </trkpt>
      <trkpt lat="45.64079" lon="6.73649">
        <ele>2074</ele>
        <time>2000-01-01T10:08:59.000Z</time>
      </trkpt>
      <trkpt lat="45.64076" lon="6.73637">
        <ele>2072.4</ele>
        <time>2000-01-01T10:09:09.000Z</time>
      </trkpt>
      <trkpt lat="45.64074" lon="6.73624">
        <ele>2074</ele>
        <time>2000-01-01T10:09:19.000Z</time>
      </trkpt>
      <trkpt lat="45.64076" lon="6.73611">
        <ele>2077</ele>
        <time>2000-01-01T10:09:29.000Z</time>
      </trkpt>
      <trkpt lat="45.6408" lon="6.736">
        <ele>2081.5</ele>
        <time>2000-01-01T10:09:39.000Z</time>
      </trkpt>
      <trkpt lat="45.64087" lon="6.73564">
        <ele>2078</ele>
        <time>2000-01-01T10:09:49.000Z</time>
      </trkpt>
      <trkpt lat="45.64087" lon="6.73551">
        <ele>2089</ele>
        <time>2000-01-01T10:09:59.000Z</time>
      </trkpt>
      <trkpt lat="45.64088" lon="6.73538">
        <ele>2090.6</ele>
        <time>2000-01-01T10:10:09.000Z</time>
      </trkpt>
      <trkpt lat="45.64092" lon="6.73526">
        <ele>2080</ele>
        <time>2000-01-01T10:10:19.000Z</time>
      </trkpt>
      <trkpt lat="45.64097" lon="6.73501">
        <ele>2095.8</ele>
        <time>2000-01-01T10:10:29.000Z</time>
      </trkpt>
      <trkpt lat="45.64101" lon="6.73475">
        <ele>2103</ele>
        <time>2000-01-01T10:10:39.000Z</time>
      </trkpt>
      <trkpt lat="45.64109" lon="6.73471">
        <ele>2105.6</ele>
        <time>2000-01-01T10:10:49.000Z</time>
      </trkpt>
      <trkpt lat="45.64117" lon="6.73476">
        <ele>2106.5</ele>
        <time>2000-01-01T10:10:59.000Z</time>
      </trkpt>
      <trkpt lat="45.64135" lon="6.73484">
        <ele>2112</ele>
        <time>2000-01-01T10:11:09.000Z</time>
      </trkpt>
      <trkpt lat="45.64164" lon="6.73499">
        <ele>2121</ele>
        <time>2000-01-01T10:11:19.000Z</time>
      </trkpt>
      <trkpt lat="45.64173" lon="6.73502">
        <ele>2112.7</ele>
        <time>2000-01-01T10:11:29.000Z</time>
      </trkpt>
      <trkpt lat="45.64194" lon="6.73501">
        <ele>2121</ele>
        <time>2000-01-01T10:11:39.000Z</time>
      </trkpt>
      <trkpt lat="45.64203" lon="6.73504">
        <ele>2118</ele>
        <time>2000-01-01T10:11:49.000Z</time>
      </trkpt>
      <trkpt lat="45.64219" lon="6.73516">
        <ele>2121</ele>
        <time>2000-01-01T10:11:59.000Z</time>
      </trkpt>
      <trkpt lat="45.64236" lon="6.73524">
        <ele>2123.9</ele>
        <time>2000-01-01T10:12:09.000Z</time>
      </trkpt>
      <trkpt lat="45.64245" lon="6.73526">
        <ele>2114</ele>
        <time>2000-01-01T10:12:19.000Z</time>
      </trkpt>
      <trkpt lat="45.64254" lon="6.73526">
        <ele>2126.1</ele>
        <time>2000-01-01T10:12:29.000Z</time>
      </trkpt>
      <trkpt lat="45.64264" lon="6.73522">
        <ele>2114</ele>
        <time>2000-01-01T10:12:39.000Z</time>
      </trkpt>
      <trkpt lat="45.64272" lon="6.73516">
        <ele>2127.5</ele>
        <time>2000-01-01T10:12:49.000Z</time>
      </trkpt>
      <trkpt lat="45.64278" lon="6.73506">
        <ele>2130.1</ele>
        <time>2000-01-01T10:12:59.000Z</time>
      </trkpt>
      <trkpt lat="45.64287" lon="6.73483">
        <ele>2126</ele>
        <time>2000-01-01T10:13:09.000Z</time>
      </trkpt>
      <trkpt lat="45.64293" lon="6.73475">
        <ele>2135.8</ele>
        <time>2000-01-01T10:13:19.000Z</time>
      </trkpt>
      <trkpt lat="45.64298" lon="6.73463">
        <ele>2137</ele>
        <time>2000-01-01T10:13:29.000Z</time>
      </trkpt>
      <trkpt lat="45.64298" lon="6.7345">
        <ele>2139</ele>
        <time>2000-01-01T10:13:39.000Z</time>
      </trkpt>
      <trkpt lat="45.64297" lon="6.73436">
        <ele>2142.4</ele>
        <time>2000-01-01T10:13:49.000Z</time>
      </trkpt>
      <trkpt lat="45.64302" lon="6.73411">
        <ele>2146</ele>
        <time>2000-01-01T10:13:59.000Z</time>
      </trkpt>
      <trkpt lat="45.64307" lon="6.73358">
        <ele>2149</ele>
        <time>2000-01-01T10:14:09.000Z</time>
      </trkpt>
      <trkpt lat="45.64315" lon="6.73334">
        <ele>2152.8</ele>
        <time>2000-01-01T10:14:19.000Z</time>
      </trkpt>
      <trkpt lat="45.64316" lon="6.7332">
        <ele>2152</ele>
        <time>2000-01-01T10:14:29.000Z</time>
      </trkpt>
      <trkpt lat="45.64316" lon="6.73306">
        <ele>2156.9</ele>
        <time>2000-01-01T10:14:39.000Z</time>
      </trkpt>
      <trkpt lat="45.64314" lon="6.73292">
        <ele>2158</ele>
        <time>2000-01-01T10:14:49.000Z</time>
      </trkpt>
      <trkpt lat="45.64313" lon="6.73266">
        <ele>2161.4</ele>
        <time>2000-01-01T10:14:59.000Z</time>
      </trkpt>
      <trkpt lat="45.64313" lon="6.73253">
        <ele>2160</ele>
        <time>2000-01-01T10:15:09.000Z</time>
      </trkpt>
      <trkpt lat="45.64314" lon="6.7324">
        <ele>2165.4</ele>
        <time>2000-01-01T10:15:19.000Z</time>
      </trkpt>
      <trkpt lat="45.64317" lon="6.73227">
        <ele>2167.9</ele>
        <time>2000-01-01T10:15:29.000Z</time>
      </trkpt>
      <trkpt lat="45.64327" lon="6.73204">
        <ele>2161</ele>
        <time>2000-01-01T10:15:39.000Z</time>
      </trkpt>
      <trkpt lat="45.64345" lon="6.73171">
        <ele>2164</ele>
        <time>2000-01-01T10:15:49.000Z</time>
      </trkpt>
      <trkpt lat="45.6436" lon="6.73139">
        <ele>2168</ele>
        <time>2000-01-01T10:15:59.000Z</time>
      </trkpt>
      <trkpt lat="45.64378" lon="6.73107">
        <ele>2171</ele>
        <time>2000-01-01T10:16:09.000Z</time>
      </trkpt>
      <trkpt lat="45.64394" lon="6.73072">
        <ele>2178</ele>
        <time>2000-01-01T10:16:19.000Z</time>
      </trkpt>
      <trkpt lat="45.64404" lon="6.73048">
        <ele>2188</ele>
        <time>2000-01-01T10:16:29.000Z</time>
      </trkpt>
      <trkpt lat="45.6441" lon="6.73038">
        <ele>2188.3</ele>
        <time>2000-01-01T10:16:39.000Z</time>
      </trkpt>
      <trkpt lat="45.64417" lon="6.73028">
        <ele>2194</ele>
        <time>2000-01-01T10:16:49.000Z</time>
      </trkpt>
      <trkpt lat="45.64433" lon="6.73013">
        <ele>2197</ele>
        <time>2000-01-01T10:16:59.000Z</time>
      </trkpt>
      <trkpt lat="45.64441" lon="6.73008">
        <ele>2190.9</ele>
        <time>2000-01-01T10:17:09.000Z</time>
      </trkpt>
      <trkpt lat="45.64449" lon="6.73">
        <ele>2191.2</ele>
        <time>2000-01-01T10:17:19.000Z</time>
      </trkpt>
      <trkpt lat="45.64462" lon="6.72983">
        <ele>2202</ele>
        <time>2000-01-01T10:17:29.000Z</time>
      </trkpt>
      <trkpt lat="45.64477" lon="6.72968">
        <ele>2195</ele>
        <time>2000-01-01T10:17:39.000Z</time>
      </trkpt>
      <trkpt lat="45.64498" lon="6.72924">
        <ele>2200</ele>
        <time>2000-01-01T10:17:49.000Z</time>
      </trkpt>
      <trkpt lat="45.64505" lon="6.72914">
        <ele>2197.9</ele>
        <time>2000-01-01T10:17:59.000Z</time>
      </trkpt>
      <trkpt lat="45.64521" lon="6.72899">
        <ele>2201</ele>
        <time>2000-01-01T10:18:09.000Z</time>
      </trkpt>
      <trkpt lat="45.64535" lon="6.72881">
        <ele>2201.3</ele>
        <time>2000-01-01T10:18:19.000Z</time>
      </trkpt>
      <trkpt lat="45.64541" lon="6.7287">
        <ele>2202</ele>
        <time>2000-01-01T10:18:29.000Z</time>
      </trkpt>
      <trkpt lat="45.64545" lon="6.72857">
        <ele>2203.9</ele>
        <time>2000-01-01T10:18:39.000Z</time>
      </trkpt>
      <trkpt lat="45.64558" lon="6.72837">
        <ele>2205</ele>
        <time>2000-01-01T10:18:49.000Z</time>
      </trkpt>
      <trkpt lat="45.64562" lon="6.72825">
        <ele>2207.5</ele>
        <time>2000-01-01T10:18:59.000Z</time>
      </trkpt>
      <trkpt lat="45.64569" lon="6.72816">
        <ele>2208.6</ele>
        <time>2000-01-01T10:19:09.000Z</time>
      </trkpt>
      <trkpt lat="45.64575" lon="6.72807">
        <ele>2210</ele>
        <time>2000-01-01T10:19:19.000Z</time>
      </trkpt>
      <trkpt lat="45.6458" lon="6.72796">
        <ele>2211.1</ele>
        <time>2000-01-01T10:19:29.000Z</time>
      </trkpt>
      <trkpt lat="45.64583" lon="6.72784">
        <ele>2213.5</ele>
        <time>2000-01-01T10:19:39.000Z</time>
      </trkpt>
      <trkpt lat="45.64592" lon="6.7276">
        <ele>2215</ele>
        <time>2000-01-01T10:19:49.000Z</time>
      </trkpt>
      <trkpt lat="45.64595" lon="6.72749">
        <ele>2219.5</ele>
        <time>2000-01-01T10:19:59.000Z</time>
      </trkpt>
      <trkpt lat="45.64629" lon="6.727">
        <ele>2226</ele>
        <time>2000-01-01T10:20:09.000Z</time>
      </trkpt>
      <trkpt lat="45.64635" lon="6.7269">
        <ele>2228.9</ele>
        <time>2000-01-01T10:20:19.000Z</time>
      </trkpt>
      <trkpt lat="45.64662" lon="6.72653">
        <ele>2233</ele>
        <time>2000-01-01T10:20:29.000Z</time>
      </trkpt>
      <trkpt lat="45.64674" lon="6.72633">
        <ele>2238.2</ele>
        <time>2000-01-01T10:20:39.000Z</time>
      </trkpt>
      <trkpt lat="45.64683" lon="6.7261">
        <ele>2235</ele>
        <time>2000-01-01T10:20:49.000Z</time>
      </trkpt>
      <trkpt lat="45.6469" lon="6.72584">
        <ele>2237</ele>
        <time>2000-01-01T10:20:59.000Z</time>
      </trkpt>
      <trkpt lat="45.64693" lon="6.72571">
        <ele>2241.7</ele>
        <time>2000-01-01T10:21:09.000Z</time>
      </trkpt>
      <trkpt lat="45.64695" lon="6.72559">
        <ele>2241.8</ele>
        <time>2000-01-01T10:21:19.000Z</time>
      </trkpt>
      <trkpt lat="45.64695" lon="6.72547">
        <ele>2241</ele>
        <time>2000-01-01T10:21:29.000Z</time>
      </trkpt>
      <trkpt lat="45.64702" lon="6.72546">
        <ele>2242.9</ele>
        <time>2000-01-01T10:21:39.000Z</time>
      </trkpt>
      <trkpt lat="45.64711" lon="6.72541">
        <ele>2243.6</ele>
        <time>2000-01-01T10:21:49.000Z</time>
      </trkpt>
      <trkpt lat="45.64721" lon="6.72538">
        <ele>2245</ele>
        <time>2000-01-01T10:21:59.000Z</time>
      </trkpt>
      <trkpt lat="45.6473" lon="6.72532">
        <ele>2245</ele>
        <time>2000-01-01T10:22:09.000Z</time>
      </trkpt>
      <trkpt lat="45.64738" lon="6.72525">
        <ele>2245</ele>
        <time>2000-01-01T10:22:19.000Z</time>
      </trkpt>
      <trkpt lat="45.64747" lon="6.7252">
        <ele>2246.5</ele>
        <time>2000-01-01T10:22:29.000Z</time>
      </trkpt>
      <trkpt lat="45.64762" lon="6.72504">
        <ele>2246</ele>
        <time>2000-01-01T10:22:39.000Z</time>
      </trkpt>
      <trkpt lat="45.64771" lon="6.72498">
        <ele>2249</ele>
        <time>2000-01-01T10:22:49.000Z</time>
      </trkpt>
      <trkpt lat="45.64779" lon="6.7249">
        <ele>2246</ele>
        <time>2000-01-01T10:22:59.000Z</time>
      </trkpt>
      <trkpt lat="45.64786" lon="6.7248">
        <ele>2252.2</ele>
        <time>2000-01-01T10:23:09.000Z</time>
      </trkpt>
      <trkpt lat="45.64803" lon="6.72467">
        <ele>2246</ele>
        <time>2000-01-01T10:23:19.000Z</time>
      </trkpt>
      <trkpt lat="45.6482" lon="6.72458">
        <ele>2255.3</ele>
        <time>2000-01-01T10:23:29.000Z</time>
      </trkpt>
      <trkpt lat="45.64828" lon="6.72451">
        <ele>2250</ele>
        <time>2000-01-01T10:23:39.000Z</time>
      </trkpt>
      <trkpt lat="45.64845" lon="6.72444">
        <ele>2258.7</ele>
        <time>2000-01-01T10:23:49.000Z</time>
      </trkpt>
      <trkpt lat="45.64854" lon="6.72442">
        <ele>2250</ele>
        <time>2000-01-01T10:23:59.000Z</time>
      </trkpt>
      <trkpt lat="45.64891" lon="6.72423">
        <ele>2260</ele>
        <time>2000-01-01T10:24:09.000Z</time>
      </trkpt>
      <trkpt lat="45.64901" lon="6.7242">
        <ele>2263.8</ele>
        <time>2000-01-01T10:24:19.000Z</time>
      </trkpt>
      <trkpt lat="45.64928" lon="6.72406">
        <ele>2262</ele>
        <time>2000-01-01T10:24:29.000Z</time>
      </trkpt>
      <trkpt lat="45.64945" lon="6.72395">
        <ele>2268.6</ele>
        <time>2000-01-01T10:24:39.000Z</time>
      </trkpt>
      <trkpt lat="45.64953" lon="6.72387">
        <ele>2262</ele>
        <time>2000-01-01T10:24:49.000Z</time>
      </trkpt>
      <trkpt lat="45.64978" lon="6.72367">
        <ele>2267</ele>
        <time>2000-01-01T10:24:59.000Z</time>
      </trkpt>
      <trkpt lat="45.64987" lon="6.72362">
        <ele>2272.9</ele>
        <time>2000-01-01T10:25:09.000Z</time>
      </trkpt>
      <trkpt lat="45.64995" lon="6.72354">
        <ele>2270</ele>
        <time>2000-01-01T10:25:19.000Z</time>
      </trkpt>
      <trkpt lat="45.65" lon="6.72343">
        <ele>2274.3</ele>
        <time>2000-01-01T10:25:29.000Z</time>
      </trkpt>
      <trkpt lat="45.65006" lon="6.72289">
        <ele>2275</ele>
        <time>2000-01-01T10:25:39.000Z</time>
      </trkpt>
      <trkpt lat="45.65014" lon="6.72234">
        <ele>2279</ele>
        <time>2000-01-01T10:25:49.000Z</time>
      </trkpt>
      <trkpt lat="45.65021" lon="6.72224">
        <ele>2286.7</ele>
        <time>2000-01-01T10:25:59.000Z</time>
      </trkpt>
      <trkpt lat="45.65047" lon="6.72202">
        <ele>2289</ele>
        <time>2000-01-01T10:26:09.000Z</time>
      </trkpt>
      <trkpt lat="45.65052" lon="6.72191">
        <ele>2292</ele>
        <time>2000-01-01T10:26:19.000Z</time>
      </trkpt>
      <trkpt lat="45.65054" lon="6.72178">
        <ele>2293.7</ele>
        <time>2000-01-01T10:26:29.000Z</time>
      </trkpt>
      <trkpt lat="45.65054" lon="6.72165">
        <ele>2297</ele>
        <time>2000-01-01T10:26:39.000Z</time>
      </trkpt>
      <trkpt lat="45.65051" lon="6.72151">
        <ele>2297</ele>
        <time>2000-01-01T10:26:49.000Z</time>
      </trkpt>
      <trkpt lat="45.65047" lon="6.72138">
        <ele>2308</ele>
        <time>2000-01-01T10:26:59.000Z</time>
      </trkpt>
      <trkpt lat="45.65045" lon="6.72126">
        <ele>2299</ele>
        <time>2000-01-01T10:27:09.000Z</time>
      </trkpt>
      <trkpt lat="45.65039" lon="6.72098">
        <ele>2313</ele>
        <time>2000-01-01T10:27:19.000Z</time>
      </trkpt>
      <trkpt lat="45.65038" lon="6.72084">
        <ele>2304.6</ele>
        <time>2000-01-01T10:27:29.000Z</time>
      </trkpt>
      <trkpt lat="45.6504" lon="6.72056">
        <ele>2313</ele>
        <time>2000-01-01T10:27:39.000Z</time>
      </trkpt>
      <trkpt lat="45.6504" lon="6.72044">
        <ele>2312.1</ele>
        <time>2000-01-01T10:27:49.000Z</time>
      </trkpt>
      <trkpt lat="45.65038" lon="6.72032">
        <ele>2313.9</ele>
        <time>2000-01-01T10:27:59.000Z</time>
      </trkpt>
      <trkpt lat="45.65038" lon="6.72019">
        <ele>2316</ele>
        <time>2000-01-01T10:28:09.000Z</time>
      </trkpt>
      <trkpt lat="45.6504" lon="6.72006">
        <ele>2316.3</ele>
        <time>2000-01-01T10:28:19.000Z</time>
      </trkpt>
      <trkpt lat="45.65044" lon="6.71994">
        <ele>2317.3</ele>
        <time>2000-01-01T10:28:29.000Z</time>
      </trkpt>
      <trkpt lat="45.65054" lon="6.71972">
        <ele>2316</ele>
        <time>2000-01-01T10:28:39.000Z</time>
      </trkpt>
      <trkpt lat="45.6506" lon="6.7196">
        <ele>2318</ele>
        <time>2000-01-01T10:28:49.000Z</time>
      </trkpt>
      <trkpt lat="45.65073" lon="6.71939">
        <ele>2321</ele>
        <time>2000-01-01T10:28:59.000Z</time>
      </trkpt>
      <trkpt lat="45.65078" lon="6.71928">
        <ele>2320.4</ele>
        <time>2000-01-01T10:29:09.000Z</time>
      </trkpt>
      <trkpt lat="45.65086" lon="6.71905">
        <ele>2323</ele>
        <time>2000-01-01T10:29:19.000Z</time>
      </trkpt>
      <trkpt lat="45.65092" lon="6.71894">
        <ele>2323</ele>
        <time>2000-01-01T10:29:29.000Z</time>
      </trkpt>
      <trkpt lat="45.65095" lon="6.71881">
        <ele>2323</ele>
        <time>2000-01-01T10:29:39.000Z</time>
      </trkpt>
      <trkpt lat="45.65104" lon="6.71876">
        <ele>2326</ele>
        <time>2000-01-01T10:29:49.000Z</time>
      </trkpt>
      <trkpt lat="45.65123" lon="6.71877">
        <ele>2328</ele>
        <time>2000-01-01T10:29:59.000Z</time>
      </trkpt>
      <trkpt lat="45.65132" lon="6.71875">
        <ele>2325.7</ele>
        <time>2000-01-01T10:30:09.000Z</time>
      </trkpt>
      <trkpt lat="45.65141" lon="6.71875">
        <ele>2325.5</ele>
        <time>2000-01-01T10:30:19.000Z</time>
      </trkpt>
      <trkpt lat="45.65149" lon="6.71869">
        <ele>2329</ele>
        <time>2000-01-01T10:30:29.000Z</time>
      </trkpt>
      <trkpt lat="45.65155" lon="6.71859">
        <ele>2326.2</ele>
        <time>2000-01-01T10:30:39.000Z</time>
      </trkpt>
      <trkpt lat="45.65158" lon="6.71846">
        <ele>2327.1</ele>
        <time>2000-01-01T10:30:49.000Z</time>
      </trkpt>
      <trkpt lat="45.6516" lon="6.71832">
        <ele>2329</ele>
        <time>2000-01-01T10:30:59.000Z</time>
      </trkpt>
      <trkpt lat="45.65163" lon="6.71821">
        <ele>2328.3</ele>
        <time>2000-01-01T10:31:09.000Z</time>
      </trkpt>
      <trkpt lat="45.65175" lon="6.71786">
        <ele>2332</ele>
        <time>2000-01-01T10:31:19.000Z</time>
      </trkpt>
      <trkpt lat="45.65177" lon="6.71772">
        <ele>2328.7</ele>
        <time>2000-01-01T10:31:29.000Z</time>
      </trkpt>
      <trkpt lat="45.65178" lon="6.71758">
        <ele>2334</ele>
        <time>2000-01-01T10:31:39.000Z</time>
      </trkpt>
      <trkpt lat="45.65176" lon="6.71744">
        <ele>2330.1</ele>
        <time>2000-01-01T10:31:49.000Z</time>
      </trkpt>
      <trkpt lat="45.65168" lon="6.71721">
        <ele>2335</ele>
        <time>2000-01-01T10:31:59.000Z</time>
      </trkpt>
      <trkpt lat="45.65166" lon="6.71708">
        <ele>2333</ele>
        <time>2000-01-01T10:32:09.000Z</time>
      </trkpt>
      <trkpt lat="45.65162" lon="6.71695">
        <ele>2336</ele>
        <time>2000-01-01T10:32:19.000Z</time>
      </trkpt>
      <trkpt lat="45.65159" lon="6.71681">
        <ele>2336.7</ele>
        <time>2000-01-01T10:32:29.000Z</time>
      </trkpt>
      <trkpt lat="45.65154" lon="6.71669">
        <ele>2338</ele>
        <time>2000-01-01T10:32:39.000Z</time>
      </trkpt>
      <trkpt lat="45.65151" lon="6.71656">
        <ele>2338.4</ele>
        <time>2000-01-01T10:32:49.000Z</time>
      </trkpt>
      <trkpt lat="45.65146" lon="6.71644">
        <ele>2340</ele>
        <time>2000-01-01T10:32:59.000Z</time>
      </trkpt>
      <trkpt lat="45.65143" lon="6.71618">
        <ele>2340.4</ele>
        <time>2000-01-01T10:33:09.000Z</time>
      </trkpt>
      <trkpt lat="45.65142" lon="6.71604">
        <ele>2342</ele>
        <time>2000-01-01T10:33:19.000Z</time>
      </trkpt>
      <trkpt lat="45.65144" lon="6.71591">
        <ele>2341.9</ele>
        <time>2000-01-01T10:33:29.000Z</time>
      </trkpt>
      <trkpt lat="45.65151" lon="6.71567">
        <ele>2345</ele>
        <time>2000-01-01T10:33:39.000Z</time>
      </trkpt>
      <trkpt lat="45.65172" lon="6.71543">
        <ele>2348</ele>
        <time>2000-01-01T10:33:49.000Z</time>
      </trkpt>
      <trkpt lat="45.65177" lon="6.71517">
        <ele>2348</ele>
        <time>2000-01-01T10:33:59.000Z</time>
      </trkpt>
      <trkpt lat="45.6519" lon="6.71498">
        <ele>2353.7</ele>
        <time>2000-01-01T10:34:09.000Z</time>
      </trkpt>
      <trkpt lat="45.65199" lon="6.71492">
        <ele>2352</ele>
        <time>2000-01-01T10:34:19.000Z</time>
      </trkpt>
      <trkpt lat="45.65207" lon="6.71483">
        <ele>2356.4</ele>
        <time>2000-01-01T10:34:29.000Z</time>
      </trkpt>
      <trkpt lat="45.65218" lon="6.71463">
        <ele>2362</ele>
        <time>2000-01-01T10:34:39.000Z</time>
      </trkpt>
      <trkpt lat="45.65227" lon="6.71458">
        <ele>2360.4</ele>
        <time>2000-01-01T10:34:49.000Z</time>
      </trkpt>
      <trkpt lat="45.65233" lon="6.71449">
        <ele>2361.3</ele>
        <time>2000-01-01T10:34:59.000Z</time>
      </trkpt>
      <trkpt lat="45.6524" lon="6.7144">
        <ele>2363</ele>
        <time>2000-01-01T10:35:09.000Z</time>
      </trkpt>
      <trkpt lat="45.65245" lon="6.71429">
        <ele>2362.4</ele>
        <time>2000-01-01T10:35:19.000Z</time>
      </trkpt>
      <trkpt lat="45.65246" lon="6.71415">
        <ele>2365</ele>
        <time>2000-01-01T10:35:29.000Z</time>
      </trkpt>
      <trkpt lat="45.65245" lon="6.71396">
        <ele>2364</ele>
        <time>2000-01-01T10:35:39.000Z</time>
      </trkpt>
      <trkpt lat="45.65249" lon="6.71393">
        <ele>2363.8</ele>
        <time>2000-01-01T10:35:49.000Z</time>
      </trkpt>
      <trkpt lat="45.65246" lon="6.71381">
        <ele>2365</ele>
        <time>2000-01-01T10:35:59.000Z</time>
      </trkpt>
      <trkpt lat="45.65245" lon="6.71368">
        <ele>2364.3</ele>
        <time>2000-01-01T10:36:09.000Z</time>
      </trkpt>
      <trkpt lat="45.65242" lon="6.71356">
        <ele>2364.1</ele>
        <time>2000-01-01T10:36:19.000Z</time>
      </trkpt>
      <trkpt lat="45.65246" lon="6.71353">
        <ele>2365</ele>
        <time>2000-01-01T10:36:29.000Z</time>
      </trkpt>
      <trkpt lat="45.65255" lon="6.7135">
        <ele>2359.3</ele>
        <time>2000-01-01T10:36:39.000Z</time>
      </trkpt>
      <trkpt lat="45.65254" lon="6.71341">
        <ele>2358.6</ele>
        <time>2000-01-01T10:36:49.000Z</time>
      </trkpt>
      <trkpt lat="45.65249" lon="6.7133">
        <ele>2364</ele>
        <time>2000-01-01T10:36:59.000Z</time>
      </trkpt>
      <trkpt lat="45.65242" lon="6.7132">
        <ele>2356</ele>
        <time>2000-01-01T10:37:09.000Z</time>
      </trkpt>
      <trkpt lat="45.6524" lon="6.71306">
        <ele>2362</ele>
        <time>2000-01-01T10:37:19.000Z</time>
      </trkpt>
      <trkpt lat="45.65243" lon="6.71294">
        <ele>2347.7</ele>
        <time>2000-01-01T10:37:29.000Z</time>
      </trkpt>
      <trkpt lat="45.65241" lon="6.71282">
        <ele>2343.5</ele>
        <time>2000-01-01T10:37:39.000Z</time>
      </trkpt>
      <trkpt lat="45.65234" lon="6.71274">
        <ele>2356</ele>
        <time>2000-01-01T10:37:49.000Z</time>
      </trkpt>
      <trkpt lat="45.65234" lon="6.71263">
        <ele>2340.6</ele>
        <time>2000-01-01T10:37:59.000Z</time>
      </trkpt>
      <trkpt lat="45.65253" lon="6.71269">
        <ele>2347</ele>
        <time>2000-01-01T10:38:09.000Z</time>
      </trkpt>
      <trkpt lat="45.65263" lon="6.7127">
        <ele>2336.3</ele>
        <time>2000-01-01T10:38:19.000Z</time>
      </trkpt>
      <trkpt lat="45.6527" lon="6.71263">
        <ele>2332.5</ele>
        <time>2000-01-01T10:38:29.000Z</time>
      </trkpt>
      <trkpt lat="45.6528" lon="6.7126">
        <ele>2338</ele>
        <time>2000-01-01T10:38:39.000Z</time>
      </trkpt>
      <trkpt lat="45.65297" lon="6.71252">
        <ele>2321.9</ele>
        <time>2000-01-01T10:38:49.000Z</time>
      </trkpt>
      <trkpt lat="45.65316" lon="6.71246">
        <ele>2324</ele>
        <time>2000-01-01T10:38:59.000Z</time>
      </trkpt>
      <trkpt lat="45.65325" lon="6.71242">
        <ele>2316.7</ele>
        <time>2000-01-01T10:39:09.000Z</time>
      </trkpt>
      <trkpt lat="45.65331" lon="6.71237">
        <ele>2316.2</ele>
        <time>2000-01-01T10:39:19.000Z</time>
      </trkpt>
      <trkpt lat="45.65334" lon="6.71226">
        <ele>2319</ele>
        <time>2000-01-01T10:39:29.000Z</time>
      </trkpt>
      <trkpt lat="45.65336" lon="6.71212">
        <ele>2317.6</ele>
        <time>2000-01-01T10:39:39.000Z</time>
      </trkpt>
      <trkpt lat="45.6534" lon="6.71202">
        <ele>2319.5</ele>
        <time>2000-01-01T10:39:49.000Z</time>
      </trkpt>
      <trkpt lat="45.65341" lon="6.7119">
        <ele>2322</ele>
        <time>2000-01-01T10:39:59.000Z</time>
      </trkpt>
      <trkpt lat="45.65348" lon="6.7118">
        <ele>2321.7</ele>
        <time>2000-01-01T10:40:09.000Z</time>
      </trkpt>
      <trkpt lat="45.65354" lon="6.71169">
        <ele>2325</ele>
        <time>2000-01-01T10:40:19.000Z</time>
      </trkpt>
      <trkpt lat="45.65357" lon="6.71156">
        <ele>2324.5</ele>
        <time>2000-01-01T10:40:29.000Z</time>
      </trkpt>
      <trkpt lat="45.65357" lon="6.71142">
        <ele>2330</ele>
        <time>2000-01-01T10:40:39.000Z</time>
      </trkpt>
      <trkpt lat="45.65354" lon="6.71115">
        <ele>2326</ele>
        <time>2000-01-01T10:40:49.000Z</time>
      </trkpt>
      <trkpt lat="45.65352" lon="6.71102">
        <ele>2330.9</ele>
        <time>2000-01-01T10:40:59.000Z</time>
      </trkpt>
      <trkpt lat="45.65349" lon="6.71088">
        <ele>2333</ele>
        <time>2000-01-01T10:41:09.000Z</time>
      </trkpt>
      <trkpt lat="45.65352" lon="6.71076">
        <ele>2333.2</ele>
        <time>2000-01-01T10:41:19.000Z</time>
      </trkpt>
      <trkpt lat="45.65359" lon="6.71066">
        <ele>2334.7</ele>
        <time>2000-01-01T10:41:29.000Z</time>
      </trkpt>
      <trkpt lat="45.65363" lon="6.71054">
        <ele>2340</ele>
        <time>2000-01-01T10:41:39.000Z</time>
      </trkpt>
      <trkpt lat="45.65379" lon="6.71043">
        <ele>2339.3</ele>
        <time>2000-01-01T10:41:49.000Z</time>
      </trkpt>
      <trkpt lat="45.65387" lon="6.71035">
        <ele>2345</ele>
        <time>2000-01-01T10:41:59.000Z</time>
      </trkpt>
      <trkpt lat="45.65405" lon="6.71036">
        <ele>2344.3</ele>
        <time>2000-01-01T10:42:09.000Z</time>
      </trkpt>
      <trkpt lat="45.65413" lon="6.71031">
        <ele>2349</ele>
        <time>2000-01-01T10:42:19.000Z</time>
      </trkpt>
      <trkpt lat="45.65422" lon="6.71033">
        <ele>2347.5</ele>
        <time>2000-01-01T10:42:29.000Z</time>
      </trkpt>
      <trkpt lat="45.65429" lon="6.7103">
        <ele>2348.8</ele>
        <time>2000-01-01T10:42:39.000Z</time>
      </trkpt>
      <trkpt lat="45.65438" lon="6.71029">
        <ele>2349</ele>
        <time>2000-01-01T10:42:49.000Z</time>
      </trkpt>
      <trkpt lat="45.65447" lon="6.7103">
        <ele>2352.4</ele>
        <time>2000-01-01T10:42:59.000Z</time>
      </trkpt>
      <trkpt lat="45.65456" lon="6.71028">
        <ele>2353.3</ele>
        <time>2000-01-01T10:43:09.000Z</time>
      </trkpt>
      <trkpt lat="45.65475" lon="6.71033">
        <ele>2357</ele>
        <time>2000-01-01T10:43:19.000Z</time>
      </trkpt>
      <trkpt lat="45.65485" lon="6.71029">
        <ele>2355.1</ele>
        <time>2000-01-01T10:43:29.000Z</time>
      </trkpt>
      <trkpt lat="45.65494" lon="6.71029">
        <ele>2365</ele>
        <time>2000-01-01T10:43:39.000Z</time>
      </trkpt>
      <trkpt lat="45.65498" lon="6.71025">
        <ele>2355.4</ele>
        <time>2000-01-01T10:43:49.000Z</time>
      </trkpt>
      <trkpt lat="45.65516" lon="6.71036">
        <ele>2365</ele>
        <time>2000-01-01T10:43:59.000Z</time>
      </trkpt>
      <trkpt lat="45.65525" lon="6.71039">
        <ele>2350.3</ele>
        <time>2000-01-01T10:44:09.000Z</time>
      </trkpt>
      <trkpt lat="45.65535" lon="6.71041">
        <ele>2359</ele>
        <time>2000-01-01T10:44:19.000Z</time>
      </trkpt>
      <trkpt lat="45.65544" lon="6.71045">
        <ele>2346.9</ele>
        <time>2000-01-01T10:44:29.000Z</time>
      </trkpt>
      <trkpt lat="45.65552" lon="6.71051">
        <ele>2345.1</ele>
        <time>2000-01-01T10:44:39.000Z</time>
      </trkpt>
      <trkpt lat="45.65571" lon="6.71054">
        <ele>2344</ele>
        <time>2000-01-01T10:44:49.000Z</time>
      </trkpt>
      <trkpt lat="45.65581" lon="6.71054">
        <ele>2338.2</ele>
        <time>2000-01-01T10:44:59.000Z</time>
      </trkpt>
      <trkpt lat="45.65613" lon="6.71078">
        <ele>2343</ele>
        <time>2000-01-01T10:45:09.000Z</time>
      </trkpt>
      <trkpt lat="45.65623" lon="6.71082">
        <ele>2326</ele>
        <time>2000-01-01T10:45:19.000Z</time>
      </trkpt>
      <trkpt lat="45.65631" lon="6.71077">
        <ele>2335</ele>
        <time>2000-01-01T10:45:29.000Z</time>
      </trkpt>
      <trkpt lat="45.6564" lon="6.71078">
        <ele>2321</ele>
        <time>2000-01-01T10:45:39.000Z</time>
      </trkpt>
      <trkpt lat="45.65648" lon="6.71086">
        <ele>2319.6</ele>
        <time>2000-01-01T10:45:49.000Z</time>
      </trkpt>
      <trkpt lat="45.65657" lon="6.71091">
        <ele>2335</ele>
        <time>2000-01-01T10:45:59.000Z</time>
      </trkpt>
      <trkpt lat="45.65663" lon="6.71102">
        <ele>2318.7</ele>
        <time>2000-01-01T10:46:09.000Z</time>
      </trkpt>
      <trkpt lat="45.65677" lon="6.71119">
        <ele>2325</ele>
        <time>2000-01-01T10:46:19.000Z</time>
      </trkpt>
      <trkpt lat="45.65694" lon="6.71133">
        <ele>2318</ele>
        <time>2000-01-01T10:46:29.000Z</time>
      </trkpt>
      <trkpt lat="45.65699" lon="6.71144">
        <ele>2318.2</ele>
        <time>2000-01-01T10:46:39.000Z</time>
      </trkpt>
      <trkpt lat="45.657" lon="6.71157">
        <ele>2318.3</ele>
        <time>2000-01-01T10:46:49.000Z</time>
      </trkpt>
      <trkpt lat="45.65707" lon="6.71163">
        <ele>2319</ele>
        <time>2000-01-01T10:46:59.000Z</time>
      </trkpt>
      <trkpt lat="45.65715" lon="6.71164">
        <ele>2321.8</ele>
        <time>2000-01-01T10:47:09.000Z</time>
      </trkpt>
      <trkpt lat="45.65723" lon="6.7114">
        <ele>2321</ele>
        <time>2000-01-01T10:47:19.000Z</time>
      </trkpt>
      <trkpt lat="45.65729" lon="6.7113">
        <ele>2319.4</ele>
        <time>2000-01-01T10:47:29.000Z</time>
      </trkpt>
      <trkpt lat="45.65738" lon="6.71131">
        <ele>2320.3</ele>
        <time>2000-01-01T10:47:39.000Z</time>
      </trkpt>
      <trkpt lat="45.65757" lon="6.71142">
        <ele>2329</ele>
        <time>2000-01-01T10:47:49.000Z</time>
      </trkpt>
      <trkpt lat="45.65773" lon="6.71153">
        <ele>2320.7</ele>
        <time>2000-01-01T10:47:59.000Z</time>
      </trkpt>
      <trkpt lat="45.6579" lon="6.71163">
        <ele>2327</ele>
        <time>2000-01-01T10:48:09.000Z</time>
      </trkpt>
      <trkpt lat="45.65809" lon="6.71163">
        <ele>2326</ele>
        <time>2000-01-01T10:48:19.000Z</time>
      </trkpt>
      <trkpt lat="45.65818" lon="6.71165">
        <ele>2304.4</ele>
        <time>2000-01-01T10:48:29.000Z</time>
      </trkpt>
      <trkpt lat="45.65827" lon="6.71166">
        <ele>2301.8</ele>
        <time>2000-01-01T10:48:39.000Z</time>
      </trkpt>
      <trkpt lat="45.65835" lon="6.7117">
        <ele>2310</ele>
        <time>2000-01-01T10:48:49.000Z</time>
      </trkpt>
      <trkpt lat="45.65843" lon="6.7117">
        <ele>2292.4</ele>
        <time>2000-01-01T10:48:59.000Z</time>
      </trkpt>
      <trkpt lat="45.65844" lon="6.71158">
        <ele>2295.8</ele>
        <time>2000-01-01T10:49:09.000Z</time>
      </trkpt>
      <trkpt lat="45.65864" lon="6.71157">
        <ele>2301</ele>
        <time>2000-01-01T10:49:19.000Z</time>
      </trkpt>
      <trkpt lat="45.65869" lon="6.71149">
        <ele>2281.8</ele>
        <time>2000-01-01T10:49:29.000Z</time>
      </trkpt>
      <trkpt lat="45.65874" lon="6.71136">
        <ele>2281.5</ele>
        <time>2000-01-01T10:49:39.000Z</time>
      </trkpt>
      <trkpt lat="45.65884" lon="6.71115">
        <ele>2292</ele>
        <time>2000-01-01T10:49:49.000Z</time>
      </trkpt>
      <trkpt lat="45.65901" lon="6.71105">
        <ele>2270.9</ele>
        <time>2000-01-01T10:49:59.000Z</time>
      </trkpt>
      <trkpt lat="45.65915" lon="6.71089">
        <ele>2278</ele>
        <time>2000-01-01T10:50:09.000Z</time>
      </trkpt>
      <trkpt lat="45.65921" lon="6.71079">
        <ele>2263.7</ele>
        <time>2000-01-01T10:50:19.000Z</time>
      </trkpt>
      <trkpt lat="45.65927" lon="6.71077">
        <ele>2259.8</ele>
        <time>2000-01-01T10:50:29.000Z</time>
      </trkpt>
      <trkpt lat="45.65931" lon="6.71102">
        <ele>2268</ele>
        <time>2000-01-01T10:50:39.000Z</time>
      </trkpt>
      <trkpt lat="45.65928" lon="6.71114">
        <ele>2252.8</ele>
        <time>2000-01-01T10:50:49.000Z</time>
      </trkpt>
      <trkpt lat="45.65922" lon="6.71124">
        <ele>2253.3</ele>
        <time>2000-01-01T10:50:59.000Z</time>
      </trkpt>
      <trkpt lat="45.65926" lon="6.71128">
        <ele>2268</ele>
        <time>2000-01-01T10:51:09.000Z</time>
      </trkpt>
      <trkpt lat="45.65933" lon="6.71124">
        <ele>2247.1</ele>
        <time>2000-01-01T10:51:19.000Z</time>
      </trkpt>
      <trkpt lat="45.65941" lon="6.71116">
        <ele>2244.2</ele>
        <time>2000-01-01T10:51:29.000Z</time>
      </trkpt>
      <trkpt lat="45.65948" lon="6.71106">
        <ele>2263</ele>
        <time>2000-01-01T10:51:39.000Z</time>
      </trkpt>
      <trkpt lat="45.65954" lon="6.71094">
        <ele>2238.4</ele>
        <time>2000-01-01T10:51:49.000Z</time>
      </trkpt>
      <trkpt lat="45.65957" lon="6.71082">
        <ele>2261</ele>
        <time>2000-01-01T10:51:59.000Z</time>
      </trkpt>
      <trkpt lat="45.65963" lon="6.71069">
        <ele>2235.7</ele>
        <time>2000-01-01T10:52:09.000Z</time>
      </trkpt>
      <trkpt lat="45.65969" lon="6.71059">
        <ele>2261</ele>
        <time>2000-01-01T10:52:19.000Z</time>
      </trkpt>
      <trkpt lat="45.65978" lon="6.71053">
        <ele>2229.6</ele>
        <time>2000-01-01T10:52:29.000Z</time>
      </trkpt>
      <trkpt lat="45.65984" lon="6.71043">
        <ele>2255</ele>
        <time>2000-01-01T10:52:39.000Z</time>
      </trkpt>
      <trkpt lat="45.6599" lon="6.71031">
        <ele>2229.7</ele>
        <time>2000-01-01T10:52:49.000Z</time>
      </trkpt>
      <trkpt lat="45.65999" lon="6.71027">
        <ele>2250</ele>
        <time>2000-01-01T10:52:59.000Z</time>
      </trkpt>
      <trkpt lat="45.66013" lon="6.71011">
        <ele>2229.9</ele>
        <time>2000-01-01T10:53:09.000Z</time>
      </trkpt>
      <trkpt lat="45.66032" lon="6.71004">
        <ele>2248</ele>
        <time>2000-01-01T10:53:19.000Z</time>
      </trkpt>
      <trkpt lat="45.66042" lon="6.71002">
        <ele>2227.2</ele>
        <time>2000-01-01T10:53:29.000Z</time>
      </trkpt>
      <trkpt lat="45.66049" lon="6.71002">
        <ele>2226.2</ele>
        <time>2000-01-01T10:53:39.000Z</time>
      </trkpt>
      <trkpt lat="45.66058" lon="6.70998">
        <ele>2244</ele>
        <time>2000-01-01T10:53:49.000Z</time>
      </trkpt>
      <trkpt lat="45.66067" lon="6.70999">
        <ele>2224.3</ele>
        <time>2000-01-01T10:53:59.000Z</time>
      </trkpt>
      <trkpt lat="45.66076" lon="6.70997">
        <ele>2223.2</ele>
        <time>2000-01-01T10:54:09.000Z</time>
      </trkpt>
      <trkpt lat="45.66084" lon="6.70989">
        <ele>2241</ele>
        <time>2000-01-01T10:54:19.000Z</time>
      </trkpt>
      <trkpt lat="45.66091" lon="6.70986">
        <ele>2226.3</ele>
        <time>2000-01-01T10:54:29.000Z</time>
      </trkpt>
      <trkpt lat="45.66099" lon="6.70987">
        <ele>2227.9</ele>
        <time>2000-01-01T10:54:39.000Z</time>
      </trkpt>
      <trkpt lat="45.66103" lon="6.70999">
        <ele>2231</ele>
        <time>2000-01-01T10:54:49.000Z</time>
      </trkpt>
      <trkpt lat="45.66111" lon="6.71009">
        <ele>2223.1</ele>
        <time>2000-01-01T10:54:59.000Z</time>
      </trkpt>
      <trkpt lat="45.66116" lon="6.71019">
        <ele>2231</ele>
        <time>2000-01-01T10:55:09.000Z</time>
      </trkpt>
      <trkpt lat="45.66123" lon="6.71028">
        <ele>2215.4</ele>
        <time>2000-01-01T10:55:19.000Z</time>
      </trkpt>
      <trkpt lat="45.66137" lon="6.70984">
        <ele>2236</ele>
        <time>2000-01-01T10:55:29.000Z</time>
      </trkpt>
      <trkpt lat="45.66144" lon="6.70974">
        <ele>2225.4</ele>
        <time>2000-01-01T10:55:39.000Z</time>
      </trkpt>
      <trkpt lat="45.66146" lon="6.70962">
        <ele>2227.5</ele>
        <time>2000-01-01T10:55:49.000Z</time>
      </trkpt>
      <trkpt lat="45.66152" lon="6.70951">
        <ele>2239</ele>
        <time>2000-01-01T10:55:59.000Z</time>
      </trkpt>
      <trkpt lat="45.66165" lon="6.70932">
        <ele>2231.8</ele>
        <time>2000-01-01T10:56:09.000Z</time>
      </trkpt>
      <trkpt lat="45.66166" lon="6.7092">
        <ele>2243</ele>
        <time>2000-01-01T10:56:19.000Z</time>
      </trkpt>
      <trkpt lat="45.66169" lon="6.70909">
        <ele>2237.4</ele>
        <time>2000-01-01T10:56:29.000Z</time>
      </trkpt>
      <trkpt lat="45.66173" lon="6.70898">
        <ele>2240.7</ele>
        <time>2000-01-01T10:56:39.000Z</time>
      </trkpt>
      <trkpt lat="45.66185" lon="6.70848">
        <ele>2259</ele>
        <time>2000-01-01T10:56:49.000Z</time>
      </trkpt>
      <trkpt lat="45.66186" lon="6.70836">
        <ele>2253.8</ele>
        <time>2000-01-01T10:56:59.000Z</time>
      </trkpt>
      <trkpt lat="45.66189" lon="6.70824">
        <ele>2256.4</ele>
        <time>2000-01-01T10:57:09.000Z</time>
      </trkpt>
      <trkpt lat="45.66193" lon="6.70812">
        <ele>2265</ele>
        <time>2000-01-01T10:57:19.000Z</time>
      </trkpt>
      <trkpt lat="45.66195" lon="6.70801">
        <ele>2261.2</ele>
        <time>2000-01-01T10:57:29.000Z</time>
      </trkpt>
      <trkpt lat="45.66202" lon="6.70776">
        <ele>2267</ele>
        <time>2000-01-01T10:57:39.000Z</time>
      </trkpt>
      <trkpt lat="45.66206" lon="6.70774">
        <ele>2270.9</ele>
        <time>2000-01-01T10:57:49.000Z</time>
      </trkpt>
      <trkpt lat="45.66213" lon="6.70779">
        <ele>2272.4</ele>
        <time>2000-01-01T10:57:59.000Z</time>
      </trkpt>
      <trkpt lat="45.6622" lon="6.70787">
        <ele>2269</ele>
        <time>2000-01-01T10:58:09.000Z</time>
      </trkpt>
      <trkpt lat="45.66223" lon="6.70777">
        <ele>2276.4</ele>
        <time>2000-01-01T10:58:19.000Z</time>
      </trkpt>
      <trkpt lat="45.66223" lon="6.70764">
        <ele>2278.2</ele>
        <time>2000-01-01T10:58:29.000Z</time>
      </trkpt>
      <trkpt lat="45.66225" lon="6.70752">
        <ele>2273</ele>
        <time>2000-01-01T10:58:39.000Z</time>
      </trkpt>
      <trkpt lat="45.66226" lon="6.70739">
        <ele>2283</ele>
        <time>2000-01-01T10:58:49.000Z</time>
      </trkpt>
      <trkpt lat="45.66226" lon="6.70726">
        <ele>2285.2</ele>
        <time>2000-01-01T10:58:59.000Z</time>
      </trkpt>
      <trkpt lat="45.66223" lon="6.70714">
        <ele>2280</ele>
        <time>2000-01-01T10:59:09.000Z</time>
      </trkpt>
      <trkpt lat="45.66225" lon="6.70687">
        <ele>2290</ele>
        <time>2000-01-01T10:59:19.000Z</time>
      </trkpt>
      <trkpt lat="45.66223" lon="6.70674">
        <ele>2295.6</ele>
        <time>2000-01-01T10:59:29.000Z</time>
      </trkpt>
      <trkpt lat="45.66223" lon="6.70647">
        <ele>2301</ele>
        <time>2000-01-01T10:59:39.000Z</time>
      </trkpt>
      <trkpt lat="45.66231" lon="6.70649">
        <ele>2302</ele>
        <time>2000-01-01T10:59:49.000Z</time>
      </trkpt>
      <trkpt lat="45.6624" lon="6.70653">
        <ele>2303.8</ele>
        <time>2000-01-01T10:59:59.000Z</time>
      </trkpt>
      <trkpt lat="45.66249" lon="6.70649">
        <ele>2305</ele>
        <time>2000-01-01T11:00:09.000Z</time>
      </trkpt>
      <trkpt lat="45.66256" lon="6.70645">
        <ele>2309.4</ele>
        <time>2000-01-01T11:00:19.000Z</time>
      </trkpt>
      <trkpt lat="45.66263" lon="6.70637">
        <ele>2312.3</ele>
        <time>2000-01-01T11:00:29.000Z</time>
      </trkpt>
      <trkpt lat="45.66278" lon="6.70623">
        <ele>2310</ele>
        <time>2000-01-01T11:00:39.000Z</time>
      </trkpt>
      <trkpt lat="45.66287" lon="6.70616">
        <ele>2321</ele>
        <time>2000-01-01T11:00:49.000Z</time>
      </trkpt>
      <trkpt lat="45.66294" lon="6.70609">
        <ele>2322.9</ele>
        <time>2000-01-01T11:00:59.000Z</time>
      </trkpt>
      <trkpt lat="45.66301" lon="6.70608">
        <ele>2313</ele>
        <time>2000-01-01T11:01:09.000Z</time>
      </trkpt>
      <trkpt lat="45.66305" lon="6.70617">
        <ele>2325.1</ele>
        <time>2000-01-01T11:01:19.000Z</time>
      </trkpt>
      <trkpt lat="45.6631" lon="6.70623">
        <ele>2327.9</ele>
        <time>2000-01-01T11:01:29.000Z</time>
      </trkpt>
      <trkpt lat="45.66314" lon="6.70634">
        <ele>2317</ele>
        <time>2000-01-01T11:01:39.000Z</time>
      </trkpt>
      <trkpt lat="45.6632" lon="6.70645">
        <ele>2333.9</ele>
        <time>2000-01-01T11:01:49.000Z</time>
      </trkpt>
      <trkpt lat="45.66324" lon="6.7064">
        <ele>2336.5</ele>
        <time>2000-01-01T11:01:59.000Z</time>
      </trkpt>
      <trkpt lat="45.66328" lon="6.70633">
        <ele>2319</ele>
        <time>2000-01-01T11:02:09.000Z</time>
      </trkpt>
      <trkpt lat="45.66331" lon="6.70646">
        <ele>2340.1</ele>
        <time>2000-01-01T11:02:19.000Z</time>
      </trkpt>
      <trkpt lat="45.66342" lon="6.70666">
        <ele>2322</ele>
        <time>2000-01-01T11:02:29.000Z</time>
      </trkpt>
      <trkpt lat="45.66346" lon="6.70679">
        <ele>2347.4</ele>
        <time>2000-01-01T11:02:39.000Z</time>
      </trkpt>
      <trkpt lat="45.6635" lon="6.70689">
        <ele>2348.6</ele>
        <time>2000-01-01T11:02:49.000Z</time>
      </trkpt>
      <trkpt lat="45.66357" lon="6.70696">
        <ele>2334</ele>
        <time>2000-01-01T11:02:59.000Z</time>
      </trkpt>
      <trkpt lat="45.6636" lon="6.70707">
        <ele>2353.8</ele>
        <time>2000-01-01T11:03:09.000Z</time>
      </trkpt>
      <trkpt lat="45.66365" lon="6.70718">
        <ele>2356.5</ele>
        <time>2000-01-01T11:03:19.000Z</time>
      </trkpt>
      <trkpt lat="45.66363" lon="6.70731">
        <ele>2347</ele>
        <time>2000-01-01T11:03:29.000Z</time>
      </trkpt>
      <trkpt lat="45.66367" lon="6.70741">
        <ele>2357.1</ele>
        <time>2000-01-01T11:03:39.000Z</time>
      </trkpt>
      <trkpt lat="45.66379" lon="6.70728">
        <ele>2347</ele>
        <time>2000-01-01T11:03:49.000Z</time>
      </trkpt>
      <trkpt lat="45.66378" lon="6.70715">
        <ele>2364.6</ele>
        <time>2000-01-01T11:03:59.000Z</time>
      </trkpt>
      <trkpt lat="45.66383" lon="6.70714">
        <ele>2367.8</ele>
        <time>2000-01-01T11:04:09.000Z</time>
      </trkpt>
      <trkpt lat="45.6639" lon="6.70722">
        <ele>2358</ele>
        <time>2000-01-01T11:04:19.000Z</time>
      </trkpt>
      <trkpt lat="45.66392" lon="6.70735">
        <ele>2373.3</ele>
        <time>2000-01-01T11:04:29.000Z</time>
      </trkpt>
      <trkpt lat="45.66397" lon="6.70746">
        <ele>2377.4</ele>
        <time>2000-01-01T11:04:39.000Z</time>
      </trkpt>
      <trkpt lat="45.66403" lon="6.7075">
        <ele>2351</ele>
        <time>2000-01-01T11:04:49.000Z</time>
      </trkpt>
      <trkpt lat="45.66404" lon="6.70752">
        <ele>2382.3</ele>
        <time>2000-01-01T11:04:59.000Z</time>
      </trkpt>
      <trkpt lat="45.66405" lon="6.70764">
        <ele>2382.8</ele>
        <time>2000-01-01T11:05:09.000Z</time>
      </trkpt>
      <trkpt lat="45.66408" lon="6.70776">
        <ele>2352</ele>
        <time>2000-01-01T11:05:19.000Z</time>
      </trkpt>
      <trkpt lat="45.6642" lon="6.70792">
        <ele>2391.1</ele>
        <time>2000-01-01T11:05:29.000Z</time>
      </trkpt>
      <trkpt lat="45.66425" lon="6.70803">
        <ele>2354</ele>
        <time>2000-01-01T11:05:39.000Z</time>
      </trkpt>
      <trkpt lat="45.6643" lon="6.70831">
        <ele>2349</ele>
        <time>2000-01-01T11:05:49.000Z</time>
      </trkpt>
      <trkpt lat="45.66429" lon="6.70858">
        <ele>2369</ele>
        <time>2000-01-01T11:05:59.000Z</time>
      </trkpt>
      <trkpt lat="45.66431" lon="6.7087">
        <ele>2397.4</ele>
        <time>2000-01-01T11:06:09.000Z</time>
      </trkpt>
      <trkpt lat="45.66436" lon="6.70882">
        <ele>2400.5</ele>
        <time>2000-01-01T11:06:19.000Z</time>
      </trkpt>
      <trkpt lat="45.66441" lon="6.70892">
        <ele>2390</ele>
        <time>2000-01-01T11:06:29.000Z</time>
      </trkpt>
      <trkpt lat="45.66443" lon="6.70917">
        <ele>2406.5</ele>
        <time>2000-01-01T11:06:39.000Z</time>
      </trkpt>
      <trkpt lat="45.66464" lon="6.70944">
        <ele>2420</ele>
        <time>2000-01-01T11:06:49.000Z</time>
      </trkpt>
      <trkpt lat="45.66468" lon="6.70956">
        <ele>2416.5</ele>
        <time>2000-01-01T11:06:59.000Z</time>
      </trkpt>
      <trkpt lat="45.66465" lon="6.70969">
        <ele>2421</ele>
        <time>2000-01-01T11:07:09.000Z</time>
      </trkpt>
      <trkpt lat="45.66464" lon="6.70981">
        <ele>2414.4</ele>
        <time>2000-01-01T11:07:19.000Z</time>
      </trkpt>
      <trkpt lat="45.66469" lon="6.70991">
        <ele>2416.6</ele>
        <time>2000-01-01T11:07:29.000Z</time>
      </trkpt>
      <trkpt lat="45.66473" lon="6.71003">
        <ele>2424</ele>
        <time>2000-01-01T11:07:39.000Z</time>
      </trkpt>
      <trkpt lat="45.66474" lon="6.71017">
        <ele>2420.9</ele>
        <time>2000-01-01T11:07:49.000Z</time>
      </trkpt>
      <trkpt lat="45.66479" lon="6.71025">
        <ele>2424.4</ele>
        <time>2000-01-01T11:07:59.000Z</time>
      </trkpt>
      <trkpt lat="45.66484" lon="6.71024">
        <ele>2427</ele>
        <time>2000-01-01T11:08:09.000Z</time>
      </trkpt>
      <trkpt lat="45.66486" lon="6.71034">
        <ele>2428.8</ele>
        <time>2000-01-01T11:08:19.000Z</time>
      </trkpt>
      <trkpt lat="45.66494" lon="6.7103">
        <ele>2432.9</ele>
        <time>2000-01-01T11:08:29.000Z</time>
      </trkpt>
      <trkpt lat="45.66499" lon="6.71036">
        <ele>2438</ele>
        <time>2000-01-01T11:08:39.000Z</time>
      </trkpt>
      <trkpt lat="45.66506" lon="6.71041">
        <ele>2440.3</ele>
        <time>2000-01-01T11:08:49.000Z</time>
      </trkpt>
      <trkpt lat="45.6651" lon="6.71052">
        <ele>2441.5</ele>
        <time>2000-01-01T11:08:59.000Z</time>
      </trkpt>
      <trkpt lat="45.66518" lon="6.71056">
        <ele>2449</ele>
        <time>2000-01-01T11:09:09.000Z</time>
      </trkpt>
      <trkpt lat="45.66526" lon="6.71063">
        <ele>2446.7</ele>
        <time>2000-01-01T11:09:19.000Z</time>
      </trkpt>
      <trkpt lat="45.6653" lon="6.71075">
        <ele>2448.7</ele>
        <time>2000-01-01T11:09:29.000Z</time>
      </trkpt>
      <trkpt lat="45.66532" lon="6.71087">
        <ele>2458</ele>
        <time>2000-01-01T11:09:39.000Z</time>
      </trkpt>
      <trkpt lat="45.66541" lon="6.71092">
        <ele>2452.6</ele>
        <time>2000-01-01T11:09:49.000Z</time>
      </trkpt>
      <trkpt lat="45.6655" lon="6.71095">
        <ele>2476</ele>
        <time>2000-01-01T11:09:59.000Z</time>
      </trkpt>
      <trkpt lat="45.66557" lon="6.71103">
        <ele>2458.9</ele>
        <time>2000-01-01T11:10:09.000Z</time>
      </trkpt>
      <trkpt lat="45.66564" lon="6.71106">
        <ele>2461.9</ele>
        <time>2000-01-01T11:10:19.000Z</time>
      </trkpt>
      <trkpt lat="45.66568" lon="6.71113">
        <ele>2478</ele>
        <time>2000-01-01T11:10:29.000Z</time>
      </trkpt>
      <trkpt lat="45.66573" lon="6.71125">
        <ele>2465</ele>
        <time>2000-01-01T11:10:39.000Z</time>
      </trkpt>
      <trkpt lat="45.66581" lon="6.71132">
        <ele>2484</ele>
        <time>2000-01-01T11:10:49.000Z</time>
      </trkpt>
      <trkpt lat="45.66591" lon="6.71135">
        <ele>2472.2</ele>
        <time>2000-01-01T11:10:59.000Z</time>
      </trkpt>
      <trkpt lat="45.66603" lon="6.7112">
        <ele>2496</ele>
        <time>2000-01-01T11:11:09.000Z</time>
      </trkpt>
      <trkpt lat="45.66612" lon="6.71117">
        <ele>2478.7</ele>
        <time>2000-01-01T11:11:19.000Z</time>
      </trkpt>
      <trkpt lat="45.66628" lon="6.71102">
        <ele>2496</ele>
        <time>2000-01-01T11:11:29.000Z</time>
      </trkpt>
      <trkpt lat="45.66631" lon="6.7109">
        <ele>2483.5</ele>
        <time>2000-01-01T11:11:39.000Z</time>
      </trkpt>
      <trkpt lat="45.66637" lon="6.71079">
        <ele>2486</ele>
        <time>2000-01-01T11:11:49.000Z</time>
      </trkpt>
      <trkpt lat="45.66644" lon="6.71074">
        <ele>2503</ele>
        <time>2000-01-01T11:11:59.000Z</time>
      </trkpt>
      <trkpt lat="45.66652" lon="6.71067">
        <ele>2492</ele>
        <time>2000-01-01T11:12:09.000Z</time>
      </trkpt>
      <trkpt lat="45.6666" lon="6.71063">
        <ele>2494.3</ele>
        <time>2000-01-01T11:12:19.000Z</time>
      </trkpt>
      <trkpt lat="45.66669" lon="6.71066">
        <ele>2505</ele>
        <time>2000-01-01T11:12:29.000Z</time>
      </trkpt>
      <trkpt lat="45.66677" lon="6.71073">
        <ele>2498.1</ele>
        <time>2000-01-01T11:12:39.000Z</time>
      </trkpt>
      <trkpt lat="45.6668" lon="6.71084">
        <ele>2499.4</ele>
        <time>2000-01-01T11:12:49.000Z</time>
      </trkpt>
      <trkpt lat="45.66688" lon="6.71092">
        <ele>2508</ele>
        <time>2000-01-01T11:12:59.000Z</time>
      </trkpt>
      <trkpt lat="45.66694" lon="6.71114">
        <ele>2507</ele>
        <time>2000-01-01T11:13:09.000Z</time>
      </trkpt>
      <trkpt lat="45.66698" lon="6.71125">
        <ele>2511</ele>
        <time>2000-01-01T11:13:19.000Z</time>
      </trkpt>
      <trkpt lat="45.667" lon="6.71138">
        <ele>2510.9</ele>
        <time>2000-01-01T11:13:29.000Z</time>
      </trkpt>
      <trkpt lat="45.66709" lon="6.71138">
        <ele>2514.2</ele>
        <time>2000-01-01T11:13:39.000Z</time>
      </trkpt>
      <trkpt lat="45.66718" lon="6.71139">
        <ele>2526</ele>
        <time>2000-01-01T11:13:49.000Z</time>
      </trkpt>
      <trkpt lat="45.66725" lon="6.71146">
        <ele>2519.6</ele>
        <time>2000-01-01T11:13:59.000Z</time>
      </trkpt>
      <trkpt lat="45.66732" lon="6.71144">
        <ele>2522.5</ele>
        <time>2000-01-01T11:14:09.000Z</time>
      </trkpt>
      <trkpt lat="45.66741" lon="6.71149">
        <ele>2536</ele>
        <time>2000-01-01T11:14:19.000Z</time>
      </trkpt>
      <trkpt lat="45.66749" lon="6.71155">
        <ele>2528.4</ele>
        <time>2000-01-01T11:14:29.000Z</time>
      </trkpt>
      <trkpt lat="45.66762" lon="6.71174">
        <ele>2547</ele>
        <time>2000-01-01T11:14:39.000Z</time>
      </trkpt>
      <trkpt lat="45.66771" lon="6.71178">
        <ele>2535.5</ele>
        <time>2000-01-01T11:14:49.000Z</time>
      </trkpt>
      <trkpt lat="45.66779" lon="6.71184">
        <ele>2537.8</ele>
        <time>2000-01-01T11:14:59.000Z</time>
      </trkpt>
      <trkpt lat="45.66787" lon="6.71192">
        <ele>2551</ele>
        <time>2000-01-01T11:15:09.000Z</time>
      </trkpt>
      <trkpt lat="45.66811" lon="6.71209">
        <ele>2564</ele>
        <time>2000-01-01T11:15:19.000Z</time>
      </trkpt>
      <trkpt lat="45.6682" lon="6.71212">
        <ele>2544.9</ele>
        <time>2000-01-01T11:15:29.000Z</time>
      </trkpt>
      <trkpt lat="45.66838" lon="6.7122">
        <ele>2564</ele>
        <time>2000-01-01T11:15:39.000Z</time>
      </trkpt>
      <trkpt lat="45.66847" lon="6.71223">
        <ele>2550.3</ele>
        <time>2000-01-01T11:15:49.000Z</time>
      </trkpt>
      <trkpt lat="45.66872" lon="6.71244">
        <ele>2564</ele>
        <time>2000-01-01T11:15:59.000Z</time>
      </trkpt>
      <trkpt lat="45.6688" lon="6.71241">
        <ele>2557.6</ele>
        <time>2000-01-01T11:16:09.000Z</time>
      </trkpt>
      <trkpt lat="45.66876" lon="6.71229">
        <ele>2559</ele>
        <time>2000-01-01T11:16:19.000Z</time>
      </trkpt>
      <trkpt lat="45.66871" lon="6.71218">
        <ele>2577</ele>
        <time>2000-01-01T11:16:29.000Z</time>
      </trkpt>
      <trkpt lat="45.66876" lon="6.71213">
        <ele>2559.8</ele>
        <time>2000-01-01T11:16:39.000Z</time>
      </trkpt>
      <trkpt lat="45.66883" lon="6.71211">
        <ele>2560</ele>
        <time>2000-01-01T11:16:49.000Z</time>
      </trkpt>
      <trkpt lat="45.66886" lon="6.71214">
        <ele>2561</ele>
        <time>2000-01-01T11:16:59.000Z</time>
      </trkpt>
      <trkpt lat="45.66884" lon="6.71211">
        <ele>2579</ele>
        <time>2000-01-01T11:17:09.000Z</time>
      </trkpt>
      <trkpt lat="45.66887" lon="6.71209">
        <ele>2559.7</ele>
        <time>2000-01-01T11:17:19.000Z</time>
      </trkpt>
      <trkpt lat="45.66892" lon="6.71211">
        <ele>2558.3</ele>
        <time>2000-01-01T11:17:29.000Z</time>
      </trkpt>
      <trkpt lat="45.66902" lon="6.71205">
        <ele>2568</ele>
        <time>2000-01-01T11:17:39.000Z</time>
      </trkpt>
      <trkpt lat="45.66911" lon="6.71208">
        <ele>2543.8</ele>
        <time>2000-01-01T11:17:49.000Z</time>
      </trkpt>
      <trkpt lat="45.6691" lon="6.71198">
        <ele>2538.2</ele>
        <time>2000-01-01T11:17:59.000Z</time>
      </trkpt>
      <trkpt lat="45.66912" lon="6.71196">
        <ele>2535.2</ele>
        <time>2000-01-01T11:18:09.000Z</time>
      </trkpt>
      <trkpt lat="45.66928" lon="6.71209">
        <ele>2558</ele>
        <time>2000-01-01T11:18:19.000Z</time>
      </trkpt>
      <trkpt lat="45.66946" lon="6.71214">
        <ele>2521.2</ele>
        <time>2000-01-01T11:18:29.000Z</time>
      </trkpt>
      <trkpt lat="45.6696" lon="6.71207">
        <ele>2518</ele>
        <time>2000-01-01T11:18:39.000Z</time>
      </trkpt>
      <trkpt lat="45.66977" lon="6.71209">
        <ele>2506.7</ele>
        <time>2000-01-01T11:18:49.000Z</time>
      </trkpt>
      <trkpt lat="45.66983" lon="6.71201">
        <ele>2518</ele>
        <time>2000-01-01T11:18:59.000Z</time>
      </trkpt>
      <trkpt lat="45.66989" lon="6.7119">
        <ele>2493.1</ele>
        <time>2000-01-01T11:19:09.000Z</time>
      </trkpt>
      <trkpt lat="45.6699" lon="6.71181">
        <ele>2488.1</ele>
        <time>2000-01-01T11:19:19.000Z</time>
      </trkpt>
      <trkpt lat="45.6699" lon="6.71172">
        <ele>2512</ele>
        <time>2000-01-01T11:19:29.000Z</time>
      </trkpt>
      <trkpt lat="45.66986" lon="6.71164">
        <ele>2478.7</ele>
        <time>2000-01-01T11:19:39.000Z</time>
      </trkpt>
      <trkpt lat="45.6698" lon="6.71156">
        <ele>2474.6</ele>
        <time>2000-01-01T11:19:49.000Z</time>
      </trkpt>
      <trkpt lat="45.66978" lon="6.71147">
        <ele>2486</ele>
        <time>2000-01-01T11:19:59.000Z</time>
      </trkpt>
      <trkpt lat="45.66982" lon="6.71138">
        <ele>2465.6</ele>
        <time>2000-01-01T11:20:09.000Z</time>
      </trkpt>
      <trkpt lat="45.66979" lon="6.7113">
        <ele>2461.6</ele>
        <time>2000-01-01T11:20:19.000Z</time>
      </trkpt>
      <trkpt lat="45.66972" lon="6.71121">
        <ele>2470</ele>
        <time>2000-01-01T11:20:29.000Z</time>
      </trkpt>
      <trkpt lat="45.66967" lon="6.71097">
        <ele>2448.4</ele>
        <time>2000-01-01T11:20:39.000Z</time>
      </trkpt>
      <trkpt lat="45.66975" lon="6.71094">
        <ele>2460</ele>
        <time>2000-01-01T11:20:49.000Z</time>
      </trkpt>
      <trkpt lat="45.66983" lon="6.7109">
        <ele>2441.4</ele>
        <time>2000-01-01T11:20:59.000Z</time>
      </trkpt>
      <trkpt lat="45.66999" lon="6.71076">
        <ele>2441</ele>
        <time>2000-01-01T11:21:09.000Z</time>
      </trkpt>
      <trkpt lat="45.67006" lon="6.71067">
        <ele>2428.2</ele>
        <time>2000-01-01T11:21:19.000Z</time>
      </trkpt>
      <trkpt lat="45.67011" lon="6.71058">
        <ele>2424.5</ele>
        <time>2000-01-01T11:21:29.000Z</time>
      </trkpt>
      <trkpt lat="45.67005" lon="6.71037">
        <ele>2420</ele>
        <time>2000-01-01T11:21:39.000Z</time>
      </trkpt>
      <trkpt lat="45.67011" lon="6.71028">
        <ele>2413.1</ele>
        <time>2000-01-01T11:21:49.000Z</time>
      </trkpt>
      <trkpt lat="45.67016" lon="6.71017">
        <ele>2409.3</ele>
        <time>2000-01-01T11:21:59.000Z</time>
      </trkpt>
      <trkpt lat="45.67017" lon="6.71005">
        <ele>2408</ele>
        <time>2000-01-01T11:22:09.000Z</time>
      </trkpt>
      <trkpt lat="45.67014" lon="6.70993">
        <ele>2401.4</ele>
        <time>2000-01-01T11:22:19.000Z</time>
      </trkpt>
      <trkpt lat="45.67018" lon="6.70967">
        <ele>2399</ele>
        <time>2000-01-01T11:22:29.000Z</time>
      </trkpt>
      <trkpt lat="45.67017" lon="6.70957">
        <ele>2390.5</ele>
        <time>2000-01-01T11:22:39.000Z</time>
      </trkpt>
      <trkpt lat="45.67024" lon="6.70947">
        <ele>2388.3</ele>
        <time>2000-01-01T11:22:49.000Z</time>
      </trkpt>
      <trkpt lat="45.67016" lon="6.70944">
        <ele>2395</ele>
        <time>2000-01-01T11:22:59.000Z</time>
      </trkpt>
      <trkpt lat="45.6702" lon="6.70916">
        <ele>2387</ele>
        <time>2000-01-01T11:23:09.000Z</time>
      </trkpt>
      <trkpt lat="45.67021" lon="6.70903">
        <ele>2379</ele>
        <time>2000-01-01T11:23:19.000Z</time>
      </trkpt>
      <trkpt lat="45.67018" lon="6.7089">
        <ele>2377.1</ele>
        <time>2000-01-01T11:23:29.000Z</time>
      </trkpt>
      <trkpt lat="45.67016" lon="6.70877">
        <ele>2372</ele>
        <time>2000-01-01T11:23:39.000Z</time>
      </trkpt>
      <trkpt lat="45.67021" lon="6.70854">
        <ele>2366.4</ele>
        <time>2000-01-01T11:23:49.000Z</time>
      </trkpt>
      <trkpt lat="45.67028" lon="6.70828">
        <ele>2356</ele>
        <time>2000-01-01T11:23:59.000Z</time>
      </trkpt>
      <trkpt lat="45.67026" lon="6.70817">
        <ele>2350.5</ele>
        <time>2000-01-01T11:24:09.000Z</time>
      </trkpt>
      <trkpt lat="45.67033" lon="6.70809">
        <ele>2345.8</ele>
        <time>2000-01-01T11:24:19.000Z</time>
      </trkpt>
      <trkpt lat="45.67042" lon="6.70805">
        <ele>2347</ele>
        <time>2000-01-01T11:24:29.000Z</time>
      </trkpt>
      <trkpt lat="45.67046" lon="6.70795">
        <ele>2338.9</ele>
        <time>2000-01-01T11:24:39.000Z</time>
      </trkpt>
      <trkpt lat="45.67047" lon="6.70773">
        <ele>2337</ele>
        <time>2000-01-01T11:24:49.000Z</time>
      </trkpt>
      <trkpt lat="45.67052" lon="6.70763">
        <ele>2329.3</ele>
        <time>2000-01-01T11:24:59.000Z</time>
      </trkpt>
      <trkpt lat="45.67051" lon="6.7075">
        <ele>2326</ele>
        <time>2000-01-01T11:25:09.000Z</time>
      </trkpt>
      <trkpt lat="45.67043" lon="6.7073">
        <ele>2322</ele>
        <time>2000-01-01T11:25:19.000Z</time>
      </trkpt>
      <trkpt lat="45.67052" lon="6.70729">
        <ele>2318.8</ele>
        <time>2000-01-01T11:25:29.000Z</time>
      </trkpt>
      <trkpt lat="45.67061" lon="6.70731">
        <ele>2317.4</ele>
        <time>2000-01-01T11:25:39.000Z</time>
      </trkpt>
      <trkpt lat="45.67081" lon="6.70729">
        <ele>2314</ele>
        <time>2000-01-01T11:25:49.000Z</time>
      </trkpt>
      <trkpt lat="45.67088" lon="6.70734">
        <ele>2308.9</ele>
        <time>2000-01-01T11:25:59.000Z</time>
      </trkpt>
      <trkpt lat="45.67096" lon="6.70738">
        <ele>2306.5</ele>
        <time>2000-01-01T11:26:09.000Z</time>
      </trkpt>
      <trkpt lat="45.67106" lon="6.7074">
        <ele>2307</ele>
        <time>2000-01-01T11:26:19.000Z</time>
      </trkpt>
      <trkpt lat="45.67116" lon="6.70739">
        <ele>2300</ele>
        <time>2000-01-01T11:26:29.000Z</time>
      </trkpt>
      <trkpt lat="45.67131" lon="6.70722">
        <ele>2290</ele>
        <time>2000-01-01T11:26:39.000Z</time>
      </trkpt>
      <trkpt lat="45.67136" lon="6.70713">
        <ele>2288.2</ele>
        <time>2000-01-01T11:26:49.000Z</time>
      </trkpt>
      <trkpt lat="45.67144" lon="6.70706">
        <ele>2283.1</ele>
        <time>2000-01-01T11:26:59.000Z</time>
      </trkpt>
      <trkpt lat="45.67153" lon="6.70707">
        <ele>2281</ele>
        <time>2000-01-01T11:27:09.000Z</time>
      </trkpt>
      <trkpt lat="45.67162" lon="6.70704">
        <ele>2276.9</ele>
        <time>2000-01-01T11:27:19.000Z</time>
      </trkpt>
      <trkpt lat="45.67169" lon="6.70699">
        <ele>2272.2</ele>
        <time>2000-01-01T11:27:29.000Z</time>
      </trkpt>
      <trkpt lat="45.67168" lon="6.70691">
        <ele>2269</ele>
        <time>2000-01-01T11:27:39.000Z</time>
      </trkpt>
      <trkpt lat="45.6717" lon="6.70683">
        <ele>2263</ele>
        <time>2000-01-01T11:27:49.000Z</time>
      </trkpt>
      <trkpt lat="45.67179" lon="6.70681">
        <ele>2259.6</ele>
        <time>2000-01-01T11:27:59.000Z</time>
      </trkpt>
      <trkpt lat="45.67187" lon="6.70677">
        <ele>2256</ele>
        <time>2000-01-01T11:28:09.000Z</time>
      </trkpt>
      <trkpt lat="45.67194" lon="6.70673">
        <ele>2251</ele>
        <time>2000-01-01T11:28:19.000Z</time>
      </trkpt>
      <trkpt lat="45.67201" lon="6.70667">
        <ele>2244.4</ele>
        <time>2000-01-01T11:28:29.000Z</time>
      </trkpt>
      <trkpt lat="45.67208" lon="6.70663">
        <ele>2250</ele>
        <time>2000-01-01T11:28:39.000Z</time>
      </trkpt>
      <trkpt lat="45.67216" lon="6.70663">
        <ele>2236.3</ele>
        <time>2000-01-01T11:28:49.000Z</time>
      </trkpt>
      <trkpt lat="45.67234" lon="6.70667">
        <ele>2248</ele>
        <time>2000-01-01T11:28:59.000Z</time>
      </trkpt>
      <trkpt lat="45.67243" lon="6.70666">
        <ele>2228</ele>
        <time>2000-01-01T11:29:09.000Z</time>
      </trkpt>
      <trkpt lat="45.67252" lon="6.7066">
        <ele>2238</ele>
        <time>2000-01-01T11:29:19.000Z</time>
      </trkpt>
      <trkpt lat="45.67261" lon="6.70662">
        <ele>2221.2</ele>
        <time>2000-01-01T11:29:29.000Z</time>
      </trkpt>
      <trkpt lat="45.67269" lon="6.70662">
        <ele>2218.9</ele>
        <time>2000-01-01T11:29:39.000Z</time>
      </trkpt>
      <trkpt lat="45.67287" lon="6.70652">
        <ele>2212</ele>
        <time>2000-01-01T11:29:49.000Z</time>
      </trkpt>
      <trkpt lat="45.67295" lon="6.70651">
        <ele>2211.7</ele>
        <time>2000-01-01T11:29:59.000Z</time>
      </trkpt>
      <trkpt lat="45.67305" lon="6.70651">
        <ele>2210</ele>
        <time>2000-01-01T11:30:09.000Z</time>
      </trkpt>
      <trkpt lat="45.67314" lon="6.70648">
        <ele>2209</ele>
        <time>2000-01-01T11:30:19.000Z</time>
      </trkpt>
      <trkpt lat="45.67331" lon="6.70639">
        <ele>2202.6</ele>
        <time>2000-01-01T11:30:29.000Z</time>
      </trkpt>
      <trkpt lat="45.67338" lon="6.70634">
        <ele>2205</ele>
        <time>2000-01-01T11:30:39.000Z</time>
      </trkpt>
      <trkpt lat="45.67345" lon="6.70626">
        <ele>2197.1</ele>
        <time>2000-01-01T11:30:49.000Z</time>
      </trkpt>
      <trkpt lat="45.67354" lon="6.70621">
        <ele>2194.4</ele>
        <time>2000-01-01T11:30:59.000Z</time>
      </trkpt>
      <trkpt lat="45.67363" lon="6.70615">
        <ele>2189</ele>
        <time>2000-01-01T11:31:09.000Z</time>
      </trkpt>
      <trkpt lat="45.6737" lon="6.70606">
        <ele>2188.4</ele>
        <time>2000-01-01T11:31:19.000Z</time>
      </trkpt>
      <trkpt lat="45.67378" lon="6.70597">
        <ele>2187</ele>
        <time>2000-01-01T11:31:29.000Z</time>
      </trkpt>
      <trkpt lat="45.67416" lon="6.70583">
        <ele>2185</ele>
        <time>2000-01-01T11:31:39.000Z</time>
      </trkpt>
      <trkpt lat="45.67424" lon="6.70576">
        <ele>2171</ele>
        <time>2000-01-01T11:31:49.000Z</time>
      </trkpt>
      <trkpt lat="45.6744" lon="6.70566">
        <ele>2170</ele>
        <time>2000-01-01T11:31:59.000Z</time>
      </trkpt>
      <trkpt lat="45.67456" lon="6.70553">
        <ele>2157</ele>
        <time>2000-01-01T11:32:09.000Z</time>
      </trkpt>
      <trkpt lat="45.67465" lon="6.70549">
        <ele>2161</ele>
        <time>2000-01-01T11:32:19.000Z</time>
      </trkpt>
      <trkpt lat="45.67475" lon="6.7055">
        <ele>2152.2</ele>
        <time>2000-01-01T11:32:29.000Z</time>
      </trkpt>
      <trkpt lat="45.67494" lon="6.70548">
        <ele>2153</ele>
        <time>2000-01-01T11:32:39.000Z</time>
      </trkpt>
      <trkpt lat="45.67522" lon="6.70549">
        <ele>2154</ele>
        <time>2000-01-01T11:32:49.000Z</time>
      </trkpt>
      <trkpt lat="45.67531" lon="6.70552">
        <ele>2139</ele>
        <time>2000-01-01T11:32:59.000Z</time>
      </trkpt>
      <trkpt lat="45.67541" lon="6.70554">
        <ele>2150</ele>
        <time>2000-01-01T11:33:09.000Z</time>
      </trkpt>
      <trkpt lat="45.67551" lon="6.70548">
        <ele>2138.4</ele>
        <time>2000-01-01T11:33:19.000Z</time>
      </trkpt>
      <trkpt lat="45.6756" lon="6.70546">
        <ele>2146</ele>
        <time>2000-01-01T11:33:29.000Z</time>
      </trkpt>
      <trkpt lat="45.6758" lon="6.7055">
        <ele>2143</ele>
        <time>2000-01-01T11:33:39.000Z</time>
      </trkpt>
      <trkpt lat="45.6759" lon="6.70554">
        <ele>2136</ele>
        <time>2000-01-01T11:33:49.000Z</time>
      </trkpt>
      <trkpt lat="45.67609" lon="6.70558">
        <ele>2141</ele>
        <time>2000-01-01T11:33:59.000Z</time>
      </trkpt>
      <trkpt lat="45.67619" lon="6.70559">
        <ele>2134.3</ele>
        <time>2000-01-01T11:34:09.000Z</time>
      </trkpt>
      <trkpt lat="45.67627" lon="6.70555">
        <ele>2133.3</ele>
        <time>2000-01-01T11:34:19.000Z</time>
      </trkpt>
      <trkpt lat="45.67645" lon="6.70543">
        <ele>2140</ele>
        <time>2000-01-01T11:34:29.000Z</time>
      </trkpt>
      <trkpt lat="45.67655" lon="6.70539">
        <ele>2133</ele>
        <time>2000-01-01T11:34:39.000Z</time>
      </trkpt>
      <trkpt lat="45.67664" lon="6.70542">
        <ele>2140</ele>
        <time>2000-01-01T11:34:49.000Z</time>
      </trkpt>
      <trkpt lat="45.67673" lon="6.70548">
        <ele>2131.4</ele>
        <time>2000-01-01T11:34:59.000Z</time>
      </trkpt>
      <trkpt lat="45.67681" lon="6.70555">
        <ele>2141</ele>
        <time>2000-01-01T11:35:09.000Z</time>
      </trkpt>
      <trkpt lat="45.67688" lon="6.70565">
        <ele>2130.7</ele>
        <time>2000-01-01T11:35:19.000Z</time>
      </trkpt>
      <trkpt lat="45.67696" lon="6.70574">
        <ele>2138</ele>
        <time>2000-01-01T11:35:29.000Z</time>
      </trkpt>
      <trkpt lat="45.67706" lon="6.70575">
        <ele>2129.9</ele>
        <time>2000-01-01T11:35:39.000Z</time>
      </trkpt>
      <trkpt lat="45.67715" lon="6.70571">
        <ele>2136</ele>
        <time>2000-01-01T11:35:49.000Z</time>
      </trkpt>
      <trkpt lat="45.67724" lon="6.70566">
        <ele>2128.5</ele>
        <time>2000-01-01T11:35:59.000Z</time>
      </trkpt>
      <trkpt lat="45.67732" lon="6.7056">
        <ele>2126.7</ele>
        <time>2000-01-01T11:36:09.000Z</time>
      </trkpt>
      <trkpt lat="45.6774" lon="6.70552">
        <ele>2126</ele>
        <time>2000-01-01T11:36:19.000Z</time>
      </trkpt>
      <trkpt lat="45.6775" lon="6.70553">
        <ele>2122.4</ele>
        <time>2000-01-01T11:36:29.000Z</time>
      </trkpt>
      <trkpt lat="45.67767" lon="6.70564">
        <ele>2126</ele>
        <time>2000-01-01T11:36:39.000Z</time>
      </trkpt>
      <trkpt lat="45.67777" lon="6.70561">
        <ele>2118.9</ele>
        <time>2000-01-01T11:36:49.000Z</time>
      </trkpt>
      <trkpt lat="45.67787" lon="6.70559">
        <ele>2120</ele>
        <time>2000-01-01T11:36:59.000Z</time>
      </trkpt>
      <trkpt lat="45.67806" lon="6.70547">
        <ele>2112</ele>
        <time>2000-01-01T11:37:09.000Z</time>
      </trkpt>
      <trkpt lat="45.67816" lon="6.70544">
        <ele>2111.4</ele>
        <time>2000-01-01T11:37:19.000Z</time>
      </trkpt>
      <trkpt lat="45.67823" lon="6.70536">
        <ele>2110</ele>
        <time>2000-01-01T11:37:29.000Z</time>
      </trkpt>
      <trkpt lat="45.67838" lon="6.70549">
        <ele>2106.5</ele>
        <time>2000-01-01T11:37:39.000Z</time>
      </trkpt>
      <trkpt lat="45.67847" lon="6.70549">
        <ele>2110</ele>
        <time>2000-01-01T11:37:49.000Z</time>
      </trkpt>
      <trkpt lat="45.67857" lon="6.70547">
        <ele>2100.6</ele>
        <time>2000-01-01T11:37:59.000Z</time>
      </trkpt>
      <trkpt lat="45.67863" lon="6.7054">
        <ele>2098.7</ele>
        <time>2000-01-01T11:38:09.000Z</time>
      </trkpt>
      <trkpt lat="45.67859" lon="6.70529">
        <ele>2105</ele>
        <time>2000-01-01T11:38:19.000Z</time>
      </trkpt>
      <trkpt lat="45.67859" lon="6.70517">
        <ele>2094.3</ele>
        <time>2000-01-01T11:38:29.000Z</time>
      </trkpt>
      <trkpt lat="45.67865" lon="6.70505">
        <ele>2091.9</ele>
        <time>2000-01-01T11:38:39.000Z</time>
      </trkpt>
      <trkpt lat="45.67872" lon="6.70496">
        <ele>2101</ele>
        <time>2000-01-01T11:38:49.000Z</time>
      </trkpt>
      <trkpt lat="45.67878" lon="6.70484">
        <ele>2089.2</ele>
        <time>2000-01-01T11:38:59.000Z</time>
      </trkpt>
      <trkpt lat="45.67881" lon="6.70472">
        <ele>2099</ele>
        <time>2000-01-01T11:39:09.000Z</time>
      </trkpt>
      <trkpt lat="45.67885" lon="6.7046">
        <ele>2085.2</ele>
        <time>2000-01-01T11:39:19.000Z</time>
      </trkpt>
      <trkpt lat="45.67885" lon="6.70447">
        <ele>2082.9</ele>
        <time>2000-01-01T11:39:29.000Z</time>
      </trkpt>
      <trkpt lat="45.67886" lon="6.70433">
        <ele>2093</ele>
        <time>2000-01-01T11:39:39.000Z</time>
      </trkpt>
      <trkpt lat="45.67891" lon="6.70421">
        <ele>2083.9</ele>
        <time>2000-01-01T11:39:49.000Z</time>
      </trkpt>
      <trkpt lat="45.67899" lon="6.70414">
        <ele>2093</ele>
        <time>2000-01-01T11:39:59.000Z</time>
      </trkpt>
      <trkpt lat="45.67896" lon="6.70402">
        <ele>2080.7</ele>
        <time>2000-01-01T11:40:09.000Z</time>
      </trkpt>
      <trkpt lat="45.67894" lon="6.70377">
        <ele>2077</ele>
        <time>2000-01-01T11:40:19.000Z</time>
      </trkpt>
      <trkpt lat="45.67892" lon="6.70364">
        <ele>2072.5</ele>
        <time>2000-01-01T11:40:29.000Z</time>
      </trkpt>
      <trkpt lat="45.67884" lon="6.70359">
        <ele>2072.2</ele>
        <time>2000-01-01T11:40:39.000Z</time>
      </trkpt>
      <trkpt lat="45.67881" lon="6.70348">
        <ele>2068</ele>
        <time>2000-01-01T11:40:49.000Z</time>
      </trkpt>
      <trkpt lat="45.67865" lon="6.70315">
        <ele>2066</ele>
        <time>2000-01-01T11:40:59.000Z</time>
      </trkpt>
      <trkpt lat="45.67872" lon="6.70312">
        <ele>2053.2</ele>
        <time>2000-01-01T11:41:09.000Z</time>
      </trkpt>
      <trkpt lat="45.67891" lon="6.70314">
        <ele>2060</ele>
        <time>2000-01-01T11:41:19.000Z</time>
      </trkpt>
      <trkpt lat="45.67901" lon="6.70313">
        <ele>2045</ele>
        <time>2000-01-01T11:41:29.000Z</time>
      </trkpt>
      <trkpt lat="45.67908" lon="6.70306">
        <ele>2039</ele>
        <time>2000-01-01T11:41:39.000Z</time>
      </trkpt>
      <trkpt lat="45.67905" lon="6.70294">
        <ele>2049</ele>
        <time>2000-01-01T11:41:49.000Z</time>
      </trkpt>
      <trkpt lat="45.67922" lon="6.70286">
        <ele>2026.8</ele>
        <time>2000-01-01T11:41:59.000Z</time>
      </trkpt>
      <trkpt lat="45.67931" lon="6.70285">
        <ele>2034</ele>
        <time>2000-01-01T11:42:09.000Z</time>
      </trkpt>
      <trkpt lat="45.67937" lon="6.70267">
        <ele>2017.9</ele>
        <time>2000-01-01T11:42:19.000Z</time>
      </trkpt>
      <trkpt lat="45.67943" lon="6.70256">
        <ele>2026</ele>
        <time>2000-01-01T11:42:29.000Z</time>
      </trkpt>
      <trkpt lat="45.67945" lon="6.70247">
        <ele>2012.5</ele>
        <time>2000-01-01T11:42:39.000Z</time>
      </trkpt>
      <trkpt lat="45.67953" lon="6.70248">
        <ele>2010.3</ele>
        <time>2000-01-01T11:42:49.000Z</time>
      </trkpt>
      <trkpt lat="45.67954" lon="6.7024">
        <ele>2026</ele>
        <time>2000-01-01T11:42:59.000Z</time>
      </trkpt>
      <trkpt lat="45.67952" lon="6.70227">
        <ele>2008.6</ele>
        <time>2000-01-01T11:43:09.000Z</time>
      </trkpt>
      <trkpt lat="45.67959" lon="6.70203">
        <ele>2028</ele>
        <time>2000-01-01T11:43:19.000Z</time>
      </trkpt>
      <trkpt lat="45.67965" lon="6.702">
        <ele>2008.2</ele>
        <time>2000-01-01T11:43:29.000Z</time>
      </trkpt>
      <trkpt lat="45.67974" lon="6.70194">
        <ele>2009</ele>
        <time>2000-01-01T11:43:39.000Z</time>
      </trkpt>
      <trkpt lat="45.67993" lon="6.70188">
        <ele>2034</ele>
        <time>2000-01-01T11:43:49.000Z</time>
      </trkpt>
      <trkpt lat="45.68004" lon="6.70188">
        <ele>2008.8</ele>
        <time>2000-01-01T11:43:59.000Z</time>
      </trkpt>
      <trkpt lat="45.68013" lon="6.70185">
        <ele>2034</ele>
        <time>2000-01-01T11:44:09.000Z</time>
      </trkpt>
      <trkpt lat="45.68022" lon="6.70185">
        <ele>2008.8</ele>
        <time>2000-01-01T11:44:19.000Z</time>
      </trkpt>
      <trkpt lat="45.68032" lon="6.70186">
        <ele>2034</ele>
        <time>2000-01-01T11:44:29.000Z</time>
      </trkpt>
      <trkpt lat="45.68041" lon="6.7019">
        <ele>2007.6</ele>
        <time>2000-01-01T11:44:39.000Z</time>
      </trkpt>
      <trkpt lat="45.6806" lon="6.70196">
        <ele>2028</ele>
        <time>2000-01-01T11:44:49.000Z</time>
      </trkpt>
      <trkpt lat="45.68069" lon="6.702">
        <ele>2007.3</ele>
        <time>2000-01-01T11:44:59.000Z</time>
      </trkpt>
      <trkpt lat="45.68078" lon="6.70205">
        <ele>2022</ele>
        <time>2000-01-01T11:45:09.000Z</time>
      </trkpt>
      <trkpt lat="45.68095" lon="6.70219">
        <ele>2024</ele>
        <time>2000-01-01T11:45:19.000Z</time>
      </trkpt>
      <trkpt lat="45.68105" lon="6.70226">
        <ele>2007</ele>
        <time>2000-01-01T11:45:29.000Z</time>
      </trkpt>
      <trkpt lat="45.68114" lon="6.70231">
        <ele>2023</ele>
        <time>2000-01-01T11:45:39.000Z</time>
      </trkpt>
      <trkpt lat="45.68122" lon="6.7024">
        <ele>2006.9</ele>
        <time>2000-01-01T11:45:49.000Z</time>
      </trkpt>
      <trkpt lat="45.68148" lon="6.7026">
        <ele>2022</ele>
        <time>2000-01-01T11:45:59.000Z</time>
      </trkpt>
      <trkpt lat="45.68165" lon="6.70274">
        <ele>2022</ele>
        <time>2000-01-01T11:46:09.000Z</time>
      </trkpt>
      <trkpt lat="45.68201" lon="6.70299">
        <ele>2022</ele>
        <time>2000-01-01T11:46:19.000Z</time>
      </trkpt>
      <trkpt lat="45.68233" lon="6.70329">
        <ele>2019</ele>
        <time>2000-01-01T11:46:29.000Z</time>
      </trkpt>
      <trkpt lat="45.6825" lon="6.70342">
        <ele>2016</ele>
        <time>2000-01-01T11:46:39.000Z</time>
      </trkpt>
      <trkpt lat="45.68277" lon="6.70357">
        <ele>2014</ele>
        <time>2000-01-01T11:46:49.000Z</time>
      </trkpt>
      <trkpt lat="45.68294" lon="6.7037">
        <ele>2014</ele>
        <time>2000-01-01T11:46:59.000Z</time>
      </trkpt>
      <trkpt lat="45.68312" lon="6.7038">
        <ele>2014</ele>
        <time>2000-01-01T11:47:09.000Z</time>
      </trkpt>
      <trkpt lat="45.68331" lon="6.70386">
        <ele>2014</ele>
        <time>2000-01-01T11:47:19.000Z</time>
      </trkpt>
      <trkpt lat="45.6835" lon="6.70386">
        <ele>2011</ele>
        <time>2000-01-01T11:47:29.000Z</time>
      </trkpt>
      <trkpt lat="45.6836" lon="6.70387">
        <ele>2000.5</ele>
        <time>2000-01-01T11:47:39.000Z</time>
      </trkpt>
      <trkpt lat="45.68379" lon="6.70386">
        <ele>2011</ele>
        <time>2000-01-01T11:47:49.000Z</time>
      </trkpt>
      <trkpt lat="45.68389" lon="6.70388">
        <ele>2001.3</ele>
        <time>2000-01-01T11:47:59.000Z</time>
      </trkpt>
      <trkpt lat="45.68409" lon="6.70395">
        <ele>2011</ele>
        <time>2000-01-01T11:48:09.000Z</time>
      </trkpt>
      <trkpt lat="45.68419" lon="6.70395">
        <ele>2000.8</ele>
        <time>2000-01-01T11:48:19.000Z</time>
      </trkpt>
      <trkpt lat="45.68428" lon="6.70391">
        <ele>2012</ele>
        <time>2000-01-01T11:48:29.000Z</time>
      </trkpt>
      <trkpt lat="45.68437" lon="6.70386">
        <ele>2001.3</ele>
        <time>2000-01-01T11:48:39.000Z</time>
      </trkpt>
      <trkpt lat="45.68467" lon="6.70378">
        <ele>2017</ele>
        <time>2000-01-01T11:48:49.000Z</time>
      </trkpt>
      <trkpt lat="45.68486" lon="6.70377">
        <ele>2017</ele>
        <time>2000-01-01T11:48:59.000Z</time>
      </trkpt>
      <trkpt lat="45.68495" lon="6.70375">
        <ele>1999.6</ele>
        <time>2000-01-01T11:49:09.000Z</time>
      </trkpt>
      <trkpt lat="45.68513" lon="6.70376">
        <ele>2017</ele>
        <time>2000-01-01T11:49:19.000Z</time>
      </trkpt>
      <trkpt lat="45.68522" lon="6.70374">
        <ele>1997.8</ele>
        <time>2000-01-01T11:49:29.000Z</time>
      </trkpt>
      <trkpt lat="45.68532" lon="6.70371">
        <ele>2017</ele>
        <time>2000-01-01T11:49:39.000Z</time>
      </trkpt>
      <trkpt lat="45.68559" lon="6.70358">
        <ele>2016</ele>
        <time>2000-01-01T11:49:49.000Z</time>
      </trkpt>
      <trkpt lat="45.68586" lon="6.70348">
        <ele>2016</ele>
        <time>2000-01-01T11:49:59.000Z</time>
      </trkpt>
      <trkpt lat="45.68595" lon="6.70346">
        <ele>2000</ele>
        <time>2000-01-01T11:50:09.000Z</time>
      </trkpt>
      <trkpt lat="45.68605" lon="6.70347">
        <ele>2014</ele>
        <time>2000-01-01T11:50:19.000Z</time>
      </trkpt>
      <trkpt lat="45.68614" lon="6.70349">
        <ele>1999.9</ele>
        <time>2000-01-01T11:50:29.000Z</time>
      </trkpt>
      <trkpt lat="45.68623" lon="6.70356">
        <ele>2010</ele>
        <time>2000-01-01T11:50:39.000Z</time>
      </trkpt>
      <trkpt lat="45.68641" lon="6.70373">
        <ele>2006</ele>
        <time>2000-01-01T11:50:49.000Z</time>
      </trkpt>
      <trkpt lat="45.6865" lon="6.70375">
        <ele>1995.3</ele>
        <time>2000-01-01T11:50:59.000Z</time>
      </trkpt>
      <trkpt lat="45.6866" lon="6.70375">
        <ele>2002</ele>
        <time>2000-01-01T11:51:09.000Z</time>
      </trkpt>
      <trkpt lat="45.68669" lon="6.70373">
        <ele>1997.1</ele>
        <time>2000-01-01T11:51:19.000Z</time>
      </trkpt>
      <trkpt lat="45.68678" lon="6.70373">
        <ele>1996.7</ele>
        <time>2000-01-01T11:51:29.000Z</time>
      </trkpt>
      <trkpt lat="45.68687" lon="6.70375">
        <ele>2002</ele>
        <time>2000-01-01T11:51:39.000Z</time>
      </trkpt>
      <trkpt lat="45.68697" lon="6.70372">
        <ele>1995</ele>
        <time>2000-01-01T11:51:49.000Z</time>
      </trkpt>
      <trkpt lat="45.68706" lon="6.70366">
        <ele>2001</ele>
        <time>2000-01-01T11:51:59.000Z</time>
      </trkpt>
      <trkpt lat="45.68713" lon="6.70355">
        <ele>1993.4</ele>
        <time>2000-01-01T11:52:09.000Z</time>
      </trkpt>
      <trkpt lat="45.6872" lon="6.70333">
        <ele>2001</ele>
        <time>2000-01-01T11:52:19.000Z</time>
      </trkpt>
      <trkpt lat="45.68726" lon="6.70323">
        <ele>1997</ele>
        <time>2000-01-01T11:52:29.000Z</time>
      </trkpt>
      <trkpt lat="45.68733" lon="6.70315">
        <ele>1997.2</ele>
        <time>2000-01-01T11:52:39.000Z</time>
      </trkpt>
      <trkpt lat="45.68741" lon="6.70309">
        <ele>2002</ele>
        <time>2000-01-01T11:52:49.000Z</time>
      </trkpt>
      <trkpt lat="45.6875" lon="6.70305">
        <ele>1995.2</ele>
        <time>2000-01-01T11:52:59.000Z</time>
      </trkpt>
      <trkpt lat="45.6876" lon="6.70303">
        <ele>2002</ele>
        <time>2000-01-01T11:53:09.000Z</time>
      </trkpt>
      <trkpt lat="45.68769" lon="6.70295">
        <ele>1994.9</ele>
        <time>2000-01-01T11:53:19.000Z</time>
      </trkpt>
      <trkpt lat="45.68774" lon="6.70283">
        <ele>1998</ele>
        <time>2000-01-01T11:53:29.000Z</time>
      </trkpt>
      <trkpt lat="45.68782" lon="6.70259">
        <ele>1993.5</ele>
        <time>2000-01-01T11:53:39.000Z</time>
      </trkpt>
      <trkpt lat="45.68783" lon="6.70247">
        <ele>1998</ele>
        <time>2000-01-01T11:53:49.000Z</time>
      </trkpt>
      <trkpt lat="45.68782" lon="6.70206">
        <ele>1996</ele>
        <time>2000-01-01T11:53:59.000Z</time>
      </trkpt>
      <trkpt lat="45.68785" lon="6.70193">
        <ele>1993.9</ele>
        <time>2000-01-01T11:54:09.000Z</time>
      </trkpt>
      <trkpt lat="45.68806" lon="6.70166">
        <ele>1995</ele>
        <time>2000-01-01T11:54:19.000Z</time>
      </trkpt>
      <trkpt lat="45.68815" lon="6.7016">
        <ele>1993.3</ele>
        <time>2000-01-01T11:54:29.000Z</time>
      </trkpt>
      <trkpt lat="45.68823" lon="6.70164">
        <ele>1992.5</ele>
        <time>2000-01-01T11:54:39.000Z</time>
      </trkpt>
      <trkpt lat="45.68831" lon="6.70172">
        <ele>1995</ele>
        <time>2000-01-01T11:54:49.000Z</time>
      </trkpt>
      <trkpt lat="45.6884" lon="6.70177">
        <ele>1991.3</ele>
        <time>2000-01-01T11:54:59.000Z</time>
      </trkpt>
      <trkpt lat="45.6885" lon="6.70178">
        <ele>1995</ele>
        <time>2000-01-01T11:55:09.000Z</time>
      </trkpt>
      <trkpt lat="45.68859" lon="6.70177">
        <ele>1991.5</ele>
        <time>2000-01-01T11:55:19.000Z</time>
      </trkpt>
      <trkpt lat="45.68879" lon="6.70173">
        <ele>1995</ele>
        <time>2000-01-01T11:55:29.000Z</time>
      </trkpt>
      <trkpt lat="45.68916" lon="6.7016">
        <ele>1997</ele>
        <time>2000-01-01T11:55:39.000Z</time>
      </trkpt>
      <trkpt lat="45.68926" lon="6.70159">
        <ele>1990.9</ele>
        <time>2000-01-01T11:55:49.000Z</time>
      </trkpt>
      <trkpt lat="45.68945" lon="6.70163">
        <ele>1993</ele>
        <time>2000-01-01T11:55:59.000Z</time>
      </trkpt>
      <trkpt lat="45.68964" lon="6.70168">
        <ele>1993</ele>
        <time>2000-01-01T11:56:09.000Z</time>
      </trkpt>
      <trkpt lat="45.68974" lon="6.70163">
        <ele>1986.3</ele>
        <time>2000-01-01T11:56:19.000Z</time>
      </trkpt>
      <trkpt lat="45.6898" lon="6.70154">
        <ele>1994</ele>
        <time>2000-01-01T11:56:29.000Z</time>
      </trkpt>
      <trkpt lat="45.68981" lon="6.70141">
        <ele>1984.1</ele>
        <time>2000-01-01T11:56:39.000Z</time>
      </trkpt>
      <trkpt lat="45.68981" lon="6.70127">
        <ele>1994</ele>
        <time>2000-01-01T11:56:49.000Z</time>
      </trkpt>
      <trkpt lat="45.68982" lon="6.70113">
        <ele>1985.5</ele>
        <time>2000-01-01T11:56:59.000Z</time>
      </trkpt>
      <trkpt lat="45.68982" lon="6.70084">
        <ele>1996</ele>
        <time>2000-01-01T11:57:09.000Z</time>
      </trkpt>
      <trkpt lat="45.68984" lon="6.70056">
        <ele>1997</ele>
        <time>2000-01-01T11:57:19.000Z</time>
      </trkpt>
      <trkpt lat="45.68984" lon="6.70028">
        <ele>1997</ele>
        <time>2000-01-01T11:57:29.000Z</time>
      </trkpt>
      <trkpt lat="45.6898" lon="6.69988">
        <ele>2003</ele>
        <time>2000-01-01T11:57:39.000Z</time>
      </trkpt>
      <trkpt lat="45.68975" lon="6.69961">
        <ele>2003</ele>
        <time>2000-01-01T11:57:49.000Z</time>
      </trkpt>
      <trkpt lat="45.6897" lon="6.69925">
        <ele>2002</ele>
        <time>2000-01-01T11:57:59.000Z</time>
      </trkpt>
      <trkpt lat="45.68964" lon="6.69881">
        <ele>2002</ele>
        <time>2000-01-01T11:58:09.000Z</time>
      </trkpt>
      <trkpt lat="45.68964" lon="6.69867">
        <ele>1983.4</ele>
        <time>2000-01-01T11:58:19.000Z</time>
      </trkpt>
      <trkpt lat="45.68965" lon="6.69853">
        <ele>2000</ele>
        <time>2000-01-01T11:58:29.000Z</time>
      </trkpt>
      <trkpt lat="45.68967" lon="6.69839">
        <ele>1983.5</ele>
        <time>2000-01-01T11:58:39.000Z</time>
      </trkpt>
      <trkpt lat="45.68985" lon="6.6976">
        <ele>1999</ele>
        <time>2000-01-01T11:58:49.000Z</time>
      </trkpt>
      <trkpt lat="45.69003" lon="6.69711">
        <ele>1995</ele>
        <time>2000-01-01T11:58:59.000Z</time>
      </trkpt>
      <trkpt lat="45.69004" lon="6.69697">
        <ele>1983.9</ele>
        <time>2000-01-01T11:59:09.000Z</time>
      </trkpt>
      <trkpt lat="45.69004" lon="6.69683">
        <ele>1995</ele>
        <time>2000-01-01T11:59:19.000Z</time>
      </trkpt>
      <trkpt lat="45.69005" lon="6.69669">
        <ele>1984.8</ele>
        <time>2000-01-01T11:59:29.000Z</time>
      </trkpt>
      <trkpt lat="45.69007" lon="6.69655">
        <ele>1995</ele>
        <time>2000-01-01T11:59:39.000Z</time>
      </trkpt>
      <trkpt lat="45.69019" lon="6.69603">
        <ele>1990</ele>
        <time>2000-01-01T11:59:49.000Z</time>
      </trkpt>
      <trkpt lat="45.69021" lon="6.69576">
        <ele>1993</ele>
        <time>2000-01-01T11:59:59.000Z</time>
      </trkpt>
      <trkpt lat="45.6902" lon="6.69562">
        <ele>1984.3</ele>
        <time>2000-01-01T12:00:09.000Z</time>
      </trkpt>
      <trkpt lat="45.69019" lon="6.69534">
        <ele>1993</ele>
        <time>2000-01-01T12:00:19.000Z</time>
      </trkpt>
      <trkpt lat="45.69016" lon="6.69495">
        <ele>1993</ele>
        <time>2000-01-01T12:00:29.000Z</time>
      </trkpt>
      <trkpt lat="45.69012" lon="6.6944">
        <ele>1991</ele>
        <time>2000-01-01T12:00:39.000Z</time>
      </trkpt>
      <trkpt lat="45.69009" lon="6.69427">
        <ele>1983.9</ele>
        <time>2000-01-01T12:00:49.000Z</time>
      </trkpt>
      <trkpt lat="45.69005" lon="6.69415">
        <ele>1991</ele>
        <time>2000-01-01T12:00:59.000Z</time>
      </trkpt>
      <trkpt lat="45.68987" lon="6.69384">
        <ele>1990</ele>
        <time>2000-01-01T12:01:09.000Z</time>
      </trkpt>
      <trkpt lat="45.68984" lon="6.69371">
        <ele>1984.9</ele>
        <time>2000-01-01T12:01:19.000Z</time>
      </trkpt>
      <trkpt lat="45.68983" lon="6.69358">
        <ele>1984.3</ele>
        <time>2000-01-01T12:01:29.000Z</time>
      </trkpt>
      <trkpt lat="45.68984" lon="6.69345">
        <ele>1990</ele>
        <time>2000-01-01T12:01:39.000Z</time>
      </trkpt>
      <trkpt lat="45.68987" lon="6.69332">
        <ele>1983.5</ele>
        <time>2000-01-01T12:01:49.000Z</time>
      </trkpt>
      <trkpt lat="45.68992" lon="6.69321">
        <ele>1983.6</ele>
        <time>2000-01-01T12:01:59.000Z</time>
      </trkpt>
      <trkpt lat="45.69" lon="6.69293">
        <ele>1989</ele>
        <time>2000-01-01T12:02:09.000Z</time>
      </trkpt>
      <trkpt lat="45.6901" lon="6.69268">
        <ele>1994</ele>
        <time>2000-01-01T12:02:19.000Z</time>
      </trkpt>
      <trkpt lat="45.69021" lon="6.69244">
        <ele>1988</ele>
        <time>2000-01-01T12:02:29.000Z</time>
      </trkpt>
      <trkpt lat="45.69025" lon="6.6923">
        <ele>1989.3</ele>
        <time>2000-01-01T12:02:39.000Z</time>
      </trkpt>
      <trkpt lat="45.69019" lon="6.69203">
        <ele>1982</ele>
        <time>2000-01-01T12:02:49.000Z</time>
      </trkpt>
      <trkpt lat="45.69015" lon="6.69177">
        <ele>1988.5</ele>
        <time>2000-01-01T12:02:59.000Z</time>
      </trkpt>
      <trkpt lat="45.69016" lon="6.69164">
        <ele>1983</ele>
        <time>2000-01-01T12:03:09.000Z</time>
      </trkpt>
      <trkpt lat="45.69024" lon="6.69138">
        <ele>1982</ele>
        <time>2000-01-01T12:03:19.000Z</time>
      </trkpt>
      <trkpt lat="45.69027" lon="6.69125">
        <ele>1986.1</ele>
        <time>2000-01-01T12:03:29.000Z</time>
      </trkpt>
      <trkpt lat="45.69041" lon="6.69077">
        <ele>1981</ele>
        <time>2000-01-01T12:03:39.000Z</time>
      </trkpt>
      <trkpt lat="45.69043" lon="6.69064">
        <ele>1980.2</ele>
        <time>2000-01-01T12:03:49.000Z</time>
      </trkpt>
      <trkpt lat="45.69047" lon="6.69051">
        <ele>1979</ele>
        <time>2000-01-01T12:03:59.000Z</time>
      </trkpt>
      <trkpt lat="45.69054" lon="6.69035">
        <ele>1977.2</ele>
        <time>2000-01-01T12:04:09.000Z</time>
      </trkpt>
      <trkpt lat="45.69068" lon="6.69023">
        <ele>1978</ele>
        <time>2000-01-01T12:04:19.000Z</time>
      </trkpt>
      <trkpt lat="45.69098" lon="6.69028">
        <ele>1976</ele>
        <time>2000-01-01T12:04:29.000Z</time>
      </trkpt>
      <trkpt lat="45.69119" lon="6.6904">
        <ele>1975</ele>
        <time>2000-01-01T12:04:39.000Z</time>
      </trkpt>
      <trkpt lat="45.69139" lon="6.69059">
        <ele>1975</ele>
        <time>2000-01-01T12:04:49.000Z</time>
      </trkpt>
      <trkpt lat="45.69152" lon="6.69086">
        <ele>1976</ele>
        <time>2000-01-01T12:04:59.000Z</time>
      </trkpt>
      <trkpt lat="45.69152" lon="6.69087">
        <ele>1969.1</ele>
        <time>2000-01-01T12:05:09.000Z</time>
      </trkpt>
      <trkpt lat="45.69167" lon="6.69113">
        <ele>1978</ele>
        <time>2000-01-01T12:05:19.000Z</time>
      </trkpt>
      <trkpt lat="45.69176" lon="6.69127">
        <ele>1966.8</ele>
        <time>2000-01-01T12:05:29.000Z</time>
      </trkpt>
      <trkpt lat="45.69199" lon="6.69145">
        <ele>1978</ele>
        <time>2000-01-01T12:05:39.000Z</time>
      </trkpt>
      <trkpt lat="45.69218" lon="6.69167">
        <ele>1980</ele>
        <time>2000-01-01T12:05:49.000Z</time>
      </trkpt>
      <trkpt lat="45.69232" lon="6.69178">
        <ele>1965.6</ele>
        <time>2000-01-01T12:05:59.000Z</time>
      </trkpt>
      <trkpt lat="45.69243" lon="6.69184">
        <ele>1982</ele>
        <time>2000-01-01T12:06:09.000Z</time>
      </trkpt>
      <trkpt lat="45.69256" lon="6.69178">
        <ele>1967.5</ele>
        <time>2000-01-01T12:06:19.000Z</time>
      </trkpt>
      <trkpt lat="45.69269" lon="6.69179">
        <ele>1982</ele>
        <time>2000-01-01T12:06:29.000Z</time>
      </trkpt>
      <trkpt lat="45.69282" lon="6.69178">
        <ele>1969</ele>
        <time>2000-01-01T12:06:39.000Z</time>
      </trkpt>
      <trkpt lat="45.69293" lon="6.69168">
        <ele>1980</ele>
        <time>2000-01-01T12:06:49.000Z</time>
      </trkpt>
      <trkpt lat="45.69303" lon="6.6916">
        <ele>1973</ele>
        <time>2000-01-01T12:06:59.000Z</time>
      </trkpt>
      <trkpt lat="45.69319" lon="6.69166">
        <ele>1984</ele>
        <time>2000-01-01T12:07:09.000Z</time>
      </trkpt>
      <trkpt lat="45.6935" lon="6.69187">
        <ele>1976</ele>
        <time>2000-01-01T12:07:19.000Z</time>
      </trkpt>
      <trkpt lat="45.69363" lon="6.69211">
        <ele>1973</ele>
        <time>2000-01-01T12:07:29.000Z</time>
      </trkpt>
      <trkpt lat="45.69372" lon="6.69232">
        <ele>1968.9</ele>
        <time>2000-01-01T12:07:39.000Z</time>
      </trkpt>
      <trkpt lat="45.69384" lon="6.6925">
        <ele>1971</ele>
        <time>2000-01-01T12:07:49.000Z</time>
      </trkpt>
      <trkpt lat="45.69393" lon="6.69268">
        <ele>1971</ele>
        <time>2000-01-01T12:07:59.000Z</time>
      </trkpt>
      <trkpt lat="45.69404" lon="6.69271">
        <ele>1975</ele>
        <time>2000-01-01T12:08:09.000Z</time>
      </trkpt>
      <trkpt lat="45.69411" lon="6.69282">
        <ele>1972.1</ele>
        <time>2000-01-01T12:08:19.000Z</time>
      </trkpt>
      <trkpt lat="45.69421" lon="6.69288">
        <ele>1974</ele>
        <time>2000-01-01T12:08:29.000Z</time>
      </trkpt>
      <trkpt lat="45.69439" lon="6.69307">
        <ele>1977</ele>
        <time>2000-01-01T12:08:39.000Z</time>
      </trkpt>
      <trkpt lat="45.69451" lon="6.69322">
        <ele>1979.4</ele>
        <time>2000-01-01T12:08:49.000Z</time>
      </trkpt>
      <trkpt lat="45.69458" lon="6.69332">
        <ele>1981</ele>
        <time>2000-01-01T12:08:59.000Z</time>
      </trkpt>
      <trkpt lat="45.69467" lon="6.69342">
        <ele>1982.1</ele>
        <time>2000-01-01T12:09:09.000Z</time>
      </trkpt>
      <trkpt lat="45.69473" lon="6.69356">
        <ele>1986</ele>
        <time>2000-01-01T12:09:19.000Z</time>
      </trkpt>
      <trkpt lat="45.69478" lon="6.6937">
        <ele>1980.3</ele>
        <time>2000-01-01T12:09:29.000Z</time>
      </trkpt>
      <trkpt lat="45.69492" lon="6.69373">
        <ele>1987</ele>
        <time>2000-01-01T12:09:39.000Z</time>
      </trkpt>
      <trkpt lat="45.69535" lon="6.69373">
        <ele>1988</ele>
        <time>2000-01-01T12:09:49.000Z</time>
      </trkpt>
      <trkpt lat="45.69545" lon="6.69379">
        <ele>1983.6</ele>
        <time>2000-01-01T12:09:59.000Z</time>
      </trkpt>
      <trkpt lat="45.69558" lon="6.69371">
        <ele>1991</ele>
        <time>2000-01-01T12:10:09.000Z</time>
      </trkpt>
      <trkpt lat="45.6957" lon="6.69365">
        <ele>1984.8</ele>
        <time>2000-01-01T12:10:19.000Z</time>
      </trkpt>
      <trkpt lat="45.69582" lon="6.69352">
        <ele>1991</ele>
        <time>2000-01-01T12:10:29.000Z</time>
      </trkpt>
      <trkpt lat="45.69592" lon="6.69338">
        <ele>1988.4</ele>
        <time>2000-01-01T12:10:39.000Z</time>
      </trkpt>
      <trkpt lat="45.69603" lon="6.69329">
        <ele>1991</ele>
        <time>2000-01-01T12:10:49.000Z</time>
      </trkpt>
      <trkpt lat="45.69618" lon="6.69329">
        <ele>1989.5</ele>
        <time>2000-01-01T12:10:59.000Z</time>
      </trkpt>
      <trkpt lat="45.69627" lon="6.69339">
        <ele>1991</ele>
        <time>2000-01-01T12:11:09.000Z</time>
      </trkpt>
      <trkpt lat="45.69636" lon="6.69346">
        <ele>1987.1</ele>
        <time>2000-01-01T12:11:19.000Z</time>
      </trkpt>
      <trkpt lat="45.69654" lon="6.69346">
        <ele>1991</ele>
        <time>2000-01-01T12:11:29.000Z</time>
      </trkpt>
      <trkpt lat="45.69665" lon="6.69348">
        <ele>1987.8</ele>
        <time>2000-01-01T12:11:39.000Z</time>
      </trkpt>
      <trkpt lat="45.69679" lon="6.69347">
        <ele>1997</ele>
        <time>2000-01-01T12:11:49.000Z</time>
      </trkpt>
      <trkpt lat="45.69689" lon="6.69356">
        <ele>1990</ele>
        <time>2000-01-01T12:11:59.000Z</time>
      </trkpt>
      <trkpt lat="45.69727" lon="6.69373">
        <ele>1997</ele>
        <time>2000-01-01T12:12:09.000Z</time>
      </trkpt>
      <trkpt lat="45.69743" lon="6.69383">
        <ele>1988.1</ele>
        <time>2000-01-01T12:12:19.000Z</time>
      </trkpt>
      <trkpt lat="45.69781" lon="6.69426">
        <ele>1996</ele>
        <time>2000-01-01T12:12:29.000Z</time>
      </trkpt>
      <trkpt lat="45.69797" lon="6.69429">
        <ele>1994.5</ele>
        <time>2000-01-01T12:12:39.000Z</time>
      </trkpt>
      <trkpt lat="45.6981" lon="6.69438">
        <ele>1996</ele>
        <time>2000-01-01T12:12:49.000Z</time>
      </trkpt>
      <trkpt lat="45.69819" lon="6.69455">
        <ele>1997.3</ele>
        <time>2000-01-01T12:12:59.000Z</time>
      </trkpt>
      <trkpt lat="45.69829" lon="6.69457">
        <ele>1999</ele>
        <time>2000-01-01T12:13:09.000Z</time>
      </trkpt>
      <trkpt lat="45.69836" lon="6.69468">
        <ele>1998.2</ele>
        <time>2000-01-01T12:13:19.000Z</time>
      </trkpt>
      <trkpt lat="45.69835" lon="6.69485">
        <ele>2001</ele>
        <time>2000-01-01T12:13:29.000Z</time>
      </trkpt>
      <trkpt lat="45.69841" lon="6.69505">
        <ele>2004.4</ele>
        <time>2000-01-01T12:13:39.000Z</time>
      </trkpt>
      <trkpt lat="45.69846" lon="6.69525">
        <ele>2010</ele>
        <time>2000-01-01T12:13:49.000Z</time>
      </trkpt>
      <trkpt lat="45.6985" lon="6.69554">
        <ele>2012</ele>
        <time>2000-01-01T12:13:59.000Z</time>
      </trkpt>
      <trkpt lat="45.69851" lon="6.69571">
        <ele>2011.1</ele>
        <time>2000-01-01T12:14:09.000Z</time>
      </trkpt>
      <trkpt lat="45.6985" lon="6.69591">
        <ele>2015</ele>
        <time>2000-01-01T12:14:19.000Z</time>
      </trkpt>
      <trkpt lat="45.69856" lon="6.69602">
        <ele>2010.9</ele>
        <time>2000-01-01T12:14:29.000Z</time>
      </trkpt>
      <trkpt lat="45.69865" lon="6.6961">
        <ele>2016</ele>
        <time>2000-01-01T12:14:39.000Z</time>
      </trkpt>
      <trkpt lat="45.69871" lon="6.69642">
        <ele>2016</ele>
        <time>2000-01-01T12:14:49.000Z</time>
      </trkpt>
      <trkpt lat="45.69889" lon="6.69685">
        <ele>2017</ele>
        <time>2000-01-01T12:14:59.000Z</time>
      </trkpt>
      <trkpt lat="45.69902" lon="6.69697">
        <ele>2012.9</ele>
        <time>2000-01-01T12:15:09.000Z</time>
      </trkpt>
      <trkpt lat="45.69918" lon="6.69706">
        <ele>2019</ele>
        <time>2000-01-01T12:15:19.000Z</time>
      </trkpt>
      <trkpt lat="45.6991" lon="6.69725">
        <ele>2017</ele>
        <time>2000-01-01T12:15:29.000Z</time>
      </trkpt>
      <trkpt lat="45.69918" lon="6.69736">
        <ele>2022</ele>
        <time>2000-01-01T12:15:39.000Z</time>
      </trkpt>
      <trkpt lat="45.69928" lon="6.69745">
        <ele>2019</ele>
        <time>2000-01-01T12:15:49.000Z</time>
      </trkpt>
      <trkpt lat="45.6994" lon="6.69754">
        <ele>2026</ele>
        <time>2000-01-01T12:15:59.000Z</time>
      </trkpt>
      <trkpt lat="45.69963" lon="6.69758">
        <ele>2030</ele>
        <time>2000-01-01T12:16:09.000Z</time>
      </trkpt>
      <trkpt lat="45.69973" lon="6.69755">
        <ele>2017.3</ele>
        <time>2000-01-01T12:16:19.000Z</time>
      </trkpt>
      <trkpt lat="45.69986" lon="6.69768">
        <ele>2030</ele>
        <time>2000-01-01T12:16:29.000Z</time>
      </trkpt>
      <trkpt lat="45.69999" lon="6.69776">
        <ele>2023.9</ele>
        <time>2000-01-01T12:16:39.000Z</time>
      </trkpt>
      <trkpt lat="45.69992" lon="6.6976">
        <ele>2030</ele>
        <time>2000-01-01T12:16:49.000Z</time>
      </trkpt>
      <trkpt lat="45.69994" lon="6.69741">
        <ele>2020.9</ele>
        <time>2000-01-01T12:16:59.000Z</time>
      </trkpt>
      <trkpt lat="45.70002" lon="6.69734">
        <ele>2028</ele>
        <time>2000-01-01T12:17:09.000Z</time>
      </trkpt>
      <trkpt lat="45.7" lon="6.69714">
        <ele>2021.3</ele>
        <time>2000-01-01T12:17:19.000Z</time>
      </trkpt>
      <trkpt lat="45.70003" lon="6.69698">
        <ele>2025</ele>
        <time>2000-01-01T12:17:29.000Z</time>
      </trkpt>
      <trkpt lat="45.69999" lon="6.69681">
        <ele>2020.7</ele>
        <time>2000-01-01T12:17:39.000Z</time>
      </trkpt>
      <trkpt lat="45.70007" lon="6.69673">
        <ele>2026</ele>
        <time>2000-01-01T12:17:49.000Z</time>
      </trkpt>
      <trkpt lat="45.7002" lon="6.6967">
        <ele>2026.3</ele>
        <time>2000-01-01T12:17:59.000Z</time>
      </trkpt>
      <trkpt lat="45.70032" lon="6.69662">
        <ele>2027</ele>
        <time>2000-01-01T12:18:09.000Z</time>
      </trkpt>
      <trkpt lat="45.70043" lon="6.69657">
        <ele>2031.6</ele>
        <time>2000-01-01T12:18:19.000Z</time>
      </trkpt>
      <trkpt lat="45.70052" lon="6.69649">
        <ele>2034</ele>
        <time>2000-01-01T12:18:29.000Z</time>
      </trkpt>
      <trkpt lat="45.7006" lon="6.69632">
        <ele>2031.1</ele>
        <time>2000-01-01T12:18:39.000Z</time>
      </trkpt>
      <trkpt lat="45.7007" lon="6.69645">
        <ele>2034</ele>
        <time>2000-01-01T12:18:49.000Z</time>
      </trkpt>
      <trkpt lat="45.70093" lon="6.69637">
        <ele>2045</ele>
        <time>2000-01-01T12:18:59.000Z</time>
      </trkpt>
      <trkpt lat="45.70107" lon="6.69625">
        <ele>2047.7</ele>
        <time>2000-01-01T12:19:09.000Z</time>
      </trkpt>
      <trkpt lat="45.70119" lon="6.69607">
        <ele>2050</ele>
        <time>2000-01-01T12:19:19.000Z</time>
      </trkpt>
      <trkpt lat="45.70127" lon="6.69617">
        <ele>2053.2</ele>
        <time>2000-01-01T12:19:29.000Z</time>
      </trkpt>
      <trkpt lat="45.70163" lon="6.69638">
        <ele>2071</ele>
        <time>2000-01-01T12:19:39.000Z</time>
      </trkpt>
      <trkpt lat="45.70175" lon="6.69644">
        <ele>2069.3</ele>
        <time>2000-01-01T12:19:49.000Z</time>
      </trkpt>
      <trkpt lat="45.70186" lon="6.69643">
        <ele>2071</ele>
        <time>2000-01-01T12:19:59.000Z</time>
      </trkpt>
      <trkpt lat="45.70203" lon="6.69647">
        <ele>2075</ele>
        <time>2000-01-01T12:20:09.000Z</time>
      </trkpt>
      <trkpt lat="45.70215" lon="6.69654">
        <ele>2094</ele>
        <time>2000-01-01T12:20:19.000Z</time>
      </trkpt>
      <trkpt lat="45.70228" lon="6.69664">
        <ele>2085.7</ele>
        <time>2000-01-01T12:20:29.000Z</time>
      </trkpt>
      <trkpt lat="45.70244" lon="6.69662">
        <ele>2106</ele>
        <time>2000-01-01T12:20:39.000Z</time>
      </trkpt>
      <trkpt lat="45.70262" lon="6.69686">
        <ele>2106</ele>
        <time>2000-01-01T12:20:49.000Z</time>
      </trkpt>
      <trkpt lat="45.70273" lon="6.6969">
        <ele>2098.9</ele>
        <time>2000-01-01T12:20:59.000Z</time>
      </trkpt>
      <trkpt lat="45.7028" lon="6.69702">
        <ele>2113</ele>
        <time>2000-01-01T12:21:09.000Z</time>
      </trkpt>
      <trkpt lat="45.70292" lon="6.69714">
        <ele>2107.3</ele>
        <time>2000-01-01T12:21:19.000Z</time>
      </trkpt>
      <trkpt lat="45.70302" lon="6.69712">
        <ele>2117</ele>
        <time>2000-01-01T12:21:29.000Z</time>
      </trkpt>
      <trkpt lat="45.70321" lon="6.69703">
        <ele>2118</ele>
        <time>2000-01-01T12:21:39.000Z</time>
      </trkpt>
      <trkpt lat="45.70331" lon="6.69694">
        <ele>2110.4</ele>
        <time>2000-01-01T12:21:49.000Z</time>
      </trkpt>
      <trkpt lat="45.70337" lon="6.69682">
        <ele>2119</ele>
        <time>2000-01-01T12:21:59.000Z</time>
      </trkpt>
      <trkpt lat="45.70342" lon="6.69695">
        <ele>2114.7</ele>
        <time>2000-01-01T12:22:09.000Z</time>
      </trkpt>
      <trkpt lat="45.70355" lon="6.69692">
        <ele>2127</ele>
        <time>2000-01-01T12:22:19.000Z</time>
      </trkpt>
      <trkpt lat="45.70367" lon="6.69695">
        <ele>2124.8</ele>
        <time>2000-01-01T12:22:29.000Z</time>
      </trkpt>
      <trkpt lat="45.70391" lon="6.69698">
        <ele>2136</ele>
        <time>2000-01-01T12:22:39.000Z</time>
      </trkpt>
      <trkpt lat="45.704" lon="6.69703">
        <ele>2135.4</ele>
        <time>2000-01-01T12:22:49.000Z</time>
      </trkpt>
      <trkpt lat="45.70411" lon="6.69712">
        <ele>2142</ele>
        <time>2000-01-01T12:22:59.000Z</time>
      </trkpt>
      <trkpt lat="45.70419" lon="6.69698">
        <ele>2143.6</ele>
        <time>2000-01-01T12:23:09.000Z</time>
      </trkpt>
      <trkpt lat="45.70417" lon="6.69682">
        <ele>2148</ele>
        <time>2000-01-01T12:23:19.000Z</time>
      </trkpt>
      <trkpt lat="45.70426" lon="6.69692">
        <ele>2148.1</ele>
        <time>2000-01-01T12:23:29.000Z</time>
      </trkpt>
      <trkpt lat="45.70435" lon="6.697">
        <ele>2148</ele>
        <time>2000-01-01T12:23:39.000Z</time>
      </trkpt>
      <trkpt lat="45.70445" lon="6.69698">
        <ele>2157.4</ele>
        <time>2000-01-01T12:23:49.000Z</time>
      </trkpt>
      <trkpt lat="45.7046" lon="6.69701">
        <ele>2173</ele>
        <time>2000-01-01T12:23:59.000Z</time>
      </trkpt>
      <trkpt lat="45.70471" lon="6.69694">
        <ele>2171.4</ele>
        <time>2000-01-01T12:24:09.000Z</time>
      </trkpt>
      <trkpt lat="45.70474" lon="6.69677">
        <ele>2186</ele>
        <time>2000-01-01T12:24:19.000Z</time>
      </trkpt>
      <trkpt lat="45.70478" lon="6.69663">
        <ele>2173.6</ele>
        <time>2000-01-01T12:24:29.000Z</time>
      </trkpt>
      <trkpt lat="45.70489" lon="6.69666">
        <ele>2186</ele>
        <time>2000-01-01T12:24:39.000Z</time>
      </trkpt>
      <trkpt lat="45.70504" lon="6.69667">
        <ele>2184</ele>
        <time>2000-01-01T12:24:49.000Z</time>
      </trkpt>
      <trkpt lat="45.70513" lon="6.69657">
        <ele>2187</ele>
        <time>2000-01-01T12:24:59.000Z</time>
      </trkpt>
      <trkpt lat="45.70512" lon="6.69641">
        <ele>2183.1</ele>
        <time>2000-01-01T12:25:09.000Z</time>
      </trkpt>
      <trkpt lat="45.70513" lon="6.69621">
        <ele>2188</ele>
        <time>2000-01-01T12:25:19.000Z</time>
      </trkpt>
      <trkpt lat="45.70506" lon="6.69603">
        <ele>2186</ele>
        <time>2000-01-01T12:25:29.000Z</time>
      </trkpt>
      <trkpt lat="45.70518" lon="6.69604">
        <ele>2188</ele>
        <time>2000-01-01T12:25:39.000Z</time>
      </trkpt>
      <trkpt lat="45.70534" lon="6.69598">
        <ele>2197.6</ele>
        <time>2000-01-01T12:25:49.000Z</time>
      </trkpt>
      <trkpt lat="45.70547" lon="6.69597">
        <ele>2204</ele>
        <time>2000-01-01T12:25:59.000Z</time>
      </trkpt>
      <trkpt lat="45.70562" lon="6.69588">
        <ele>2204.7</ele>
        <time>2000-01-01T12:26:09.000Z</time>
      </trkpt>
      <trkpt lat="45.7056" lon="6.69573">
        <ele>2215</ele>
        <time>2000-01-01T12:26:19.000Z</time>
      </trkpt>
      <trkpt lat="45.7056" lon="6.69558">
        <ele>2205.3</ele>
        <time>2000-01-01T12:26:29.000Z</time>
      </trkpt>
      <trkpt lat="45.70564" lon="6.69551">
        <ele>2206.9</ele>
        <time>2000-01-01T12:26:39.000Z</time>
      </trkpt>
      <trkpt lat="45.7057" lon="6.69535">
        <ele>2217</ele>
        <time>2000-01-01T12:26:49.000Z</time>
      </trkpt>
      <trkpt lat="45.70581" lon="6.69529">
        <ele>2211.5</ele>
        <time>2000-01-01T12:26:59.000Z</time>
      </trkpt>
      <trkpt lat="45.70578" lon="6.69515">
        <ele>2219</ele>
        <time>2000-01-01T12:27:09.000Z</time>
      </trkpt>
      <trkpt lat="45.70587" lon="6.69501">
        <ele>2213.4</ele>
        <time>2000-01-01T12:27:19.000Z</time>
      </trkpt>
      <trkpt lat="45.70595" lon="6.69484">
        <ele>2220</ele>
        <time>2000-01-01T12:27:29.000Z</time>
      </trkpt>
      <trkpt lat="45.70605" lon="6.69472">
        <ele>2223.2</ele>
        <time>2000-01-01T12:27:39.000Z</time>
      </trkpt>
      <trkpt lat="45.70597" lon="6.6948">
        <ele>2220</ele>
        <time>2000-01-01T12:27:49.000Z</time>
      </trkpt>
      <trkpt lat="45.70604" lon="6.69488">
        <ele>2221.3</ele>
        <time>2000-01-01T12:27:59.000Z</time>
      </trkpt>
      <trkpt lat="45.70613" lon="6.69491">
        <ele>2224.7</ele>
        <time>2000-01-01T12:28:09.000Z</time>
      </trkpt>
      <trkpt lat="45.70625" lon="6.6949">
        <ele>2235</ele>
        <time>2000-01-01T12:28:19.000Z</time>
      </trkpt>
      <trkpt lat="45.70634" lon="6.69494">
        <ele>2232.6</ele>
        <time>2000-01-01T12:28:29.000Z</time>
      </trkpt>
      <trkpt lat="45.70662" lon="6.69492">
        <ele>2263</ele>
        <time>2000-01-01T12:28:39.000Z</time>
      </trkpt>
      <trkpt lat="45.70666" lon="6.69507">
        <ele>2244.2</ele>
        <time>2000-01-01T12:28:49.000Z</time>
      </trkpt>
      <trkpt lat="45.70675" lon="6.69501">
        <ele>2263</ele>
        <time>2000-01-01T12:28:59.000Z</time>
      </trkpt>
      <trkpt lat="45.70685" lon="6.69501">
        <ele>2250.6</ele>
        <time>2000-01-01T12:29:09.000Z</time>
      </trkpt>
      <trkpt lat="45.70701" lon="6.69502">
        <ele>2264</ele>
        <time>2000-01-01T12:29:19.000Z</time>
      </trkpt>
      <trkpt lat="45.70724" lon="6.69506">
        <ele>2270</ele>
        <time>2000-01-01T12:29:29.000Z</time>
      </trkpt>
      <trkpt lat="45.70736" lon="6.69509">
        <ele>2269.5</ele>
        <time>2000-01-01T12:29:39.000Z</time>
      </trkpt>
      <trkpt lat="45.70751" lon="6.69501">
        <ele>2282</ele>
        <time>2000-01-01T12:29:49.000Z</time>
      </trkpt>
      <trkpt lat="45.7076" lon="6.69495">
        <ele>2277.4</ele>
        <time>2000-01-01T12:29:59.000Z</time>
      </trkpt>
      <trkpt lat="45.70772" lon="6.69499">
        <ele>2295</ele>
        <time>2000-01-01T12:30:09.000Z</time>
      </trkpt>
      <trkpt lat="45.70786" lon="6.69501">
        <ele>2286.3</ele>
        <time>2000-01-01T12:30:19.000Z</time>
      </trkpt>
      <trkpt lat="45.70796" lon="6.69504">
        <ele>2295</ele>
        <time>2000-01-01T12:30:29.000Z</time>
      </trkpt>
      <trkpt lat="45.70815" lon="6.69492">
        <ele>2295</ele>
        <time>2000-01-01T12:30:39.000Z</time>
      </trkpt>
      <trkpt lat="45.70829" lon="6.69486">
        <ele>2299.5</ele>
        <time>2000-01-01T12:30:49.000Z</time>
      </trkpt>
      <trkpt lat="45.7084" lon="6.69483">
        <ele>2296</ele>
        <time>2000-01-01T12:30:59.000Z</time>
      </trkpt>
      <trkpt lat="45.70849" lon="6.69476">
        <ele>2298.6</ele>
        <time>2000-01-01T12:31:09.000Z</time>
      </trkpt>
      <trkpt lat="45.70862" lon="6.69476">
        <ele>2301</ele>
        <time>2000-01-01T12:31:19.000Z</time>
      </trkpt>
      <trkpt lat="45.70871" lon="6.69478">
        <ele>2300.1</ele>
        <time>2000-01-01T12:31:29.000Z</time>
      </trkpt>
      <trkpt lat="45.70881" lon="6.6947">
        <ele>2299</ele>
        <time>2000-01-01T12:31:39.000Z</time>
      </trkpt>
      <trkpt lat="45.70892" lon="6.69465">
        <ele>2296</ele>
        <time>2000-01-01T12:31:49.000Z</time>
      </trkpt>
      <trkpt lat="45.70896" lon="6.69448">
        <ele>2298</ele>
        <time>2000-01-01T12:31:59.000Z</time>
      </trkpt>
      <trkpt lat="45.7093" lon="6.69438">
        <ele>2301</ele>
        <time>2000-01-01T12:32:09.000Z</time>
      </trkpt>
      <trkpt lat="45.70941" lon="6.69442">
        <ele>2295.4</ele>
        <time>2000-01-01T12:32:19.000Z</time>
      </trkpt>
      <trkpt lat="45.70951" lon="6.69442">
        <ele>2305</ele>
        <time>2000-01-01T12:32:29.000Z</time>
      </trkpt>
      <trkpt lat="45.70961" lon="6.69448">
        <ele>2298.2</ele>
        <time>2000-01-01T12:32:39.000Z</time>
      </trkpt>
      <trkpt lat="45.70972" lon="6.69451">
        <ele>2308</ele>
        <time>2000-01-01T12:32:49.000Z</time>
      </trkpt>
      <trkpt lat="45.70994" lon="6.69449">
        <ele>2308</ele>
        <time>2000-01-01T12:32:59.000Z</time>
      </trkpt>
      <trkpt lat="45.71007" lon="6.69447">
        <ele>2300.5</ele>
        <time>2000-01-01T12:33:09.000Z</time>
      </trkpt>
      <trkpt lat="45.71027" lon="6.69434">
        <ele>2308</ele>
        <time>2000-01-01T12:33:19.000Z</time>
      </trkpt>
      <trkpt lat="45.71043" lon="6.69428">
        <ele>2302.2</ele>
        <time>2000-01-01T12:33:29.000Z</time>
      </trkpt>
      <trkpt lat="45.71051" lon="6.69427">
        <ele>2308</ele>
        <time>2000-01-01T12:33:39.000Z</time>
      </trkpt>
      <trkpt lat="45.71063" lon="6.69421">
        <ele>2301.2</ele>
        <time>2000-01-01T12:33:49.000Z</time>
      </trkpt>
      <trkpt lat="45.71076" lon="6.69431">
        <ele>2307</ele>
        <time>2000-01-01T12:33:59.000Z</time>
      </trkpt>
      <trkpt lat="45.71087" lon="6.69433">
        <ele>2304.7</ele>
        <time>2000-01-01T12:34:09.000Z</time>
      </trkpt>
      <trkpt lat="45.71102" lon="6.69433">
        <ele>2306</ele>
        <time>2000-01-01T12:34:19.000Z</time>
      </trkpt>
      <trkpt lat="45.71125" lon="6.69431">
        <ele>2306</ele>
        <time>2000-01-01T12:34:29.000Z</time>
      </trkpt>
      <trkpt lat="45.71134" lon="6.69434">
        <ele>2306.7</ele>
        <time>2000-01-01T12:34:39.000Z</time>
      </trkpt>
      <trkpt lat="45.71155" lon="6.69445">
        <ele>2310</ele>
        <time>2000-01-01T12:34:49.000Z</time>
      </trkpt>
      <trkpt lat="45.71161" lon="6.69455">
        <ele>2308.3</ele>
        <time>2000-01-01T12:34:59.000Z</time>
      </trkpt>
      <trkpt lat="45.71164" lon="6.69463">
        <ele>2308.2</ele>
        <time>2000-01-01T12:35:09.000Z</time>
      </trkpt>
      <trkpt lat="45.71165" lon="6.69479">
        <ele>2313</ele>
        <time>2000-01-01T12:35:19.000Z</time>
      </trkpt>
      <trkpt lat="45.71161" lon="6.6949">
        <ele>2308.9</ele>
        <time>2000-01-01T12:35:29.000Z</time>
      </trkpt>
      <trkpt lat="45.71155" lon="6.69501">
        <ele>2309.3</ele>
        <time>2000-01-01T12:35:39.000Z</time>
      </trkpt>
      <trkpt lat="45.71155" lon="6.69508">
        <ele>2313</ele>
        <time>2000-01-01T12:35:49.000Z</time>
      </trkpt>
      <trkpt lat="45.71159" lon="6.69524">
        <ele>2307.2</ele>
        <time>2000-01-01T12:35:59.000Z</time>
      </trkpt>
      <trkpt lat="45.7116" lon="6.69531">
        <ele>2306.5</ele>
        <time>2000-01-01T12:36:09.000Z</time>
      </trkpt>
      <trkpt lat="45.71169" lon="6.6955">
        <ele>2310</ele>
        <time>2000-01-01T12:36:19.000Z</time>
      </trkpt>
      <trkpt lat="45.71171" lon="6.69557">
        <ele>2303.8</ele>
        <time>2000-01-01T12:36:29.000Z</time>
      </trkpt>
      <trkpt lat="45.71171" lon="6.69569">
        <ele>2301.9</ele>
        <time>2000-01-01T12:36:39.000Z</time>
      </trkpt>
      <trkpt lat="45.71173" lon="6.69576">
        <ele>2306</ele>
        <time>2000-01-01T12:36:49.000Z</time>
      </trkpt>
      <trkpt lat="45.71182" lon="6.6959">
        <ele>2298</ele>
        <time>2000-01-01T12:36:59.000Z</time>
      </trkpt>
      <trkpt lat="45.71193" lon="6.69616">
        <ele>2303</ele>
        <time>2000-01-01T12:37:09.000Z</time>
      </trkpt>
      <trkpt lat="45.71194" lon="6.69626">
        <ele>2293.9</ele>
        <time>2000-01-01T12:37:19.000Z</time>
      </trkpt>
      <trkpt lat="45.71192" lon="6.69646">
        <ele>2299</ele>
        <time>2000-01-01T12:37:29.000Z</time>
      </trkpt>
      <trkpt lat="45.71194" lon="6.69663">
        <ele>2291.2</ele>
        <time>2000-01-01T12:37:39.000Z</time>
      </trkpt>
      <trkpt lat="45.71197" lon="6.69672">
        <ele>2298</ele>
        <time>2000-01-01T12:37:49.000Z</time>
      </trkpt>
      <trkpt lat="45.71196" lon="6.69678">
        <ele>2288.9</ele>
        <time>2000-01-01T12:37:59.000Z</time>
      </trkpt>
      <trkpt lat="45.71201" lon="6.69691">
        <ele>2286.6</ele>
        <time>2000-01-01T12:38:09.000Z</time>
      </trkpt>
      <trkpt lat="45.7121" lon="6.69702">
        <ele>2295</ele>
        <time>2000-01-01T12:38:19.000Z</time>
      </trkpt>
      <trkpt lat="45.71227" lon="6.69716">
        <ele>2291</ele>
        <time>2000-01-01T12:38:29.000Z</time>
      </trkpt>
      <trkpt lat="45.71238" lon="6.69727">
        <ele>2278.3</ele>
        <time>2000-01-01T12:38:39.000Z</time>
      </trkpt>
      <trkpt lat="45.71248" lon="6.69734">
        <ele>2289</ele>
        <time>2000-01-01T12:38:49.000Z</time>
      </trkpt>
      <trkpt lat="45.7126" lon="6.69738">
        <ele>2276.5</ele>
        <time>2000-01-01T12:38:59.000Z</time>
      </trkpt>
      <trkpt lat="45.71263" lon="6.69743">
        <ele>2275.6</ele>
        <time>2000-01-01T12:39:09.000Z</time>
      </trkpt>
      <trkpt lat="45.71267" lon="6.69748">
        <ele>2278</ele>
        <time>2000-01-01T12:39:19.000Z</time>
      </trkpt>
      <trkpt lat="45.71272" lon="6.69763">
        <ele>2271</ele>
        <time>2000-01-01T12:39:29.000Z</time>
      </trkpt>
      <trkpt lat="45.71276" lon="6.69769">
        <ele>2269</ele>
        <time>2000-01-01T12:39:39.000Z</time>
      </trkpt>
      <trkpt lat="45.71282" lon="6.69781">
        <ele>2276</ele>
        <time>2000-01-01T12:39:49.000Z</time>
      </trkpt>
      <trkpt lat="45.71287" lon="6.69786">
        <ele>2264.1</ele>
        <time>2000-01-01T12:39:59.000Z</time>
      </trkpt>
      <trkpt lat="45.71293" lon="6.69787">
        <ele>2264.1</ele>
        <time>2000-01-01T12:40:09.000Z</time>
      </trkpt>
      <trkpt lat="45.71297" lon="6.69792">
        <ele>2263</ele>
        <time>2000-01-01T12:40:19.000Z</time>
      </trkpt>
      <trkpt lat="45.71304" lon="6.69792">
        <ele>2275</ele>
        <time>2000-01-01T12:40:29.000Z</time>
      </trkpt>
      <trkpt lat="45.71309" lon="6.69798">
        <ele>2262.1</ele>
        <time>2000-01-01T12:40:39.000Z</time>
      </trkpt>
      <trkpt lat="45.71312" lon="6.69805">
        <ele>2260.4</ele>
        <time>2000-01-01T12:40:49.000Z</time>
      </trkpt>
      <trkpt lat="45.71327" lon="6.69819">
        <ele>2272</ele>
        <time>2000-01-01T12:40:59.000Z</time>
      </trkpt>
      <trkpt lat="45.71336" lon="6.6983">
        <ele>2254.8</ele>
        <time>2000-01-01T12:41:09.000Z</time>
      </trkpt>
      <trkpt lat="45.71339" lon="6.69837">
        <ele>2253.3</ele>
        <time>2000-01-01T12:41:19.000Z</time>
      </trkpt>
      <trkpt lat="45.71342" lon="6.69841">
        <ele>2269</ele>
        <time>2000-01-01T12:41:29.000Z</time>
      </trkpt>
      <trkpt lat="45.71349" lon="6.69846">
        <ele>2252.1</ele>
        <time>2000-01-01T12:41:39.000Z</time>
      </trkpt>
      <trkpt lat="45.71354" lon="6.69848">
        <ele>2251.9</ele>
        <time>2000-01-01T12:41:49.000Z</time>
      </trkpt>
      <trkpt lat="45.71364" lon="6.69845">
        <ele>2267</ele>
        <time>2000-01-01T12:41:59.000Z</time>
      </trkpt>
      <trkpt lat="45.71369" lon="6.69842">
        <ele>2250.9</ele>
        <time>2000-01-01T12:42:09.000Z</time>
      </trkpt>
      <trkpt lat="45.71383" lon="6.6985">
        <ele>2255</ele>
        <time>2000-01-01T12:42:19.000Z</time>
      </trkpt>
      <trkpt lat="45.71387" lon="6.69854">
        <ele>2246.2</ele>
        <time>2000-01-01T12:42:29.000Z</time>
      </trkpt>
      <trkpt lat="45.71395" lon="6.69855">
        <ele>2245</ele>
        <time>2000-01-01T12:42:39.000Z</time>
      </trkpt>
      <trkpt lat="45.71404" lon="6.69855">
        <ele>2255</ele>
        <time>2000-01-01T12:42:49.000Z</time>
      </trkpt>
      <trkpt lat="45.71419" lon="6.6985">
        <ele>2242.3</ele>
        <time>2000-01-01T12:42:59.000Z</time>
      </trkpt>
      <trkpt lat="45.71424" lon="6.69846">
        <ele>2254</ele>
        <time>2000-01-01T12:43:09.000Z</time>
      </trkpt>
      <trkpt lat="45.71428" lon="6.69841">
        <ele>2240.8</ele>
        <time>2000-01-01T12:43:19.000Z</time>
      </trkpt>
      <trkpt lat="45.71434" lon="6.69839">
        <ele>2239.5</ele>
        <time>2000-01-01T12:43:29.000Z</time>
      </trkpt>
      <trkpt lat="45.7144" lon="6.69835">
        <ele>2238.1</ele>
        <time>2000-01-01T12:43:39.000Z</time>
      </trkpt>
      <trkpt lat="45.71446" lon="6.69834">
        <ele>2253</ele>
        <time>2000-01-01T12:43:49.000Z</time>
      </trkpt>
      <trkpt lat="45.71452" lon="6.69832">
        <ele>2235.3</ele>
        <time>2000-01-01T12:43:59.000Z</time>
      </trkpt>
      <trkpt lat="45.71463" lon="6.69832">
        <ele>2232.5</ele>
        <time>2000-01-01T12:44:09.000Z</time>
      </trkpt>
      <trkpt lat="45.71467" lon="6.69835">
        <ele>2234</ele>
        <time>2000-01-01T12:44:19.000Z</time>
      </trkpt>
      <trkpt lat="45.7147" lon="6.69841">
        <ele>2230.6</ele>
        <time>2000-01-01T12:44:29.000Z</time>
      </trkpt>
      <trkpt lat="45.71479" lon="6.69838">
        <ele>2227.2</ele>
        <time>2000-01-01T12:44:39.000Z</time>
      </trkpt>
      <trkpt lat="45.71483" lon="6.6983">
        <ele>2234</ele>
        <time>2000-01-01T12:44:49.000Z</time>
      </trkpt>
      <trkpt lat="45.7149" lon="6.69822">
        <ele>2225.2</ele>
        <time>2000-01-01T12:44:59.000Z</time>
      </trkpt>
      <trkpt lat="45.71494" lon="6.6982">
        <ele>2224.3</ele>
        <time>2000-01-01T12:45:09.000Z</time>
      </trkpt>
      <trkpt lat="45.71501" lon="6.69818">
        <ele>2230</ele>
        <time>2000-01-01T12:45:19.000Z</time>
      </trkpt>
      <trkpt lat="45.71505" lon="6.69811">
        <ele>2224.2</ele>
        <time>2000-01-01T12:45:29.000Z</time>
      </trkpt>
      <trkpt lat="45.71517" lon="6.69812">
        <ele>2222.7</ele>
        <time>2000-01-01T12:45:39.000Z</time>
      </trkpt>
      <trkpt lat="45.71523" lon="6.69811">
        <ele>2226</ele>
        <time>2000-01-01T12:45:49.000Z</time>
      </trkpt>
      <trkpt lat="45.71541" lon="6.69814">
        <ele>2220.6</ele>
        <time>2000-01-01T12:45:59.000Z</time>
      </trkpt>
      <trkpt lat="45.71546" lon="6.69813">
        <ele>2226</ele>
        <time>2000-01-01T12:46:09.000Z</time>
      </trkpt>
      <trkpt lat="45.7156" lon="6.69796">
        <ele>2221.3</ele>
        <time>2000-01-01T12:46:19.000Z</time>
      </trkpt>
      <trkpt lat="45.71572" lon="6.69792">
        <ele>2220</ele>
        <time>2000-01-01T12:46:29.000Z</time>
      </trkpt>
      <trkpt lat="45.71584" lon="6.69786">
        <ele>2215.4</ele>
        <time>2000-01-01T12:46:39.000Z</time>
      </trkpt>
      <trkpt lat="45.71589" lon="6.69785">
        <ele>2214.7</ele>
        <time>2000-01-01T12:46:49.000Z</time>
      </trkpt>
      <trkpt lat="45.71594" lon="6.69786">
        <ele>2220</ele>
        <time>2000-01-01T12:46:59.000Z</time>
      </trkpt>
      <trkpt lat="45.71618" lon="6.69785">
        <ele>2220</ele>
        <time>2000-01-01T12:47:09.000Z</time>
      </trkpt>
      <trkpt lat="45.71642" lon="6.69783">
        <ele>2220</ele>
        <time>2000-01-01T12:47:19.000Z</time>
      </trkpt>
      <trkpt lat="45.71661" lon="6.69786">
        <ele>2220</ele>
        <time>2000-01-01T12:47:29.000Z</time>
      </trkpt>
      <trkpt lat="45.71671" lon="6.69796">
        <ele>2211.5</ele>
        <time>2000-01-01T12:47:39.000Z</time>
      </trkpt>
      <trkpt lat="45.71675" lon="6.69795">
        <ele>2210.4</ele>
        <time>2000-01-01T12:47:49.000Z</time>
      </trkpt>
      <trkpt lat="45.71683" lon="6.69796">
        <ele>2220</ele>
        <time>2000-01-01T12:47:59.000Z</time>
      </trkpt>
      <trkpt lat="45.71694" lon="6.69801">
        <ele>2205.3</ele>
        <time>2000-01-01T12:48:09.000Z</time>
      </trkpt>
      <trkpt lat="45.71698" lon="6.69805">
        <ele>2204.5</ele>
        <time>2000-01-01T12:48:19.000Z</time>
      </trkpt>
      <trkpt lat="45.71704" lon="6.69809">
        <ele>2213</ele>
        <time>2000-01-01T12:48:29.000Z</time>
      </trkpt>
      <trkpt lat="45.7173" lon="6.69819">
        <ele>2207</ele>
        <time>2000-01-01T12:48:39.000Z</time>
      </trkpt>
      <trkpt lat="45.71734" lon="6.69814">
        <ele>2194.5</ele>
        <time>2000-01-01T12:48:49.000Z</time>
      </trkpt>
      <trkpt lat="45.71734" lon="6.69815">
        <ele>2194.3</ele>
        <time>2000-01-01T12:48:59.000Z</time>
      </trkpt>
      <trkpt lat="45.71737" lon="6.69812">
        <ele>2193.4</ele>
        <time>2000-01-01T12:49:09.000Z</time>
      </trkpt>
      <trkpt lat="45.71743" lon="6.69801">
        <ele>2206</ele>
        <time>2000-01-01T12:49:19.000Z</time>
      </trkpt>
      <trkpt lat="45.71746" lon="6.69798">
        <ele>2192.1</ele>
        <time>2000-01-01T12:49:29.000Z</time>
      </trkpt>
      <trkpt lat="45.71748" lon="6.69794">
        <ele>2191.9</ele>
        <time>2000-01-01T12:49:39.000Z</time>
      </trkpt>
      <trkpt lat="45.71752" lon="6.69791">
        <ele>2190.8</ele>
        <time>2000-01-01T12:49:49.000Z</time>
      </trkpt>
      <trkpt lat="45.71761" lon="6.69792">
        <ele>2206</ele>
        <time>2000-01-01T12:49:59.000Z</time>
      </trkpt>
      <trkpt lat="45.71772" lon="6.69787">
        <ele>2183.6</ele>
        <time>2000-01-01T12:50:09.000Z</time>
      </trkpt>
      <trkpt lat="45.71774" lon="6.69788">
        <ele>2182.6</ele>
        <time>2000-01-01T12:50:19.000Z</time>
      </trkpt>
      <trkpt lat="45.71775" lon="6.69792">
        <ele>2181.1</ele>
        <time>2000-01-01T12:50:29.000Z</time>
      </trkpt>
      <trkpt lat="45.71773" lon="6.69811">
        <ele>2188</ele>
        <time>2000-01-01T12:50:39.000Z</time>
      </trkpt>
      <trkpt lat="45.71772" lon="6.69837">
        <ele>2170.8</ele>
        <time>2000-01-01T12:50:49.000Z</time>
      </trkpt>
      <trkpt lat="45.71773" lon="6.69848">
        <ele>2187</ele>
        <time>2000-01-01T12:50:59.000Z</time>
      </trkpt>
      <trkpt lat="45.71772" lon="6.69857">
        <ele>2165.6</ele>
        <time>2000-01-01T12:51:09.000Z</time>
      </trkpt>
      <trkpt lat="45.71768" lon="6.69878">
        <ele>2186</ele>
        <time>2000-01-01T12:51:19.000Z</time>
      </trkpt>
      <trkpt lat="45.71768" lon="6.69879">
        <ele>2162.4</ele>
        <time>2000-01-01T12:51:29.000Z</time>
      </trkpt>
      <trkpt lat="45.71774" lon="6.69874">
        <ele>2160.8</ele>
        <time>2000-01-01T12:51:39.000Z</time>
      </trkpt>
      <trkpt lat="45.71772" lon="6.69886">
        <ele>2159.1</ele>
        <time>2000-01-01T12:51:49.000Z</time>
      </trkpt>
      <trkpt lat="45.71772" lon="6.69914">
        <ele>2143</ele>
        <time>2000-01-01T12:51:59.000Z</time>
      </trkpt>
      <trkpt lat="45.7177" lon="6.69924">
        <ele>2151.7</ele>
        <time>2000-01-01T12:52:09.000Z</time>
      </trkpt>
      <trkpt lat="45.7177" lon="6.69933">
        <ele>2149</ele>
        <time>2000-01-01T12:52:19.000Z</time>
      </trkpt>
      <trkpt lat="45.71771" lon="6.69938">
        <ele>2147.3</ele>
        <time>2000-01-01T12:52:29.000Z</time>
      </trkpt>
      <trkpt lat="45.71788" lon="6.69931">
        <ele>2143</ele>
        <time>2000-01-01T12:52:39.000Z</time>
      </trkpt>
      <trkpt lat="45.71796" lon="6.69925">
        <ele>2140.8</ele>
        <time>2000-01-01T12:52:49.000Z</time>
      </trkpt>
      <trkpt lat="45.71806" lon="6.69913">
        <ele>2137</ele>
        <time>2000-01-01T12:52:59.000Z</time>
      </trkpt>
      <trkpt lat="45.71806" lon="6.69919">
        <ele>2138</ele>
        <time>2000-01-01T12:53:09.000Z</time>
      </trkpt>
      <trkpt lat="45.71807" lon="6.69923">
        <ele>2136.2</ele>
        <time>2000-01-01T12:53:19.000Z</time>
      </trkpt>
      <trkpt lat="45.71805" lon="6.69935">
        <ele>2134</ele>
        <time>2000-01-01T12:53:29.000Z</time>
      </trkpt>
      <trkpt lat="45.71807" lon="6.69935">
        <ele>2132.9</ele>
        <time>2000-01-01T12:53:39.000Z</time>
      </trkpt>
      <trkpt lat="45.71814" lon="6.69928">
        <ele>2137</ele>
        <time>2000-01-01T12:53:49.000Z</time>
      </trkpt>
      <trkpt lat="45.71818" lon="6.6992">
        <ele>2129.5</ele>
        <time>2000-01-01T12:53:59.000Z</time>
      </trkpt>
      <trkpt lat="45.71821" lon="6.69909">
        <ele>2130.1</ele>
        <time>2000-01-01T12:54:09.000Z</time>
      </trkpt>
      <trkpt lat="45.71823" lon="6.69906">
        <ele>2129.7</ele>
        <time>2000-01-01T12:54:19.000Z</time>
      </trkpt>
      <trkpt lat="45.71831" lon="6.69899">
        <ele>2137</ele>
        <time>2000-01-01T12:54:29.000Z</time>
      </trkpt>
      <trkpt lat="45.71834" lon="6.69895">
        <ele>2127.2</ele>
        <time>2000-01-01T12:54:39.000Z</time>
      </trkpt>
      <trkpt lat="45.71838" lon="6.69892">
        <ele>2126</ele>
        <time>2000-01-01T12:54:49.000Z</time>
      </trkpt>
      <trkpt lat="45.71847" lon="6.69892">
        <ele>2120.8</ele>
        <time>2000-01-01T12:54:59.000Z</time>
      </trkpt>
      <trkpt lat="45.71852" lon="6.69891">
        <ele>2133</ele>
        <time>2000-01-01T12:55:09.000Z</time>
      </trkpt>
      <trkpt lat="45.7186" lon="6.69882">
        <ele>2115.7</ele>
        <time>2000-01-01T12:55:19.000Z</time>
      </trkpt>
      <trkpt lat="45.71864" lon="6.69872">
        <ele>2114.8</ele>
        <time>2000-01-01T12:55:29.000Z</time>
      </trkpt>
      <trkpt lat="45.71867" lon="6.69862">
        <ele>2130</ele>
        <time>2000-01-01T12:55:39.000Z</time>
      </trkpt>
      <trkpt lat="45.71876" lon="6.6985">
        <ele>2111.3</ele>
        <time>2000-01-01T12:55:49.000Z</time>
      </trkpt>
      <trkpt lat="45.71876" lon="6.69854">
        <ele>2110.8</ele>
        <time>2000-01-01T12:55:59.000Z</time>
      </trkpt>
      <trkpt lat="45.71874" lon="6.69874">
        <ele>2130</ele>
        <time>2000-01-01T12:56:09.000Z</time>
      </trkpt>
      <trkpt lat="45.7187" lon="6.69909">
        <ele>2122</ele>
        <time>2000-01-01T12:56:19.000Z</time>
      </trkpt>
      <trkpt lat="45.71871" lon="6.69909">
        <ele>2100.1</ele>
        <time>2000-01-01T12:56:29.000Z</time>
      </trkpt>
      <trkpt lat="45.71872" lon="6.69908">
        <ele>2100</ele>
        <time>2000-01-01T12:56:39.000Z</time>
      </trkpt>
      <trkpt lat="45.71877" lon="6.69901">
        <ele>2100.1</ele>
        <time>2000-01-01T12:56:49.000Z</time>
      </trkpt>
      <trkpt lat="45.71891" lon="6.69886">
        <ele>2098</ele>
        <time>2000-01-01T12:56:59.000Z</time>
      </trkpt>
      <trkpt lat="45.71895" lon="6.69885">
        <ele>2094.3</ele>
        <time>2000-01-01T12:57:09.000Z</time>
      </trkpt>
      <trkpt lat="45.71895" lon="6.69887">
        <ele>2093.9</ele>
        <time>2000-01-01T12:57:19.000Z</time>
      </trkpt>
      <trkpt lat="45.71897" lon="6.69896">
        <ele>2090.5</ele>
        <time>2000-01-01T12:57:29.000Z</time>
      </trkpt>
      <trkpt lat="45.71895" lon="6.69904">
        <ele>2089.6</ele>
        <time>2000-01-01T12:57:39.000Z</time>
      </trkpt>
      <trkpt lat="45.71896" lon="6.69905">
        <ele>2098</ele>
        <time>2000-01-01T12:57:49.000Z</time>
      </trkpt>
      <trkpt lat="45.71893" lon="6.69912">
        <ele>2088.7</ele>
        <time>2000-01-01T12:57:59.000Z</time>
      </trkpt>
      <trkpt lat="45.71891" lon="6.69931">
        <ele>2092</ele>
        <time>2000-01-01T12:58:09.000Z</time>
      </trkpt>
      <trkpt lat="45.71893" lon="6.69933">
        <ele>2081.6</ele>
        <time>2000-01-01T12:58:19.000Z</time>
      </trkpt>
      <trkpt lat="45.71894" lon="6.69937">
        <ele>2079.8</ele>
        <time>2000-01-01T12:58:29.000Z</time>
      </trkpt>
      <trkpt lat="45.71898" lon="6.6993">
        <ele>2080.2</ele>
        <time>2000-01-01T12:58:39.000Z</time>
      </trkpt>
      <trkpt lat="45.71903" lon="6.69926">
        <ele>2078.9</ele>
        <time>2000-01-01T12:58:49.000Z</time>
      </trkpt>
      <trkpt lat="45.71904" lon="6.69931">
        <ele>2092</ele>
        <time>2000-01-01T12:58:59.000Z</time>
      </trkpt>
      <trkpt lat="45.71899" lon="6.69952">
        <ele>2074</ele>
        <time>2000-01-01T12:59:09.000Z</time>
      </trkpt>
      <trkpt lat="45.719" lon="6.69954">
        <ele>2073.3</ele>
        <time>2000-01-01T12:59:19.000Z</time>
      </trkpt>
      <trkpt lat="45.71902" lon="6.69954">
        <ele>2091</ele>
        <time>2000-01-01T12:59:29.000Z</time>
      </trkpt>
      <trkpt lat="45.71909" lon="6.69947">
        <ele>2071.2</ele>
        <time>2000-01-01T12:59:39.000Z</time>
      </trkpt>
      <trkpt lat="45.71908" lon="6.69955">
        <ele>2069.7</ele>
        <time>2000-01-01T12:59:49.000Z</time>
      </trkpt>
      <trkpt lat="45.719" lon="6.69975">
        <ele>2084</ele>
        <time>2000-01-01T12:59:59.000Z</time>
      </trkpt>
      <trkpt lat="45.71902" lon="6.69987">
        <ele>2064.6</ele>
        <time>2000-01-01T13:00:09.000Z</time>
      </trkpt>
      <trkpt lat="45.71902" lon="6.69993">
        <ele>2062.9</ele>
        <time>2000-01-01T13:00:19.000Z</time>
      </trkpt>
      <trkpt lat="45.7191" lon="6.69991">
        <ele>2079</ele>
        <time>2000-01-01T13:00:29.000Z</time>
      </trkpt>
      <trkpt lat="45.71911" lon="6.69995">
        <ele>2058.5</ele>
        <time>2000-01-01T13:00:39.000Z</time>
      </trkpt>
      <trkpt lat="45.71908" lon="6.70006">
        <ele>2057.2</ele>
        <time>2000-01-01T13:00:49.000Z</time>
      </trkpt>
      <trkpt lat="45.71908" lon="6.70017">
        <ele>2079</ele>
        <time>2000-01-01T13:00:59.000Z</time>
      </trkpt>
      <trkpt lat="45.71906" lon="6.70025">
        <ele>2054</ele>
        <time>2000-01-01T13:01:09.000Z</time>
      </trkpt>
      <trkpt lat="45.71906" lon="6.70028">
        <ele>2053.4</ele>
        <time>2000-01-01T13:01:19.000Z</time>
      </trkpt>
      <trkpt lat="45.71914" lon="6.7004">
        <ele>2060</ele>
        <time>2000-01-01T13:01:29.000Z</time>
      </trkpt>
      <trkpt lat="45.71917" lon="6.70048">
        <ele>2047.8</ele>
        <time>2000-01-01T13:01:39.000Z</time>
      </trkpt>
      <trkpt lat="45.71917" lon="6.70051">
        <ele>2047.5</ele>
        <time>2000-01-01T13:01:49.000Z</time>
      </trkpt>
      <trkpt lat="45.71921" lon="6.7006">
        <ele>2046.2</ele>
        <time>2000-01-01T13:01:59.000Z</time>
      </trkpt>
      <trkpt lat="45.71921" lon="6.70069">
        <ele>2055</ele>
        <time>2000-01-01T13:02:09.000Z</time>
      </trkpt>
      <trkpt lat="45.71926" lon="6.7008">
        <ele>2043.7</ele>
        <time>2000-01-01T13:02:19.000Z</time>
      </trkpt>
      <trkpt lat="45.71931" lon="6.70087">
        <ele>2042.4</ele>
        <time>2000-01-01T13:02:29.000Z</time>
      </trkpt>
      <trkpt lat="45.71933" lon="6.70102">
        <ele>2051</ele>
        <time>2000-01-01T13:02:39.000Z</time>
      </trkpt>
      <trkpt lat="45.71937" lon="6.70109">
        <ele>2038.2</ele>
        <time>2000-01-01T13:02:49.000Z</time>
      </trkpt>
      <trkpt lat="45.71938" lon="6.70115">
        <ele>2037.1</ele>
        <time>2000-01-01T13:02:59.000Z</time>
      </trkpt>
      <trkpt lat="45.71939" lon="6.70129">
        <ele>2051</ele>
        <time>2000-01-01T13:03:09.000Z</time>
      </trkpt>
      <trkpt lat="45.71947" lon="6.70144">
        <ele>2032.4</ele>
        <time>2000-01-01T13:03:19.000Z</time>
      </trkpt>
      <trkpt lat="45.71957" lon="6.7015">
        <ele>2050</ele>
        <time>2000-01-01T13:03:29.000Z</time>
      </trkpt>
      <trkpt lat="45.71962" lon="6.70155">
        <ele>2029.8</ele>
        <time>2000-01-01T13:03:39.000Z</time>
      </trkpt>
      <trkpt lat="45.71963" lon="6.70165">
        <ele>2027.7</ele>
        <time>2000-01-01T13:03:49.000Z</time>
      </trkpt>
      <trkpt lat="45.71963" lon="6.70177">
        <ele>2045</ele>
        <time>2000-01-01T13:03:59.000Z</time>
      </trkpt>
      <trkpt lat="45.71967" lon="6.70181">
        <ele>2024.1</ele>
        <time>2000-01-01T13:04:09.000Z</time>
      </trkpt>
      <trkpt lat="45.71965" lon="6.70188">
        <ele>2023</ele>
        <time>2000-01-01T13:04:19.000Z</time>
      </trkpt>
      <trkpt lat="45.71968" lon="6.70198">
        <ele>2021.5</ele>
        <time>2000-01-01T13:04:29.000Z</time>
      </trkpt>
      <trkpt lat="45.71974" lon="6.70206">
        <ele>2042</ele>
        <time>2000-01-01T13:04:39.000Z</time>
      </trkpt>
      <trkpt lat="45.7198" lon="6.70211">
        <ele>2020.2</ele>
        <time>2000-01-01T13:04:49.000Z</time>
      </trkpt>
      <trkpt lat="45.71988" lon="6.70219">
        <ele>2019.3</ele>
        <time>2000-01-01T13:04:59.000Z</time>
      </trkpt>
      <trkpt lat="45.71997" lon="6.7023">
        <ele>2031</ele>
        <time>2000-01-01T13:05:09.000Z</time>
      </trkpt>
      <trkpt lat="45.72" lon="6.7023">
        <ele>2019.7</ele>
        <time>2000-01-01T13:05:19.000Z</time>
      </trkpt>
      <trkpt lat="45.72018" lon="6.70221">
        <ele>2031</ele>
        <time>2000-01-01T13:05:29.000Z</time>
      </trkpt>
      <trkpt lat="45.72035" lon="6.70214">
        <ele>2016.3</ele>
        <time>2000-01-01T13:05:39.000Z</time>
      </trkpt>
      <trkpt lat="45.72049" lon="6.70207">
        <ele>2028</ele>
        <time>2000-01-01T13:05:49.000Z</time>
      </trkpt>
      <trkpt lat="45.72054" lon="6.70208">
        <ele>2013.6</ele>
        <time>2000-01-01T13:05:59.000Z</time>
      </trkpt>
      <trkpt lat="45.72067" lon="6.70206">
        <ele>2012.2</ele>
        <time>2000-01-01T13:06:09.000Z</time>
      </trkpt>
      <trkpt lat="45.72075" lon="6.70204">
        <ele>2024</ele>
        <time>2000-01-01T13:06:19.000Z</time>
      </trkpt>
      <trkpt lat="45.72085" lon="6.70205">
        <ele>2010.4</ele>
        <time>2000-01-01T13:06:29.000Z</time>
      </trkpt>
      <trkpt lat="45.72111" lon="6.70197">
        <ele>2019</ele>
        <time>2000-01-01T13:06:39.000Z</time>
      </trkpt>
      <trkpt lat="45.7212" lon="6.70192">
        <ele>2007.3</ele>
        <time>2000-01-01T13:06:49.000Z</time>
      </trkpt>
      <trkpt lat="45.72141" lon="6.70191">
        <ele>2017</ele>
        <time>2000-01-01T13:06:59.000Z</time>
      </trkpt>
      <trkpt lat="45.72158" lon="6.70187">
        <ele>2004.7</ele>
        <time>2000-01-01T13:07:09.000Z</time>
      </trkpt>
      <trkpt lat="45.72162" lon="6.70187">
        <ele>2011</ele>
        <time>2000-01-01T13:07:19.000Z</time>
      </trkpt>
      <trkpt lat="45.7218" lon="6.70177">
        <ele>2011</ele>
        <time>2000-01-01T13:07:29.000Z</time>
      </trkpt>
      <trkpt lat="45.72194" lon="6.70159">
        <ele>2002.2</ele>
        <time>2000-01-01T13:07:39.000Z</time>
      </trkpt>
      <trkpt lat="45.72202" lon="6.70141">
        <ele>2001</ele>
        <time>2000-01-01T13:07:49.000Z</time>
      </trkpt>
      <trkpt lat="45.72225" lon="6.70103">
        <ele>1999</ele>
        <time>2000-01-01T13:07:59.000Z</time>
      </trkpt>
      <trkpt lat="45.72241" lon="6.70087">
        <ele>1996</ele>
        <time>2000-01-01T13:08:09.000Z</time>
      </trkpt>
      <trkpt lat="45.72257" lon="6.70076">
        <ele>1995.8</ele>
        <time>2000-01-01T13:08:19.000Z</time>
      </trkpt>
      <trkpt lat="45.72265" lon="6.70068">
        <ele>1994</ele>
        <time>2000-01-01T13:08:29.000Z</time>
      </trkpt>
      <trkpt lat="45.7227" lon="6.70062">
        <ele>1994.4</ele>
        <time>2000-01-01T13:08:39.000Z</time>
      </trkpt>
      <trkpt lat="45.72278" lon="6.70045">
        <ele>1991</ele>
        <time>2000-01-01T13:08:49.000Z</time>
      </trkpt>
      <trkpt lat="45.7228" lon="6.70038">
        <ele>1992.1</ele>
        <time>2000-01-01T13:08:59.000Z</time>
      </trkpt>
      <trkpt lat="45.7228" lon="6.70029">
        <ele>1991.2</ele>
        <time>2000-01-01T13:09:09.000Z</time>
      </trkpt>
      <trkpt lat="45.72279" lon="6.70023">
        <ele>1990.9</ele>
        <time>2000-01-01T13:09:19.000Z</time>
      </trkpt>
      <trkpt lat="45.72282" lon="6.70012">
        <ele>1989</ele>
        <time>2000-01-01T13:09:29.000Z</time>
      </trkpt>
      <trkpt lat="45.72284" lon="6.70008">
        <ele>1990.5</ele>
        <time>2000-01-01T13:09:39.000Z</time>
      </trkpt>
      <trkpt lat="45.72295" lon="6.69991">
        <ele>1989</ele>
        <time>2000-01-01T13:09:49.000Z</time>
      </trkpt>
      <trkpt lat="45.72307" lon="6.6997">
        <ele>1987</ele>
        <time>2000-01-01T13:09:59.000Z</time>
      </trkpt>
      <trkpt lat="45.72309" lon="6.69958">
        <ele>1987.8</ele>
        <time>2000-01-01T13:10:09.000Z</time>
      </trkpt>
      <trkpt lat="45.72316" lon="6.69953">
        <ele>1987.1</ele>
        <time>2000-01-01T13:10:19.000Z</time>
      </trkpt>
      <trkpt lat="45.72312" lon="6.69953">
        <ele>1988</ele>
        <time>2000-01-01T13:10:29.000Z</time>
      </trkpt>
      <trkpt lat="45.72319" lon="6.69941">
        <ele>1986.5</ele>
        <time>2000-01-01T13:10:39.000Z</time>
      </trkpt>
      <trkpt lat="45.72327" lon="6.69943">
        <ele>1988</ele>
        <time>2000-01-01T13:10:49.000Z</time>
      </trkpt>
      <trkpt lat="45.72333" lon="6.69943">
        <ele>1986</ele>
        <time>2000-01-01T13:10:59.000Z</time>
      </trkpt>
      <trkpt lat="45.72338" lon="6.69921">
        <ele>1987</ele>
        <time>2000-01-01T13:11:09.000Z</time>
      </trkpt>
      <trkpt lat="45.72338" lon="6.6991">
        <ele>1987.5</ele>
        <time>2000-01-01T13:11:19.000Z</time>
      </trkpt>
      <trkpt lat="45.7233" lon="6.69857">
        <ele>1987</ele>
        <time>2000-01-01T13:11:29.000Z</time>
      </trkpt>
      <trkpt lat="45.72337" lon="6.69835">
        <ele>1986.4</ele>
        <time>2000-01-01T13:11:39.000Z</time>
      </trkpt>
      <trkpt lat="45.72334" lon="6.6983">
        <ele>1987</ele>
        <time>2000-01-01T13:11:49.000Z</time>
      </trkpt>
      <trkpt lat="45.72337" lon="6.6982">
        <ele>1986.3</ele>
        <time>2000-01-01T13:11:59.000Z</time>
      </trkpt>
      <trkpt lat="45.72336" lon="6.69785">
        <ele>1987</ele>
        <time>2000-01-01T13:12:09.000Z</time>
      </trkpt>
      <trkpt lat="45.72333" lon="6.69759">
        <ele>1981.6</ele>
        <time>2000-01-01T13:12:19.000Z</time>
      </trkpt>
      <trkpt lat="45.72333" lon="6.69742">
        <ele>1987</ele>
        <time>2000-01-01T13:12:29.000Z</time>
      </trkpt>
      <trkpt lat="45.7233" lon="6.69727">
        <ele>1981.2</ele>
        <time>2000-01-01T13:12:39.000Z</time>
      </trkpt>
      <trkpt lat="45.72325" lon="6.69721">
        <ele>1981.6</ele>
        <time>2000-01-01T13:12:49.000Z</time>
      </trkpt>
      <trkpt lat="45.72325" lon="6.69716">
        <ele>1987</ele>
        <time>2000-01-01T13:12:59.000Z</time>
      </trkpt>
      <trkpt lat="45.72327" lon="6.69711">
        <ele>1981.4</ele>
        <time>2000-01-01T13:13:09.000Z</time>
      </trkpt>
      <trkpt lat="45.72327" lon="6.69702">
        <ele>1981.3</ele>
        <time>2000-01-01T13:13:19.000Z</time>
      </trkpt>
      <trkpt lat="45.72331" lon="6.69688">
        <ele>1987</ele>
        <time>2000-01-01T13:13:29.000Z</time>
      </trkpt>
      <trkpt lat="45.72331" lon="6.69683">
        <ele>1980.7</ele>
        <time>2000-01-01T13:13:39.000Z</time>
      </trkpt>
      <trkpt lat="45.72332" lon="6.6968">
        <ele>1980.6</ele>
        <time>2000-01-01T13:13:49.000Z</time>
      </trkpt>
      <trkpt lat="45.72333" lon="6.6968">
        <ele>1980.5</ele>
        <time>2000-01-01T13:13:59.000Z</time>
      </trkpt>
      <trkpt lat="45.72331" lon="6.69668">
        <ele>1980.3</ele>
        <time>2000-01-01T13:14:09.000Z</time>
      </trkpt>
      <trkpt lat="45.72333" lon="6.69656">
        <ele>1987</ele>
        <time>2000-01-01T13:14:19.000Z</time>
      </trkpt>
      <trkpt lat="45.72338" lon="6.69649">
        <ele>1980.5</ele>
        <time>2000-01-01T13:14:29.000Z</time>
      </trkpt>
      <trkpt lat="45.72344" lon="6.69623">
        <ele>1987</ele>
        <time>2000-01-01T13:14:39.000Z</time>
      </trkpt>
      <trkpt lat="45.72353" lon="6.69599">
        <ele>1982</ele>
        <time>2000-01-01T13:14:49.000Z</time>
      </trkpt>
      <trkpt lat="45.72363" lon="6.69598">
        <ele>1981.2</ele>
        <time>2000-01-01T13:14:59.000Z</time>
      </trkpt>
      <trkpt lat="45.7237" lon="6.69575">
        <ele>1982</ele>
        <time>2000-01-01T13:15:09.000Z</time>
      </trkpt>
      <trkpt lat="45.7237" lon="6.69571">
        <ele>1978.5</ele>
        <time>2000-01-01T13:15:19.000Z</time>
      </trkpt>
      <trkpt lat="45.72383" lon="6.69559">
        <ele>1979.4</ele>
        <time>2000-01-01T13:15:29.000Z</time>
      </trkpt>
      <trkpt lat="45.72382" lon="6.69553">
        <ele>1982</ele>
        <time>2000-01-01T13:15:39.000Z</time>
      </trkpt>
      <trkpt lat="45.72382" lon="6.69549">
        <ele>1978.2</ele>
        <time>2000-01-01T13:15:49.000Z</time>
      </trkpt>
      <trkpt lat="45.72378" lon="6.69541">
        <ele>1977.2</ele>
        <time>2000-01-01T13:15:59.000Z</time>
      </trkpt>
      <trkpt lat="45.72378" lon="6.69536">
        <ele>1977.1</ele>
        <time>2000-01-01T13:16:09.000Z</time>
      </trkpt>
      <trkpt lat="45.72382" lon="6.6951">
        <ele>1980</ele>
        <time>2000-01-01T13:16:19.000Z</time>
      </trkpt>
      <trkpt lat="45.72387" lon="6.695">
        <ele>1972.3</ele>
        <time>2000-01-01T13:16:29.000Z</time>
      </trkpt>
      <trkpt lat="45.72381" lon="6.69481">
        <ele>1978</ele>
        <time>2000-01-01T13:16:39.000Z</time>
      </trkpt>
      <trkpt lat="45.72378" lon="6.69465">
        <ele>1974.5</ele>
        <time>2000-01-01T13:16:49.000Z</time>
      </trkpt>
      <trkpt lat="45.72379" lon="6.69462">
        <ele>1974</ele>
        <time>2000-01-01T13:16:59.000Z</time>
      </trkpt>
      <trkpt lat="45.72379" lon="6.6946">
        <ele>1973.6</ele>
        <time>2000-01-01T13:17:09.000Z</time>
      </trkpt>
      <trkpt lat="45.72377" lon="6.69454">
        <ele>1972</ele>
        <time>2000-01-01T13:17:19.000Z</time>
      </trkpt>
      <trkpt lat="45.72363" lon="6.69436">
        <ele>1966.2</ele>
        <time>2000-01-01T13:17:29.000Z</time>
      </trkpt>
      <trkpt lat="45.72361" lon="6.69431">
        <ele>1971</ele>
        <time>2000-01-01T13:17:39.000Z</time>
      </trkpt>
      <trkpt lat="45.72361" lon="6.69429">
        <ele>1963</ele>
        <time>2000-01-01T13:17:49.000Z</time>
      </trkpt>
      <trkpt lat="45.72358" lon="6.69425">
        <ele>1963.8</ele>
        <time>2000-01-01T13:17:59.000Z</time>
      </trkpt>
      <trkpt lat="45.72358" lon="6.69417">
        <ele>1960.7</ele>
        <time>2000-01-01T13:18:09.000Z</time>
      </trkpt>
      <trkpt lat="45.72353" lon="6.694">
        <ele>1966</ele>
        <time>2000-01-01T13:18:19.000Z</time>
      </trkpt>
      <trkpt lat="45.72357" lon="6.69388">
        <ele>1958.8</ele>
        <time>2000-01-01T13:18:29.000Z</time>
      </trkpt>
      <trkpt lat="45.72353" lon="6.69362">
        <ele>1964</ele>
        <time>2000-01-01T13:18:39.000Z</time>
      </trkpt>
      <trkpt lat="45.72348" lon="6.69352">
        <ele>1954.6</ele>
        <time>2000-01-01T13:18:49.000Z</time>
      </trkpt>
      <trkpt lat="45.72346" lon="6.6934">
        <ele>1953.1</ele>
        <time>2000-01-01T13:18:59.000Z</time>
      </trkpt>
      <trkpt lat="45.72345" lon="6.69338">
        <ele>1957</ele>
        <time>2000-01-01T13:19:09.000Z</time>
      </trkpt>
      <trkpt lat="45.72346" lon="6.69331">
        <ele>1952.8</ele>
        <time>2000-01-01T13:19:19.000Z</time>
      </trkpt>
      <trkpt lat="45.72345" lon="6.6932">
        <ele>1951.9</ele>
        <time>2000-01-01T13:19:29.000Z</time>
      </trkpt>
      <trkpt lat="45.72346" lon="6.69314">
        <ele>1952.2</ele>
        <time>2000-01-01T13:19:39.000Z</time>
      </trkpt>
      <trkpt lat="45.72345" lon="6.69309">
        <ele>1954</ele>
        <time>2000-01-01T13:19:49.000Z</time>
      </trkpt>
      <trkpt lat="45.7234" lon="6.69301">
        <ele>1948.8</ele>
        <time>2000-01-01T13:19:59.000Z</time>
      </trkpt>
      <trkpt lat="45.7234" lon="6.69298">
        <ele>1948.6</ele>
        <time>2000-01-01T13:20:09.000Z</time>
      </trkpt>
      <trkpt lat="45.72336" lon="6.69279">
        <ele>1952</ele>
        <time>2000-01-01T13:20:19.000Z</time>
      </trkpt>
      <trkpt lat="45.72333" lon="6.6925">
        <ele>1951</ele>
        <time>2000-01-01T13:20:29.000Z</time>
      </trkpt>
      <trkpt lat="45.72331" lon="6.69247">
        <ele>1942.3</ele>
        <time>2000-01-01T13:20:39.000Z</time>
      </trkpt>
      <trkpt lat="45.72325" lon="6.69235">
        <ele>1943.3</ele>
        <time>2000-01-01T13:20:49.000Z</time>
      </trkpt>
      <trkpt lat="45.72316" lon="6.69221">
        <ele>1950</ele>
        <time>2000-01-01T13:20:59.000Z</time>
      </trkpt>
      <trkpt lat="45.72316" lon="6.69175">
        <ele>1949</ele>
        <time>2000-01-01T13:21:09.000Z</time>
      </trkpt>
      <trkpt lat="45.72315" lon="6.69172">
        <ele>1944.9</ele>
        <time>2000-01-01T13:21:19.000Z</time>
      </trkpt>
      <trkpt lat="45.72319" lon="6.69144">
        <ele>1948</ele>
        <time>2000-01-01T13:21:29.000Z</time>
      </trkpt>
      <trkpt lat="45.72321" lon="6.69136">
        <ele>1942.4</ele>
        <time>2000-01-01T13:21:39.000Z</time>
      </trkpt>
      <trkpt lat="45.72321" lon="6.69131">
        <ele>1941.8</ele>
        <time>2000-01-01T13:21:49.000Z</time>
      </trkpt>
      <trkpt lat="45.72323" lon="6.69127">
        <ele>1940.1</ele>
        <time>2000-01-01T13:21:59.000Z</time>
      </trkpt>
      <trkpt lat="45.7232" lon="6.69121">
        <ele>1941.2</ele>
        <time>2000-01-01T13:22:09.000Z</time>
      </trkpt>
      <trkpt lat="45.7232" lon="6.69119">
        <ele>1948</ele>
        <time>2000-01-01T13:22:19.000Z</time>
      </trkpt>
      <trkpt lat="45.72317" lon="6.69115">
        <ele>1942.7</ele>
        <time>2000-01-01T13:22:29.000Z</time>
      </trkpt>
      <trkpt lat="45.72319" lon="6.69108">
        <ele>1940.9</ele>
        <time>2000-01-01T13:22:39.000Z</time>
      </trkpt>
      <trkpt lat="45.72318" lon="6.69097">
        <ele>1942</ele>
        <time>2000-01-01T13:22:49.000Z</time>
      </trkpt>
      <trkpt lat="45.72316" lon="6.69087">
        <ele>1948</ele>
        <time>2000-01-01T13:22:59.000Z</time>
      </trkpt>
      <trkpt lat="45.72315" lon="6.69076">
        <ele>1944.8</ele>
        <time>2000-01-01T13:23:09.000Z</time>
      </trkpt>
      <trkpt lat="45.72311" lon="6.69067">
        <ele>1948</ele>
        <time>2000-01-01T13:23:19.000Z</time>
      </trkpt>
      <trkpt lat="45.72311" lon="6.69064">
        <ele>1947.8</ele>
        <time>2000-01-01T13:23:29.000Z</time>
      </trkpt>
      <trkpt lat="45.72313" lon="6.69045">
        <ele>1956</ele>
        <time>2000-01-01T13:23:39.000Z</time>
      </trkpt>
      <trkpt lat="45.72318" lon="6.69024">
        <ele>1944.3</ele>
        <time>2000-01-01T13:23:49.000Z</time>
      </trkpt>
      <trkpt lat="45.72317" lon="6.69011">
        <ele>1958</ele>
        <time>2000-01-01T13:23:59.000Z</time>
      </trkpt>
      <trkpt lat="45.72317" lon="6.68989">
        <ele>1951.9</ele>
        <time>2000-01-01T13:24:09.000Z</time>
      </trkpt>
      <trkpt lat="45.72329" lon="6.6897">
        <ele>1962</ele>
        <time>2000-01-01T13:24:19.000Z</time>
      </trkpt>
      <trkpt lat="45.72329" lon="6.68967">
        <ele>1949.2</ele>
        <time>2000-01-01T13:24:29.000Z</time>
      </trkpt>
      <trkpt lat="45.72333" lon="6.68954">
        <ele>1948.8</ele>
        <time>2000-01-01T13:24:39.000Z</time>
      </trkpt>
      <trkpt lat="45.72335" lon="6.6895">
        <ele>1946.9</ele>
        <time>2000-01-01T13:24:49.000Z</time>
      </trkpt>
      <trkpt lat="45.72341" lon="6.68942">
        <ele>1962</ele>
        <time>2000-01-01T13:24:59.000Z</time>
      </trkpt>
      <trkpt lat="45.72343" lon="6.68938">
        <ele>1937.4</ele>
        <time>2000-01-01T13:25:09.000Z</time>
      </trkpt>
      <trkpt lat="45.72343" lon="6.68932">
        <ele>1938.2</ele>
        <time>2000-01-01T13:25:19.000Z</time>
      </trkpt>
      <trkpt lat="45.72346" lon="6.6892">
        <ele>1936.1</ele>
        <time>2000-01-01T13:25:29.000Z</time>
      </trkpt>
      <trkpt lat="45.72345" lon="6.68913">
        <ele>1962</ele>
        <time>2000-01-01T13:25:39.000Z</time>
      </trkpt>
      <trkpt lat="45.72349" lon="6.68899">
        <ele>1937.1</ele>
        <time>2000-01-01T13:25:49.000Z</time>
      </trkpt>
      <trkpt lat="45.7237" lon="6.68864">
        <ele>1972</ele>
        <time>2000-01-01T13:25:59.000Z</time>
      </trkpt>
      <trkpt lat="45.72386" lon="6.68844">
        <ele>1974</ele>
        <time>2000-01-01T13:26:09.000Z</time>
      </trkpt>
      <trkpt lat="45.72398" lon="6.68839">
        <ele>1907.7</ele>
        <time>2000-01-01T13:26:19.000Z</time>
      </trkpt>
      <trkpt lat="45.7241" lon="6.68793">
        <ele>1973</ele>
        <time>2000-01-01T13:26:29.000Z</time>
      </trkpt>
      <trkpt lat="45.72421" lon="6.6878">
        <ele>1895.9</ele>
        <time>2000-01-01T13:26:39.000Z</time>
      </trkpt>
      <trkpt lat="45.72418" lon="6.68767">
        <ele>1973</ele>
        <time>2000-01-01T13:26:49.000Z</time>
      </trkpt>
      <trkpt lat="45.72421" lon="6.68753">
        <ele>1895.1</ele>
        <time>2000-01-01T13:26:59.000Z</time>
      </trkpt>
      <trkpt lat="45.72429" lon="6.68728">
        <ele>1953</ele>
        <time>2000-01-01T13:27:09.000Z</time>
      </trkpt>
      <trkpt lat="45.72426" lon="6.68716">
        <ele>1895.8</ele>
        <time>2000-01-01T13:27:19.000Z</time>
      </trkpt>
      <trkpt lat="45.7243" lon="6.68695">
        <ele>1939</ele>
        <time>2000-01-01T13:27:29.000Z</time>
      </trkpt>
      <trkpt lat="45.72439" lon="6.68681">
        <ele>1880</ele>
        <time>2000-01-01T13:27:39.000Z</time>
      </trkpt>
      <trkpt lat="45.72437" lon="6.68679">
        <ele>1884.1</ele>
        <time>2000-01-01T13:27:49.000Z</time>
      </trkpt>
      <trkpt lat="45.72436" lon="6.68661">
        <ele>1916</ele>
        <time>2000-01-01T13:27:59.000Z</time>
      </trkpt>
      <trkpt lat="45.72441" lon="6.68641">
        <ele>1882.6</ele>
        <time>2000-01-01T13:28:09.000Z</time>
      </trkpt>
      <trkpt lat="45.72441" lon="6.68629">
        <ele>1873</ele>
        <time>2000-01-01T13:28:19.000Z</time>
      </trkpt>
      <trkpt lat="45.7244" lon="6.68614">
        <ele>1877.4</ele>
        <time>2000-01-01T13:28:29.000Z</time>
      </trkpt>
      <trkpt lat="45.72437" lon="6.68605">
        <ele>1877</ele>
        <time>2000-01-01T13:28:39.000Z</time>
      </trkpt>
      <trkpt lat="45.72432" lon="6.68593">
        <ele>1873</ele>
        <time>2000-01-01T13:28:49.000Z</time>
      </trkpt>
      <trkpt lat="45.72429" lon="6.68591">
        <ele>1876.4</ele>
        <time>2000-01-01T13:28:59.000Z</time>
      </trkpt>
      <trkpt lat="45.72422" lon="6.68581">
        <ele>1874.5</ele>
        <time>2000-01-01T13:29:09.000Z</time>
      </trkpt>
      <trkpt lat="45.72415" lon="6.68575">
        <ele>1873</ele>
        <time>2000-01-01T13:29:19.000Z</time>
      </trkpt>
      <trkpt lat="45.72406" lon="6.6857">
        <ele>1872</ele>
        <time>2000-01-01T13:29:29.000Z</time>
      </trkpt>
      <trkpt lat="45.72409" lon="6.68567">
        <ele>1870.1</ele>
        <time>2000-01-01T13:29:39.000Z</time>
      </trkpt>
      <trkpt lat="45.72414" lon="6.68571">
        <ele>1873</ele>
        <time>2000-01-01T13:29:49.000Z</time>
      </trkpt>
      <trkpt lat="45.72424" lon="6.68567">
        <ele>1868.6</ele>
        <time>2000-01-01T13:29:59.000Z</time>
      </trkpt>
      <trkpt lat="45.72438" lon="6.68552">
        <ele>1859</ele>
        <time>2000-01-01T13:30:09.000Z</time>
      </trkpt>
      <trkpt lat="45.72438" lon="6.68548">
        <ele>1861.6</ele>
        <time>2000-01-01T13:30:19.000Z</time>
      </trkpt>
      <trkpt lat="45.72433" lon="6.68535">
        <ele>1857.2</ele>
        <time>2000-01-01T13:30:29.000Z</time>
      </trkpt>
      <trkpt lat="45.7242" lon="6.68518">
        <ele>1848</ele>
        <time>2000-01-01T13:30:39.000Z</time>
      </trkpt>
      <trkpt lat="45.7241" lon="6.68507">
        <ele>1849.2</ele>
        <time>2000-01-01T13:30:49.000Z</time>
      </trkpt>
      <trkpt lat="45.72405" lon="6.68503">
        <ele>1847.6</ele>
        <time>2000-01-01T13:30:59.000Z</time>
      </trkpt>
      <trkpt lat="45.724" lon="6.68501">
        <ele>1848</ele>
        <time>2000-01-01T13:31:09.000Z</time>
      </trkpt>
      <trkpt lat="45.72396" lon="6.68502">
        <ele>1845.9</ele>
        <time>2000-01-01T13:31:19.000Z</time>
      </trkpt>
      <trkpt lat="45.72391" lon="6.68505">
        <ele>1846.1</ele>
        <time>2000-01-01T13:31:29.000Z</time>
      </trkpt>
      <trkpt lat="45.72386" lon="6.68505">
        <ele>1845.8</ele>
        <time>2000-01-01T13:31:39.000Z</time>
      </trkpt>
      <trkpt lat="45.72381" lon="6.68498">
        <ele>1848</ele>
        <time>2000-01-01T13:31:49.000Z</time>
      </trkpt>
      <trkpt lat="45.72365" lon="6.68486">
        <ele>1838.4</ele>
        <time>2000-01-01T13:31:59.000Z</time>
      </trkpt>
      <trkpt lat="45.72357" lon="6.68479">
        <ele>1828</ele>
        <time>2000-01-01T13:32:09.000Z</time>
      </trkpt>
      <trkpt lat="45.72353" lon="6.68477">
        <ele>1833.9</ele>
        <time>2000-01-01T13:32:19.000Z</time>
      </trkpt>
      <trkpt lat="45.72336" lon="6.68465">
        <ele>1826</ele>
        <time>2000-01-01T13:32:29.000Z</time>
      </trkpt>
      <trkpt lat="45.72325" lon="6.68469">
        <ele>1827.9</ele>
        <time>2000-01-01T13:32:39.000Z</time>
      </trkpt>
      <trkpt lat="45.72319" lon="6.6847">
        <ele>1827.3</ele>
        <time>2000-01-01T13:32:49.000Z</time>
      </trkpt>
      <trkpt lat="45.72314" lon="6.6847">
        <ele>1823</ele>
        <time>2000-01-01T13:32:59.000Z</time>
      </trkpt>
      <trkpt lat="45.72304" lon="6.68466">
        <ele>1823.4</ele>
        <time>2000-01-01T13:33:09.000Z</time>
      </trkpt>
      <trkpt lat="45.72299" lon="6.68465">
        <ele>1821.8</ele>
        <time>2000-01-01T13:33:19.000Z</time>
      </trkpt>
      <trkpt lat="45.72286" lon="6.68466">
        <ele>1818</ele>
        <time>2000-01-01T13:33:29.000Z</time>
      </trkpt>
      <trkpt lat="45.72285" lon="6.68467">
        <ele>1819.1</ele>
        <time>2000-01-01T13:33:39.000Z</time>
      </trkpt>
      <trkpt lat="45.72285" lon="6.68465">
        <ele>1818.4</ele>
        <time>2000-01-01T13:33:49.000Z</time>
      </trkpt>
      <trkpt lat="45.72276" lon="6.68466">
        <ele>1816.6</ele>
        <time>2000-01-01T13:33:59.000Z</time>
      </trkpt>
      <trkpt lat="45.72249" lon="6.68466">
        <ele>1814</ele>
        <time>2000-01-01T13:34:09.000Z</time>
      </trkpt>
      <trkpt lat="45.72245" lon="6.6847">
        <ele>1810.5</ele>
        <time>2000-01-01T13:34:19.000Z</time>
      </trkpt>
      <trkpt lat="45.72236" lon="6.68475">
        <ele>1810.4</ele>
        <time>2000-01-01T13:34:29.000Z</time>
      </trkpt>
      <trkpt lat="45.72232" lon="6.68472">
        <ele>1811</ele>
        <time>2000-01-01T13:34:39.000Z</time>
      </trkpt>
      <trkpt lat="45.72231" lon="6.68467">
        <ele>1807.1</ele>
        <time>2000-01-01T13:34:49.000Z</time>
      </trkpt>
      <trkpt lat="45.72212" lon="6.68457">
        <ele>1800</ele>
        <time>2000-01-01T13:34:59.000Z</time>
      </trkpt>
      <trkpt lat="45.72208" lon="6.68454">
        <ele>1800.9</ele>
        <time>2000-01-01T13:35:09.000Z</time>
      </trkpt>
      <trkpt lat="45.72204" lon="6.68449">
        <ele>1799.1</ele>
        <time>2000-01-01T13:35:19.000Z</time>
      </trkpt>
      <trkpt lat="45.72202" lon="6.6845">
        <ele>1799.3</ele>
        <time>2000-01-01T13:35:29.000Z</time>
      </trkpt>
      <trkpt lat="45.72199" lon="6.68448">
        <ele>1798.5</ele>
        <time>2000-01-01T13:35:39.000Z</time>
      </trkpt>
      <trkpt lat="45.72197" lon="6.68445">
        <ele>1797.4</ele>
        <time>2000-01-01T13:35:49.000Z</time>
      </trkpt>
      <trkpt lat="45.72194" lon="6.68436">
        <ele>1795</ele>
        <time>2000-01-01T13:35:59.000Z</time>
      </trkpt>
      <trkpt lat="45.72185" lon="6.68424">
        <ele>1791.8</ele>
        <time>2000-01-01T13:36:09.000Z</time>
      </trkpt>
      <trkpt lat="45.72176" lon="6.68413">
        <ele>1792</ele>
        <time>2000-01-01T13:36:19.000Z</time>
      </trkpt>
      <trkpt lat="45.72154" lon="6.68389">
        <ele>1791</ele>
        <time>2000-01-01T13:36:29.000Z</time>
      </trkpt>
      <trkpt lat="45.72145" lon="6.68382">
        <ele>1782.3</ele>
        <time>2000-01-01T13:36:39.000Z</time>
      </trkpt>
      <trkpt lat="45.72141" lon="6.68377">
        <ele>1781.1</ele>
        <time>2000-01-01T13:36:49.000Z</time>
      </trkpt>
      <trkpt lat="45.72141" lon="6.68367">
        <ele>1784</ele>
        <time>2000-01-01T13:36:59.000Z</time>
      </trkpt>
      <trkpt lat="45.72139" lon="6.68358">
        <ele>1777.1</ele>
        <time>2000-01-01T13:37:09.000Z</time>
      </trkpt>
      <trkpt lat="45.7214" lon="6.68356">
        <ele>1776.7</ele>
        <time>2000-01-01T13:37:19.000Z</time>
      </trkpt>
      <trkpt lat="45.72139" lon="6.6835">
        <ele>1774.8</ele>
        <time>2000-01-01T13:37:29.000Z</time>
      </trkpt>
      <trkpt lat="45.72137" lon="6.68347">
        <ele>1773.9</ele>
        <time>2000-01-01T13:37:39.000Z</time>
      </trkpt>
      <trkpt lat="45.72134" lon="6.68346">
        <ele>1773.6</ele>
        <time>2000-01-01T13:37:49.000Z</time>
      </trkpt>
      <trkpt lat="45.72129" lon="6.68346">
        <ele>1773</ele>
        <time>2000-01-01T13:37:59.000Z</time>
      </trkpt>
      <trkpt lat="45.72122" lon="6.68344">
        <ele>1772.7</ele>
        <time>2000-01-01T13:38:09.000Z</time>
      </trkpt>
      <trkpt lat="45.72109" lon="6.68334">
        <ele>1773</ele>
        <time>2000-01-01T13:38:19.000Z</time>
      </trkpt>
      <trkpt lat="45.72105" lon="6.68326">
        <ele>1768.3</ele>
        <time>2000-01-01T13:38:29.000Z</time>
      </trkpt>
      <trkpt lat="45.72102" lon="6.68318">
        <ele>1767</ele>
        <time>2000-01-01T13:38:39.000Z</time>
      </trkpt>
      <trkpt lat="45.72099" lon="6.68313">
        <ele>1766.4</ele>
        <time>2000-01-01T13:38:49.000Z</time>
      </trkpt>
      <trkpt lat="45.72097" lon="6.68307">
        <ele>1769</ele>
        <time>2000-01-01T13:38:59.000Z</time>
      </trkpt>
      <trkpt lat="45.72093" lon="6.683">
        <ele>1764.3</ele>
        <time>2000-01-01T13:39:09.000Z</time>
      </trkpt>
      <trkpt lat="45.72087" lon="6.68287">
        <ele>1761.4</ele>
        <time>2000-01-01T13:39:19.000Z</time>
      </trkpt>
      <trkpt lat="45.72083" lon="6.68282">
        <ele>1764</ele>
        <time>2000-01-01T13:39:29.000Z</time>
      </trkpt>
      <trkpt lat="45.72078" lon="6.68272">
        <ele>1756.5</ele>
        <time>2000-01-01T13:39:39.000Z</time>
      </trkpt>
      <trkpt lat="45.72072" lon="6.68272">
        <ele>1756.2</ele>
        <time>2000-01-01T13:39:49.000Z</time>
      </trkpt>
      <trkpt lat="45.72064" lon="6.68276">
        <ele>1764</ele>
        <time>2000-01-01T13:39:59.000Z</time>
      </trkpt>
      <trkpt lat="45.72061" lon="6.68273">
        <ele>1756.2</ele>
        <time>2000-01-01T13:40:09.000Z</time>
      </trkpt>
      <trkpt lat="45.72063" lon="6.68271">
        <ele>1755.4</ele>
        <time>2000-01-01T13:40:19.000Z</time>
      </trkpt>
      <trkpt lat="45.72057" lon="6.68272">
        <ele>1755.6</ele>
        <time>2000-01-01T13:40:29.000Z</time>
      </trkpt>
      <trkpt lat="45.72057" lon="6.68273">
        <ele>1756</ele>
        <time>2000-01-01T13:40:39.000Z</time>
      </trkpt>
      <trkpt lat="45.72039" lon="6.68275">
        <ele>1764</ele>
        <time>2000-01-01T13:40:49.000Z</time>
      </trkpt>
      <trkpt lat="45.72035" lon="6.68271">
        <ele>1753.9</ele>
        <time>2000-01-01T13:40:59.000Z</time>
      </trkpt>
      <trkpt lat="45.72034" lon="6.68263">
        <ele>1751.8</ele>
        <time>2000-01-01T13:41:09.000Z</time>
      </trkpt>
      <trkpt lat="45.72034" lon="6.68242">
        <ele>1759</ele>
        <time>2000-01-01T13:41:19.000Z</time>
      </trkpt>
      <trkpt lat="45.72033" lon="6.68237">
        <ele>1745.8</ele>
        <time>2000-01-01T13:41:29.000Z</time>
      </trkpt>
      <trkpt lat="45.72034" lon="6.6823">
        <ele>1744.2</ele>
        <time>2000-01-01T13:41:39.000Z</time>
      </trkpt>
      <trkpt lat="45.72033" lon="6.68221">
        <ele>1742.7</ele>
        <time>2000-01-01T13:41:49.000Z</time>
      </trkpt>
      <trkpt lat="45.72034" lon="6.68215">
        <ele>1750</ele>
        <time>2000-01-01T13:41:59.000Z</time>
      </trkpt>
      <trkpt lat="45.72033" lon="6.68214">
        <ele>1741.4</ele>
        <time>2000-01-01T13:42:09.000Z</time>
      </trkpt>
      <trkpt lat="45.72033" lon="6.68209">
        <ele>1740.5</ele>
        <time>2000-01-01T13:42:19.000Z</time>
      </trkpt>
      <trkpt lat="45.72031" lon="6.68206">
        <ele>1740.4</ele>
        <time>2000-01-01T13:42:29.000Z</time>
      </trkpt>
      <trkpt lat="45.7203" lon="6.68198">
        <ele>1739.2</ele>
        <time>2000-01-01T13:42:39.000Z</time>
      </trkpt>
      <trkpt lat="45.7203" lon="6.68193">
        <ele>1738.3</ele>
        <time>2000-01-01T13:42:49.000Z</time>
      </trkpt>
      <trkpt lat="45.72031" lon="6.6819">
        <ele>1743</ele>
        <time>2000-01-01T13:42:59.000Z</time>
      </trkpt>
      <trkpt lat="45.72032" lon="6.68182">
        <ele>1735.8</ele>
        <time>2000-01-01T13:43:09.000Z</time>
      </trkpt>
      <trkpt lat="45.72034" lon="6.68176">
        <ele>1734.2</ele>
        <time>2000-01-01T13:43:19.000Z</time>
      </trkpt>
      <trkpt lat="45.72034" lon="6.68149">
        <ele>1734</ele>
        <time>2000-01-01T13:43:29.000Z</time>
      </trkpt>
      <trkpt lat="45.72036" lon="6.6814">
        <ele>1728.8</ele>
        <time>2000-01-01T13:43:39.000Z</time>
      </trkpt>
      <trkpt lat="45.72036" lon="6.68129">
        <ele>1727.4</ele>
        <time>2000-01-01T13:43:49.000Z</time>
      </trkpt>
      <trkpt lat="45.72037" lon="6.68121">
        <ele>1731</ele>
        <time>2000-01-01T13:43:59.000Z</time>
      </trkpt>
      <trkpt lat="45.72035" lon="6.68108">
        <ele>1725</ele>
        <time>2000-01-01T13:44:09.000Z</time>
      </trkpt>
      <trkpt lat="45.7204" lon="6.68093">
        <ele>1723</ele>
        <time>2000-01-01T13:44:19.000Z</time>
      </trkpt>
      <trkpt lat="45.72042" lon="6.68083">
        <ele>1719.9</ele>
        <time>2000-01-01T13:44:29.000Z</time>
      </trkpt>
      <trkpt lat="45.72046" lon="6.6807">
        <ele>1717</ele>
        <time>2000-01-01T13:44:39.000Z</time>
      </trkpt>
      <trkpt lat="45.72046" lon="6.68066">
        <ele>1720</ele>
        <time>2000-01-01T13:44:49.000Z</time>
      </trkpt>
      <trkpt lat="45.72048" lon="6.68064">
        <ele>1715.7</ele>
        <time>2000-01-01T13:44:59.000Z</time>
      </trkpt>
      <trkpt lat="45.72052" lon="6.68058">
        <ele>1714</ele>
        <time>2000-01-01T13:45:09.000Z</time>
      </trkpt>
      <trkpt lat="45.72052" lon="6.68053">
        <ele>1713.3</ele>
        <time>2000-01-01T13:45:19.000Z</time>
      </trkpt>
      <trkpt lat="45.72057" lon="6.68044">
        <ele>1712</ele>
        <time>2000-01-01T13:45:29.000Z</time>
      </trkpt>
      <trkpt lat="45.72062" lon="6.68032">
        <ele>1708.4</ele>
        <time>2000-01-01T13:45:39.000Z</time>
      </trkpt>
      <trkpt lat="45.72067" lon="6.68004">
        <ele>1711</ele>
        <time>2000-01-01T13:45:49.000Z</time>
      </trkpt>
      <trkpt lat="45.7207" lon="6.6799">
        <ele>1701.3</ele>
        <time>2000-01-01T13:45:59.000Z</time>
      </trkpt>
      <trkpt lat="45.72077" lon="6.6798">
        <ele>1701</ele>
        <time>2000-01-01T13:46:09.000Z</time>
      </trkpt>
      <trkpt lat="45.72079" lon="6.67975">
        <ele>1698.1</ele>
        <time>2000-01-01T13:46:19.000Z</time>
      </trkpt>
      <trkpt lat="45.7208" lon="6.67969">
        <ele>1697.1</ele>
        <time>2000-01-01T13:46:29.000Z</time>
      </trkpt>
      <trkpt lat="45.72085" lon="6.67961">
        <ele>1695</ele>
        <time>2000-01-01T13:46:39.000Z</time>
      </trkpt>
      <trkpt lat="45.72092" lon="6.67952">
        <ele>1696</ele>
        <time>2000-01-01T13:46:49.000Z</time>
      </trkpt>
      <trkpt lat="45.72094" lon="6.67947">
        <ele>1691.4</ele>
        <time>2000-01-01T13:46:59.000Z</time>
      </trkpt>
      <trkpt lat="45.72095" lon="6.6794">
        <ele>1690.3</ele>
        <time>2000-01-01T13:47:09.000Z</time>
      </trkpt>
      <trkpt lat="45.72095" lon="6.67933">
        <ele>1689.4</ele>
        <time>2000-01-01T13:47:19.000Z</time>
      </trkpt>
      <trkpt lat="45.72096" lon="6.67926">
        <ele>1693</ele>
        <time>2000-01-01T13:47:29.000Z</time>
      </trkpt>
      <trkpt lat="45.72098" lon="6.67917">
        <ele>1686.9</ele>
        <time>2000-01-01T13:47:39.000Z</time>
      </trkpt>
      <trkpt lat="45.72101" lon="6.67911">
        <ele>1685.7</ele>
        <time>2000-01-01T13:47:49.000Z</time>
      </trkpt>
      <trkpt lat="45.72102" lon="6.67904">
        <ele>1684.6</ele>
        <time>2000-01-01T13:47:59.000Z</time>
      </trkpt>
      <trkpt lat="45.72102" lon="6.67888">
        <ele>1690</ele>
        <time>2000-01-01T13:48:09.000Z</time>
      </trkpt>
      <trkpt lat="45.72099" lon="6.67868">
        <ele>1680.3</ele>
        <time>2000-01-01T13:48:19.000Z</time>
      </trkpt>
      <trkpt lat="45.72097" lon="6.6786">
        <ele>1680</ele>
        <time>2000-01-01T13:48:29.000Z</time>
      </trkpt>
      <trkpt lat="45.72096" lon="6.67845">
        <ele>1677.3</ele>
        <time>2000-01-01T13:48:39.000Z</time>
      </trkpt>
      <trkpt lat="45.72096" lon="6.67824">
        <ele>1677</ele>
        <time>2000-01-01T13:48:49.000Z</time>
      </trkpt>
      <trkpt lat="45.72099" lon="6.67815">
        <ele>1672.7</ele>
        <time>2000-01-01T13:48:59.000Z</time>
      </trkpt>
      <trkpt lat="45.72098" lon="6.67808">
        <ele>1671.8</ele>
        <time>2000-01-01T13:49:09.000Z</time>
      </trkpt>
      <trkpt lat="45.72104" lon="6.67801">
        <ele>1671</ele>
        <time>2000-01-01T13:49:19.000Z</time>
      </trkpt>
      <trkpt lat="45.72106" lon="6.67794">
        <ele>1669</ele>
        <time>2000-01-01T13:49:29.000Z</time>
      </trkpt>
      <trkpt lat="45.72104" lon="6.6778">
        <ele>1667.3</ele>
        <time>2000-01-01T13:49:39.000Z</time>
      </trkpt>
      <trkpt lat="45.72106" lon="6.67771">
        <ele>1668</ele>
        <time>2000-01-01T13:49:49.000Z</time>
      </trkpt>
      <trkpt lat="45.72113" lon="6.67754">
        <ele>1662.4</ele>
        <time>2000-01-01T13:49:59.000Z</time>
      </trkpt>
      <trkpt lat="45.72114" lon="6.67733">
        <ele>1659</ele>
        <time>2000-01-01T13:50:09.000Z</time>
      </trkpt>
      <trkpt lat="45.72113" lon="6.6772">
        <ele>1657.6</ele>
        <time>2000-01-01T13:50:19.000Z</time>
      </trkpt>
      <trkpt lat="45.72115" lon="6.677">
        <ele>1655</ele>
        <time>2000-01-01T13:50:29.000Z</time>
      </trkpt>
      <trkpt lat="45.72117" lon="6.67697">
        <ele>1654.9</ele>
        <time>2000-01-01T13:50:39.000Z</time>
      </trkpt>
      <trkpt lat="45.72123" lon="6.67693">
        <ele>1654</ele>
        <time>2000-01-01T13:50:49.000Z</time>
      </trkpt>
      <trkpt lat="45.72126" lon="6.67687">
        <ele>1653</ele>
        <time>2000-01-01T13:50:59.000Z</time>
      </trkpt>
      <trkpt lat="45.72127" lon="6.67677">
        <ele>1651</ele>
        <time>2000-01-01T13:51:09.000Z</time>
      </trkpt>
      <trkpt lat="45.72129" lon="6.67667">
        <ele>1650.1</ele>
        <time>2000-01-01T13:51:19.000Z</time>
      </trkpt>
      <trkpt lat="45.72132" lon="6.6766">
        <ele>1649</ele>
        <time>2000-01-01T13:51:29.000Z</time>
      </trkpt>
      <trkpt lat="45.72131" lon="6.67639">
        <ele>1646</ele>
        <time>2000-01-01T13:51:39.000Z</time>
      </trkpt>
      <trkpt lat="45.72132" lon="6.67636">
        <ele>1646.5</ele>
        <time>2000-01-01T13:51:49.000Z</time>
      </trkpt>
      <trkpt lat="45.72126" lon="6.67585">
        <ele>1641</ele>
        <time>2000-01-01T13:51:59.000Z</time>
      </trkpt>
      <trkpt lat="45.72121" lon="6.67564">
        <ele>1640.8</ele>
        <time>2000-01-01T13:52:09.000Z</time>
      </trkpt>
      <trkpt lat="45.72121" lon="6.67539">
        <ele>1639</ele>
        <time>2000-01-01T13:52:19.000Z</time>
      </trkpt>
      <trkpt lat="45.72119" lon="6.67523">
        <ele>1637.3</ele>
        <time>2000-01-01T13:52:29.000Z</time>
      </trkpt>
      <trkpt lat="45.7212" lon="6.67507">
        <ele>1639</ele>
        <time>2000-01-01T13:52:39.000Z</time>
      </trkpt>
      <trkpt lat="45.72125" lon="6.675">
        <ele>1635</ele>
        <time>2000-01-01T13:52:49.000Z</time>
      </trkpt>
      <trkpt lat="45.72131" lon="6.67493">
        <ele>1633.8</ele>
        <time>2000-01-01T13:52:59.000Z</time>
      </trkpt>
      <trkpt lat="45.72137" lon="6.6749">
        <ele>1639</ele>
        <time>2000-01-01T13:53:09.000Z</time>
      </trkpt>
      <trkpt lat="45.72149" lon="6.67494">
        <ele>1633.2</ele>
        <time>2000-01-01T13:53:19.000Z</time>
      </trkpt>
      <trkpt lat="45.72154" lon="6.67485">
        <ele>1639</ele>
        <time>2000-01-01T13:53:29.000Z</time>
      </trkpt>
      <trkpt lat="45.72157" lon="6.67482">
        <ele>1633.4</ele>
        <time>2000-01-01T13:53:39.000Z</time>
      </trkpt>
      <trkpt lat="45.72165" lon="6.67461">
        <ele>1639</ele>
        <time>2000-01-01T13:53:49.000Z</time>
      </trkpt>
      <trkpt lat="45.72166" lon="6.67451">
        <ele>1633.9</ele>
        <time>2000-01-01T13:53:59.000Z</time>
      </trkpt>
      <trkpt lat="45.72169" lon="6.67442">
        <ele>1634.5</ele>
        <time>2000-01-01T13:54:09.000Z</time>
      </trkpt>
      <trkpt lat="45.72175" lon="6.67438">
        <ele>1639</ele>
        <time>2000-01-01T13:54:19.000Z</time>
      </trkpt>
      <trkpt lat="45.72177" lon="6.67431">
        <ele>1636.2</ele>
        <time>2000-01-01T13:54:29.000Z</time>
      </trkpt>
      <trkpt lat="45.72186" lon="6.67435">
        <ele>1638.2</ele>
        <time>2000-01-01T13:54:39.000Z</time>
      </trkpt>
      <trkpt lat="45.722" lon="6.67448">
        <ele>1645</ele>
        <time>2000-01-01T13:54:49.000Z</time>
      </trkpt>
      <trkpt lat="45.72205" lon="6.67448">
        <ele>1642.4</ele>
        <time>2000-01-01T13:54:59.000Z</time>
      </trkpt>
      <trkpt lat="45.72213" lon="6.67454">
        <ele>1644.4</ele>
        <time>2000-01-01T13:55:09.000Z</time>
      </trkpt>
      <trkpt lat="45.72217" lon="6.67454">
        <ele>1645.2</ele>
        <time>2000-01-01T13:55:19.000Z</time>
      </trkpt>
      <trkpt lat="45.72223" lon="6.67449">
        <ele>1650</ele>
        <time>2000-01-01T13:55:29.000Z</time>
      </trkpt>
      <trkpt lat="45.72236" lon="6.67446">
        <ele>1648.6</ele>
        <time>2000-01-01T13:55:39.000Z</time>
      </trkpt>
      <trkpt lat="45.72244" lon="6.67441">
        <ele>1653</ele>
        <time>2000-01-01T13:55:49.000Z</time>
      </trkpt>
      <trkpt lat="45.72246" lon="6.67433">
        <ele>1650.3</ele>
        <time>2000-01-01T13:55:59.000Z</time>
      </trkpt>
      <trkpt lat="45.72254" lon="6.67419">
        <ele>1651.9</ele>
        <time>2000-01-01T13:56:09.000Z</time>
      </trkpt>
      <trkpt lat="45.72261" lon="6.67425">
        <ele>1653</ele>
        <time>2000-01-01T13:56:19.000Z</time>
      </trkpt>
      <trkpt lat="45.72268" lon="6.67433">
        <ele>1655.3</ele>
        <time>2000-01-01T13:56:29.000Z</time>
      </trkpt>
      <trkpt lat="45.72271" lon="6.67438">
        <ele>1656.1</ele>
        <time>2000-01-01T13:56:39.000Z</time>
      </trkpt>
      <trkpt lat="45.72273" lon="6.67448">
        <ele>1659</ele>
        <time>2000-01-01T13:56:49.000Z</time>
      </trkpt>
      <trkpt lat="45.72275" lon="6.67449">
        <ele>1657.5</ele>
        <time>2000-01-01T13:56:59.000Z</time>
      </trkpt>
      <trkpt lat="45.72277" lon="6.67448">
        <ele>1657.9</ele>
        <time>2000-01-01T13:57:09.000Z</time>
      </trkpt>
      <trkpt lat="45.72286" lon="6.67452">
        <ele>1660.3</ele>
        <time>2000-01-01T13:57:19.000Z</time>
      </trkpt>
      <trkpt lat="45.7229" lon="6.67456">
        <ele>1661.5</ele>
        <time>2000-01-01T13:57:29.000Z</time>
      </trkpt>
      <trkpt lat="45.72293" lon="6.67458">
        <ele>1659</ele>
        <time>2000-01-01T13:57:39.000Z</time>
      </trkpt>
      <trkpt lat="45.72295" lon="6.67458">
        <ele>1662.8</ele>
        <time>2000-01-01T13:57:49.000Z</time>
      </trkpt>
      <trkpt lat="45.72294" lon="6.67455">
        <ele>1662.5</ele>
        <time>2000-01-01T13:57:59.000Z</time>
      </trkpt>
      <trkpt lat="45.72294" lon="6.67453">
        <ele>1662.4</ele>
        <time>2000-01-01T13:58:09.000Z</time>
      </trkpt>
      <trkpt lat="45.72303" lon="6.67454">
        <ele>1664.7</ele>
        <time>2000-01-01T13:58:19.000Z</time>
      </trkpt>
      <trkpt lat="45.72306" lon="6.6746">
        <ele>1666</ele>
        <time>2000-01-01T13:58:29.000Z</time>
      </trkpt>
      <trkpt lat="45.72307" lon="6.67474">
        <ele>1666.3</ele>
        <time>2000-01-01T13:58:39.000Z</time>
      </trkpt>
      <trkpt lat="45.72309" lon="6.6748">
        <ele>1666.8</ele>
        <time>2000-01-01T13:58:49.000Z</time>
      </trkpt>
      <trkpt lat="45.72317" lon="6.67488">
        <ele>1666</ele>
        <time>2000-01-01T13:58:59.000Z</time>
      </trkpt>
      <trkpt lat="45.72319" lon="6.67491">
        <ele>1669.2</ele>
        <time>2000-01-01T13:59:09.000Z</time>
      </trkpt>
      <trkpt lat="45.72319" lon="6.67494">
        <ele>1669.3</ele>
        <time>2000-01-01T13:59:19.000Z</time>
      </trkpt>
      <trkpt lat="45.7233" lon="6.67507">
        <ele>1673</ele>
        <time>2000-01-01T13:59:29.000Z</time>
      </trkpt>
      <trkpt lat="45.72333" lon="6.67515">
        <ele>1672.9</ele>
        <time>2000-01-01T13:59:39.000Z</time>
      </trkpt>
      <trkpt lat="45.72337" lon="6.6752">
        <ele>1674</ele>
        <time>2000-01-01T13:59:49.000Z</time>
      </trkpt>
      <trkpt lat="45.7234" lon="6.67529">
        <ele>1675</ele>
        <time>2000-01-01T13:59:59.000Z</time>
      </trkpt>
      <trkpt lat="45.72343" lon="6.67542">
        <ele>1676</ele>
        <time>2000-01-01T14:00:09.000Z</time>
      </trkpt>
      <trkpt lat="45.72347" lon="6.6755">
        <ele>1677.3</ele>
        <time>2000-01-01T14:00:19.000Z</time>
      </trkpt>
      <trkpt lat="45.72353" lon="6.67568">
        <ele>1684</ele>
        <time>2000-01-01T14:00:29.000Z</time>
      </trkpt>
      <trkpt lat="45.72366" lon="6.67581">
        <ele>1680.3</ele>
        <time>2000-01-01T14:00:39.000Z</time>
      </trkpt>
      <trkpt lat="45.72368" lon="6.67584">
        <ele>1680.5</ele>
        <time>2000-01-01T14:00:49.000Z</time>
      </trkpt>
      <trkpt lat="45.72371" lon="6.67594">
        <ele>1684</ele>
        <time>2000-01-01T14:00:59.000Z</time>
      </trkpt>
      <trkpt lat="45.7239" lon="6.67613">
        <ele>1686</ele>
        <time>2000-01-01T14:01:09.000Z</time>
      </trkpt>
      <trkpt lat="45.72391" lon="6.67615">
        <ele>1683.6</ele>
        <time>2000-01-01T14:01:19.000Z</time>
      </trkpt>
      <trkpt lat="45.72391" lon="6.67622">
        <ele>1683.8</ele>
        <time>2000-01-01T14:01:29.000Z</time>
      </trkpt>
      <trkpt lat="45.72395" lon="6.67626">
        <ele>1684.9</ele>
        <time>2000-01-01T14:01:39.000Z</time>
      </trkpt>
      <trkpt lat="45.72401" lon="6.67629">
        <ele>1686.3</ele>
        <time>2000-01-01T14:01:49.000Z</time>
      </trkpt>
      <trkpt lat="45.72408" lon="6.67637">
        <ele>1689</ele>
        <time>2000-01-01T14:01:59.000Z</time>
      </trkpt>
      <trkpt lat="45.72414" lon="6.67641">
        <ele>1689.6</ele>
        <time>2000-01-01T14:02:09.000Z</time>
      </trkpt>
      <trkpt lat="45.72419" lon="6.67647">
        <ele>1691.1</ele>
        <time>2000-01-01T14:02:19.000Z</time>
      </trkpt>
      <trkpt lat="45.72423" lon="6.67653">
        <ele>1690</ele>
        <time>2000-01-01T14:02:29.000Z</time>
      </trkpt>
      <trkpt lat="45.72425" lon="6.67661">
        <ele>1693.2</ele>
        <time>2000-01-01T14:02:39.000Z</time>
      </trkpt>
      <trkpt lat="45.72434" lon="6.67672">
        <ele>1696.1</ele>
        <time>2000-01-01T14:02:49.000Z</time>
      </trkpt>
      <trkpt lat="45.72437" lon="6.67674">
        <ele>1692</ele>
        <time>2000-01-01T14:02:59.000Z</time>
      </trkpt>
      <trkpt lat="45.72436" lon="6.67674">
        <ele>1696.8</ele>
        <time>2000-01-01T14:03:09.000Z</time>
      </trkpt>
      <trkpt lat="45.72438" lon="6.67676">
        <ele>1697.6</ele>
        <time>2000-01-01T14:03:19.000Z</time>
      </trkpt>
      <trkpt lat="45.72441" lon="6.67677">
        <ele>1698.5</ele>
        <time>2000-01-01T14:03:29.000Z</time>
      </trkpt>
      <trkpt lat="45.72445" lon="6.67672">
        <ele>1698.3</ele>
        <time>2000-01-01T14:03:39.000Z</time>
      </trkpt>
      <trkpt lat="45.72452" lon="6.67671">
        <ele>1700</ele>
        <time>2000-01-01T14:03:49.000Z</time>
      </trkpt>
      <trkpt lat="45.72459" lon="6.67675">
        <ele>1702.7</ele>
        <time>2000-01-01T14:03:59.000Z</time>
      </trkpt>
      <trkpt lat="45.72463" lon="6.67671">
        <ele>1703.1</ele>
        <time>2000-01-01T14:04:09.000Z</time>
      </trkpt>
      <trkpt lat="45.72463" lon="6.6767">
        <ele>1702.9</ele>
        <time>2000-01-01T14:04:19.000Z</time>
      </trkpt>
      <trkpt lat="45.72475" lon="6.67677">
        <ele>1711</ele>
        <time>2000-01-01T14:04:29.000Z</time>
      </trkpt>
      <trkpt lat="45.72484" lon="6.67679">
        <ele>1709</ele>
        <time>2000-01-01T14:04:39.000Z</time>
      </trkpt>
      <trkpt lat="45.72485" lon="6.67681">
        <ele>1709.3</ele>
        <time>2000-01-01T14:04:49.000Z</time>
      </trkpt>
      <trkpt lat="45.7249" lon="6.67677">
        <ele>1710</ele>
        <time>2000-01-01T14:04:59.000Z</time>
      </trkpt>
      <trkpt lat="45.72505" lon="6.6768">
        <ele>1721</ele>
        <time>2000-01-01T14:05:09.000Z</time>
      </trkpt>
      <trkpt lat="45.72507" lon="6.67682">
        <ele>1714.4</ele>
        <time>2000-01-01T14:05:19.000Z</time>
      </trkpt>
      <trkpt lat="45.72506" lon="6.67682">
        <ele>1714.1</ele>
        <time>2000-01-01T14:05:29.000Z</time>
      </trkpt>
      <trkpt lat="45.72512" lon="6.67683">
        <ele>1716.1</ele>
        <time>2000-01-01T14:05:39.000Z</time>
      </trkpt>
      <trkpt lat="45.72513" lon="6.67684">
        <ele>1716.5</ele>
        <time>2000-01-01T14:05:49.000Z</time>
      </trkpt>
      <trkpt lat="45.72513" lon="6.67699">
        <ele>1721</ele>
        <time>2000-01-01T14:05:59.000Z</time>
      </trkpt>
      <trkpt lat="45.72515" lon="6.67698">
        <ele>1717.4</ele>
        <time>2000-01-01T14:06:09.000Z</time>
      </trkpt>
      <trkpt lat="45.72516" lon="6.67699">
        <ele>1717.8</ele>
        <time>2000-01-01T14:06:19.000Z</time>
      </trkpt>
      <trkpt lat="45.72522" lon="6.67697">
        <ele>1719.8</ele>
        <time>2000-01-01T14:06:29.000Z</time>
      </trkpt>
      <trkpt lat="45.72517" lon="6.67693">
        <ele>1718.1</ele>
        <time>2000-01-01T14:06:39.000Z</time>
      </trkpt>
      <trkpt lat="45.72517" lon="6.67687">
        <ele>1721</ele>
        <time>2000-01-01T14:06:49.000Z</time>
      </trkpt>
      <trkpt lat="45.72524" lon="6.67683">
        <ele>1720.3</ele>
        <time>2000-01-01T14:06:59.000Z</time>
      </trkpt>
      <trkpt lat="45.72529" lon="6.67674">
        <ele>1721.7</ele>
        <time>2000-01-01T14:07:09.000Z</time>
      </trkpt>
      <trkpt lat="45.72535" lon="6.67671">
        <ele>1734</ele>
        <time>2000-01-01T14:07:19.000Z</time>
      </trkpt>
      <trkpt lat="45.72538" lon="6.67675">
        <ele>1725</ele>
        <time>2000-01-01T14:07:29.000Z</time>
      </trkpt>
      <trkpt lat="45.72538" lon="6.67676">
        <ele>1725</ele>
        <time>2000-01-01T14:07:39.000Z</time>
      </trkpt>
      <trkpt lat="45.72536" lon="6.67679">
        <ele>1724.4</ele>
        <time>2000-01-01T14:07:49.000Z</time>
      </trkpt>
      <trkpt lat="45.72538" lon="6.67689">
        <ele>1725.5</ele>
        <time>2000-01-01T14:07:59.000Z</time>
      </trkpt>
      <trkpt lat="45.72541" lon="6.67688">
        <ele>1726.5</ele>
        <time>2000-01-01T14:08:09.000Z</time>
      </trkpt>
      <trkpt lat="45.72542" lon="6.67685">
        <ele>1734</ele>
        <time>2000-01-01T14:08:19.000Z</time>
      </trkpt>
      <trkpt lat="45.72549" lon="6.67682">
        <ele>1729.2</ele>
        <time>2000-01-01T14:08:29.000Z</time>
      </trkpt>
      <trkpt lat="45.72552" lon="6.67689">
        <ele>1730.5</ele>
        <time>2000-01-01T14:08:39.000Z</time>
      </trkpt>
      <trkpt lat="45.72548" lon="6.67697">
        <ele>1734</ele>
        <time>2000-01-01T14:08:49.000Z</time>
      </trkpt>
      <trkpt lat="45.72548" lon="6.67702">
        <ele>1729.3</ele>
        <time>2000-01-01T14:08:59.000Z</time>
      </trkpt>
      <trkpt lat="45.72554" lon="6.67707">
        <ele>1731.8</ele>
        <time>2000-01-01T14:09:09.000Z</time>
      </trkpt>
      <trkpt lat="45.72554" lon="6.6769">
        <ele>1737</ele>
        <time>2000-01-01T14:09:19.000Z</time>
      </trkpt>
      <trkpt lat="45.72555" lon="6.67692">
        <ele>1731.7</ele>
        <time>2000-01-01T14:09:29.000Z</time>
      </trkpt>
      <trkpt lat="45.72555" lon="6.677">
        <ele>1732</ele>
        <time>2000-01-01T14:09:39.000Z</time>
      </trkpt>
      <trkpt lat="45.72558" lon="6.67711">
        <ele>1733.7</ele>
        <time>2000-01-01T14:09:49.000Z</time>
      </trkpt>
      <trkpt lat="45.72559" lon="6.67717">
        <ele>1741</ele>
        <time>2000-01-01T14:09:59.000Z</time>
      </trkpt>
      <trkpt lat="45.72561" lon="6.67723">
        <ele>1735.1</ele>
        <time>2000-01-01T14:10:09.000Z</time>
      </trkpt>
      <trkpt lat="45.72564" lon="6.67723">
        <ele>1736.4</ele>
        <time>2000-01-01T14:10:19.000Z</time>
      </trkpt>
      <trkpt lat="45.72565" lon="6.67722">
        <ele>1737.1</ele>
        <time>2000-01-01T14:10:29.000Z</time>
      </trkpt>
      <trkpt lat="45.72572" lon="6.67722">
        <ele>1740.1</ele>
        <time>2000-01-01T14:10:39.000Z</time>
      </trkpt>
      <trkpt lat="45.72576" lon="6.67719">
        <ele>1751</ele>
        <time>2000-01-01T14:10:49.000Z</time>
      </trkpt>
      <trkpt lat="45.72581" lon="6.67719">
        <ele>1743.9</ele>
        <time>2000-01-01T14:10:59.000Z</time>
      </trkpt>
      <trkpt lat="45.72585" lon="6.67717">
        <ele>1745.3</ele>
        <time>2000-01-01T14:11:09.000Z</time>
      </trkpt>
      <trkpt lat="45.72588" lon="6.67713">
        <ele>1746.1</ele>
        <time>2000-01-01T14:11:19.000Z</time>
      </trkpt>
      <trkpt lat="45.72594" lon="6.67708">
        <ele>1753</ele>
        <time>2000-01-01T14:11:29.000Z</time>
      </trkpt>
      <trkpt lat="45.72583" lon="6.67709">
        <ele>1744.4</ele>
        <time>2000-01-01T14:11:39.000Z</time>
      </trkpt>
      <trkpt lat="45.72585" lon="6.67707">
        <ele>1744.9</ele>
        <time>2000-01-01T14:11:49.000Z</time>
      </trkpt>
      <trkpt lat="45.72581" lon="6.67711">
        <ele>1743.6</ele>
        <time>2000-01-01T14:11:59.000Z</time>
      </trkpt>
      <trkpt lat="45.72581" lon="6.67706">
        <ele>1753</ele>
        <time>2000-01-01T14:12:09.000Z</time>
      </trkpt>
      <trkpt lat="45.7258" lon="6.67706">
        <ele>1743</ele>
        <time>2000-01-01T14:12:19.000Z</time>
      </trkpt>
      <trkpt lat="45.72581" lon="6.67699">
        <ele>1743.2</ele>
        <time>2000-01-01T14:12:29.000Z</time>
      </trkpt>
      <trkpt lat="45.72583" lon="6.67701">
        <ele>1744.1</ele>
        <time>2000-01-01T14:12:39.000Z</time>
      </trkpt>
      <trkpt lat="45.72583" lon="6.677">
        <ele>1744.1</ele>
        <time>2000-01-01T14:12:49.000Z</time>
      </trkpt>
      <trkpt lat="45.72587" lon="6.67698">
        <ele>1745.1</ele>
        <time>2000-01-01T14:12:59.000Z</time>
      </trkpt>
      <trkpt lat="45.72593" lon="6.67698">
        <ele>1753</ele>
        <time>2000-01-01T14:13:09.000Z</time>
      </trkpt>
      <trkpt lat="45.72598" lon="6.67709">
        <ele>1748.8</ele>
        <time>2000-01-01T14:13:19.000Z</time>
      </trkpt>
      <trkpt lat="45.72599" lon="6.67714">
        <ele>1749.4</ele>
        <time>2000-01-01T14:13:29.000Z</time>
      </trkpt>
      <trkpt lat="45.726" lon="6.67728">
        <ele>1762</ele>
        <time>2000-01-01T14:13:39.000Z</time>
      </trkpt>
      <trkpt lat="45.72607" lon="6.67733">
        <ele>1752.9</ele>
        <time>2000-01-01T14:13:49.000Z</time>
      </trkpt>
      <trkpt lat="45.72614" lon="6.67733">
        <ele>1755.9</ele>
        <time>2000-01-01T14:13:59.000Z</time>
      </trkpt>
      <trkpt lat="45.72619" lon="6.67737">
        <ele>1762</ele>
        <time>2000-01-01T14:14:09.000Z</time>
      </trkpt>
      <trkpt lat="45.72627" lon="6.67728">
        <ele>1760.3</ele>
        <time>2000-01-01T14:14:19.000Z</time>
      </trkpt>
      <trkpt lat="45.72626" lon="6.67706">
        <ele>1763</ele>
        <time>2000-01-01T14:14:29.000Z</time>
      </trkpt>
      <trkpt lat="45.7263" lon="6.67704">
        <ele>1757.5</ele>
        <time>2000-01-01T14:14:39.000Z</time>
      </trkpt>
      <trkpt lat="45.72632" lon="6.67701">
        <ele>1757.5</ele>
        <time>2000-01-01T14:14:49.000Z</time>
      </trkpt>
      <trkpt lat="45.72632" lon="6.67703">
        <ele>1757.9</ele>
        <time>2000-01-01T14:14:59.000Z</time>
      </trkpt>
      <trkpt lat="45.72641" lon="6.67721">
        <ele>1769</ele>
        <time>2000-01-01T14:15:09.000Z</time>
      </trkpt>
      <trkpt lat="45.72647" lon="6.67726">
        <ele>1766.6</ele>
        <time>2000-01-01T14:15:19.000Z</time>
      </trkpt>
      <trkpt lat="45.72666" lon="6.67733">
        <ele>1774</ele>
        <time>2000-01-01T14:15:29.000Z</time>
      </trkpt>
      <trkpt lat="45.72676" lon="6.67735">
        <ele>1773.1</ele>
        <time>2000-01-01T14:15:39.000Z</time>
      </trkpt>
      <trkpt lat="45.72682" lon="6.67735">
        <ele>1774.1</ele>
        <time>2000-01-01T14:15:49.000Z</time>
      </trkpt>
      <trkpt lat="45.72694" lon="6.67728">
        <ele>1779</ele>
        <time>2000-01-01T14:15:59.000Z</time>
      </trkpt>
      <trkpt lat="45.72711" lon="6.67713">
        <ele>1791</ele>
        <time>2000-01-01T14:16:09.000Z</time>
      </trkpt>
      <trkpt lat="45.72716" lon="6.67716">
        <ele>1784.1</ele>
        <time>2000-01-01T14:16:19.000Z</time>
      </trkpt>
      <trkpt lat="45.72725" lon="6.67712">
        <ele>1787</ele>
        <time>2000-01-01T14:16:29.000Z</time>
      </trkpt>
      <trkpt lat="45.72734" lon="6.67709">
        <ele>1795</ele>
        <time>2000-01-01T14:16:39.000Z</time>
      </trkpt>
      <trkpt lat="45.72735" lon="6.67705">
        <ele>1791.2</ele>
        <time>2000-01-01T14:16:49.000Z</time>
      </trkpt>
      <trkpt lat="45.72739" lon="6.67701">
        <ele>1793.4</ele>
        <time>2000-01-01T14:16:59.000Z</time>
      </trkpt>
      <trkpt lat="45.72745" lon="6.67703">
        <ele>1795.1</ele>
        <time>2000-01-01T14:17:09.000Z</time>
      </trkpt>
      <trkpt lat="45.72748" lon="6.67707">
        <ele>1795.2</ele>
        <time>2000-01-01T14:17:19.000Z</time>
      </trkpt>
      <trkpt lat="45.7275" lon="6.67701">
        <ele>1810</ele>
        <time>2000-01-01T14:17:29.000Z</time>
      </trkpt>
      <trkpt lat="45.72752" lon="6.67704">
        <ele>1797.3</ele>
        <time>2000-01-01T14:17:39.000Z</time>
      </trkpt>
      <trkpt lat="45.72751" lon="6.67698">
        <ele>1798.4</ele>
        <time>2000-01-01T14:17:49.000Z</time>
      </trkpt>
      <trkpt lat="45.72754" lon="6.67697">
        <ele>1799.7</ele>
        <time>2000-01-01T14:17:59.000Z</time>
      </trkpt>
      <trkpt lat="45.72759" lon="6.6769">
        <ele>1802.3</ele>
        <time>2000-01-01T14:18:09.000Z</time>
      </trkpt>
      <trkpt lat="45.72765" lon="6.67689">
        <ele>1810</ele>
        <time>2000-01-01T14:18:19.000Z</time>
      </trkpt>
      <trkpt lat="45.72775" lon="6.67685">
        <ele>1808.1</ele>
        <time>2000-01-01T14:18:29.000Z</time>
      </trkpt>
      <trkpt lat="45.72778" lon="6.67687">
        <ele>1808.9</ele>
        <time>2000-01-01T14:18:39.000Z</time>
      </trkpt>
      <trkpt lat="45.7278" lon="6.67687">
        <ele>1809.4</ele>
        <time>2000-01-01T14:18:49.000Z</time>
      </trkpt>
      <trkpt lat="45.72786" lon="6.6769">
        <ele>1811</ele>
        <time>2000-01-01T14:18:59.000Z</time>
      </trkpt>
      <trkpt lat="45.72793" lon="6.67688">
        <ele>1812.9</ele>
        <time>2000-01-01T14:19:09.000Z</time>
      </trkpt>
      <trkpt lat="45.72805" lon="6.67689">
        <ele>1832</ele>
        <time>2000-01-01T14:19:19.000Z</time>
      </trkpt>
      <trkpt lat="45.72812" lon="6.67693">
        <ele>1818.1</ele>
        <time>2000-01-01T14:19:29.000Z</time>
      </trkpt>
      <trkpt lat="45.72815" lon="6.6769">
        <ele>1820.1</ele>
        <time>2000-01-01T14:19:39.000Z</time>
      </trkpt>
      <trkpt lat="45.72822" lon="6.67693">
        <ele>1822.5</ele>
        <time>2000-01-01T14:19:49.000Z</time>
      </trkpt>
      <trkpt lat="45.72825" lon="6.67698">
        <ele>1832</ele>
        <time>2000-01-01T14:19:59.000Z</time>
      </trkpt>
      <trkpt lat="45.72831" lon="6.67701">
        <ele>1824.8</ele>
        <time>2000-01-01T14:20:09.000Z</time>
      </trkpt>
      <trkpt lat="45.72838" lon="6.677">
        <ele>1827</ele>
        <time>2000-01-01T14:20:19.000Z</time>
      </trkpt>
      <trkpt lat="45.72842" lon="6.67702">
        <ele>1827.6</ele>
        <time>2000-01-01T14:20:29.000Z</time>
      </trkpt>
      <trkpt lat="45.72847" lon="6.67709">
        <ele>1832</ele>
        <time>2000-01-01T14:20:39.000Z</time>
      </trkpt>
      <trkpt lat="45.72849" lon="6.67714">
        <ele>1827.3</ele>
        <time>2000-01-01T14:20:49.000Z</time>
      </trkpt>
      <trkpt lat="45.72853" lon="6.6772">
        <ele>1827.3</ele>
        <time>2000-01-01T14:20:59.000Z</time>
      </trkpt>
      <trkpt lat="45.72863" lon="6.67731">
        <ele>1834</ele>
        <time>2000-01-01T14:21:09.000Z</time>
      </trkpt>
      <trkpt lat="45.72867" lon="6.67731">
        <ele>1827.6</ele>
        <time>2000-01-01T14:21:19.000Z</time>
      </trkpt>
      <trkpt lat="45.72871" lon="6.67732">
        <ele>1828.3</ele>
        <time>2000-01-01T14:21:29.000Z</time>
      </trkpt>
      <trkpt lat="45.72878" lon="6.6773">
        <ele>1830.7</ele>
        <time>2000-01-01T14:21:39.000Z</time>
      </trkpt>
      <trkpt lat="45.72883" lon="6.67713">
        <ele>1836</ele>
        <time>2000-01-01T14:21:49.000Z</time>
      </trkpt>
      <trkpt lat="45.72883" lon="6.67711">
        <ele>1837.1</ele>
        <time>2000-01-01T14:21:59.000Z</time>
      </trkpt>
      <trkpt lat="45.72884" lon="6.6771">
        <ele>1837.6</ele>
        <time>2000-01-01T14:22:09.000Z</time>
      </trkpt>
      <trkpt lat="45.72886" lon="6.67714">
        <ele>1837.3</ele>
        <time>2000-01-01T14:22:19.000Z</time>
      </trkpt>
      <trkpt lat="45.72888" lon="6.67715">
        <ele>1837.6</ele>
        <time>2000-01-01T14:22:29.000Z</time>
      </trkpt>
      <trkpt lat="45.72892" lon="6.67713">
        <ele>1839.4</ele>
        <time>2000-01-01T14:22:39.000Z</time>
      </trkpt>
      <trkpt lat="45.72898" lon="6.67703">
        <ele>1843</ele>
        <time>2000-01-01T14:22:49.000Z</time>
      </trkpt>
      <trkpt lat="45.72898" lon="6.67689">
        <ele>1847.5</ele>
        <time>2000-01-01T14:22:59.000Z</time>
      </trkpt>
      <trkpt lat="45.72895" lon="6.67682">
        <ele>1847.9</ele>
        <time>2000-01-01T14:23:09.000Z</time>
      </trkpt>
      <trkpt lat="45.72895" lon="6.67673">
        <ele>1847</ele>
        <time>2000-01-01T14:23:19.000Z</time>
      </trkpt>
      <trkpt lat="45.72894" lon="6.67674">
        <ele>1849.3</ele>
        <time>2000-01-01T14:23:29.000Z</time>
      </trkpt>
      <trkpt lat="45.72883" lon="6.67658">
        <ele>1848.7</ele>
        <time>2000-01-01T14:23:39.000Z</time>
      </trkpt>
      <trkpt lat="45.72882" lon="6.6766">
        <ele>1848</ele>
        <time>2000-01-01T14:23:49.000Z</time>
      </trkpt>
      <trkpt lat="45.72888" lon="6.6767">
        <ele>1847</ele>
        <time>2000-01-01T14:23:59.000Z</time>
      </trkpt>
      <trkpt lat="45.72893" lon="6.67676">
        <ele>1848.5</ele>
        <time>2000-01-01T14:24:09.000Z</time>
      </trkpt>
      <trkpt lat="45.72899" lon="6.67672">
        <ele>1851.5</ele>
        <time>2000-01-01T14:24:19.000Z</time>
      </trkpt>
      <trkpt lat="45.72899" lon="6.6767">
        <ele>1851.9</ele>
        <time>2000-01-01T14:24:29.000Z</time>
      </trkpt>
      <trkpt lat="45.72896" lon="6.67663">
        <ele>1847</ele>
        <time>2000-01-01T14:24:39.000Z</time>
      </trkpt>
      <trkpt lat="45.72893" lon="6.6766">
        <ele>1851.8</ele>
        <time>2000-01-01T14:24:49.000Z</time>
      </trkpt>
      <trkpt lat="45.7289" lon="6.67633">
        <ele>1858</ele>
        <time>2000-01-01T14:24:59.000Z</time>
      </trkpt>
      <trkpt lat="45.72891" lon="6.67612">
        <ele>1860.7</ele>
        <time>2000-01-01T14:25:09.000Z</time>
      </trkpt>
      <trkpt lat="45.72893" lon="6.67608">
        <ele>1862.7</ele>
        <time>2000-01-01T14:25:19.000Z</time>
      </trkpt>
      <trkpt lat="45.72896" lon="6.67608">
        <ele>1868</ele>
        <time>2000-01-01T14:25:29.000Z</time>
      </trkpt>
      <trkpt lat="45.72901" lon="6.67612">
        <ele>1865</ele>
        <time>2000-01-01T14:25:39.000Z</time>
      </trkpt>
      <trkpt lat="45.72909" lon="6.67626">
        <ele>1865.5</ele>
        <time>2000-01-01T14:25:49.000Z</time>
      </trkpt>
      <trkpt lat="45.72914" lon="6.67629">
        <ele>1875</ele>
        <time>2000-01-01T14:25:59.000Z</time>
      </trkpt>
      <trkpt lat="45.72916" lon="6.67633">
        <ele>1867</ele>
        <time>2000-01-01T14:26:09.000Z</time>
      </trkpt>
      <trkpt lat="45.72919" lon="6.67631">
        <ele>1868.7</ele>
        <time>2000-01-01T14:26:19.000Z</time>
      </trkpt>
      <trkpt lat="45.72914" lon="6.67616">
        <ele>1869.8</ele>
        <time>2000-01-01T14:26:29.000Z</time>
      </trkpt>
      <trkpt lat="45.7291" lon="6.67608">
        <ele>1875</ele>
        <time>2000-01-01T14:26:39.000Z</time>
      </trkpt>
      <trkpt lat="45.72905" lon="6.67591">
        <ele>1871.8</ele>
        <time>2000-01-01T14:26:49.000Z</time>
      </trkpt>
      <trkpt lat="45.72895" lon="6.67574">
        <ele>1879</ele>
        <time>2000-01-01T14:26:59.000Z</time>
      </trkpt>
      <trkpt lat="45.72893" lon="6.6757">
        <ele>1874.8</ele>
        <time>2000-01-01T14:27:09.000Z</time>
      </trkpt>
      <trkpt lat="45.72891" lon="6.67564">
        <ele>1876.4</ele>
        <time>2000-01-01T14:27:19.000Z</time>
      </trkpt>
      <trkpt lat="45.72888" lon="6.6756">
        <ele>1877.1</ele>
        <time>2000-01-01T14:27:29.000Z</time>
      </trkpt>
      <trkpt lat="45.72885" lon="6.67558">
        <ele>1877</ele>
        <time>2000-01-01T14:27:39.000Z</time>
      </trkpt>
      <trkpt lat="45.72879" lon="6.67538">
        <ele>1882</ele>
        <time>2000-01-01T14:27:49.000Z</time>
      </trkpt>
      <trkpt lat="45.72877" lon="6.67535">
        <ele>1883.5</ele>
        <time>2000-01-01T14:27:59.000Z</time>
      </trkpt>
      <trkpt lat="45.72873" lon="6.67534">
        <ele>1883.2</ele>
        <time>2000-01-01T14:28:09.000Z</time>
      </trkpt>
      <trkpt lat="45.72867" lon="6.6753">
        <ele>1883.9</ele>
        <time>2000-01-01T14:28:19.000Z</time>
      </trkpt>
      <trkpt lat="45.72864" lon="6.67524">
        <ele>1885.7</ele>
        <time>2000-01-01T14:28:29.000Z</time>
      </trkpt>
      <trkpt lat="45.7286" lon="6.67526">
        <ele>1882</ele>
        <time>2000-01-01T14:28:39.000Z</time>
      </trkpt>
      <trkpt lat="45.72859" lon="6.67522">
        <ele>1885.7</ele>
        <time>2000-01-01T14:28:49.000Z</time>
      </trkpt>
      <trkpt lat="45.72855" lon="6.67521">
        <ele>1885.6</ele>
        <time>2000-01-01T14:28:59.000Z</time>
      </trkpt>
      <trkpt lat="45.72852" lon="6.67517">
        <ele>1886.6</ele>
        <time>2000-01-01T14:29:09.000Z</time>
      </trkpt>
      <trkpt lat="45.72848" lon="6.67509">
        <ele>1889</ele>
        <time>2000-01-01T14:29:19.000Z</time>
      </trkpt>
      <trkpt lat="45.72838" lon="6.67495">
        <ele>1886</ele>
        <time>2000-01-01T14:29:29.000Z</time>
      </trkpt>
      <trkpt lat="45.72836" lon="6.67491">
        <ele>1891.2</ele>
        <time>2000-01-01T14:29:39.000Z</time>
      </trkpt>
      <trkpt lat="45.72837" lon="6.67493">
        <ele>1891.4</ele>
        <time>2000-01-01T14:29:49.000Z</time>
      </trkpt>
      <trkpt lat="45.72841" lon="6.67497">
        <ele>1891.8</ele>
        <time>2000-01-01T14:29:59.000Z</time>
      </trkpt>
      <trkpt lat="45.72851" lon="6.67504">
        <ele>1885</ele>
        <time>2000-01-01T14:30:09.000Z</time>
      </trkpt>
      <trkpt lat="45.72847" lon="6.67501">
        <ele>1891.6</ele>
        <time>2000-01-01T14:30:19.000Z</time>
      </trkpt>
      <trkpt lat="45.72844" lon="6.67497">
        <ele>1892.1</ele>
        <time>2000-01-01T14:30:29.000Z</time>
      </trkpt>
      <trkpt lat="45.72843" lon="6.67489">
        <ele>1892.8</ele>
        <time>2000-01-01T14:30:39.000Z</time>
      </trkpt>
      <trkpt lat="45.72845" lon="6.67471">
        <ele>1885</ele>
        <time>2000-01-01T14:30:49.000Z</time>
      </trkpt>
      <trkpt lat="45.72848" lon="6.67461">
        <ele>1898.9</ele>
        <time>2000-01-01T14:30:59.000Z</time>
      </trkpt>
      <trkpt lat="45.72846" lon="6.67455">
        <ele>1898.9</ele>
        <time>2000-01-01T14:31:09.000Z</time>
      </trkpt>
      <trkpt lat="45.72841" lon="6.67431">
        <ele>1896</ele>
        <time>2000-01-01T14:31:19.000Z</time>
      </trkpt>
      <trkpt lat="45.7283" lon="6.67409">
        <ele>1906</ele>
        <time>2000-01-01T14:31:29.000Z</time>
      </trkpt>
      <trkpt lat="45.7283" lon="6.67406">
        <ele>1902.8</ele>
        <time>2000-01-01T14:31:39.000Z</time>
      </trkpt>
      <trkpt lat="45.72828" lon="6.67401">
        <ele>1903.1</ele>
        <time>2000-01-01T14:31:49.000Z</time>
      </trkpt>
      <trkpt lat="45.72827" lon="6.67395">
        <ele>1904.1</ele>
        <time>2000-01-01T14:31:59.000Z</time>
      </trkpt>
      <trkpt lat="45.72829" lon="6.67378">
        <ele>1906</ele>
        <time>2000-01-01T14:32:09.000Z</time>
      </trkpt>
      <trkpt lat="45.72832" lon="6.67377">
        <ele>1909.3</ele>
        <time>2000-01-01T14:32:19.000Z</time>
      </trkpt>
      <trkpt lat="45.72838" lon="6.67388">
        <ele>1909.6</ele>
        <time>2000-01-01T14:32:29.000Z</time>
      </trkpt>
      <trkpt lat="45.7284" lon="6.67389">
        <ele>1910.1</ele>
        <time>2000-01-01T14:32:39.000Z</time>
      </trkpt>
      <trkpt lat="45.72847" lon="6.67398">
        <ele>1906</ele>
        <time>2000-01-01T14:32:49.000Z</time>
      </trkpt>
      <trkpt lat="45.72849" lon="6.67396">
        <ele>1912</ele>
        <time>2000-01-01T14:32:59.000Z</time>
      </trkpt>
      <trkpt lat="45.7285" lon="6.67394">
        <ele>1912.6</ele>
        <time>2000-01-01T14:33:09.000Z</time>
      </trkpt>
      <trkpt lat="45.72851" lon="6.67385">
        <ele>1914.4</ele>
        <time>2000-01-01T14:33:19.000Z</time>
      </trkpt>
      <trkpt lat="45.72848" lon="6.67364">
        <ele>1919</ele>
        <time>2000-01-01T14:33:29.000Z</time>
      </trkpt>
      <trkpt lat="45.7285" lon="6.67359">
        <ele>1918.7</ele>
        <time>2000-01-01T14:33:39.000Z</time>
      </trkpt>
      <trkpt lat="45.7285" lon="6.67353">
        <ele>1920.6</ele>
        <time>2000-01-01T14:33:49.000Z</time>
      </trkpt>
      <trkpt lat="45.72851" lon="6.67352">
        <ele>1921.3</ele>
        <time>2000-01-01T14:33:59.000Z</time>
      </trkpt>
      <trkpt lat="45.72854" lon="6.67353">
        <ele>1921.9</ele>
        <time>2000-01-01T14:34:09.000Z</time>
      </trkpt>
      <trkpt lat="45.72856" lon="6.67351">
        <ele>1923</ele>
        <time>2000-01-01T14:34:19.000Z</time>
      </trkpt>
      <trkpt lat="45.72858" lon="6.67344">
        <ele>1925</ele>
        <time>2000-01-01T14:34:29.000Z</time>
      </trkpt>
      <trkpt lat="45.72854" lon="6.67341">
        <ele>1925.4</ele>
        <time>2000-01-01T14:34:39.000Z</time>
      </trkpt>
      <trkpt lat="45.72851" lon="6.67335">
        <ele>1926.7</ele>
        <time>2000-01-01T14:34:49.000Z</time>
      </trkpt>
      <trkpt lat="45.72847" lon="6.67332">
        <ele>1927</ele>
        <time>2000-01-01T14:34:59.000Z</time>
      </trkpt>
      <trkpt lat="45.7284" lon="6.6732">
        <ele>1931</ele>
        <time>2000-01-01T14:35:09.000Z</time>
      </trkpt>
      <trkpt lat="45.72839" lon="6.67313">
        <ele>1933.2</ele>
        <time>2000-01-01T14:35:19.000Z</time>
      </trkpt>
      <trkpt lat="45.72836" lon="6.67312">
        <ele>1933</ele>
        <time>2000-01-01T14:35:29.000Z</time>
      </trkpt>
      <trkpt lat="45.72837" lon="6.67319">
        <ele>1930.4</ele>
        <time>2000-01-01T14:35:39.000Z</time>
      </trkpt>
      <trkpt lat="45.72844" lon="6.67319">
        <ele>1943</ele>
        <time>2000-01-01T14:35:49.000Z</time>
      </trkpt>
      <trkpt lat="45.72846" lon="6.67315">
        <ele>1933.8</ele>
        <time>2000-01-01T14:35:59.000Z</time>
      </trkpt>
      <trkpt lat="45.72856" lon="6.67316">
        <ele>1935.5</ele>
        <time>2000-01-01T14:36:09.000Z</time>
      </trkpt>
      <trkpt lat="45.72862" lon="6.67311">
        <ele>1943</ele>
        <time>2000-01-01T14:36:19.000Z</time>
      </trkpt>
      <trkpt lat="45.72854" lon="6.67301">
        <ele>1940.4</ele>
        <time>2000-01-01T14:36:29.000Z</time>
      </trkpt>
      <trkpt lat="45.72843" lon="6.67294">
        <ele>1944</ele>
        <time>2000-01-01T14:36:39.000Z</time>
      </trkpt>
      <trkpt lat="45.72836" lon="6.67287">
        <ele>1940.1</ele>
        <time>2000-01-01T14:36:49.000Z</time>
      </trkpt>
      <trkpt lat="45.72827" lon="6.67273">
        <ele>1944</ele>
        <time>2000-01-01T14:36:59.000Z</time>
      </trkpt>
      <trkpt lat="45.7283" lon="6.6727">
        <ele>1940.9</ele>
        <time>2000-01-01T14:37:09.000Z</time>
      </trkpt>
      <trkpt lat="45.72848" lon="6.67272">
        <ele>1944</ele>
        <time>2000-01-01T14:37:19.000Z</time>
      </trkpt>
      <trkpt lat="45.72849" lon="6.67271">
        <ele>1944.1</ele>
        <time>2000-01-01T14:37:29.000Z</time>
      </trkpt>
      <trkpt lat="45.72871" lon="6.67271">
        <ele>1953</ele>
        <time>2000-01-01T14:37:39.000Z</time>
      </trkpt>
      <trkpt lat="45.72878" lon="6.67274">
        <ele>1950.2</ele>
        <time>2000-01-01T14:37:49.000Z</time>
      </trkpt>
      <trkpt lat="45.7288" lon="6.67271">
        <ele>1950.6</ele>
        <time>2000-01-01T14:37:59.000Z</time>
      </trkpt>
      <trkpt lat="45.72887" lon="6.67272">
        <ele>1952.3</ele>
        <time>2000-01-01T14:38:09.000Z</time>
      </trkpt>
      <trkpt lat="45.72891" lon="6.67277">
        <ele>1964</ele>
        <time>2000-01-01T14:38:19.000Z</time>
      </trkpt>
      <trkpt lat="45.72903" lon="6.67286">
        <ele>1954.5</ele>
        <time>2000-01-01T14:38:29.000Z</time>
      </trkpt>
      <trkpt lat="45.72912" lon="6.67291">
        <ele>1964</ele>
        <time>2000-01-01T14:38:39.000Z</time>
      </trkpt>
      <trkpt lat="45.72925" lon="6.67302">
        <ele>1959.3</ele>
        <time>2000-01-01T14:38:49.000Z</time>
      </trkpt>
      <trkpt lat="45.72925" lon="6.67303">
        <ele>1959.4</ele>
        <time>2000-01-01T14:38:59.000Z</time>
      </trkpt>
      <trkpt lat="45.72929" lon="6.67306">
        <ele>1969</ele>
        <time>2000-01-01T14:39:09.000Z</time>
      </trkpt>
      <trkpt lat="45.72945" lon="6.67296">
        <ele>1960.7</ele>
        <time>2000-01-01T14:39:19.000Z</time>
      </trkpt>
      <trkpt lat="45.72965" lon="6.67282">
        <ele>1974</ele>
        <time>2000-01-01T14:39:29.000Z</time>
      </trkpt>
      <trkpt lat="45.72966" lon="6.6728">
        <ele>1963.1</ele>
        <time>2000-01-01T14:39:39.000Z</time>
      </trkpt>
      <trkpt lat="45.72968" lon="6.67278">
        <ele>1963.4</ele>
        <time>2000-01-01T14:39:49.000Z</time>
      </trkpt>
      <trkpt lat="45.72967" lon="6.67273">
        <ele>1963.8</ele>
        <time>2000-01-01T14:39:59.000Z</time>
      </trkpt>
      <trkpt lat="45.72969" lon="6.67262">
        <ele>1965.5</ele>
        <time>2000-01-01T14:40:09.000Z</time>
      </trkpt>
      <trkpt lat="45.72979" lon="6.67252">
        <ele>1974</ele>
        <time>2000-01-01T14:40:19.000Z</time>
      </trkpt>
      <trkpt lat="45.72983" lon="6.67249">
        <ele>1972.4</ele>
        <time>2000-01-01T14:40:29.000Z</time>
      </trkpt>
      <trkpt lat="45.72983" lon="6.67245">
        <ele>1973</ele>
        <time>2000-01-01T14:40:39.000Z</time>
      </trkpt>
      <trkpt lat="45.72982" lon="6.67239">
        <ele>1973.5</ele>
        <time>2000-01-01T14:40:49.000Z</time>
      </trkpt>
      <trkpt lat="45.72991" lon="6.67225">
        <ele>1986</ele>
        <time>2000-01-01T14:40:59.000Z</time>
      </trkpt>
      <trkpt lat="45.72998" lon="6.67235">
        <ele>1978</ele>
        <time>2000-01-01T14:41:09.000Z</time>
      </trkpt>
      <trkpt lat="45.73004" lon="6.67245">
        <ele>1986</ele>
        <time>2000-01-01T14:41:19.000Z</time>
      </trkpt>
      <trkpt lat="45.73009" lon="6.67256">
        <ele>1979.5</ele>
        <time>2000-01-01T14:41:29.000Z</time>
      </trkpt>
      <trkpt lat="45.73024" lon="6.67277">
        <ele>1986</ele>
        <time>2000-01-01T14:41:39.000Z</time>
      </trkpt>
      <trkpt lat="45.73049" lon="6.67303">
        <ele>1988</ele>
        <time>2000-01-01T14:41:49.000Z</time>
      </trkpt>
      <trkpt lat="45.73069" lon="6.67314">
        <ele>1992</ele>
        <time>2000-01-01T14:41:59.000Z</time>
      </trkpt>
      <trkpt lat="45.73086" lon="6.6733">
        <ele>1998</ele>
        <time>2000-01-01T14:42:09.000Z</time>
      </trkpt>
      <trkpt lat="45.73113" lon="6.67348">
        <ele>2001</ele>
        <time>2000-01-01T14:42:19.000Z</time>
      </trkpt>
      <trkpt lat="45.73122" lon="6.67353">
        <ele>1995.6</ele>
        <time>2000-01-01T14:42:29.000Z</time>
      </trkpt>
      <trkpt lat="45.73132" lon="6.67356">
        <ele>2003</ele>
        <time>2000-01-01T14:42:39.000Z</time>
      </trkpt>
      <trkpt lat="45.73144" lon="6.67354">
        <ele>1999.6</ele>
        <time>2000-01-01T14:42:49.000Z</time>
      </trkpt>
      <trkpt lat="45.73153" lon="6.6735">
        <ele>2003</ele>
        <time>2000-01-01T14:42:59.000Z</time>
      </trkpt>
      <trkpt lat="45.73162" lon="6.67344">
        <ele>2001.5</ele>
        <time>2000-01-01T14:43:09.000Z</time>
      </trkpt>
      <trkpt lat="45.73172" lon="6.6734">
        <ele>2004</ele>
        <time>2000-01-01T14:43:19.000Z</time>
      </trkpt>
      <trkpt lat="45.73193" lon="6.67323">
        <ele>2008</ele>
        <time>2000-01-01T14:43:29.000Z</time>
      </trkpt>
      <trkpt lat="45.73214" lon="6.67306">
        <ele>2011</ele>
        <time>2000-01-01T14:43:39.000Z</time>
      </trkpt>
      <trkpt lat="45.73242" lon="6.67291">
        <ele>2024</ele>
        <time>2000-01-01T14:43:49.000Z</time>
      </trkpt>
      <trkpt lat="45.73263" lon="6.67285">
        <ele>2024</ele>
        <time>2000-01-01T14:43:59.000Z</time>
      </trkpt>
      <trkpt lat="45.73282" lon="6.67282">
        <ele>2026</ele>
        <time>2000-01-01T14:44:09.000Z</time>
      </trkpt>
      <trkpt lat="45.73301" lon="6.67282">
        <ele>2025</ele>
        <time>2000-01-01T14:44:19.000Z</time>
      </trkpt>
      <trkpt lat="45.7332" lon="6.67272">
        <ele>2025</ele>
        <time>2000-01-01T14:44:29.000Z</time>
      </trkpt>
      <trkpt lat="45.73331" lon="6.67271">
        <ele>2023.3</ele>
        <time>2000-01-01T14:44:39.000Z</time>
      </trkpt>
      <trkpt lat="45.73351" lon="6.67275">
        <ele>2025</ele>
        <time>2000-01-01T14:44:49.000Z</time>
      </trkpt>
      <trkpt lat="45.7335" lon="6.67288">
        <ele>2029.5</ele>
        <time>2000-01-01T14:44:59.000Z</time>
      </trkpt>
      <trkpt lat="45.73341" lon="6.67294">
        <ele>2025</ele>
        <time>2000-01-01T14:45:09.000Z</time>
      </trkpt>
      <trkpt lat="45.73334" lon="6.67302">
        <ele>2031.3</ele>
        <time>2000-01-01T14:45:19.000Z</time>
      </trkpt>
      <trkpt lat="45.7333" lon="6.67312">
        <ele>2032</ele>
        <time>2000-01-01T14:45:29.000Z</time>
      </trkpt>
      <trkpt lat="45.73327" lon="6.67323">
        <ele>2028</ele>
        <time>2000-01-01T14:45:39.000Z</time>
      </trkpt>
      <trkpt lat="45.73328" lon="6.67336">
        <ele>2034.4</ele>
        <time>2000-01-01T14:45:49.000Z</time>
      </trkpt>
      <trkpt lat="45.73333" lon="6.67363">
        <ele>2032</ele>
        <time>2000-01-01T14:45:59.000Z</time>
      </trkpt>
      <trkpt lat="45.73334" lon="6.67377">
        <ele>2037.9</ele>
        <time>2000-01-01T14:46:09.000Z</time>
      </trkpt>
      <trkpt lat="45.73332" lon="6.67391">
        <ele>2032</ele>
        <time>2000-01-01T14:46:19.000Z</time>
      </trkpt>
      <trkpt lat="45.73333" lon="6.67405">
        <ele>2040</ele>
        <time>2000-01-01T14:46:29.000Z</time>
      </trkpt>
      <trkpt lat="45.73335" lon="6.67417">
        <ele>2041.4</ele>
        <time>2000-01-01T14:46:39.000Z</time>
      </trkpt>
      <trkpt lat="45.7334" lon="6.67428">
        <ele>2035</ele>
        <time>2000-01-01T14:46:49.000Z</time>
      </trkpt>
      <trkpt lat="45.7335" lon="6.67428">
        <ele>2043.4</ele>
        <time>2000-01-01T14:46:59.000Z</time>
      </trkpt>
      <trkpt lat="45.73359" lon="6.67423">
        <ele>2038</ele>
        <time>2000-01-01T14:47:09.000Z</time>
      </trkpt>
      <trkpt lat="45.73368" lon="6.67415">
        <ele>2047.1</ele>
        <time>2000-01-01T14:47:19.000Z</time>
      </trkpt>
      <trkpt lat="45.73374" lon="6.67407">
        <ele>2047.8</ele>
        <time>2000-01-01T14:47:29.000Z</time>
      </trkpt>
      <trkpt lat="45.7338" lon="6.67397">
        <ele>2041</ele>
        <time>2000-01-01T14:47:39.000Z</time>
      </trkpt>
      <trkpt lat="45.73389" lon="6.67389">
        <ele>2051</ele>
        <time>2000-01-01T14:47:49.000Z</time>
      </trkpt>
      <trkpt lat="45.73399" lon="6.67392">
        <ele>2045</ele>
        <time>2000-01-01T14:47:59.000Z</time>
      </trkpt>
      <trkpt lat="45.73407" lon="6.67401">
        <ele>2054.4</ele>
        <time>2000-01-01T14:48:09.000Z</time>
      </trkpt>
      <trkpt lat="45.73414" lon="6.6741">
        <ele>2062</ele>
        <time>2000-01-01T14:48:19.000Z</time>
      </trkpt>
      <trkpt lat="45.73419" lon="6.67424">
        <ele>2057</ele>
        <time>2000-01-01T14:48:29.000Z</time>
      </trkpt>
      <trkpt lat="45.73433" lon="6.67466">
        <ele>2061</ele>
        <time>2000-01-01T14:48:39.000Z</time>
      </trkpt>
      <trkpt lat="45.73437" lon="6.67481">
        <ele>2064.5</ele>
        <time>2000-01-01T14:48:49.000Z</time>
      </trkpt>
      <trkpt lat="45.73435" lon="6.67494">
        <ele>2061</ele>
        <time>2000-01-01T14:48:59.000Z</time>
      </trkpt>
      <trkpt lat="45.73435" lon="6.67508">
        <ele>2065.2</ele>
        <time>2000-01-01T14:49:09.000Z</time>
      </trkpt>
      <trkpt lat="45.73441" lon="6.67517">
        <ele>2065.5</ele>
        <time>2000-01-01T14:49:19.000Z</time>
      </trkpt>
      <trkpt lat="45.73451" lon="6.67519">
        <ele>2071</ele>
        <time>2000-01-01T14:49:29.000Z</time>
      </trkpt>
      <trkpt lat="45.73461" lon="6.67517">
        <ele>2068.8</ele>
        <time>2000-01-01T14:49:39.000Z</time>
      </trkpt>
      <trkpt lat="45.73479" lon="6.6751">
        <ele>2074</ele>
        <time>2000-01-01T14:49:49.000Z</time>
      </trkpt>
      <trkpt lat="45.7349" lon="6.67509">
        <ele>2075.9</ele>
        <time>2000-01-01T14:49:59.000Z</time>
      </trkpt>
      <trkpt lat="45.735" lon="6.67513">
        <ele>2080</ele>
        <time>2000-01-01T14:50:09.000Z</time>
      </trkpt>
      <trkpt lat="45.73509" lon="6.67518">
        <ele>2077.4</ele>
        <time>2000-01-01T14:50:19.000Z</time>
      </trkpt>
      <trkpt lat="45.73527" lon="6.67526">
        <ele>2084</ele>
        <time>2000-01-01T14:50:29.000Z</time>
      </trkpt>
      <trkpt lat="45.73536" lon="6.67533">
        <ele>2081</ele>
        <time>2000-01-01T14:50:39.000Z</time>
      </trkpt>
      <trkpt lat="45.73564" lon="6.67552">
        <ele>2083</ele>
        <time>2000-01-01T14:50:49.000Z</time>
      </trkpt>
      <trkpt lat="45.73574" lon="6.67557">
        <ele>2087.6</ele>
        <time>2000-01-01T14:50:59.000Z</time>
      </trkpt>
      <trkpt lat="45.73592" lon="6.67571">
        <ele>2096</ele>
        <time>2000-01-01T14:51:09.000Z</time>
      </trkpt>
      <trkpt lat="45.73598" lon="6.67562">
        <ele>2094.4</ele>
        <time>2000-01-01T14:51:19.000Z</time>
      </trkpt>
      <trkpt lat="45.73579" lon="6.67533">
        <ele>2096</ele>
        <time>2000-01-01T14:51:29.000Z</time>
      </trkpt>
      <trkpt lat="45.73573" lon="6.67521">
        <ele>2096.9</ele>
        <time>2000-01-01T14:51:39.000Z</time>
      </trkpt>
      <trkpt lat="45.73566" lon="6.67509">
        <ele>2097</ele>
        <time>2000-01-01T14:51:49.000Z</time>
      </trkpt>
      <trkpt lat="45.73557" lon="6.67483">
        <ele>2099</ele>
        <time>2000-01-01T14:51:59.000Z</time>
      </trkpt>
      <trkpt lat="45.73555" lon="6.67469">
        <ele>2103.2</ele>
        <time>2000-01-01T14:52:09.000Z</time>
      </trkpt>
      <trkpt lat="45.73554" lon="6.67455">
        <ele>2109</ele>
        <time>2000-01-01T14:52:19.000Z</time>
      </trkpt>
      <trkpt lat="45.73561" lon="6.67444">
        <ele>2105.9</ele>
        <time>2000-01-01T14:52:29.000Z</time>
      </trkpt>
      <trkpt lat="45.73577" lon="6.67458">
        <ele>2111</ele>
        <time>2000-01-01T14:52:39.000Z</time>
      </trkpt>
      <trkpt lat="45.73596" lon="6.67467">
        <ele>2111</ele>
        <time>2000-01-01T14:52:49.000Z</time>
      </trkpt>
      <trkpt lat="45.73606" lon="6.67467">
        <ele>2114.6</ele>
        <time>2000-01-01T14:52:59.000Z</time>
      </trkpt>
      <trkpt lat="45.73627" lon="6.67465">
        <ele>2113</ele>
        <time>2000-01-01T14:53:09.000Z</time>
      </trkpt>
      <trkpt lat="45.73636" lon="6.67463">
        <ele>2119.4</ele>
        <time>2000-01-01T14:53:19.000Z</time>
      </trkpt>
      <trkpt lat="45.73655" lon="6.67469">
        <ele>2120</ele>
        <time>2000-01-01T14:53:29.000Z</time>
      </trkpt>
      <trkpt lat="45.73664" lon="6.67466">
        <ele>2123.4</ele>
        <time>2000-01-01T14:53:39.000Z</time>
      </trkpt>
      <trkpt lat="45.73673" lon="6.67466">
        <ele>2126</ele>
        <time>2000-01-01T14:53:49.000Z</time>
      </trkpt>
      <trkpt lat="45.73672" lon="6.67478">
        <ele>2119</ele>
        <time>2000-01-01T14:53:59.000Z</time>
      </trkpt>
      <trkpt lat="45.73665" lon="6.67487">
        <ele>2127</ele>
        <time>2000-01-01T14:54:09.000Z</time>
      </trkpt>
      <trkpt lat="45.73657" lon="6.67495">
        <ele>2119</ele>
        <time>2000-01-01T14:54:19.000Z</time>
      </trkpt>
      <trkpt lat="45.7366" lon="6.67501">
        <ele>2128.1</ele>
        <time>2000-01-01T14:54:29.000Z</time>
      </trkpt>
      <trkpt lat="45.73671" lon="6.67498">
        <ele>2129.7</ele>
        <time>2000-01-01T14:54:39.000Z</time>
      </trkpt>
      <trkpt lat="45.73681" lon="6.67492">
        <ele>2123</ele>
        <time>2000-01-01T14:54:49.000Z</time>
      </trkpt>
      <trkpt lat="45.73688" lon="6.67484">
        <ele>2133.1</ele>
        <time>2000-01-01T14:54:59.000Z</time>
      </trkpt>
      <trkpt lat="45.737" lon="6.67463">
        <ele>2127</ele>
        <time>2000-01-01T14:55:09.000Z</time>
      </trkpt>
      <trkpt lat="45.73708" lon="6.67438">
        <ele>2132</ele>
        <time>2000-01-01T14:55:19.000Z</time>
      </trkpt>
      <trkpt lat="45.73709" lon="6.67425">
        <ele>2138.3</ele>
        <time>2000-01-01T14:55:29.000Z</time>
      </trkpt>
      <trkpt lat="45.73719" lon="6.67399">
        <ele>2142</ele>
        <time>2000-01-01T14:55:39.000Z</time>
      </trkpt>
      <trkpt lat="45.73722" lon="6.67385">
        <ele>2141.9</ele>
        <time>2000-01-01T14:55:49.000Z</time>
      </trkpt>
      <trkpt lat="45.7373" lon="6.67387">
        <ele>2146.4</ele>
        <time>2000-01-01T14:55:59.000Z</time>
      </trkpt>
      <trkpt lat="45.7373" lon="6.674">
        <ele>2142</ele>
        <time>2000-01-01T14:56:09.000Z</time>
      </trkpt>
      <trkpt lat="45.73728" lon="6.67413">
        <ele>2148.7</ele>
        <time>2000-01-01T14:56:19.000Z</time>
      </trkpt>
      <trkpt lat="45.73729" lon="6.67425">
        <ele>2148.9</ele>
        <time>2000-01-01T14:56:29.000Z</time>
      </trkpt>
      <trkpt lat="45.73735" lon="6.67436">
        <ele>2147</ele>
        <time>2000-01-01T14:56:39.000Z</time>
      </trkpt>
      <trkpt lat="45.73736" lon="6.6745">
        <ele>2150.5</ele>
        <time>2000-01-01T14:56:49.000Z</time>
      </trkpt>
      <trkpt lat="45.73742" lon="6.6746">
        <ele>2148</ele>
        <time>2000-01-01T14:56:59.000Z</time>
      </trkpt>
      <trkpt lat="45.7375" lon="6.67452">
        <ele>2154.6</ele>
        <time>2000-01-01T14:57:09.000Z</time>
      </trkpt>
      <trkpt lat="45.73759" lon="6.67428">
        <ele>2150</ele>
        <time>2000-01-01T14:57:19.000Z</time>
      </trkpt>
      <trkpt lat="45.73762" lon="6.67416">
        <ele>2159.2</ele>
        <time>2000-01-01T14:57:29.000Z</time>
      </trkpt>
      <trkpt lat="45.73767" lon="6.67403">
        <ele>2153</ele>
        <time>2000-01-01T14:57:39.000Z</time>
      </trkpt>
      <trkpt lat="45.73774" lon="6.67395">
        <ele>2161.3</ele>
        <time>2000-01-01T14:57:49.000Z</time>
      </trkpt>
      <trkpt lat="45.73785" lon="6.67397">
        <ele>2158</ele>
        <time>2000-01-01T14:57:59.000Z</time>
      </trkpt>
      <trkpt lat="45.73795" lon="6.674">
        <ele>2164.7</ele>
        <time>2000-01-01T14:58:09.000Z</time>
      </trkpt>
      <trkpt lat="45.73805" lon="6.67401">
        <ele>2167</ele>
        <time>2000-01-01T14:58:19.000Z</time>
      </trkpt>
      <trkpt lat="45.73817" lon="6.67399">
        <ele>2168.1</ele>
        <time>2000-01-01T14:58:29.000Z</time>
      </trkpt>
      <trkpt lat="45.73827" lon="6.67401">
        <ele>2172</ele>
        <time>2000-01-01T14:58:39.000Z</time>
      </trkpt>
      <trkpt lat="45.73838" lon="6.67406">
        <ele>2173.5</ele>
        <time>2000-01-01T14:58:49.000Z</time>
      </trkpt>
      <trkpt lat="45.73879" lon="6.67417">
        <ele>2174</ele>
        <time>2000-01-01T14:58:59.000Z</time>
      </trkpt>
      <trkpt lat="45.73919" lon="6.67413">
        <ele>2199</ele>
        <time>2000-01-01T14:59:09.000Z</time>
      </trkpt>
      <trkpt lat="45.73927" lon="6.67411">
        <ele>2197.2</ele>
        <time>2000-01-01T14:59:19.000Z</time>
      </trkpt>
      <trkpt lat="45.73936" lon="6.67411">
        <ele>2199.7</ele>
        <time>2000-01-01T14:59:29.000Z</time>
      </trkpt>
      <trkpt lat="45.73945" lon="6.67415">
        <ele>2213</ele>
        <time>2000-01-01T14:59:39.000Z</time>
      </trkpt>
      <trkpt lat="45.73962" lon="6.67428">
        <ele>2225</ele>
        <time>2000-01-01T14:59:49.000Z</time>
      </trkpt>
      <trkpt lat="45.73972" lon="6.67431">
        <ele>2203.8</ele>
        <time>2000-01-01T14:59:59.000Z</time>
      </trkpt>
      <trkpt lat="45.73982" lon="6.67437">
        <ele>2225</ele>
        <time>2000-01-01T15:00:09.000Z</time>
      </trkpt>
      <trkpt lat="45.73986" lon="6.67441">
        <ele>2207.4</ele>
        <time>2000-01-01T15:00:19.000Z</time>
      </trkpt>
      <trkpt lat="45.73985" lon="6.67451">
        <ele>2206.5</ele>
        <time>2000-01-01T15:00:29.000Z</time>
      </trkpt>
      <trkpt lat="45.73979" lon="6.6749">
        <ele>2223</ele>
        <time>2000-01-01T15:00:39.000Z</time>
      </trkpt>
      <trkpt lat="45.73984" lon="6.675">
        <ele>2212.5</ele>
        <time>2000-01-01T15:00:49.000Z</time>
      </trkpt>
      <trkpt lat="45.74004" lon="6.67499">
        <ele>2227</ele>
        <time>2000-01-01T15:00:59.000Z</time>
      </trkpt>
      <trkpt lat="45.74021" lon="6.6751">
        <ele>2221</ele>
        <time>2000-01-01T15:01:09.000Z</time>
      </trkpt>
      <trkpt lat="45.74031" lon="6.67511">
        <ele>2232</ele>
        <time>2000-01-01T15:01:19.000Z</time>
      </trkpt>
      <trkpt lat="45.74041" lon="6.67511">
        <ele>2227.5</ele>
        <time>2000-01-01T15:01:29.000Z</time>
      </trkpt>
      <trkpt lat="45.74049" lon="6.67506">
        <ele>2230</ele>
        <time>2000-01-01T15:01:39.000Z</time>
      </trkpt>
      <trkpt lat="45.74052" lon="6.67497">
        <ele>2247</ele>
        <time>2000-01-01T15:01:49.000Z</time>
      </trkpt>
      <trkpt lat="45.74052" lon="6.67485">
        <ele>2233.4</ele>
        <time>2000-01-01T15:01:59.000Z</time>
      </trkpt>
      <trkpt lat="45.74056" lon="6.67471">
        <ele>2252</ele>
        <time>2000-01-01T15:02:09.000Z</time>
      </trkpt>
      <trkpt lat="45.74055" lon="6.67457">
        <ele>2239.5</ele>
        <time>2000-01-01T15:02:19.000Z</time>
      </trkpt>
      <trkpt lat="45.74056" lon="6.67442">
        <ele>2255</ele>
        <time>2000-01-01T15:02:29.000Z</time>
      </trkpt>
      <trkpt lat="45.7406" lon="6.67428">
        <ele>2241.4</ele>
        <time>2000-01-01T15:02:39.000Z</time>
      </trkpt>
      <trkpt lat="45.74067" lon="6.67416">
        <ele>2255</ele>
        <time>2000-01-01T15:02:49.000Z</time>
      </trkpt>
      <trkpt lat="45.74068" lon="6.67404">
        <ele>2244</ele>
        <time>2000-01-01T15:02:59.000Z</time>
      </trkpt>
      <trkpt lat="45.74068" lon="6.67391">
        <ele>2245.5</ele>
        <time>2000-01-01T15:03:09.000Z</time>
      </trkpt>
      <trkpt lat="45.7407" lon="6.67378">
        <ele>2264</ele>
        <time>2000-01-01T15:03:19.000Z</time>
      </trkpt>
      <trkpt lat="45.74078" lon="6.67369">
        <ele>2249.8</ele>
        <time>2000-01-01T15:03:29.000Z</time>
      </trkpt>
      <trkpt lat="45.74084" lon="6.67358">
        <ele>2264</ele>
        <time>2000-01-01T15:03:39.000Z</time>
      </trkpt>
      <trkpt lat="45.74101" lon="6.67342">
        <ele>2265</ele>
        <time>2000-01-01T15:03:49.000Z</time>
      </trkpt>
      <trkpt lat="45.74118" lon="6.67312">
        <ele>2266</ele>
        <time>2000-01-01T15:03:59.000Z</time>
      </trkpt>
      <trkpt lat="45.74133" lon="6.67295">
        <ele>2270</ele>
        <time>2000-01-01T15:04:09.000Z</time>
      </trkpt>
      <trkpt lat="45.74137" lon="6.67283">
        <ele>2264.4</ele>
        <time>2000-01-01T15:04:19.000Z</time>
      </trkpt>
      <trkpt lat="45.74144" lon="6.67272">
        <ele>2270</ele>
        <time>2000-01-01T15:04:29.000Z</time>
      </trkpt>
      <trkpt lat="45.74161" lon="6.67258">
        <ele>2276</ele>
        <time>2000-01-01T15:04:39.000Z</time>
      </trkpt>
      <trkpt lat="45.74168" lon="6.67248">
        <ele>2274.3</ele>
        <time>2000-01-01T15:04:49.000Z</time>
      </trkpt>
      <trkpt lat="45.74177" lon="6.67246">
        <ele>2276</ele>
        <time>2000-01-01T15:04:59.000Z</time>
      </trkpt>
      <trkpt lat="45.74186" lon="6.67239">
        <ele>2277.3</ele>
        <time>2000-01-01T15:05:09.000Z</time>
      </trkpt>
      <trkpt lat="45.74196" lon="6.67235">
        <ele>2284</ele>
        <time>2000-01-01T15:05:19.000Z</time>
      </trkpt>
      <trkpt lat="45.74215" lon="6.67229">
        <ele>2291</ele>
        <time>2000-01-01T15:05:29.000Z</time>
      </trkpt>
      <trkpt lat="45.74235" lon="6.67225">
        <ele>2291</ele>
        <time>2000-01-01T15:05:39.000Z</time>
      </trkpt>
      <trkpt lat="45.74264" lon="6.67221">
        <ele>2297</ele>
        <time>2000-01-01T15:05:49.000Z</time>
      </trkpt>
      <trkpt lat="45.74272" lon="6.67217">
        <ele>2298.1</ele>
        <time>2000-01-01T15:05:59.000Z</time>
      </trkpt>
      <trkpt lat="45.74301" lon="6.6721">
        <ele>2312</ele>
        <time>2000-01-01T15:06:09.000Z</time>
      </trkpt>
      <trkpt lat="45.7431" lon="6.67209">
        <ele>2306.8</ele>
        <time>2000-01-01T15:06:19.000Z</time>
      </trkpt>
      <trkpt lat="45.7433" lon="6.67211">
        <ele>2315</ele>
        <time>2000-01-01T15:06:29.000Z</time>
      </trkpt>
      <trkpt lat="45.74349" lon="6.67208">
        <ele>2318</ele>
        <time>2000-01-01T15:06:39.000Z</time>
      </trkpt>
      <trkpt lat="45.74357" lon="6.67202">
        <ele>2312.5</ele>
        <time>2000-01-01T15:06:49.000Z</time>
      </trkpt>
      <trkpt lat="45.74355" lon="6.67191">
        <ele>2312.4</ele>
        <time>2000-01-01T15:06:59.000Z</time>
      </trkpt>
      <trkpt lat="45.7435" lon="6.67178">
        <ele>2318</ele>
        <time>2000-01-01T15:07:09.000Z</time>
      </trkpt>
      <trkpt lat="45.74344" lon="6.67169">
        <ele>2311.6</ele>
        <time>2000-01-01T15:07:19.000Z</time>
      </trkpt>
      <trkpt lat="45.74338" lon="6.67156">
        <ele>2318</ele>
        <time>2000-01-01T15:07:29.000Z</time>
      </trkpt>
      <trkpt lat="45.74333" lon="6.67142">
        <ele>2311.1</ele>
        <time>2000-01-01T15:07:39.000Z</time>
      </trkpt>
      <trkpt lat="45.74329" lon="6.67128">
        <ele>2318</ele>
        <time>2000-01-01T15:07:49.000Z</time>
      </trkpt>
      <trkpt lat="45.74323" lon="6.67117">
        <ele>2309.3</ele>
        <time>2000-01-01T15:07:59.000Z</time>
      </trkpt>
      <trkpt lat="45.74309" lon="6.67098">
        <ele>2313</ele>
        <time>2000-01-01T15:08:09.000Z</time>
      </trkpt>
      <trkpt lat="45.74303" lon="6.67087">
        <ele>2308.1</ele>
        <time>2000-01-01T15:08:19.000Z</time>
      </trkpt>
      <trkpt lat="45.74289" lon="6.67068">
        <ele>2312</ele>
        <time>2000-01-01T15:08:29.000Z</time>
      </trkpt>
      <trkpt lat="45.74278" lon="6.67048">
        <ele>2304.2</ele>
        <time>2000-01-01T15:08:39.000Z</time>
      </trkpt>
      <trkpt lat="45.7427" lon="6.67037">
        <ele>2311</ele>
        <time>2000-01-01T15:08:49.000Z</time>
      </trkpt>
      <trkpt lat="45.74267" lon="6.67024">
        <ele>2302.6</ele>
        <time>2000-01-01T15:08:59.000Z</time>
      </trkpt>
      <trkpt lat="45.74261" lon="6.67011">
        <ele>2311</ele>
        <time>2000-01-01T15:09:09.000Z</time>
      </trkpt>
      <trkpt lat="45.74253" lon="6.67002">
        <ele>2302.8</ele>
        <time>2000-01-01T15:09:19.000Z</time>
      </trkpt>
      <trkpt lat="45.74244" lon="6.66994">
        <ele>2311</ele>
        <time>2000-01-01T15:09:29.000Z</time>
      </trkpt>
      <trkpt lat="45.74231" lon="6.66956">
        <ele>2305</ele>
        <time>2000-01-01T15:09:39.000Z</time>
      </trkpt>
      <trkpt lat="45.74228" lon="6.66942">
        <ele>2303</ele>
        <time>2000-01-01T15:09:49.000Z</time>
      </trkpt>
      <trkpt lat="45.74219" lon="6.66918">
        <ele>2305</ele>
        <time>2000-01-01T15:09:59.000Z</time>
      </trkpt>
      <trkpt lat="45.74212" lon="6.66905">
        <ele>2303.3</ele>
        <time>2000-01-01T15:10:09.000Z</time>
      </trkpt>
      <trkpt lat="45.74206" lon="6.66897">
        <ele>2304</ele>
        <time>2000-01-01T15:10:19.000Z</time>
      </trkpt>
      <trkpt lat="45.742" lon="6.66886">
        <ele>2303</ele>
        <time>2000-01-01T15:10:29.000Z</time>
      </trkpt>
      <trkpt lat="45.74192" lon="6.66876">
        <ele>2303</ele>
        <time>2000-01-01T15:10:39.000Z</time>
      </trkpt>
      <trkpt lat="45.74186" lon="6.66864">
        <ele>2301.7</ele>
        <time>2000-01-01T15:10:49.000Z</time>
      </trkpt>
      <trkpt lat="45.74172" lon="6.66844">
        <ele>2302</ele>
        <time>2000-01-01T15:10:59.000Z</time>
      </trkpt>
      <trkpt lat="45.74152" lon="6.6681">
        <ele>2300</ele>
        <time>2000-01-01T15:11:09.000Z</time>
      </trkpt>
      <trkpt lat="45.74147" lon="6.66797">
        <ele>2295.7</ele>
        <time>2000-01-01T15:11:19.000Z</time>
      </trkpt>
      <trkpt lat="45.74144" lon="6.66784">
        <ele>2296</ele>
        <time>2000-01-01T15:11:29.000Z</time>
      </trkpt>
      <trkpt lat="45.74138" lon="6.66772">
        <ele>2294.5</ele>
        <time>2000-01-01T15:11:39.000Z</time>
      </trkpt>
      <trkpt lat="45.74122" lon="6.66754">
        <ele>2294</ele>
        <time>2000-01-01T15:11:49.000Z</time>
      </trkpt>
      <trkpt lat="45.74118" lon="6.6674">
        <ele>2287.9</ele>
        <time>2000-01-01T15:11:59.000Z</time>
      </trkpt>
      <trkpt lat="45.74116" lon="6.66728">
        <ele>2287</ele>
        <time>2000-01-01T15:12:09.000Z</time>
      </trkpt>
      <trkpt lat="45.74111" lon="6.66718">
        <ele>2286.5</ele>
        <time>2000-01-01T15:12:19.000Z</time>
      </trkpt>
      <trkpt lat="45.74108" lon="6.66689">
        <ele>2284</ele>
        <time>2000-01-01T15:12:29.000Z</time>
      </trkpt>
      <trkpt lat="45.74105" lon="6.66677">
        <ele>2281.7</ele>
        <time>2000-01-01T15:12:39.000Z</time>
      </trkpt>
      <trkpt lat="45.74087" lon="6.66592">
        <ele>2284</ele>
        <time>2000-01-01T15:12:49.000Z</time>
      </trkpt>
      <trkpt lat="45.74095" lon="6.66538">
        <ele>2285</ele>
        <time>2000-01-01T15:12:59.000Z</time>
      </trkpt>
      <trkpt lat="45.74097" lon="6.6651">
        <ele>2289</ele>
        <time>2000-01-01T15:13:09.000Z</time>
      </trkpt>
      <trkpt lat="45.74099" lon="6.66497">
        <ele>2287.1</ele>
        <time>2000-01-01T15:13:19.000Z</time>
      </trkpt>
      <trkpt lat="45.74098" lon="6.66485">
        <ele>2290.2</ele>
        <time>2000-01-01T15:13:29.000Z</time>
      </trkpt>
      <trkpt lat="45.74096" lon="6.66474">
        <ele>2297</ele>
        <time>2000-01-01T15:13:39.000Z</time>
      </trkpt>
      <trkpt lat="45.74097" lon="6.66461">
        <ele>2296.2</ele>
        <time>2000-01-01T15:13:49.000Z</time>
      </trkpt>
      <trkpt lat="45.74094" lon="6.66436">
        <ele>2309</ele>
        <time>2000-01-01T15:13:59.000Z</time>
      </trkpt>
      <trkpt lat="45.74089" lon="6.66427">
        <ele>2305.5</ele>
        <time>2000-01-01T15:14:09.000Z</time>
      </trkpt>
      <trkpt lat="45.74084" lon="6.66415">
        <ele>2309</ele>
        <time>2000-01-01T15:14:19.000Z</time>
      </trkpt>
      <trkpt lat="45.74081" lon="6.66403">
        <ele>2318</ele>
        <time>2000-01-01T15:14:29.000Z</time>
      </trkpt>
      <trkpt lat="45.74076" lon="6.66393">
        <ele>2312.6</ele>
        <time>2000-01-01T15:14:39.000Z</time>
      </trkpt>
      <trkpt lat="45.74065" lon="6.66374">
        <ele>2323</ele>
        <time>2000-01-01T15:14:49.000Z</time>
      </trkpt>
      <trkpt lat="45.74056" lon="6.66367">
        <ele>2321.2</ele>
        <time>2000-01-01T15:14:59.000Z</time>
      </trkpt>
      <trkpt lat="45.74047" lon="6.66366">
        <ele>2323</ele>
        <time>2000-01-01T15:15:09.000Z</time>
      </trkpt>
      <trkpt lat="45.74041" lon="6.66359">
        <ele>2320.1</ele>
        <time>2000-01-01T15:15:19.000Z</time>
      </trkpt>
      <trkpt lat="45.74036" lon="6.66331">
        <ele>2330</ele>
        <time>2000-01-01T15:15:29.000Z</time>
      </trkpt>
      <trkpt lat="45.74032" lon="6.66321">
        <ele>2328.6</ele>
        <time>2000-01-01T15:15:39.000Z</time>
      </trkpt>
      <trkpt lat="45.74029" lon="6.66309">
        <ele>2329.7</ele>
        <time>2000-01-01T15:15:49.000Z</time>
      </trkpt>
      <trkpt lat="45.74027" lon="6.66283">
        <ele>2331</ele>
        <time>2000-01-01T15:15:59.000Z</time>
      </trkpt>
      <trkpt lat="45.74023" lon="6.6627">
        <ele>2328.9</ele>
        <time>2000-01-01T15:16:09.000Z</time>
      </trkpt>
      <trkpt lat="45.74013" lon="6.66245">
        <ele>2332</ele>
        <time>2000-01-01T15:16:19.000Z</time>
      </trkpt>
      <trkpt lat="45.74009" lon="6.66233">
        <ele>2330</ele>
        <time>2000-01-01T15:16:29.000Z</time>
      </trkpt>
      <trkpt lat="45.73996" lon="6.66212">
        <ele>2337</ele>
        <time>2000-01-01T15:16:39.000Z</time>
      </trkpt>
      <trkpt lat="45.7398" lon="6.66178">
        <ele>2344</ele>
        <time>2000-01-01T15:16:49.000Z</time>
      </trkpt>
      <trkpt lat="45.73971" lon="6.66152">
        <ele>2347</ele>
        <time>2000-01-01T15:16:59.000Z</time>
      </trkpt>
      <trkpt lat="45.7396" lon="6.66131">
        <ele>2338.9</ele>
        <time>2000-01-01T15:17:09.000Z</time>
      </trkpt>
      <trkpt lat="45.73945" lon="6.66112">
        <ele>2351</ele>
        <time>2000-01-01T15:17:19.000Z</time>
      </trkpt>
      <trkpt lat="45.73932" lon="6.66092">
        <ele>2359</ele>
        <time>2000-01-01T15:17:29.000Z</time>
      </trkpt>
      <trkpt lat="45.73926" lon="6.66081">
        <ele>2348.4</ele>
        <time>2000-01-01T15:17:39.000Z</time>
      </trkpt>
      <trkpt lat="45.73907" lon="6.6605">
        <ele>2354</ele>
        <time>2000-01-01T15:17:49.000Z</time>
      </trkpt>
      <trkpt lat="45.73903" lon="6.6604">
        <ele>2357.2</ele>
        <time>2000-01-01T15:17:59.000Z</time>
      </trkpt>
      <trkpt lat="45.73906" lon="6.66017">
        <ele>2358</ele>
        <time>2000-01-01T15:18:09.000Z</time>
      </trkpt>
      <trkpt lat="45.73916" lon="6.66014">
        <ele>2360.9</ele>
        <time>2000-01-01T15:18:19.000Z</time>
      </trkpt>
      <trkpt lat="45.73924" lon="6.66006">
        <ele>2360</ele>
        <time>2000-01-01T15:18:29.000Z</time>
      </trkpt>
      <trkpt lat="45.7393" lon="6.65997">
        <ele>2365.2</ele>
        <time>2000-01-01T15:18:39.000Z</time>
      </trkpt>
      <trkpt lat="45.73934" lon="6.65986">
        <ele>2363.4</ele>
        <time>2000-01-01T15:18:49.000Z</time>
      </trkpt>
      <trkpt lat="45.73947" lon="6.65965">
        <ele>2359</ele>
        <time>2000-01-01T15:18:59.000Z</time>
      </trkpt>
      <trkpt lat="45.73963" lon="6.65948">
        <ele>2359</ele>
        <time>2000-01-01T15:19:09.000Z</time>
      </trkpt>
      <trkpt lat="45.73969" lon="6.65938">
        <ele>2360.9</ele>
        <time>2000-01-01T15:19:19.000Z</time>
      </trkpt>
      <trkpt lat="45.73975" lon="6.65926">
        <ele>2359</ele>
        <time>2000-01-01T15:19:29.000Z</time>
      </trkpt>
      <trkpt lat="45.73983" lon="6.65898">
        <ele>2359</ele>
        <time>2000-01-01T15:19:39.000Z</time>
      </trkpt>
      <trkpt lat="45.73986" lon="6.65884">
        <ele>2359.7</ele>
        <time>2000-01-01T15:19:49.000Z</time>
      </trkpt>
      <trkpt lat="45.73989" lon="6.65873">
        <ele>2359.4</ele>
        <time>2000-01-01T15:19:59.000Z</time>
      </trkpt>
      <trkpt lat="45.73994" lon="6.65844">
        <ele>2361</ele>
        <time>2000-01-01T15:20:09.000Z</time>
      </trkpt>
      <trkpt lat="45.73994" lon="6.65829">
        <ele>2360.4</ele>
        <time>2000-01-01T15:20:19.000Z</time>
      </trkpt>
      <trkpt lat="45.73996" lon="6.65801">
        <ele>2364</ele>
        <time>2000-01-01T15:20:29.000Z</time>
      </trkpt>
      <trkpt lat="45.73995" lon="6.65787">
        <ele>2363</ele>
        <time>2000-01-01T15:20:39.000Z</time>
      </trkpt>
      <trkpt lat="45.73995" lon="6.65771">
        <ele>2365</ele>
        <time>2000-01-01T15:20:49.000Z</time>
      </trkpt>
      <trkpt lat="45.74001" lon="6.65761">
        <ele>2365.6</ele>
        <time>2000-01-01T15:20:59.000Z</time>
      </trkpt>
      <trkpt lat="45.74008" lon="6.65753">
        <ele>2365.9</ele>
        <time>2000-01-01T15:21:09.000Z</time>
      </trkpt>
      <trkpt lat="45.74007" lon="6.65738">
        <ele>2365</ele>
        <time>2000-01-01T15:21:19.000Z</time>
      </trkpt>
      <trkpt lat="45.7401" lon="6.65726">
        <ele>2366.9</ele>
        <time>2000-01-01T15:21:29.000Z</time>
      </trkpt>
      <trkpt lat="45.74014" lon="6.65715">
        <ele>2368.2</ele>
        <time>2000-01-01T15:21:39.000Z</time>
      </trkpt>
      <trkpt lat="45.7402" lon="6.65702">
        <ele>2373</ele>
        <time>2000-01-01T15:21:49.000Z</time>
      </trkpt>
      <trkpt lat="45.74021" lon="6.65687">
        <ele>2373.8</ele>
        <time>2000-01-01T15:21:59.000Z</time>
      </trkpt>
      <trkpt lat="45.74027" lon="6.65679">
        <ele>2377.5</ele>
        <time>2000-01-01T15:22:09.000Z</time>
      </trkpt>
      <trkpt lat="45.74034" lon="6.65673">
        <ele>2377</ele>
        <time>2000-01-01T15:22:19.000Z</time>
      </trkpt>
      <trkpt lat="45.74038" lon="6.65661">
        <ele>2380.3</ele>
        <time>2000-01-01T15:22:29.000Z</time>
      </trkpt>
      <trkpt lat="45.74039" lon="6.65648">
        <ele>2381.9</ele>
        <time>2000-01-01T15:22:39.000Z</time>
      </trkpt>
      <trkpt lat="45.74043" lon="6.65638">
        <ele>2382</ele>
        <time>2000-01-01T15:22:49.000Z</time>
      </trkpt>
      <trkpt lat="45.74057" lon="6.65615">
        <ele>2383</ele>
        <time>2000-01-01T15:22:59.000Z</time>
      </trkpt>
      <trkpt lat="45.74075" lon="6.65605">
        <ele>2384</ele>
        <time>2000-01-01T15:23:09.000Z</time>
      </trkpt>
      <trkpt lat="45.74085" lon="6.65601">
        <ele>2377.9</ele>
        <time>2000-01-01T15:23:19.000Z</time>
      </trkpt>
      <trkpt lat="45.74094" lon="6.65596">
        <ele>2378</ele>
        <time>2000-01-01T15:23:29.000Z</time>
      </trkpt>
      <trkpt lat="45.74097" lon="6.65581">
        <ele>2374.3</ele>
        <time>2000-01-01T15:23:39.000Z</time>
      </trkpt>
      <trkpt lat="45.74102" lon="6.65569">
        <ele>2373</ele>
        <time>2000-01-01T15:23:49.000Z</time>
      </trkpt>
      <trkpt lat="45.74107" lon="6.65554">
        <ele>2371.2</ele>
        <time>2000-01-01T15:23:59.000Z</time>
      </trkpt>
      <trkpt lat="45.74112" lon="6.65542">
        <ele>2370</ele>
        <time>2000-01-01T15:24:09.000Z</time>
      </trkpt>
      <trkpt lat="45.74118" lon="6.65517">
        <ele>2368.6</ele>
        <time>2000-01-01T15:24:19.000Z</time>
      </trkpt>
      <trkpt lat="45.74123" lon="6.65504">
        <ele>2366</ele>
        <time>2000-01-01T15:24:29.000Z</time>
      </trkpt>
      <trkpt lat="45.74131" lon="6.65496">
        <ele>2365.5</ele>
        <time>2000-01-01T15:24:39.000Z</time>
      </trkpt>
      <trkpt lat="45.7414" lon="6.65494">
        <ele>2364</ele>
        <time>2000-01-01T15:24:49.000Z</time>
      </trkpt>
      <trkpt lat="45.74151" lon="6.65489">
        <ele>2364.1</ele>
        <time>2000-01-01T15:24:59.000Z</time>
      </trkpt>
      <trkpt lat="45.74158" lon="6.65481">
        <ele>2364</ele>
        <time>2000-01-01T15:25:09.000Z</time>
      </trkpt>
      <trkpt lat="45.74167" lon="6.65476">
        <ele>2363.2</ele>
        <time>2000-01-01T15:25:19.000Z</time>
      </trkpt>
      <trkpt lat="45.74176" lon="6.65469">
        <ele>2364</ele>
        <time>2000-01-01T15:25:29.000Z</time>
      </trkpt>
      <trkpt lat="45.74183" lon="6.65458">
        <ele>2358.7</ele>
        <time>2000-01-01T15:25:39.000Z</time>
      </trkpt>
      <trkpt lat="45.74191" lon="6.65455">
        <ele>2357.3</ele>
        <time>2000-01-01T15:25:49.000Z</time>
      </trkpt>
      <trkpt lat="45.742" lon="6.65453">
        <ele>2361</ele>
        <time>2000-01-01T15:25:59.000Z</time>
      </trkpt>
      <trkpt lat="45.74203" lon="6.65427">
        <ele>2351.1</ele>
        <time>2000-01-01T15:26:09.000Z</time>
      </trkpt>
      <trkpt lat="45.742" lon="6.65383">
        <ele>2349</ele>
        <time>2000-01-01T15:26:19.000Z</time>
      </trkpt>
      <trkpt lat="45.74211" lon="6.65342">
        <ele>2344</ele>
        <time>2000-01-01T15:26:29.000Z</time>
      </trkpt>
      <trkpt lat="45.74209" lon="6.65329">
        <ele>2337.2</ele>
        <time>2000-01-01T15:26:39.000Z</time>
      </trkpt>
      <trkpt lat="45.74201" lon="6.65321">
        <ele>2340</ele>
        <time>2000-01-01T15:26:49.000Z</time>
      </trkpt>
      <trkpt lat="45.74193" lon="6.65296">
        <ele>2329</ele>
        <time>2000-01-01T15:26:59.000Z</time>
      </trkpt>
      <trkpt lat="45.74192" lon="6.65255">
        <ele>2322</ele>
        <time>2000-01-01T15:27:09.000Z</time>
      </trkpt>
      <trkpt lat="45.74186" lon="6.65244">
        <ele>2318.3</ele>
        <time>2000-01-01T15:27:19.000Z</time>
      </trkpt>
      <trkpt lat="45.74189" lon="6.65237">
        <ele>2316.2</ele>
        <time>2000-01-01T15:27:29.000Z</time>
      </trkpt>
      <trkpt lat="45.74197" lon="6.65229">
        <ele>2318</ele>
        <time>2000-01-01T15:27:39.000Z</time>
      </trkpt>
      <trkpt lat="45.74208" lon="6.65223">
        <ele>2310.3</ele>
        <time>2000-01-01T15:27:49.000Z</time>
      </trkpt>
      <trkpt lat="45.74214" lon="6.65216">
        <ele>2314</ele>
        <time>2000-01-01T15:27:59.000Z</time>
      </trkpt>
      <trkpt lat="45.74233" lon="6.6521">
        <ele>2314</ele>
        <time>2000-01-01T15:28:09.000Z</time>
      </trkpt>
      <trkpt lat="45.74257" lon="6.65189">
        <ele>2277</ele>
        <time>2000-01-01T15:28:19.000Z</time>
      </trkpt>
      <trkpt lat="45.74258" lon="6.65181">
        <ele>2286.1</ele>
        <time>2000-01-01T15:28:29.000Z</time>
      </trkpt>
      <trkpt lat="45.74268" lon="6.6516">
        <ele>2277</ele>
        <time>2000-01-01T15:28:39.000Z</time>
      </trkpt>
      <trkpt lat="45.74277" lon="6.65158">
        <ele>2274.3</ele>
        <time>2000-01-01T15:28:49.000Z</time>
      </trkpt>
      <trkpt lat="45.74288" lon="6.6516">
        <ele>2272</ele>
        <time>2000-01-01T15:28:59.000Z</time>
      </trkpt>
      <trkpt lat="45.74306" lon="6.65158">
        <ele>2266.5</ele>
        <time>2000-01-01T15:29:09.000Z</time>
      </trkpt>
      <trkpt lat="45.74309" lon="6.65146">
        <ele>2262</ele>
        <time>2000-01-01T15:29:19.000Z</time>
      </trkpt>
      <trkpt lat="45.74298" lon="6.65132">
        <ele>2259.2</ele>
        <time>2000-01-01T15:29:29.000Z</time>
      </trkpt>
      <trkpt lat="45.74292" lon="6.65122">
        <ele>2259</ele>
        <time>2000-01-01T15:29:39.000Z</time>
      </trkpt>
      <trkpt lat="45.74294" lon="6.65106">
        <ele>2251.4</ele>
        <time>2000-01-01T15:29:49.000Z</time>
      </trkpt>
      <trkpt lat="45.743" lon="6.6509">
        <ele>2256</ele>
        <time>2000-01-01T15:29:59.000Z</time>
      </trkpt>
      <trkpt lat="45.74303" lon="6.65077">
        <ele>2243.6</ele>
        <time>2000-01-01T15:30:09.000Z</time>
      </trkpt>
      <trkpt lat="45.74307" lon="6.65065">
        <ele>2240</ele>
        <time>2000-01-01T15:30:19.000Z</time>
      </trkpt>
      <trkpt lat="45.74308" lon="6.65051">
        <ele>2239.5</ele>
        <time>2000-01-01T15:30:29.000Z</time>
      </trkpt>
      <trkpt lat="45.74305" lon="6.65037">
        <ele>2231</ele>
        <time>2000-01-01T15:30:39.000Z</time>
      </trkpt>
      <trkpt lat="45.74308" lon="6.65025">
        <ele>2235.6</ele>
        <time>2000-01-01T15:30:49.000Z</time>
      </trkpt>
      <trkpt lat="45.74304" lon="6.65013">
        <ele>2234.6</ele>
        <time>2000-01-01T15:30:59.000Z</time>
      </trkpt>
      <trkpt lat="45.74301" lon="6.64998">
        <ele>2230</ele>
        <time>2000-01-01T15:31:09.000Z</time>
      </trkpt>
      <trkpt lat="45.74293" lon="6.6497">
        <ele>2229</ele>
        <time>2000-01-01T15:31:19.000Z</time>
      </trkpt>
      <trkpt lat="45.74288" lon="6.64958">
        <ele>2227</ele>
        <time>2000-01-01T15:31:29.000Z</time>
      </trkpt>
      <trkpt lat="45.74284" lon="6.64946">
        <ele>2221</ele>
        <time>2000-01-01T15:31:39.000Z</time>
      </trkpt>
      <trkpt lat="45.74288" lon="6.64935">
        <ele>2219.7</ele>
        <time>2000-01-01T15:31:49.000Z</time>
      </trkpt>
      <trkpt lat="45.74274" lon="6.64914">
        <ele>2211</ele>
        <time>2000-01-01T15:31:59.000Z</time>
      </trkpt>
      <trkpt lat="45.74271" lon="6.64902">
        <ele>2211.8</ele>
        <time>2000-01-01T15:32:09.000Z</time>
      </trkpt>
      <trkpt lat="45.74271" lon="6.64863">
        <ele>2207</ele>
        <time>2000-01-01T15:32:19.000Z</time>
      </trkpt>
      <trkpt lat="45.74268" lon="6.64848">
        <ele>2201.3</ele>
        <time>2000-01-01T15:32:29.000Z</time>
      </trkpt>
      <trkpt lat="45.74264" lon="6.64806">
        <ele>2206</ele>
        <time>2000-01-01T15:32:39.000Z</time>
      </trkpt>
      <trkpt lat="45.74255" lon="6.64778">
        <ele>2206</ele>
        <time>2000-01-01T15:32:49.000Z</time>
      </trkpt>
      <trkpt lat="45.74251" lon="6.64746">
        <ele>2206</ele>
        <time>2000-01-01T15:32:59.000Z</time>
      </trkpt>
      <trkpt lat="45.74251" lon="6.64735">
        <ele>2200.1</ele>
        <time>2000-01-01T15:33:09.000Z</time>
      </trkpt>
      <trkpt lat="45.74244" lon="6.64737">
        <ele>2199.5</ele>
        <time>2000-01-01T15:33:19.000Z</time>
      </trkpt>
      <trkpt lat="45.74236" lon="6.64729">
        <ele>2207</ele>
        <time>2000-01-01T15:33:29.000Z</time>
      </trkpt>
      <trkpt lat="45.7422" lon="6.64717">
        <ele>2204.8</ele>
        <time>2000-01-01T15:33:39.000Z</time>
      </trkpt>
      <trkpt lat="45.74208" lon="6.64695">
        <ele>2209</ele>
        <time>2000-01-01T15:33:49.000Z</time>
      </trkpt>
      <trkpt lat="45.74201" lon="6.64687">
        <ele>2205.3</ele>
        <time>2000-01-01T15:33:59.000Z</time>
      </trkpt>
      <trkpt lat="45.74182" lon="6.64679">
        <ele>2213</ele>
        <time>2000-01-01T15:34:09.000Z</time>
      </trkpt>
      <trkpt lat="45.74174" lon="6.64674">
        <ele>2206.8</ele>
        <time>2000-01-01T15:34:19.000Z</time>
      </trkpt>
      <trkpt lat="45.74168" lon="6.64664">
        <ele>2206.4</ele>
        <time>2000-01-01T15:34:29.000Z</time>
      </trkpt>
      <trkpt lat="45.74164" lon="6.64651">
        <ele>2217</ele>
        <time>2000-01-01T15:34:39.000Z</time>
      </trkpt>
      <trkpt lat="45.74157" lon="6.64642">
        <ele>2204.1</ele>
        <time>2000-01-01T15:34:49.000Z</time>
      </trkpt>
      <trkpt lat="45.74153" lon="6.64616">
        <ele>2217</ele>
        <time>2000-01-01T15:34:59.000Z</time>
      </trkpt>
      <trkpt lat="45.74153" lon="6.64604">
        <ele>2203.1</ele>
        <time>2000-01-01T15:35:09.000Z</time>
      </trkpt>
      <trkpt lat="45.7415" lon="6.6459">
        <ele>2202.7</ele>
        <time>2000-01-01T15:35:19.000Z</time>
      </trkpt>
      <trkpt lat="45.74144" lon="6.6458">
        <ele>2217</ele>
        <time>2000-01-01T15:35:29.000Z</time>
      </trkpt>
      <trkpt lat="45.74139" lon="6.64568">
        <ele>2202.9</ele>
        <time>2000-01-01T15:35:39.000Z</time>
      </trkpt>
      <trkpt lat="45.74132" lon="6.64556">
        <ele>2220</ele>
        <time>2000-01-01T15:35:49.000Z</time>
      </trkpt>
      <trkpt lat="45.74125" lon="6.64547">
        <ele>2203</ele>
        <time>2000-01-01T15:35:59.000Z</time>
      </trkpt>
      <trkpt lat="45.74119" lon="6.64536">
        <ele>2220</ele>
        <time>2000-01-01T15:36:09.000Z</time>
      </trkpt>
      <trkpt lat="45.74115" lon="6.64525">
        <ele>2203</ele>
        <time>2000-01-01T15:36:19.000Z</time>
      </trkpt>
      <trkpt lat="45.74117" lon="6.64513">
        <ele>2204.1</ele>
        <time>2000-01-01T15:36:29.000Z</time>
      </trkpt>
      <trkpt lat="45.74112" lon="6.64487">
        <ele>2214</ele>
        <time>2000-01-01T15:36:39.000Z</time>
      </trkpt>
      <trkpt lat="45.74104" lon="6.64482">
        <ele>2206.6</ele>
        <time>2000-01-01T15:36:49.000Z</time>
      </trkpt>
      <trkpt lat="45.74092" lon="6.64462">
        <ele>2214</ele>
        <time>2000-01-01T15:36:59.000Z</time>
      </trkpt>
      <trkpt lat="45.74089" lon="6.6445">
        <ele>2206.1</ele>
        <time>2000-01-01T15:37:09.000Z</time>
      </trkpt>
      <trkpt lat="45.74094" lon="6.64438">
        <ele>2203.8</ele>
        <time>2000-01-01T15:37:19.000Z</time>
      </trkpt>
      <trkpt lat="45.74093" lon="6.64425">
        <ele>2205</ele>
        <time>2000-01-01T15:37:29.000Z</time>
      </trkpt>
      <trkpt lat="45.74097" lon="6.64415">
        <ele>2199.6</ele>
        <time>2000-01-01T15:37:39.000Z</time>
      </trkpt>
      <trkpt lat="45.74094" lon="6.64402">
        <ele>2197.4</ele>
        <time>2000-01-01T15:37:49.000Z</time>
      </trkpt>
      <trkpt lat="45.74093" lon="6.64388">
        <ele>2204</ele>
        <time>2000-01-01T15:37:59.000Z</time>
      </trkpt>
      <trkpt lat="45.74094" lon="6.64366">
        <ele>2190.2</ele>
        <time>2000-01-01T15:38:09.000Z</time>
      </trkpt>
      <trkpt lat="45.74102" lon="6.64359">
        <ele>2201</ele>
        <time>2000-01-01T15:38:19.000Z</time>
      </trkpt>
      <trkpt lat="45.74099" lon="6.64345">
        <ele>2185</ele>
        <time>2000-01-01T15:38:29.000Z</time>
      </trkpt>
      <trkpt lat="45.74098" lon="6.64331">
        <ele>2196</ele>
        <time>2000-01-01T15:38:39.000Z</time>
      </trkpt>
      <trkpt lat="45.74096" lon="6.64319">
        <ele>2184</ele>
        <time>2000-01-01T15:38:49.000Z</time>
      </trkpt>
      <trkpt lat="45.74093" lon="6.64305">
        <ele>2191</ele>
        <time>2000-01-01T15:38:59.000Z</time>
      </trkpt>
      <trkpt lat="45.7409" lon="6.64294">
        <ele>2184.3</ele>
        <time>2000-01-01T15:39:09.000Z</time>
      </trkpt>
      <trkpt lat="45.74093" lon="6.64284">
        <ele>2184</ele>
        <time>2000-01-01T15:39:19.000Z</time>
      </trkpt>
      <trkpt lat="45.74079" lon="6.64262">
        <ele>2186</ele>
        <time>2000-01-01T15:39:29.000Z</time>
      </trkpt>
      <trkpt lat="45.74074" lon="6.64249">
        <ele>2179.4</ele>
        <time>2000-01-01T15:39:39.000Z</time>
      </trkpt>
      <trkpt lat="45.74058" lon="6.64216">
        <ele>2182</ele>
        <time>2000-01-01T15:39:49.000Z</time>
      </trkpt>
      <trkpt lat="45.74051" lon="6.64208">
        <ele>2177.9</ele>
        <time>2000-01-01T15:39:59.000Z</time>
      </trkpt>
      <trkpt lat="45.74046" lon="6.64198">
        <ele>2176.2</ele>
        <time>2000-01-01T15:40:09.000Z</time>
      </trkpt>
      <trkpt lat="45.74033" lon="6.64175">
        <ele>2175</ele>
        <time>2000-01-01T15:40:19.000Z</time>
      </trkpt>
      <trkpt lat="45.7402" lon="6.64154">
        <ele>2172</ele>
        <time>2000-01-01T15:40:29.000Z</time>
      </trkpt>
      <trkpt lat="45.74015" lon="6.64142">
        <ele>2170</ele>
        <time>2000-01-01T15:40:39.000Z</time>
      </trkpt>
      <trkpt lat="45.74012" lon="6.64129">
        <ele>2169</ele>
        <time>2000-01-01T15:40:49.000Z</time>
      </trkpt>
      <trkpt lat="45.74002" lon="6.64106">
        <ele>2169</ele>
        <time>2000-01-01T15:40:59.000Z</time>
      </trkpt>
      <trkpt lat="45.7398" lon="6.64063">
        <ele>2165</ele>
        <time>2000-01-01T15:41:09.000Z</time>
      </trkpt>
      <trkpt lat="45.73969" lon="6.64033">
        <ele>2162</ele>
        <time>2000-01-01T15:41:19.000Z</time>
      </trkpt>
      <trkpt lat="45.73957" lon="6.64002">
        <ele>2160</ele>
        <time>2000-01-01T15:41:29.000Z</time>
      </trkpt>
      <trkpt lat="45.73954" lon="6.63989">
        <ele>2140.7</ele>
        <time>2000-01-01T15:41:39.000Z</time>
      </trkpt>
      <trkpt lat="45.73949" lon="6.63978">
        <ele>2137.7</ele>
        <time>2000-01-01T15:41:49.000Z</time>
      </trkpt>
      <trkpt lat="45.73925" lon="6.63935">
        <ele>2123</ele>
        <time>2000-01-01T15:41:59.000Z</time>
      </trkpt>
      <trkpt lat="45.73918" lon="6.63925">
        <ele>2124.1</ele>
        <time>2000-01-01T15:42:09.000Z</time>
      </trkpt>
      <trkpt lat="45.73903" lon="6.63909">
        <ele>2120</ele>
        <time>2000-01-01T15:42:19.000Z</time>
      </trkpt>
      <trkpt lat="45.73898" lon="6.63897">
        <ele>2118.5</ele>
        <time>2000-01-01T15:42:29.000Z</time>
      </trkpt>
      <trkpt lat="45.73891" lon="6.63887">
        <ele>2120</ele>
        <time>2000-01-01T15:42:39.000Z</time>
      </trkpt>
      <trkpt lat="45.7388" lon="6.63863">
        <ele>2112</ele>
        <time>2000-01-01T15:42:49.000Z</time>
      </trkpt>
      <trkpt lat="45.73874" lon="6.63852">
        <ele>2109.8</ele>
        <time>2000-01-01T15:42:59.000Z</time>
      </trkpt>
      <trkpt lat="45.73868" lon="6.63843">
        <ele>2108.5</ele>
        <time>2000-01-01T15:43:09.000Z</time>
      </trkpt>
      <trkpt lat="45.73855" lon="6.63821">
        <ele>2104</ele>
        <time>2000-01-01T15:43:19.000Z</time>
      </trkpt>
      <trkpt lat="45.73843" lon="6.63797">
        <ele>2100</ele>
        <time>2000-01-01T15:43:29.000Z</time>
      </trkpt>
      <trkpt lat="45.73824" lon="6.63762">
        <ele>2097</ele>
        <time>2000-01-01T15:43:39.000Z</time>
      </trkpt>
      <trkpt lat="45.73813" lon="6.63738">
        <ele>2100</ele>
        <time>2000-01-01T15:43:49.000Z</time>
      </trkpt>
      <trkpt lat="45.73796" lon="6.63706">
        <ele>2099</ele>
        <time>2000-01-01T15:43:59.000Z</time>
      </trkpt>
      <trkpt lat="45.73788" lon="6.63695">
        <ele>2097.2</ele>
        <time>2000-01-01T15:44:09.000Z</time>
      </trkpt>
      <trkpt lat="45.73784" lon="6.63684">
        <ele>2099</ele>
        <time>2000-01-01T15:44:19.000Z</time>
      </trkpt>
      <trkpt lat="45.73781" lon="6.63672">
        <ele>2094.2</ele>
        <time>2000-01-01T15:44:29.000Z</time>
      </trkpt>
      <trkpt lat="45.73776" lon="6.63659">
        <ele>2102</ele>
        <time>2000-01-01T15:44:39.000Z</time>
      </trkpt>
      <trkpt lat="45.73765" lon="6.63638">
        <ele>2093.3</ele>
        <time>2000-01-01T15:44:49.000Z</time>
      </trkpt>
      <trkpt lat="45.73754" lon="6.63614">
        <ele>2102</ele>
        <time>2000-01-01T15:44:59.000Z</time>
      </trkpt>
      <trkpt lat="45.73746" lon="6.63606">
        <ele>2094.1</ele>
        <time>2000-01-01T15:45:09.000Z</time>
      </trkpt>
      <trkpt lat="45.7374" lon="6.63596">
        <ele>2102</ele>
        <time>2000-01-01T15:45:19.000Z</time>
      </trkpt>
      <trkpt lat="45.73737" lon="6.63584">
        <ele>2095.2</ele>
        <time>2000-01-01T15:45:29.000Z</time>
      </trkpt>
      <trkpt lat="45.73733" lon="6.63572">
        <ele>2095.4</ele>
        <time>2000-01-01T15:45:39.000Z</time>
      </trkpt>
      <trkpt lat="45.73728" lon="6.6356">
        <ele>2105</ele>
        <time>2000-01-01T15:45:49.000Z</time>
      </trkpt>
      <trkpt lat="45.73711" lon="6.63527">
        <ele>2105</ele>
        <time>2000-01-01T15:45:59.000Z</time>
      </trkpt>
      <trkpt lat="45.73709" lon="6.63515">
        <ele>2098.7</ele>
        <time>2000-01-01T15:46:09.000Z</time>
      </trkpt>
      <trkpt lat="45.73706" lon="6.63503">
        <ele>2100.1</ele>
        <time>2000-01-01T15:46:19.000Z</time>
      </trkpt>
      <trkpt lat="45.73704" lon="6.63489">
        <ele>2109</ele>
        <time>2000-01-01T15:46:29.000Z</time>
      </trkpt>
      <trkpt lat="45.737" lon="6.63476">
        <ele>2101</ele>
        <time>2000-01-01T15:46:39.000Z</time>
      </trkpt>
      <trkpt lat="45.73697" lon="6.63448">
        <ele>2110</ele>
        <time>2000-01-01T15:46:49.000Z</time>
      </trkpt>
      <trkpt lat="45.73703" lon="6.63438">
        <ele>2103.5</ele>
        <time>2000-01-01T15:46:59.000Z</time>
      </trkpt>
      <trkpt lat="45.73704" lon="6.63424">
        <ele>2111</ele>
        <time>2000-01-01T15:47:09.000Z</time>
      </trkpt>
      <trkpt lat="45.73704" lon="6.63382">
        <ele>2115</ele>
        <time>2000-01-01T15:47:19.000Z</time>
      </trkpt>
      <trkpt lat="45.73706" lon="6.63358">
        <ele>2114.5</ele>
        <time>2000-01-01T15:47:29.000Z</time>
      </trkpt>
      <trkpt lat="45.73715" lon="6.63353">
        <ele>2122</ele>
        <time>2000-01-01T15:47:39.000Z</time>
      </trkpt>
      <trkpt lat="45.73723" lon="6.63347">
        <ele>2118.6</ele>
        <time>2000-01-01T15:47:49.000Z</time>
      </trkpt>
      <trkpt lat="45.73722" lon="6.63339">
        <ele>2120.5</ele>
        <time>2000-01-01T15:47:59.000Z</time>
      </trkpt>
      <trkpt lat="45.73708" lon="6.63321">
        <ele>2126</ele>
        <time>2000-01-01T15:48:09.000Z</time>
      </trkpt>
      <trkpt lat="45.7369" lon="6.63287">
        <ele>2132</ele>
        <time>2000-01-01T15:48:19.000Z</time>
      </trkpt>
      <trkpt lat="45.73681" lon="6.63264">
        <ele>2134.6</ele>
        <time>2000-01-01T15:48:29.000Z</time>
      </trkpt>
      <trkpt lat="45.7369" lon="6.63261">
        <ele>2140</ele>
        <time>2000-01-01T15:48:39.000Z</time>
      </trkpt>
      <trkpt lat="45.73698" lon="6.63264">
        <ele>2139.5</ele>
        <time>2000-01-01T15:48:49.000Z</time>
      </trkpt>
      <trkpt lat="45.73727" lon="6.63268">
        <ele>2161</ele>
        <time>2000-01-01T15:48:59.000Z</time>
      </trkpt>
      <trkpt lat="45.73736" lon="6.63264">
        <ele>2147.5</ele>
        <time>2000-01-01T15:49:09.000Z</time>
      </trkpt>
      <trkpt lat="45.73723" lon="6.63244">
        <ele>2161</ele>
        <time>2000-01-01T15:49:19.000Z</time>
      </trkpt>
      <trkpt lat="45.73729" lon="6.63241">
        <ele>2154.9</ele>
        <time>2000-01-01T15:49:29.000Z</time>
      </trkpt>
      <trkpt lat="45.73739" lon="6.63238">
        <ele>2156.9</ele>
        <time>2000-01-01T15:49:39.000Z</time>
      </trkpt>
      <trkpt lat="45.73748" lon="6.63233">
        <ele>2170</ele>
        <time>2000-01-01T15:49:49.000Z</time>
      </trkpt>
      <trkpt lat="45.73755" lon="6.63226">
        <ele>2161.7</ele>
        <time>2000-01-01T15:49:59.000Z</time>
      </trkpt>
      <trkpt lat="45.73763" lon="6.63221">
        <ele>2163.2</ele>
        <time>2000-01-01T15:50:09.000Z</time>
      </trkpt>
      <trkpt lat="45.7377" lon="6.63213">
        <ele>2170</ele>
        <time>2000-01-01T15:50:19.000Z</time>
      </trkpt>
      <trkpt lat="45.73772" lon="6.63199">
        <ele>2165.4</ele>
        <time>2000-01-01T15:50:29.000Z</time>
      </trkpt>
      <trkpt lat="45.73766" lon="6.63188">
        <ele>2170</ele>
        <time>2000-01-01T15:50:39.000Z</time>
      </trkpt>
      <trkpt lat="45.73763" lon="6.63175">
        <ele>2166.5</ele>
        <time>2000-01-01T15:50:49.000Z</time>
      </trkpt>
      <trkpt lat="45.73764" lon="6.63162">
        <ele>2166.1</ele>
        <time>2000-01-01T15:50:59.000Z</time>
      </trkpt>
      <trkpt lat="45.73767" lon="6.63149">
        <ele>2171</ele>
        <time>2000-01-01T15:51:09.000Z</time>
      </trkpt>
      <trkpt lat="45.73767" lon="6.63135">
        <ele>2165.9</ele>
        <time>2000-01-01T15:51:19.000Z</time>
      </trkpt>
      <trkpt lat="45.73768" lon="6.63123">
        <ele>2166.4</ele>
        <time>2000-01-01T15:51:29.000Z</time>
      </trkpt>
      <trkpt lat="45.73774" lon="6.63112">
        <ele>2171</ele>
        <time>2000-01-01T15:51:39.000Z</time>
      </trkpt>
      <trkpt lat="45.73784" lon="6.63072">
        <ele>2171</ele>
        <time>2000-01-01T15:51:49.000Z</time>
      </trkpt>
      <trkpt lat="45.73786" lon="6.63058">
        <ele>2168.5</ele>
        <time>2000-01-01T15:51:59.000Z</time>
      </trkpt>
      <trkpt lat="45.73794" lon="6.63018">
        <ele>2163</ele>
        <time>2000-01-01T15:52:09.000Z</time>
      </trkpt>
      <trkpt lat="45.73797" lon="6.63006">
        <ele>2167.6</ele>
        <time>2000-01-01T15:52:19.000Z</time>
      </trkpt>
      <trkpt lat="45.73799" lon="6.62991">
        <ele>2163</ele>
        <time>2000-01-01T15:52:29.000Z</time>
      </trkpt>
      <trkpt lat="45.73799" lon="6.62977">
        <ele>2169.7</ele>
        <time>2000-01-01T15:52:39.000Z</time>
      </trkpt>
      <trkpt lat="45.73797" lon="6.62963">
        <ele>2167</ele>
        <time>2000-01-01T15:52:49.000Z</time>
      </trkpt>
      <trkpt lat="45.73797" lon="6.62949">
        <ele>2167.9</ele>
        <time>2000-01-01T15:52:59.000Z</time>
      </trkpt>
      <trkpt lat="45.73792" lon="6.62908">
        <ele>2171</ele>
        <time>2000-01-01T15:53:09.000Z</time>
      </trkpt>
      <trkpt lat="45.73788" lon="6.62896">
        <ele>2166.7</ele>
        <time>2000-01-01T15:53:19.000Z</time>
      </trkpt>
      <trkpt lat="45.73785" lon="6.62881">
        <ele>2171</ele>
        <time>2000-01-01T15:53:29.000Z</time>
      </trkpt>
      <trkpt lat="45.73777" lon="6.62854">
        <ele>2170</ele>
        <time>2000-01-01T15:53:39.000Z</time>
      </trkpt>
      <trkpt lat="45.73764" lon="6.62817">
        <ele>2170</ele>
        <time>2000-01-01T15:53:49.000Z</time>
      </trkpt>
      <trkpt lat="45.73754" lon="6.62795">
        <ele>2171.9</ele>
        <time>2000-01-01T15:53:59.000Z</time>
      </trkpt>
      <trkpt lat="45.73717" lon="6.6275">
        <ele>2169</ele>
        <time>2000-01-01T15:54:09.000Z</time>
      </trkpt>
      <trkpt lat="45.73709" lon="6.62743">
        <ele>2170</ele>
        <time>2000-01-01T15:54:19.000Z</time>
      </trkpt>
      <trkpt lat="45.73701" lon="6.62733">
        <ele>2168</ele>
        <time>2000-01-01T15:54:29.000Z</time>
      </trkpt>
      <trkpt lat="45.73694" lon="6.62721">
        <ele>2166</ele>
        <time>2000-01-01T15:54:39.000Z</time>
      </trkpt>
      <trkpt lat="45.73687" lon="6.62713">
        <ele>2168</ele>
        <time>2000-01-01T15:54:49.000Z</time>
      </trkpt>
      <trkpt lat="45.73679" lon="6.62707">
        <ele>2164</ele>
        <time>2000-01-01T15:54:59.000Z</time>
      </trkpt>
      <trkpt lat="45.73672" lon="6.62698">
        <ele>2163</ele>
        <time>2000-01-01T15:55:09.000Z</time>
      </trkpt>
      <trkpt lat="45.73666" lon="6.62687">
        <ele>2167</ele>
        <time>2000-01-01T15:55:19.000Z</time>
      </trkpt>
      <trkpt lat="45.73655" lon="6.62686">
        <ele>2162.3</ele>
        <time>2000-01-01T15:55:29.000Z</time>
      </trkpt>
      <trkpt lat="45.73648" lon="6.62679">
        <ele>2166</ele>
        <time>2000-01-01T15:55:39.000Z</time>
      </trkpt>
      <trkpt lat="45.73636" lon="6.62657">
        <ele>2165</ele>
        <time>2000-01-01T15:55:49.000Z</time>
      </trkpt>
      <trkpt lat="45.73628" lon="6.62646">
        <ele>2158.6</ele>
        <time>2000-01-01T15:55:59.000Z</time>
      </trkpt>
      <trkpt lat="45.7362" lon="6.62638">
        <ele>2163</ele>
        <time>2000-01-01T15:56:09.000Z</time>
      </trkpt>
      <trkpt lat="45.73614" lon="6.62628">
        <ele>2157.7</ele>
        <time>2000-01-01T15:56:19.000Z</time>
      </trkpt>
      <trkpt lat="45.73607" lon="6.62619">
        <ele>2156.7</ele>
        <time>2000-01-01T15:56:29.000Z</time>
      </trkpt>
      <trkpt lat="45.73602" lon="6.62609">
        <ele>2163</ele>
        <time>2000-01-01T15:56:39.000Z</time>
      </trkpt>
      <trkpt lat="45.73594" lon="6.626">
        <ele>2155.2</ele>
        <time>2000-01-01T15:56:49.000Z</time>
      </trkpt>
      <trkpt lat="45.73586" lon="6.62594">
        <ele>2161</ele>
        <time>2000-01-01T15:56:59.000Z</time>
      </trkpt>
      <trkpt lat="45.73575" lon="6.62593">
        <ele>2153.3</ele>
        <time>2000-01-01T15:57:09.000Z</time>
      </trkpt>
      <trkpt lat="45.73565" lon="6.62594">
        <ele>2158</ele>
        <time>2000-01-01T15:57:19.000Z</time>
      </trkpt>
      <trkpt lat="45.73535" lon="6.62593">
        <ele>2148</ele>
        <time>2000-01-01T15:57:29.000Z</time>
      </trkpt>
      <trkpt lat="45.73508" lon="6.62583">
        <ele>2141</ele>
        <time>2000-01-01T15:57:39.000Z</time>
      </trkpt>
      <trkpt lat="45.73499" lon="6.62578">
        <ele>2139.9</ele>
        <time>2000-01-01T15:57:49.000Z</time>
      </trkpt>
      <trkpt lat="45.73491" lon="6.62571">
        <ele>2141</ele>
        <time>2000-01-01T15:57:59.000Z</time>
      </trkpt>
      <trkpt lat="45.73484" lon="6.62561">
        <ele>2137.6</ele>
        <time>2000-01-01T15:58:09.000Z</time>
      </trkpt>
      <trkpt lat="45.73459" lon="6.6254">
        <ele>2137</ele>
        <time>2000-01-01T15:58:19.000Z</time>
      </trkpt>
      <trkpt lat="45.7345" lon="6.62536">
        <ele>2127.4</ele>
        <time>2000-01-01T15:58:29.000Z</time>
      </trkpt>
      <trkpt lat="45.73442" lon="6.62528">
        <ele>2137</ele>
        <time>2000-01-01T15:58:39.000Z</time>
      </trkpt>
      <trkpt lat="45.73413" lon="6.62514">
        <ele>2125</ele>
        <time>2000-01-01T15:58:49.000Z</time>
      </trkpt>
      <trkpt lat="45.73403" lon="6.62512">
        <ele>2113.4</ele>
        <time>2000-01-01T15:58:59.000Z</time>
      </trkpt>
      <trkpt lat="45.73385" lon="6.62512">
        <ele>2113</ele>
        <time>2000-01-01T15:59:09.000Z</time>
      </trkpt>
      <trkpt lat="45.73376" lon="6.62516">
        <ele>2106.6</ele>
        <time>2000-01-01T15:59:19.000Z</time>
      </trkpt>
      <trkpt lat="45.73367" lon="6.62516">
        <ele>2104.5</ele>
        <time>2000-01-01T15:59:29.000Z</time>
      </trkpt>
      <trkpt lat="45.73357" lon="6.62515">
        <ele>2105</ele>
        <time>2000-01-01T15:59:39.000Z</time>
      </trkpt>
      <trkpt lat="45.73347" lon="6.62517">
        <ele>2101.1</ele>
        <time>2000-01-01T15:59:49.000Z</time>
      </trkpt>
      <trkpt lat="45.73337" lon="6.62522">
        <ele>2102</ele>
        <time>2000-01-01T15:59:59.000Z</time>
      </trkpt>
      <trkpt lat="45.73326" lon="6.62525">
        <ele>2098.4</ele>
        <time>2000-01-01T16:00:09.000Z</time>
      </trkpt>
      <trkpt lat="45.73317" lon="6.62517">
        <ele>2099</ele>
        <time>2000-01-01T16:00:19.000Z</time>
      </trkpt>
      <trkpt lat="45.73303" lon="6.62498">
        <ele>2099</ele>
        <time>2000-01-01T16:00:29.000Z</time>
      </trkpt>
      <trkpt lat="45.73289" lon="6.62482">
        <ele>2095.3</ele>
        <time>2000-01-01T16:00:39.000Z</time>
      </trkpt>
      <trkpt lat="45.73282" lon="6.62473">
        <ele>2099</ele>
        <time>2000-01-01T16:00:49.000Z</time>
      </trkpt>
      <trkpt lat="45.73274" lon="6.62467">
        <ele>2092.7</ele>
        <time>2000-01-01T16:00:59.000Z</time>
      </trkpt>
      <trkpt lat="45.73267" lon="6.62458">
        <ele>2091.5</ele>
        <time>2000-01-01T16:01:09.000Z</time>
      </trkpt>
      <trkpt lat="45.73261" lon="6.62447">
        <ele>2093</ele>
        <time>2000-01-01T16:01:19.000Z</time>
      </trkpt>
      <trkpt lat="45.73253" lon="6.62449">
        <ele>2087.4</ele>
        <time>2000-01-01T16:01:29.000Z</time>
      </trkpt>
      <trkpt lat="45.73248" lon="6.6246">
        <ele>2087.2</ele>
        <time>2000-01-01T16:01:39.000Z</time>
      </trkpt>
      <trkpt lat="45.7324" lon="6.62466">
        <ele>2084</ele>
        <time>2000-01-01T16:01:49.000Z</time>
      </trkpt>
      <trkpt lat="45.73231" lon="6.62469">
        <ele>2083.5</ele>
        <time>2000-01-01T16:01:59.000Z</time>
      </trkpt>
      <trkpt lat="45.73221" lon="6.62471">
        <ele>2084</ele>
        <time>2000-01-01T16:02:09.000Z</time>
      </trkpt>
      <trkpt lat="45.73202" lon="6.62463">
        <ele>2085</ele>
        <time>2000-01-01T16:02:19.000Z</time>
      </trkpt>
      <trkpt lat="45.73194" lon="6.62456">
        <ele>2078</ele>
        <time>2000-01-01T16:02:29.000Z</time>
      </trkpt>
      <trkpt lat="45.73184" lon="6.62455">
        <ele>2086</ele>
        <time>2000-01-01T16:02:39.000Z</time>
      </trkpt>
      <trkpt lat="45.73175" lon="6.62458">
        <ele>2073.5</ele>
        <time>2000-01-01T16:02:49.000Z</time>
      </trkpt>
      <trkpt lat="45.73168" lon="6.6245">
        <ele>2070.3</ele>
        <time>2000-01-01T16:02:59.000Z</time>
      </trkpt>
      <trkpt lat="45.73167" lon="6.62446">
        <ele>2086</ele>
        <time>2000-01-01T16:03:09.000Z</time>
      </trkpt>
      <trkpt lat="45.7316" lon="6.62439">
        <ele>2069.8</ele>
        <time>2000-01-01T16:03:19.000Z</time>
      </trkpt>
      <trkpt lat="45.7315" lon="6.62436">
        <ele>2069.4</ele>
        <time>2000-01-01T16:03:29.000Z</time>
      </trkpt>
      <trkpt lat="45.73141" lon="6.62432">
        <ele>2076</ele>
        <time>2000-01-01T16:03:39.000Z</time>
      </trkpt>
      <trkpt lat="45.73133" lon="6.62424">
        <ele>2068.5</ele>
        <time>2000-01-01T16:03:49.000Z</time>
      </trkpt>
      <trkpt lat="45.73126" lon="6.62414">
        <ele>2075</ele>
        <time>2000-01-01T16:03:59.000Z</time>
      </trkpt>
      <trkpt lat="45.73111" lon="6.62398">
        <ele>2066.7</ele>
        <time>2000-01-01T16:04:09.000Z</time>
      </trkpt>
      <trkpt lat="45.73103" lon="6.62394">
        <ele>2075</ele>
        <time>2000-01-01T16:04:19.000Z</time>
      </trkpt>
      <trkpt lat="45.73093" lon="6.62387">
        <ele>2064.2</ele>
        <time>2000-01-01T16:04:29.000Z</time>
      </trkpt>
      <trkpt lat="45.73086" lon="6.62377">
        <ele>2075</ele>
        <time>2000-01-01T16:04:39.000Z</time>
      </trkpt>
      <trkpt lat="45.73078" lon="6.62369">
        <ele>2065.3</ele>
        <time>2000-01-01T16:04:49.000Z</time>
      </trkpt>
      <trkpt lat="45.73062" lon="6.62356">
        <ele>2076</ele>
        <time>2000-01-01T16:04:59.000Z</time>
      </trkpt>
      <trkpt lat="45.73053" lon="6.62351">
        <ele>2064</ele>
        <time>2000-01-01T16:05:09.000Z</time>
      </trkpt>
      <trkpt lat="45.73039" lon="6.62332">
        <ele>2081</ele>
        <time>2000-01-01T16:05:19.000Z</time>
      </trkpt>
      <trkpt lat="45.73024" lon="6.62315">
        <ele>2088</ele>
        <time>2000-01-01T16:05:29.000Z</time>
      </trkpt>
      <trkpt lat="45.72997" lon="6.62278">
        <ele>2087</ele>
        <time>2000-01-01T16:05:39.000Z</time>
      </trkpt>
      <trkpt lat="45.72992" lon="6.62267">
        <ele>2073.2</ele>
        <time>2000-01-01T16:05:49.000Z</time>
      </trkpt>
      <trkpt lat="45.72985" lon="6.62258">
        <ele>2073.7</ele>
        <time>2000-01-01T16:05:59.000Z</time>
      </trkpt>
      <trkpt lat="45.7298" lon="6.62249">
        <ele>2091</ele>
        <time>2000-01-01T16:06:09.000Z</time>
      </trkpt>
      <trkpt lat="45.72975" lon="6.62237">
        <ele>2076.5</ele>
        <time>2000-01-01T16:06:19.000Z</time>
      </trkpt>
      <trkpt lat="45.72972" lon="6.62224">
        <ele>2095</ele>
        <time>2000-01-01T16:06:29.000Z</time>
      </trkpt>
      <trkpt lat="45.72968" lon="6.62212">
        <ele>2081.8</ele>
        <time>2000-01-01T16:06:39.000Z</time>
      </trkpt>
      <trkpt lat="45.72962" lon="6.62202">
        <ele>2082.9</ele>
        <time>2000-01-01T16:06:49.000Z</time>
      </trkpt>
      <trkpt lat="45.72946" lon="6.62169">
        <ele>2101</ele>
        <time>2000-01-01T16:06:59.000Z</time>
      </trkpt>
      <trkpt lat="45.72934" lon="6.62149">
        <ele>2093.2</ele>
        <time>2000-01-01T16:07:09.000Z</time>
      </trkpt>
      <trkpt lat="45.72924" lon="6.62128">
        <ele>2108</ele>
        <time>2000-01-01T16:07:19.000Z</time>
      </trkpt>
      <trkpt lat="45.72912" lon="6.62107">
        <ele>2108</ele>
        <time>2000-01-01T16:07:29.000Z</time>
      </trkpt>
      <trkpt lat="45.72896" lon="6.62097">
        <ele>2103.8</ele>
        <time>2000-01-01T16:07:39.000Z</time>
      </trkpt>
      <trkpt lat="45.72886" lon="6.62094">
        <ele>2114</ele>
        <time>2000-01-01T16:07:49.000Z</time>
      </trkpt>
      <trkpt lat="45.72858" lon="6.6209">
        <ele>2115</ele>
        <time>2000-01-01T16:07:59.000Z</time>
      </trkpt>
      <trkpt lat="45.72851" lon="6.62083">
        <ele>2114.4</ele>
        <time>2000-01-01T16:08:09.000Z</time>
      </trkpt>
      <trkpt lat="45.72847" lon="6.62072">
        <ele>2116.1</ele>
        <time>2000-01-01T16:08:19.000Z</time>
      </trkpt>
      <trkpt lat="45.72851" lon="6.62061">
        <ele>2116</ele>
        <time>2000-01-01T16:08:29.000Z</time>
      </trkpt>
      <trkpt lat="45.72848" lon="6.62047">
        <ele>2119.7</ele>
        <time>2000-01-01T16:08:39.000Z</time>
      </trkpt>
      <trkpt lat="45.72844" lon="6.62034">
        <ele>2118</ele>
        <time>2000-01-01T16:08:49.000Z</time>
      </trkpt>
      <trkpt lat="45.72838" lon="6.62022">
        <ele>2120</ele>
        <time>2000-01-01T16:08:59.000Z</time>
      </trkpt>
      <trkpt lat="45.72835" lon="6.62009">
        <ele>2119</ele>
        <time>2000-01-01T16:09:09.000Z</time>
      </trkpt>
      <trkpt lat="45.72829" lon="6.61996">
        <ele>2120.9</ele>
        <time>2000-01-01T16:09:19.000Z</time>
      </trkpt>
      <trkpt lat="45.72817" lon="6.61961">
        <ele>2126</ele>
        <time>2000-01-01T16:09:29.000Z</time>
      </trkpt>
      <trkpt lat="45.72812" lon="6.61951">
        <ele>2123.5</ele>
        <time>2000-01-01T16:09:39.000Z</time>
      </trkpt>
      <trkpt lat="45.72806" lon="6.61941">
        <ele>2123.7</ele>
        <time>2000-01-01T16:09:49.000Z</time>
      </trkpt>
      <trkpt lat="45.72799" lon="6.61932">
        <ele>2137</ele>
        <time>2000-01-01T16:09:59.000Z</time>
      </trkpt>
      <trkpt lat="45.72791" lon="6.61925">
        <ele>2127</ele>
        <time>2000-01-01T16:10:09.000Z</time>
      </trkpt>
      <trkpt lat="45.72772" lon="6.61923">
        <ele>2137</ele>
        <time>2000-01-01T16:10:19.000Z</time>
      </trkpt>
      <trkpt lat="45.72764" lon="6.61915">
        <ele>2130.8</ele>
        <time>2000-01-01T16:10:29.000Z</time>
      </trkpt>
      <trkpt lat="45.72755" lon="6.61908">
        <ele>2138</ele>
        <time>2000-01-01T16:10:39.000Z</time>
      </trkpt>
      <trkpt lat="45.72745" lon="6.61907">
        <ele>2134.2</ele>
        <time>2000-01-01T16:10:49.000Z</time>
      </trkpt>
      <trkpt lat="45.72738" lon="6.61913">
        <ele>2135.4</ele>
        <time>2000-01-01T16:10:59.000Z</time>
      </trkpt>
      <trkpt lat="45.72729" lon="6.61923">
        <ele>2139</ele>
        <time>2000-01-01T16:11:09.000Z</time>
      </trkpt>
      <trkpt lat="45.72721" lon="6.6192">
        <ele>2138.8</ele>
        <time>2000-01-01T16:11:19.000Z</time>
      </trkpt>
      <trkpt lat="45.72717" lon="6.61911">
        <ele>2139.4</ele>
        <time>2000-01-01T16:11:29.000Z</time>
      </trkpt>
      <trkpt lat="45.72709" lon="6.61888">
        <ele>2147</ele>
        <time>2000-01-01T16:11:39.000Z</time>
      </trkpt>
      <trkpt lat="45.72691" lon="6.61857">
        <ele>2153</ele>
        <time>2000-01-01T16:11:49.000Z</time>
      </trkpt>
      <trkpt lat="45.72681" lon="6.61855">
        <ele>2148</ele>
        <time>2000-01-01T16:11:59.000Z</time>
      </trkpt>
      <trkpt lat="45.72671" lon="6.61848">
        <ele>2158</ele>
        <time>2000-01-01T16:12:09.000Z</time>
      </trkpt>
      <trkpt lat="45.72659" lon="6.61827">
        <ele>2164</ele>
        <time>2000-01-01T16:12:19.000Z</time>
      </trkpt>
      <trkpt lat="45.72651" lon="6.61803">
        <ele>2161.1</ele>
        <time>2000-01-01T16:12:29.000Z</time>
      </trkpt>
      <trkpt lat="45.7265" lon="6.6179">
        <ele>2170</ele>
        <time>2000-01-01T16:12:39.000Z</time>
      </trkpt>
      <trkpt lat="45.72645" lon="6.6178">
        <ele>2166</ele>
        <time>2000-01-01T16:12:49.000Z</time>
      </trkpt>
      <trkpt lat="45.72635" lon="6.61779">
        <ele>2165.7</ele>
        <time>2000-01-01T16:12:59.000Z</time>
      </trkpt>
      <trkpt lat="45.72634" lon="6.6177">
        <ele>2170</ele>
        <time>2000-01-01T16:13:09.000Z</time>
      </trkpt>
      <trkpt lat="45.72637" lon="6.61757">
        <ele>2167.9</ele>
        <time>2000-01-01T16:13:19.000Z</time>
      </trkpt>
      <trkpt lat="45.72652" lon="6.6174">
        <ele>2172</ele>
        <time>2000-01-01T16:13:29.000Z</time>
      </trkpt>
      <trkpt lat="45.72666" lon="6.61721">
        <ele>2171</ele>
        <time>2000-01-01T16:13:39.000Z</time>
      </trkpt>
      <trkpt lat="45.72671" lon="6.6171">
        <ele>2173.9</ele>
        <time>2000-01-01T16:13:49.000Z</time>
      </trkpt>
      <trkpt lat="45.72674" lon="6.61698">
        <ele>2174</ele>
        <time>2000-01-01T16:13:59.000Z</time>
      </trkpt>
      <trkpt lat="45.72676" lon="6.61684">
        <ele>2170</ele>
        <time>2000-01-01T16:14:09.000Z</time>
      </trkpt>
      <trkpt lat="45.72682" lon="6.61673">
        <ele>2177.1</ele>
        <time>2000-01-01T16:14:19.000Z</time>
      </trkpt>
      <trkpt lat="45.72683" lon="6.61661">
        <ele>2177.2</ele>
        <time>2000-01-01T16:14:29.000Z</time>
      </trkpt>
      <trkpt lat="45.72688" lon="6.61654">
        <ele>2175</ele>
        <time>2000-01-01T16:14:39.000Z</time>
      </trkpt>
      <trkpt lat="45.72696" lon="6.61647">
        <ele>2178.4</ele>
        <time>2000-01-01T16:14:49.000Z</time>
      </trkpt>
      <trkpt lat="45.72704" lon="6.61643">
        <ele>2179.4</ele>
        <time>2000-01-01T16:14:59.000Z</time>
      </trkpt>
      <trkpt lat="45.72712" lon="6.61634">
        <ele>2176</ele>
        <time>2000-01-01T16:15:09.000Z</time>
      </trkpt>
      <trkpt lat="45.72721" lon="6.61627">
        <ele>2180.6</ele>
        <time>2000-01-01T16:15:19.000Z</time>
      </trkpt>
      <trkpt lat="45.72728" lon="6.61616">
        <ele>2174</ele>
        <time>2000-01-01T16:15:29.000Z</time>
      </trkpt>
      <trkpt lat="45.72737" lon="6.6161">
        <ele>2179.6</ele>
        <time>2000-01-01T16:15:39.000Z</time>
      </trkpt>
      <trkpt lat="45.72744" lon="6.61603">
        <ele>2177.8</ele>
        <time>2000-01-01T16:15:49.000Z</time>
      </trkpt>
      <trkpt lat="45.7275" lon="6.61595">
        <ele>2172</ele>
        <time>2000-01-01T16:15:59.000Z</time>
      </trkpt>
      <trkpt lat="45.72766" lon="6.61568">
        <ele>2171</ele>
        <time>2000-01-01T16:16:09.000Z</time>
      </trkpt>
      <trkpt lat="45.72783" lon="6.6154">
        <ele>2170</ele>
        <time>2000-01-01T16:16:19.000Z</time>
      </trkpt>
      <trkpt lat="45.7279" lon="6.6153">
        <ele>2170.5</ele>
        <time>2000-01-01T16:16:29.000Z</time>
      </trkpt>
      <trkpt lat="45.72796" lon="6.6152">
        <ele>2170</ele>
        <time>2000-01-01T16:16:39.000Z</time>
      </trkpt>
      <trkpt lat="45.72799" lon="6.61508">
        <ele>2171.5</ele>
        <time>2000-01-01T16:16:49.000Z</time>
      </trkpt>
      <trkpt lat="45.728" lon="6.61493">
        <ele>2170</ele>
        <time>2000-01-01T16:16:59.000Z</time>
      </trkpt>
      <trkpt lat="45.72804" lon="6.61482">
        <ele>2172.5</ele>
        <time>2000-01-01T16:17:09.000Z</time>
      </trkpt>
      <trkpt lat="45.72805" lon="6.61468">
        <ele>2172.7</ele>
        <time>2000-01-01T16:17:19.000Z</time>
      </trkpt>
      <trkpt lat="45.72804" lon="6.61415">
        <ele>2167</ele>
        <time>2000-01-01T16:17:29.000Z</time>
      </trkpt>
      <trkpt lat="45.72806" lon="6.61402">
        <ele>2175.8</ele>
        <time>2000-01-01T16:17:39.000Z</time>
      </trkpt>
      <trkpt lat="45.72809" lon="6.61389">
        <ele>2165</ele>
        <time>2000-01-01T16:17:49.000Z</time>
      </trkpt>
      <trkpt lat="45.72811" lon="6.61377">
        <ele>2176.3</ele>
        <time>2000-01-01T16:17:59.000Z</time>
      </trkpt>
      <trkpt lat="45.72824" lon="6.61339">
        <ele>2162</ele>
        <time>2000-01-01T16:18:09.000Z</time>
      </trkpt>
      <trkpt lat="45.72826" lon="6.61325">
        <ele>2178.8</ele>
        <time>2000-01-01T16:18:19.000Z</time>
      </trkpt>
      <trkpt lat="45.72833" lon="6.61317">
        <ele>2156</ele>
        <time>2000-01-01T16:18:29.000Z</time>
      </trkpt>
      <trkpt lat="45.7284" lon="6.61314">
        <ele>2177.7</ele>
        <time>2000-01-01T16:18:39.000Z</time>
      </trkpt>
      <trkpt lat="45.72843" lon="6.61309">
        <ele>2174.4</ele>
        <time>2000-01-01T16:18:49.000Z</time>
      </trkpt>
      <trkpt lat="45.7285" lon="6.61313">
        <ele>2156</ele>
        <time>2000-01-01T16:18:59.000Z</time>
      </trkpt>
      <trkpt lat="45.72856" lon="6.61321">
        <ele>2176.4</ele>
        <time>2000-01-01T16:19:09.000Z</time>
      </trkpt>
      <trkpt lat="45.72883" lon="6.61332">
        <ele>2175</ele>
        <time>2000-01-01T16:19:19.000Z</time>
      </trkpt>
      <trkpt lat="45.72892" lon="6.61334">
        <ele>2170.9</ele>
        <time>2000-01-01T16:19:29.000Z</time>
      </trkpt>
      <trkpt lat="45.72902" lon="6.61338">
        <ele>2175</ele>
        <time>2000-01-01T16:19:39.000Z</time>
      </trkpt>
      <trkpt lat="45.72919" lon="6.61338">
        <ele>2167.8</ele>
        <time>2000-01-01T16:19:49.000Z</time>
      </trkpt>
      <trkpt lat="45.72913" lon="6.61333">
        <ele>2165</ele>
        <time>2000-01-01T16:19:59.000Z</time>
      </trkpt>
      <trkpt lat="45.72904" lon="6.6133">
        <ele>2165.7</ele>
        <time>2000-01-01T16:20:09.000Z</time>
      </trkpt>
      <trkpt lat="45.72896" lon="6.61323">
        <ele>2163.1</ele>
        <time>2000-01-01T16:20:19.000Z</time>
      </trkpt>
      <trkpt lat="45.72889" lon="6.61313">
        <ele>2156</ele>
        <time>2000-01-01T16:20:29.000Z</time>
      </trkpt>
      <trkpt lat="45.72895" lon="6.61313">
        <ele>2157.2</ele>
        <time>2000-01-01T16:20:39.000Z</time>
      </trkpt>
      <trkpt lat="45.72913" lon="6.61315">
        <ele>2147</ele>
        <time>2000-01-01T16:20:49.000Z</time>
      </trkpt>
      <trkpt lat="45.72921" lon="6.61309">
        <ele>2150.2</ele>
        <time>2000-01-01T16:20:59.000Z</time>
      </trkpt>
      <trkpt lat="45.7293" lon="6.61301">
        <ele>2147</ele>
        <time>2000-01-01T16:21:09.000Z</time>
      </trkpt>
      <trkpt lat="45.72946" lon="6.61291">
        <ele>2141.3</ele>
        <time>2000-01-01T16:21:19.000Z</time>
      </trkpt>
      <trkpt lat="45.72954" lon="6.61284">
        <ele>2131</ele>
        <time>2000-01-01T16:21:29.000Z</time>
      </trkpt>
      <trkpt lat="45.72967" lon="6.61263">
        <ele>2124</ele>
        <time>2000-01-01T16:21:39.000Z</time>
      </trkpt>
      <trkpt lat="45.72971" lon="6.61251">
        <ele>2129</ele>
        <time>2000-01-01T16:21:49.000Z</time>
      </trkpt>
      <trkpt lat="45.72969" lon="6.61242">
        <ele>2124.9</ele>
        <time>2000-01-01T16:21:59.000Z</time>
      </trkpt>
      <trkpt lat="45.7295" lon="6.61253">
        <ele>2124</ele>
        <time>2000-01-01T16:22:09.000Z</time>
      </trkpt>
      <trkpt lat="45.7294" lon="6.61254">
        <ele>2120.7</ele>
        <time>2000-01-01T16:22:19.000Z</time>
      </trkpt>
      <trkpt lat="45.7293" lon="6.61254">
        <ele>2124</ele>
        <time>2000-01-01T16:22:29.000Z</time>
      </trkpt>
      <trkpt lat="45.72919" lon="6.61253">
        <ele>2118</ele>
        <time>2000-01-01T16:22:39.000Z</time>
      </trkpt>
      <trkpt lat="45.7291" lon="6.6125">
        <ele>2124</ele>
        <time>2000-01-01T16:22:49.000Z</time>
      </trkpt>
      <trkpt lat="45.72902" lon="6.61242">
        <ele>2115</ele>
        <time>2000-01-01T16:22:59.000Z</time>
      </trkpt>
      <trkpt lat="45.72919" lon="6.61238">
        <ele>2111</ele>
        <time>2000-01-01T16:23:09.000Z</time>
      </trkpt>
      <trkpt lat="45.72913" lon="6.61229">
        <ele>2106.9</ele>
        <time>2000-01-01T16:23:19.000Z</time>
      </trkpt>
      <trkpt lat="45.72904" lon="6.61208">
        <ele>2110</ele>
        <time>2000-01-01T16:23:29.000Z</time>
      </trkpt>
      <trkpt lat="45.72897" lon="6.61198">
        <ele>2095.3</ele>
        <time>2000-01-01T16:23:39.000Z</time>
      </trkpt>
      <trkpt lat="45.72883" lon="6.6118">
        <ele>2095</ele>
        <time>2000-01-01T16:23:49.000Z</time>
      </trkpt>
      <trkpt lat="45.7289" lon="6.6118">
        <ele>2088.6</ele>
        <time>2000-01-01T16:23:59.000Z</time>
      </trkpt>
      <trkpt lat="45.72887" lon="6.61166">
        <ele>2084.1</ele>
        <time>2000-01-01T16:24:09.000Z</time>
      </trkpt>
      <trkpt lat="45.72882" lon="6.61154">
        <ele>2085</ele>
        <time>2000-01-01T16:24:19.000Z</time>
      </trkpt>
      <trkpt lat="45.72881" lon="6.6114">
        <ele>2076.9</ele>
        <time>2000-01-01T16:24:29.000Z</time>
      </trkpt>
      <trkpt lat="45.72877" lon="6.61112">
        <ele>2081</ele>
        <time>2000-01-01T16:24:39.000Z</time>
      </trkpt>
      <trkpt lat="45.72878" lon="6.61086">
        <ele>2067.2</ele>
        <time>2000-01-01T16:24:49.000Z</time>
      </trkpt>
      <trkpt lat="45.72878" lon="6.61071">
        <ele>2078</ele>
        <time>2000-01-01T16:24:59.000Z</time>
      </trkpt>
      <trkpt lat="45.7288" lon="6.61057">
        <ele>2062.3</ele>
        <time>2000-01-01T16:25:09.000Z</time>
      </trkpt>
      <trkpt lat="45.72883" lon="6.61043">
        <ele>2070</ele>
        <time>2000-01-01T16:25:19.000Z</time>
      </trkpt>
      <trkpt lat="45.72883" lon="6.61029">
        <ele>2055.6</ele>
        <time>2000-01-01T16:25:29.000Z</time>
      </trkpt>
      <trkpt lat="45.72878" lon="6.61002">
        <ele>2062</ele>
        <time>2000-01-01T16:25:39.000Z</time>
      </trkpt>
      <trkpt lat="45.72876" lon="6.60988">
        <ele>2050.3</ele>
        <time>2000-01-01T16:25:49.000Z</time>
      </trkpt>
      <trkpt lat="45.72877" lon="6.60975">
        <ele>2056</ele>
        <time>2000-01-01T16:25:59.000Z</time>
      </trkpt>
      <trkpt lat="45.72877" lon="6.60959">
        <ele>2045.3</ele>
        <time>2000-01-01T16:26:09.000Z</time>
      </trkpt>
      <trkpt lat="45.72878" lon="6.60929">
        <ele>2038</ele>
        <time>2000-01-01T16:26:19.000Z</time>
      </trkpt>
      <trkpt lat="45.72881" lon="6.60902">
        <ele>2031</ele>
        <time>2000-01-01T16:26:29.000Z</time>
      </trkpt>
      <trkpt lat="45.72885" lon="6.60895">
        <ele>2032.4</ele>
        <time>2000-01-01T16:26:39.000Z</time>
      </trkpt>
      <trkpt lat="45.72889" lon="6.60907">
        <ele>2031.3</ele>
        <time>2000-01-01T16:26:49.000Z</time>
      </trkpt>
      <trkpt lat="45.72892" lon="6.60896">
        <ele>2031</ele>
        <time>2000-01-01T16:26:59.000Z</time>
      </trkpt>
      <trkpt lat="45.72897" lon="6.60884">
        <ele>2025.6</ele>
        <time>2000-01-01T16:27:09.000Z</time>
      </trkpt>
      <trkpt lat="45.72895" lon="6.60874">
        <ele>2023.1</ele>
        <time>2000-01-01T16:27:19.000Z</time>
      </trkpt>
      <trkpt lat="45.72889" lon="6.60865">
        <ele>2018</ele>
        <time>2000-01-01T16:27:29.000Z</time>
      </trkpt>
      <trkpt lat="45.72885" lon="6.60854">
        <ele>2019.6</ele>
        <time>2000-01-01T16:27:39.000Z</time>
      </trkpt>
      <trkpt lat="45.72883" lon="6.60842">
        <ele>2016.4</ele>
        <time>2000-01-01T16:27:49.000Z</time>
      </trkpt>
      <trkpt lat="45.72886" lon="6.6083">
        <ele>2005</ele>
        <time>2000-01-01T16:27:59.000Z</time>
      </trkpt>
      <trkpt lat="45.7289" lon="6.60818">
        <ele>2009.2</ele>
        <time>2000-01-01T16:28:09.000Z</time>
      </trkpt>
      <trkpt lat="45.72896" lon="6.60805">
        <ele>1997</ele>
        <time>2000-01-01T16:28:19.000Z</time>
      </trkpt>
      <trkpt lat="45.72903" lon="6.60796">
        <ele>2004.3</ele>
        <time>2000-01-01T16:28:29.000Z</time>
      </trkpt>
      <trkpt lat="45.72911" lon="6.60789">
        <ele>2001.3</ele>
        <time>2000-01-01T16:28:39.000Z</time>
      </trkpt>
      <trkpt lat="45.72916" lon="6.60779">
        <ele>1994</ele>
        <time>2000-01-01T16:28:49.000Z</time>
      </trkpt>
      <trkpt lat="45.72923" lon="6.6077">
        <ele>1997.5</ele>
        <time>2000-01-01T16:28:59.000Z</time>
      </trkpt>
      <trkpt lat="45.72931" lon="6.60775">
        <ele>1996</ele>
        <time>2000-01-01T16:29:09.000Z</time>
      </trkpt>
      <trkpt lat="45.72936" lon="6.60782">
        <ele>1994</ele>
        <time>2000-01-01T16:29:19.000Z</time>
      </trkpt>
      <trkpt lat="45.72954" lon="6.60773">
        <ele>1992</ele>
        <time>2000-01-01T16:29:29.000Z</time>
      </trkpt>
      <trkpt lat="45.72956" lon="6.60766">
        <ele>1986.7</ele>
        <time>2000-01-01T16:29:39.000Z</time>
      </trkpt>
      <trkpt lat="45.72949" lon="6.60759">
        <ele>1986.4</ele>
        <time>2000-01-01T16:29:49.000Z</time>
      </trkpt>
      <trkpt lat="45.72946" lon="6.60746">
        <ele>1991</ele>
        <time>2000-01-01T16:29:59.000Z</time>
      </trkpt>
      <trkpt lat="45.7294" lon="6.60736">
        <ele>1983.9</ele>
        <time>2000-01-01T16:30:09.000Z</time>
      </trkpt>
      <trkpt lat="45.72939" lon="6.60723">
        <ele>1981.5</ele>
        <time>2000-01-01T16:30:19.000Z</time>
      </trkpt>
      <trkpt lat="45.72946" lon="6.60729">
        <ele>1983</ele>
        <time>2000-01-01T16:30:29.000Z</time>
      </trkpt>
      <trkpt lat="45.72952" lon="6.60726">
        <ele>1975.1</ele>
        <time>2000-01-01T16:30:39.000Z</time>
      </trkpt>
      <trkpt lat="45.72952" lon="6.60712">
        <ele>1972.3</ele>
        <time>2000-01-01T16:30:49.000Z</time>
      </trkpt>
      <trkpt lat="45.7296" lon="6.60688">
        <ele>1962</ele>
        <time>2000-01-01T16:30:59.000Z</time>
      </trkpt>
      <trkpt lat="45.72963" lon="6.60676">
        <ele>1962.3</ele>
        <time>2000-01-01T16:31:09.000Z</time>
      </trkpt>
      <trkpt lat="45.72968" lon="6.60664">
        <ele>1958.4</ele>
        <time>2000-01-01T16:31:19.000Z</time>
      </trkpt>
      <trkpt lat="45.72973" lon="6.60654">
        <ele>1961</ele>
        <time>2000-01-01T16:31:29.000Z</time>
      </trkpt>
      <trkpt lat="45.7298" lon="6.60645">
        <ele>1952.8</ele>
        <time>2000-01-01T16:31:39.000Z</time>
      </trkpt>
      <trkpt lat="45.72984" lon="6.60633">
        <ele>1951.5</ele>
        <time>2000-01-01T16:31:49.000Z</time>
      </trkpt>
      <trkpt lat="45.73001" lon="6.60619">
        <ele>1953</ele>
        <time>2000-01-01T16:31:59.000Z</time>
      </trkpt>
      <trkpt lat="45.73009" lon="6.60615">
        <ele>1943.2</ele>
        <time>2000-01-01T16:32:09.000Z</time>
      </trkpt>
      <trkpt lat="45.73019" lon="6.60612">
        <ele>1940.5</ele>
        <time>2000-01-01T16:32:19.000Z</time>
      </trkpt>
      <trkpt lat="45.73028" lon="6.60605">
        <ele>1944</ele>
        <time>2000-01-01T16:32:29.000Z</time>
      </trkpt>
      <trkpt lat="45.73038" lon="6.60603">
        <ele>1936.5</ele>
        <time>2000-01-01T16:32:39.000Z</time>
      </trkpt>
      <trkpt lat="45.73048" lon="6.60606">
        <ele>1944</ele>
        <time>2000-01-01T16:32:49.000Z</time>
      </trkpt>
      <trkpt lat="45.73056" lon="6.60615">
        <ele>1933.3</ele>
        <time>2000-01-01T16:32:59.000Z</time>
      </trkpt>
      <trkpt lat="45.73075" lon="6.60629">
        <ele>1934</ele>
        <time>2000-01-01T16:33:09.000Z</time>
      </trkpt>
      <trkpt lat="45.73094" lon="6.60639">
        <ele>1924</ele>
        <time>2000-01-01T16:33:19.000Z</time>
      </trkpt>
      <trkpt lat="45.73103" lon="6.60638">
        <ele>1928.6</ele>
        <time>2000-01-01T16:33:29.000Z</time>
      </trkpt>
      <trkpt lat="45.7311" lon="6.60634">
        <ele>1926.7</ele>
        <time>2000-01-01T16:33:39.000Z</time>
      </trkpt>
      <trkpt lat="45.73117" lon="6.60627">
        <ele>1923</ele>
        <time>2000-01-01T16:33:49.000Z</time>
      </trkpt>
      <trkpt lat="45.73109" lon="6.6062">
        <ele>1922.8</ele>
        <time>2000-01-01T16:33:59.000Z</time>
      </trkpt>
      <trkpt lat="45.731" lon="6.60616">
        <ele>1922.6</ele>
        <time>2000-01-01T16:34:09.000Z</time>
      </trkpt>
      <trkpt lat="45.73092" lon="6.6061">
        <ele>1923</ele>
        <time>2000-01-01T16:34:19.000Z</time>
      </trkpt>
      <trkpt lat="45.73085" lon="6.60601">
        <ele>1919.4</ele>
        <time>2000-01-01T16:34:29.000Z</time>
      </trkpt>
      <trkpt lat="45.73082" lon="6.60589">
        <ele>1916.6</ele>
        <time>2000-01-01T16:34:39.000Z</time>
      </trkpt>
      <trkpt lat="45.73081" lon="6.60575">
        <ele>1922</ele>
        <time>2000-01-01T16:34:49.000Z</time>
      </trkpt>
      <trkpt lat="45.73089" lon="6.60574">
        <ele>1911.8</ele>
        <time>2000-01-01T16:34:59.000Z</time>
      </trkpt>
      <trkpt lat="45.73097" lon="6.60578">
        <ele>1909.2</ele>
        <time>2000-01-01T16:35:09.000Z</time>
      </trkpt>
      <trkpt lat="45.73105" lon="6.60575">
        <ele>1907</ele>
        <time>2000-01-01T16:35:19.000Z</time>
      </trkpt>
      <trkpt lat="45.73115" lon="6.60575">
        <ele>1902.6</ele>
        <time>2000-01-01T16:35:29.000Z</time>
      </trkpt>
      <trkpt lat="45.73124" lon="6.60571">
        <ele>1907</ele>
        <time>2000-01-01T16:35:39.000Z</time>
      </trkpt>
      <trkpt lat="45.73128" lon="6.60563">
        <ele>1895.6</ele>
        <time>2000-01-01T16:35:49.000Z</time>
      </trkpt>
      <trkpt lat="45.73127" lon="6.60554">
        <ele>1892.9</ele>
        <time>2000-01-01T16:35:59.000Z</time>
      </trkpt>
      <trkpt lat="45.73135" lon="6.60549">
        <ele>1883</ele>
        <time>2000-01-01T16:36:09.000Z</time>
      </trkpt>
      <trkpt lat="45.73144" lon="6.60547">
        <ele>1887.7</ele>
        <time>2000-01-01T16:36:19.000Z</time>
      </trkpt>
      <trkpt lat="45.73152" lon="6.60542">
        <ele>1884.6</ele>
        <time>2000-01-01T16:36:29.000Z</time>
      </trkpt>
      <trkpt lat="45.73161" lon="6.60539">
        <ele>1875</ele>
        <time>2000-01-01T16:36:39.000Z</time>
      </trkpt>
      <trkpt lat="45.7317" lon="6.60537">
        <ele>1877.4</ele>
        <time>2000-01-01T16:36:49.000Z</time>
      </trkpt>
      <trkpt lat="45.73188" lon="6.60541">
        <ele>1875</ele>
        <time>2000-01-01T16:36:59.000Z</time>
      </trkpt>
      <trkpt lat="45.73189" lon="6.6053">
        <ele>1869.9</ele>
        <time>2000-01-01T16:37:09.000Z</time>
      </trkpt>
      <trkpt lat="45.73194" lon="6.60519">
        <ele>1865</ele>
        <time>2000-01-01T16:37:19.000Z</time>
      </trkpt>
      <trkpt lat="45.73187" lon="6.60511">
        <ele>1875</ele>
        <time>2000-01-01T16:37:29.000Z</time>
      </trkpt>
      <trkpt lat="45.73183" lon="6.60499">
        <ele>1861.6</ele>
        <time>2000-01-01T16:37:39.000Z</time>
      </trkpt>
      <trkpt lat="45.73188" lon="6.60492">
        <ele>1859.2</ele>
        <time>2000-01-01T16:37:49.000Z</time>
      </trkpt>
      <trkpt lat="45.73198" lon="6.6049">
        <ele>1872</ele>
        <time>2000-01-01T16:37:59.000Z</time>
      </trkpt>
      <trkpt lat="45.73207" lon="6.60486">
        <ele>1854.9</ele>
        <time>2000-01-01T16:38:09.000Z</time>
      </trkpt>
      <trkpt lat="45.73217" lon="6.60485">
        <ele>1872</ele>
        <time>2000-01-01T16:38:19.000Z</time>
      </trkpt>
      <trkpt lat="45.73227" lon="6.60485">
        <ele>1852.1</ele>
        <time>2000-01-01T16:38:29.000Z</time>
      </trkpt>
      <trkpt lat="45.73237" lon="6.60487">
        <ele>1872</ele>
        <time>2000-01-01T16:38:39.000Z</time>
      </trkpt>
      <trkpt lat="45.73245" lon="6.6049">
        <ele>1849.1</ele>
        <time>2000-01-01T16:38:49.000Z</time>
      </trkpt>
      <trkpt lat="45.73252" lon="6.605">
        <ele>1846.6</ele>
        <time>2000-01-01T16:38:59.000Z</time>
      </trkpt>
      <trkpt lat="45.73262" lon="6.60504">
        <ele>1865</ele>
        <time>2000-01-01T16:39:09.000Z</time>
      </trkpt>
      <trkpt lat="45.73279" lon="6.60515">
        <ele>1842.2</ele>
        <time>2000-01-01T16:39:19.000Z</time>
      </trkpt>
      <trkpt lat="45.73298" lon="6.60523">
        <ele>1857</ele>
        <time>2000-01-01T16:39:29.000Z</time>
      </trkpt>
      <trkpt lat="45.73307" lon="6.60526">
        <ele>1832.7</ele>
        <time>2000-01-01T16:39:39.000Z</time>
      </trkpt>
      <trkpt lat="45.73317" lon="6.60525">
        <ele>1850</ele>
        <time>2000-01-01T16:39:49.000Z</time>
      </trkpt>
      <trkpt lat="45.73324" lon="6.60531">
        <ele>1827.2</ele>
        <time>2000-01-01T16:39:59.000Z</time>
      </trkpt>
      <trkpt lat="45.73333" lon="6.60536">
        <ele>1824.4</ele>
        <time>2000-01-01T16:40:09.000Z</time>
      </trkpt>
      <trkpt lat="45.73343" lon="6.60536">
        <ele>1842</ele>
        <time>2000-01-01T16:40:19.000Z</time>
      </trkpt>
      <trkpt lat="45.73368" lon="6.60556">
        <ele>1831</ele>
        <time>2000-01-01T16:40:29.000Z</time>
      </trkpt>
      <trkpt lat="45.73378" lon="6.60558">
        <ele>1811.2</ele>
        <time>2000-01-01T16:40:39.000Z</time>
      </trkpt>
      <trkpt lat="45.73385" lon="6.60566">
        <ele>1823</ele>
        <time>2000-01-01T16:40:49.000Z</time>
      </trkpt>
      <trkpt lat="45.73396" lon="6.6057">
        <ele>1806.4</ele>
        <time>2000-01-01T16:40:59.000Z</time>
      </trkpt>
      <trkpt lat="45.7343" lon="6.60571">
        <ele>1819</ele>
        <time>2000-01-01T16:41:09.000Z</time>
      </trkpt>
      <trkpt lat="45.73439" lon="6.60573">
        <ele>1802.4</ele>
        <time>2000-01-01T16:41:19.000Z</time>
      </trkpt>
      <trkpt lat="45.7345" lon="6.6057">
        <ele>1813</ele>
        <time>2000-01-01T16:41:29.000Z</time>
      </trkpt>
      <trkpt lat="45.73459" lon="6.60565">
        <ele>1803.2</ele>
        <time>2000-01-01T16:41:39.000Z</time>
      </trkpt>
      <trkpt lat="45.73466" lon="6.60557">
        <ele>1803.9</ele>
        <time>2000-01-01T16:41:49.000Z</time>
      </trkpt>
      <trkpt lat="45.73468" lon="6.60544">
        <ele>1810</ele>
        <time>2000-01-01T16:41:59.000Z</time>
      </trkpt>
      <trkpt lat="45.73473" lon="6.60532">
        <ele>1801.8</ele>
        <time>2000-01-01T16:42:09.000Z</time>
      </trkpt>
      <trkpt lat="45.73484" lon="6.60498">
        <ele>1807</ele>
        <time>2000-01-01T16:42:19.000Z</time>
      </trkpt>
      <trkpt lat="45.73489" lon="6.60487">
        <ele>1792.9</ele>
        <time>2000-01-01T16:42:29.000Z</time>
      </trkpt>
      <trkpt lat="45.73498" lon="6.60483">
        <ele>1790.2</ele>
        <time>2000-01-01T16:42:39.000Z</time>
      </trkpt>
      <trkpt lat="45.73523" lon="6.60458">
        <ele>1780</ele>
        <time>2000-01-01T16:42:49.000Z</time>
      </trkpt>
      <trkpt lat="45.73529" lon="6.60448">
        <ele>1784.2</ele>
        <time>2000-01-01T16:42:59.000Z</time>
      </trkpt>
      <trkpt lat="45.73536" lon="6.6044">
        <ele>1782.2</ele>
        <time>2000-01-01T16:43:09.000Z</time>
      </trkpt>
      <trkpt lat="45.73543" lon="6.6043">
        <ele>1777</ele>
        <time>2000-01-01T16:43:19.000Z</time>
      </trkpt>
      <trkpt lat="45.73544" lon="6.60418">
        <ele>1780.7</ele>
        <time>2000-01-01T16:43:29.000Z</time>
      </trkpt>
      <trkpt lat="45.73552" lon="6.60418">
        <ele>1776.7</ele>
        <time>2000-01-01T16:43:39.000Z</time>
      </trkpt>
      <trkpt lat="45.73554" lon="6.60405">
        <ele>1774</ele>
        <time>2000-01-01T16:43:49.000Z</time>
      </trkpt>
      <trkpt lat="45.73554" lon="6.60393">
        <ele>1771.5</ele>
        <time>2000-01-01T16:43:59.000Z</time>
      </trkpt>
      <trkpt lat="45.7355" lon="6.6038">
        <ele>1769.6</ele>
        <time>2000-01-01T16:44:09.000Z</time>
      </trkpt>
      <trkpt lat="45.73541" lon="6.60356">
        <ele>1771</ele>
        <time>2000-01-01T16:44:19.000Z</time>
      </trkpt>
      <trkpt lat="45.73535" lon="6.60344">
        <ele>1761.4</ele>
        <time>2000-01-01T16:44:29.000Z</time>
      </trkpt>
      <trkpt lat="45.73528" lon="6.60335">
        <ele>1770</ele>
        <time>2000-01-01T16:44:39.000Z</time>
      </trkpt>
      <trkpt lat="45.73519" lon="6.60326">
        <ele>1757.6</ele>
        <time>2000-01-01T16:44:49.000Z</time>
      </trkpt>
      <trkpt lat="45.73511" lon="6.6032">
        <ele>1769</ele>
        <time>2000-01-01T16:44:59.000Z</time>
      </trkpt>
      <trkpt lat="45.73517" lon="6.60311">
        <ele>1752.5</ele>
        <time>2000-01-01T16:45:09.000Z</time>
      </trkpt>
      <trkpt lat="45.73515" lon="6.60301">
        <ele>1748.7</ele>
        <time>2000-01-01T16:45:19.000Z</time>
      </trkpt>
      <trkpt lat="45.73507" lon="6.60293">
        <ele>1746</ele>
        <time>2000-01-01T16:45:29.000Z</time>
      </trkpt>
      <trkpt lat="45.73501" lon="6.60267">
        <ele>1741</ele>
        <time>2000-01-01T16:45:39.000Z</time>
      </trkpt>
      <trkpt lat="45.73492" lon="6.60242">
        <ele>1741</ele>
        <time>2000-01-01T16:45:49.000Z</time>
      </trkpt>
      <trkpt lat="45.73478" lon="6.60219">
        <ele>1738</ele>
        <time>2000-01-01T16:45:59.000Z</time>
      </trkpt>
      <trkpt lat="45.73462" lon="6.60183">
        <ele>1744</ele>
        <time>2000-01-01T16:46:09.000Z</time>
      </trkpt>
      <trkpt lat="45.73449" lon="6.60146">
        <ele>1740</ele>
        <time>2000-01-01T16:46:19.000Z</time>
      </trkpt>
      <trkpt lat="45.73447" lon="6.60131">
        <ele>1725.7</ele>
        <time>2000-01-01T16:46:29.000Z</time>
      </trkpt>
      <trkpt lat="45.73444" lon="6.60118">
        <ele>1740</ele>
        <time>2000-01-01T16:46:39.000Z</time>
      </trkpt>
      <trkpt lat="45.73442" lon="6.60103">
        <ele>1723.3</ele>
        <time>2000-01-01T16:46:49.000Z</time>
      </trkpt>
      <trkpt lat="45.7344" lon="6.60059">
        <ele>1740</ele>
        <time>2000-01-01T16:46:59.000Z</time>
      </trkpt>
      <trkpt lat="45.73433" lon="6.60048">
        <ele>1721.1</ele>
        <time>2000-01-01T16:47:09.000Z</time>
      </trkpt>
      <trkpt lat="45.73424" lon="6.60024">
        <ele>1732</ele>
        <time>2000-01-01T16:47:19.000Z</time>
      </trkpt>
      <trkpt lat="45.7342" lon="6.6001">
        <ele>1718</ele>
        <time>2000-01-01T16:47:29.000Z</time>
      </trkpt>
      <trkpt lat="45.73417" lon="6.59997">
        <ele>1727</ele>
        <time>2000-01-01T16:47:39.000Z</time>
      </trkpt>
      <trkpt lat="45.73417" lon="6.59984">
        <ele>1715.4</ele>
        <time>2000-01-01T16:47:49.000Z</time>
      </trkpt>
      <trkpt lat="45.73414" lon="6.59971">
        <ele>1715.7</ele>
        <time>2000-01-01T16:47:59.000Z</time>
      </trkpt>
      <trkpt lat="45.7341" lon="6.59957">
        <ele>1722</ele>
        <time>2000-01-01T16:48:09.000Z</time>
      </trkpt>
      <trkpt lat="45.73409" lon="6.59947">
        <ele>1713.9</ele>
        <time>2000-01-01T16:48:19.000Z</time>
      </trkpt>
      <trkpt lat="45.7341" lon="6.59932">
        <ele>1711.7</ele>
        <time>2000-01-01T16:48:29.000Z</time>
      </trkpt>
      <trkpt lat="45.7341" lon="6.59918">
        <ele>1727</ele>
        <time>2000-01-01T16:48:39.000Z</time>
      </trkpt>
      <trkpt lat="45.73408" lon="6.59904">
        <ele>1711.1</ele>
        <time>2000-01-01T16:48:49.000Z</time>
      </trkpt>
      <trkpt lat="45.73408" lon="6.59889">
        <ele>1725</ele>
        <time>2000-01-01T16:48:59.000Z</time>
      </trkpt>
      <trkpt lat="45.73407" lon="6.59874">
        <ele>1708.7</ele>
        <time>2000-01-01T16:49:09.000Z</time>
      </trkpt>
      <trkpt lat="45.73404" lon="6.59861">
        <ele>1724</ele>
        <time>2000-01-01T16:49:19.000Z</time>
      </trkpt>
      <trkpt lat="45.73403" lon="6.59845">
        <ele>1708</ele>
        <time>2000-01-01T16:49:29.000Z</time>
      </trkpt>
      <trkpt lat="45.73397" lon="6.59815">
        <ele>1711</ele>
        <time>2000-01-01T16:49:39.000Z</time>
      </trkpt>
      <trkpt lat="45.73393" lon="6.598">
        <ele>1708</ele>
        <time>2000-01-01T16:49:49.000Z</time>
      </trkpt>
      <trkpt lat="45.73391" lon="6.59785">
        <ele>1703</ele>
        <time>2000-01-01T16:49:59.000Z</time>
      </trkpt>
      <trkpt lat="45.73385" lon="6.59759">
        <ele>1703</ele>
        <time>2000-01-01T16:50:09.000Z</time>
      </trkpt>
      <trkpt lat="45.73381" lon="6.59747">
        <ele>1704.8</ele>
        <time>2000-01-01T16:50:19.000Z</time>
      </trkpt>
      <trkpt lat="45.73376" lon="6.59737">
        <ele>1702.8</ele>
        <time>2000-01-01T16:50:29.000Z</time>
      </trkpt>
      <trkpt lat="45.73362" lon="6.59714">
        <ele>1701</ele>
        <time>2000-01-01T16:50:39.000Z</time>
      </trkpt>
      <trkpt lat="45.73345" lon="6.59675">
        <ele>1699</ele>
        <time>2000-01-01T16:50:49.000Z</time>
      </trkpt>
      <trkpt lat="45.73333" lon="6.59649">
        <ele>1690</ele>
        <time>2000-01-01T16:50:59.000Z</time>
      </trkpt>
      <trkpt lat="45.73328" lon="6.59635">
        <ele>1690.6</ele>
        <time>2000-01-01T16:51:09.000Z</time>
      </trkpt>
      <trkpt lat="45.73325" lon="6.59623">
        <ele>1686</ele>
        <time>2000-01-01T16:51:19.000Z</time>
      </trkpt>
      <trkpt lat="45.7332" lon="6.59607">
        <ele>1685.5</ele>
        <time>2000-01-01T16:51:29.000Z</time>
      </trkpt>
      <trkpt lat="45.7331" lon="6.59564">
        <ele>1683</ele>
        <time>2000-01-01T16:51:39.000Z</time>
      </trkpt>
      <trkpt lat="45.73306" lon="6.59551">
        <ele>1676.3</ele>
        <time>2000-01-01T16:51:49.000Z</time>
      </trkpt>
      <trkpt lat="45.73299" lon="6.59539">
        <ele>1676</ele>
        <time>2000-01-01T16:51:59.000Z</time>
      </trkpt>
      <trkpt lat="45.73295" lon="6.59527">
        <ele>1672.6</ele>
        <time>2000-01-01T16:52:09.000Z</time>
      </trkpt>
      <trkpt lat="45.73291" lon="6.59512">
        <ele>1663</ele>
        <time>2000-01-01T16:52:19.000Z</time>
      </trkpt>
      <trkpt lat="45.73286" lon="6.59501">
        <ele>1667.9</ele>
        <time>2000-01-01T16:52:29.000Z</time>
      </trkpt>
      <trkpt lat="45.73284" lon="6.59486">
        <ele>1657</ele>
        <time>2000-01-01T16:52:39.000Z</time>
      </trkpt>
      <trkpt lat="45.73281" lon="6.59474">
        <ele>1662.4</ele>
        <time>2000-01-01T16:52:49.000Z</time>
      </trkpt>
      <trkpt lat="45.73275" lon="6.59462">
        <ele>1657</ele>
        <time>2000-01-01T16:52:59.000Z</time>
      </trkpt>
      <trkpt lat="45.73262" lon="6.59441">
        <ele>1645</ele>
        <time>2000-01-01T16:53:09.000Z</time>
      </trkpt>
      <trkpt lat="45.73254" lon="6.59433">
        <ele>1654.8</ele>
        <time>2000-01-01T16:53:19.000Z</time>
      </trkpt>
      <trkpt lat="45.73252" lon="6.59423">
        <ele>1650.7</ele>
        <time>2000-01-01T16:53:29.000Z</time>
      </trkpt>
      <trkpt lat="45.73243" lon="6.59419">
        <ele>1639</ele>
        <time>2000-01-01T16:53:39.000Z</time>
      </trkpt>
      <trkpt lat="45.73225" lon="6.59405">
        <ele>1625</ele>
        <time>2000-01-01T16:53:49.000Z</time>
      </trkpt>
      <trkpt lat="45.73216" lon="6.59399">
        <ele>1634.1</ele>
        <time>2000-01-01T16:53:59.000Z</time>
      </trkpt>
      <trkpt lat="45.73194" lon="6.59395">
        <ele>1621</ele>
        <time>2000-01-01T16:54:09.000Z</time>
      </trkpt>
      <trkpt lat="45.73187" lon="6.59391">
        <ele>1623.2</ele>
        <time>2000-01-01T16:54:19.000Z</time>
      </trkpt>
      <trkpt lat="45.73184" lon="6.59379">
        <ele>1619.6</ele>
        <time>2000-01-01T16:54:29.000Z</time>
      </trkpt>
      <trkpt lat="45.73172" lon="6.59356">
        <ele>1601</ele>
        <time>2000-01-01T16:54:39.000Z</time>
      </trkpt>
      <trkpt lat="45.73163" lon="6.59352">
        <ele>1606.7</ele>
        <time>2000-01-01T16:54:49.000Z</time>
      </trkpt>
      <trkpt lat="45.73155" lon="6.59352">
        <ele>1603.2</ele>
        <time>2000-01-01T16:54:59.000Z</time>
      </trkpt>
      <trkpt lat="45.73154" lon="6.59346">
        <ele>1590</ele>
        <time>2000-01-01T16:55:09.000Z</time>
      </trkpt>
      <trkpt lat="45.73153" lon="6.59344">
        <ele>1601.5</ele>
        <time>2000-01-01T16:55:19.000Z</time>
      </trkpt>
      <trkpt lat="45.73145" lon="6.59338">
        <ele>1598.2</ele>
        <time>2000-01-01T16:55:29.000Z</time>
      </trkpt>
      <trkpt lat="45.73136" lon="6.59336">
        <ele>1590</ele>
        <time>2000-01-01T16:55:39.000Z</time>
      </trkpt>
      <trkpt lat="45.73127" lon="6.59359">
        <ele>1589.2</ele>
        <time>2000-01-01T16:55:49.000Z</time>
      </trkpt>
      <trkpt lat="45.7312" lon="6.59386">
        <ele>1585</ele>
        <time>2000-01-01T16:55:59.000Z</time>
      </trkpt>
      <trkpt lat="45.73114" lon="6.59401">
        <ele>1579.9</ele>
        <time>2000-01-01T16:56:09.000Z</time>
      </trkpt>
      <trkpt lat="45.73099" lon="6.59427">
        <ele>1572</ele>
        <time>2000-01-01T16:56:19.000Z</time>
      </trkpt>
      <trkpt lat="45.73096" lon="6.59441">
        <ele>1565.8</ele>
        <time>2000-01-01T16:56:29.000Z</time>
      </trkpt>
      <trkpt lat="45.73088" lon="6.59455">
        <ele>1560</ele>
        <time>2000-01-01T16:56:39.000Z</time>
      </trkpt>
      <trkpt lat="45.73077" lon="6.59463">
        <ele>1556.3</ele>
        <time>2000-01-01T16:56:49.000Z</time>
      </trkpt>
      <trkpt lat="45.73067" lon="6.59468">
        <ele>1547</ele>
        <time>2000-01-01T16:56:59.000Z</time>
      </trkpt>
      <trkpt lat="45.73061" lon="6.59479">
        <ele>1550.3</ele>
        <time>2000-01-01T16:57:09.000Z</time>
      </trkpt>
      <trkpt lat="45.73046" lon="6.59492">
        <ele>1535</ele>
        <time>2000-01-01T16:57:19.000Z</time>
      </trkpt>
      <trkpt lat="45.73038" lon="6.59495">
        <ele>1539.6</ele>
        <time>2000-01-01T16:57:29.000Z</time>
      </trkpt>
      <trkpt lat="45.7303" lon="6.59503">
        <ele>1536.6</ele>
        <time>2000-01-01T16:57:39.000Z</time>
      </trkpt>
      <trkpt lat="45.73019" lon="6.59508">
        <ele>1531</ele>
        <time>2000-01-01T16:57:49.000Z</time>
      </trkpt>
      <trkpt lat="45.7301" lon="6.59515">
        <ele>1528.9</ele>
        <time>2000-01-01T16:57:59.000Z</time>
      </trkpt>
      <trkpt lat="45.73" lon="6.5952">
        <ele>1527</ele>
        <time>2000-01-01T16:58:09.000Z</time>
      </trkpt>
      <trkpt lat="45.72979" lon="6.59523">
        <ele>1513</ele>
        <time>2000-01-01T16:58:19.000Z</time>
      </trkpt>
      <trkpt lat="45.7297" lon="6.59525">
        <ele>1516.4</ele>
        <time>2000-01-01T16:58:29.000Z</time>
      </trkpt>
      <trkpt lat="45.7296" lon="6.59526">
        <ele>1513</ele>
        <time>2000-01-01T16:58:39.000Z</time>
      </trkpt>
      <trkpt lat="45.72954" lon="6.59514">
        <ele>1508.4</ele>
        <time>2000-01-01T16:58:49.000Z</time>
      </trkpt>
      <trkpt lat="45.72945" lon="6.59506">
        <ele>1501</ele>
        <time>2000-01-01T16:58:59.000Z</time>
      </trkpt>
      <trkpt lat="45.72944" lon="6.59491">
        <ele>1501.6</ele>
        <time>2000-01-01T16:59:09.000Z</time>
      </trkpt>
      <trkpt lat="45.72951" lon="6.59482">
        <ele>1502</ele>
        <time>2000-01-01T16:59:19.000Z</time>
      </trkpt>
      <trkpt lat="45.72952" lon="6.59469">
        <ele>1500.4</ele>
        <time>2000-01-01T16:59:29.000Z</time>
      </trkpt>
      <trkpt lat="45.72961" lon="6.59446">
        <ele>1504</ele>
        <time>2000-01-01T16:59:39.000Z</time>
      </trkpt>
      <trkpt lat="45.72964" lon="6.5943">
        <ele>1500.3</ele>
        <time>2000-01-01T16:59:49.000Z</time>
      </trkpt>
      <trkpt lat="45.72964" lon="6.59414">
        <ele>1502</ele>
        <time>2000-01-01T16:59:59.000Z</time>
      </trkpt>
      <trkpt lat="45.7296" lon="6.59402">
        <ele>1498.7</ele>
        <time>2000-01-01T17:00:09.000Z</time>
      </trkpt>
      <trkpt lat="45.72951" lon="6.59396">
        <ele>1501</ele>
        <time>2000-01-01T17:00:19.000Z</time>
      </trkpt>
      <trkpt lat="45.72947" lon="6.59384">
        <ele>1492.6</ele>
        <time>2000-01-01T17:00:29.000Z</time>
      </trkpt>
      <trkpt lat="45.72941" lon="6.5937">
        <ele>1501</ele>
        <time>2000-01-01T17:00:39.000Z</time>
      </trkpt>
      <trkpt lat="45.72918" lon="6.59328">
        <ele>1490</ele>
        <time>2000-01-01T17:00:49.000Z</time>
      </trkpt>
      <trkpt lat="45.72903" lon="6.59295">
        <ele>1487</ele>
        <time>2000-01-01T17:00:59.000Z</time>
      </trkpt>
      <trkpt lat="45.72909" lon="6.5928">
        <ele>1473.7</ele>
        <time>2000-01-01T17:01:09.000Z</time>
      </trkpt>
      <trkpt lat="45.72915" lon="6.59263">
        <ele>1485</ele>
        <time>2000-01-01T17:01:19.000Z</time>
      </trkpt>
      <trkpt lat="45.72911" lon="6.59225">
        <ele>1481</ele>
        <time>2000-01-01T17:01:29.000Z</time>
      </trkpt>
      <trkpt lat="45.72917" lon="6.592">
        <ele>1476.4</ele>
        <time>2000-01-01T17:01:39.000Z</time>
      </trkpt>
      <trkpt lat="45.72924" lon="6.59184">
        <ele>1477</ele>
        <time>2000-01-01T17:01:49.000Z</time>
      </trkpt>
      <trkpt lat="45.7294" lon="6.59142">
        <ele>1476</ele>
        <time>2000-01-01T17:01:59.000Z</time>
      </trkpt>
      <trkpt lat="45.72953" lon="6.59134">
        <ele>1472.6</ele>
        <time>2000-01-01T17:02:09.000Z</time>
      </trkpt>
      <trkpt lat="45.72964" lon="6.59108">
        <ele>1476</ele>
        <time>2000-01-01T17:02:19.000Z</time>
      </trkpt>
      <trkpt lat="45.72971" lon="6.59085">
        <ele>1470.8</ele>
        <time>2000-01-01T17:02:29.000Z</time>
      </trkpt>
      <trkpt lat="45.72984" lon="6.59073">
        <ele>1468</ele>
        <time>2000-01-01T17:02:39.000Z</time>
      </trkpt>
      <trkpt lat="45.72995" lon="6.5906">
        <ele>1476.2</ele>
        <time>2000-01-01T17:02:49.000Z</time>
      </trkpt>
      <trkpt lat="45.73014" lon="6.59026">
        <ele>1466</ele>
        <time>2000-01-01T17:02:59.000Z</time>
      </trkpt>
      <trkpt lat="45.73027" lon="6.59017">
        <ele>1474.1</ele>
        <time>2000-01-01T17:03:09.000Z</time>
      </trkpt>
      <trkpt lat="45.73038" lon="6.59008">
        <ele>1465</ele>
        <time>2000-01-01T17:03:19.000Z</time>
      </trkpt>
      <trkpt lat="45.73038" lon="6.59002">
        <ele>1470.8</ele>
        <time>2000-01-01T17:03:29.000Z</time>
      </trkpt>
      <trkpt lat="45.73028" lon="6.59">
        <ele>1467.1</ele>
        <time>2000-01-01T17:03:39.000Z</time>
      </trkpt>
      <trkpt lat="45.73025" lon="6.58993">
        <ele>1465</ele>
        <time>2000-01-01T17:03:49.000Z</time>
      </trkpt>
      <trkpt lat="45.73028" lon="6.58984">
        <ele>1462.4</ele>
        <time>2000-01-01T17:03:59.000Z</time>
      </trkpt>
      <trkpt lat="45.73025" lon="6.58978">
        <ele>1459.9</ele>
        <time>2000-01-01T17:04:09.000Z</time>
      </trkpt>
      <trkpt lat="45.73016" lon="6.58976">
        <ele>1451</ele>
        <time>2000-01-01T17:04:19.000Z</time>
      </trkpt>
      <trkpt lat="45.73009" lon="6.58967">
        <ele>1452.1</ele>
        <time>2000-01-01T17:04:29.000Z</time>
      </trkpt>
      <trkpt lat="45.7299" lon="6.58967">
        <ele>1447</ele>
        <time>2000-01-01T17:04:39.000Z</time>
      </trkpt>
      <trkpt lat="45.72981" lon="6.58965">
        <ele>1444.5</ele>
        <time>2000-01-01T17:04:49.000Z</time>
      </trkpt>
      <trkpt lat="45.72973" lon="6.58962">
        <ele>1441.5</ele>
        <time>2000-01-01T17:04:59.000Z</time>
      </trkpt>
      <trkpt lat="45.72959" lon="6.58955">
        <ele>1427</ele>
        <time>2000-01-01T17:05:09.000Z</time>
      </trkpt>
      <trkpt lat="45.72945" lon="6.58949">
        <ele>1427.7</ele>
        <time>2000-01-01T17:05:19.000Z</time>
      </trkpt>
      <trkpt lat="45.72957" lon="6.58934">
        <ele>1426</ele>
        <time>2000-01-01T17:05:29.000Z</time>
      </trkpt>
      <trkpt lat="45.72961" lon="6.58921">
        <ele>1421.4</ele>
        <time>2000-01-01T17:05:39.000Z</time>
      </trkpt>
      <trkpt lat="45.72966" lon="6.5891">
        <ele>1426</ele>
        <time>2000-01-01T17:05:49.000Z</time>
      </trkpt>
      <trkpt lat="45.72973" lon="6.58901">
        <ele>1417.3</ele>
        <time>2000-01-01T17:05:59.000Z</time>
      </trkpt>
      <trkpt lat="45.72977" lon="6.58889">
        <ele>1415.1</ele>
        <time>2000-01-01T17:06:09.000Z</time>
      </trkpt>
      <trkpt lat="45.72982" lon="6.58877">
        <ele>1412</ele>
        <time>2000-01-01T17:06:19.000Z</time>
      </trkpt>
      <trkpt lat="45.72989" lon="6.58866">
        <ele>1411.2</ele>
        <time>2000-01-01T17:06:29.000Z</time>
      </trkpt>
      <trkpt lat="45.72999" lon="6.58858">
        <ele>1398</ele>
        <time>2000-01-01T17:06:39.000Z</time>
      </trkpt>
      <trkpt lat="45.73008" lon="6.58852">
        <ele>1407.8</ele>
        <time>2000-01-01T17:06:49.000Z</time>
      </trkpt>
      <trkpt lat="45.73018" lon="6.58849">
        <ele>1388</ele>
        <time>2000-01-01T17:06:59.000Z</time>
      </trkpt>
      <trkpt lat="45.73028" lon="6.58847">
        <ele>1404.9</ele>
        <time>2000-01-01T17:07:09.000Z</time>
      </trkpt>
      <trkpt lat="45.73038" lon="6.58847">
        <ele>1388</ele>
        <time>2000-01-01T17:07:19.000Z</time>
      </trkpt>
      <trkpt lat="45.73049" lon="6.58851">
        <ele>1407.6</ele>
        <time>2000-01-01T17:07:29.000Z</time>
      </trkpt>
      <trkpt lat="45.73058" lon="6.58846">
        <ele>1401</ele>
        <time>2000-01-01T17:07:39.000Z</time>
      </trkpt>
      <trkpt lat="45.73066" lon="6.58838">
        <ele>1407</ele>
        <time>2000-01-01T17:07:49.000Z</time>
      </trkpt>
      <trkpt lat="45.73065" lon="6.58825">
        <ele>1401</ele>
        <time>2000-01-01T17:07:59.000Z</time>
      </trkpt>
      <trkpt lat="45.73067" lon="6.5881">
        <ele>1397</ele>
        <time>2000-01-01T17:08:09.000Z</time>
      </trkpt>
      <trkpt lat="45.73072" lon="6.58796">
        <ele>1387</ele>
        <time>2000-01-01T17:08:19.000Z</time>
      </trkpt>
      <trkpt lat="45.73073" lon="6.58779">
        <ele>1386.2</ele>
        <time>2000-01-01T17:08:29.000Z</time>
      </trkpt>
      <trkpt lat="45.73081" lon="6.58767">
        <ele>1383</ele>
        <time>2000-01-01T17:08:39.000Z</time>
      </trkpt>
      <trkpt lat="45.73101" lon="6.5874">
        <ele>1380</ele>
        <time>2000-01-01T17:08:49.000Z</time>
      </trkpt>
      <trkpt lat="45.73113" lon="6.58738">
        <ele>1365</ele>
        <time>2000-01-01T17:08:59.000Z</time>
      </trkpt>
      <trkpt lat="45.73119" lon="6.58741">
        <ele>1370.4</ele>
        <time>2000-01-01T17:09:09.000Z</time>
      </trkpt>
      <trkpt lat="45.73127" lon="6.5874">
        <ele>1380</ele>
        <time>2000-01-01T17:09:19.000Z</time>
      </trkpt>
      <trkpt lat="45.73138" lon="6.58729">
        <ele>1375.3</ele>
        <time>2000-01-01T17:09:29.000Z</time>
      </trkpt>
      <trkpt lat="45.7315" lon="6.58707">
        <ele>1379</ele>
        <time>2000-01-01T17:09:39.000Z</time>
      </trkpt>
      <trkpt lat="45.7316" lon="6.58696">
        <ele>1373.4</ele>
        <time>2000-01-01T17:09:49.000Z</time>
      </trkpt>
      <trkpt lat="45.73169" lon="6.5869">
        <ele>1379</ele>
        <time>2000-01-01T17:09:59.000Z</time>
      </trkpt>
      <trkpt lat="45.73178" lon="6.58669">
        <ele>1374.3</ele>
        <time>2000-01-01T17:10:09.000Z</time>
      </trkpt>
      <trkpt lat="45.73181" lon="6.58644">
        <ele>1359</ele>
        <time>2000-01-01T17:10:19.000Z</time>
      </trkpt>
      <trkpt lat="45.73181" lon="6.58626">
        <ele>1366.6</ele>
        <time>2000-01-01T17:10:29.000Z</time>
      </trkpt>
      <trkpt lat="45.73186" lon="6.58609">
        <ele>1349</ele>
        <time>2000-01-01T17:10:39.000Z</time>
      </trkpt>
      <trkpt lat="45.73198" lon="6.58587">
        <ele>1349</ele>
        <time>2000-01-01T17:10:49.000Z</time>
      </trkpt>
      <trkpt lat="45.73207" lon="6.5858">
        <ele>1359.9</ele>
        <time>2000-01-01T17:10:59.000Z</time>
      </trkpt>
      <trkpt lat="45.73213" lon="6.58571">
        <ele>1342</ele>
        <time>2000-01-01T17:11:09.000Z</time>
      </trkpt>
      <trkpt lat="45.73219" lon="6.58556">
        <ele>1355.1</ele>
        <time>2000-01-01T17:11:19.000Z</time>
      </trkpt>
      <trkpt lat="45.73226" lon="6.58544">
        <ele>1335</ele>
        <time>2000-01-01T17:11:29.000Z</time>
      </trkpt>
      <trkpt lat="45.73236" lon="6.58543">
        <ele>1346.3</ele>
        <time>2000-01-01T17:11:39.000Z</time>
      </trkpt>
      <trkpt lat="45.7325" lon="6.58543">
        <ele>1335</ele>
        <time>2000-01-01T17:11:49.000Z</time>
      </trkpt>
      <trkpt lat="45.73266" lon="6.58558">
        <ele>1339</ele>
        <time>2000-01-01T17:11:59.000Z</time>
      </trkpt>
      <trkpt lat="45.73272" lon="6.5857">
        <ele>1339.7</ele>
        <time>2000-01-01T17:12:09.000Z</time>
      </trkpt>
      <trkpt lat="45.7328" lon="6.58568">
        <ele>1336.1</ele>
        <time>2000-01-01T17:12:19.000Z</time>
      </trkpt>
      <trkpt lat="45.73288" lon="6.58563">
        <ele>1336</ele>
        <time>2000-01-01T17:12:29.000Z</time>
      </trkpt>
      <trkpt lat="45.73306" lon="6.58555">
        <ele>1333</ele>
        <time>2000-01-01T17:12:39.000Z</time>
      </trkpt>
      <trkpt lat="45.73313" lon="6.58547">
        <ele>1323.7</ele>
        <time>2000-01-01T17:12:49.000Z</time>
      </trkpt>
      <trkpt lat="45.73324" lon="6.58547">
        <ele>1314</ele>
        <time>2000-01-01T17:12:59.000Z</time>
      </trkpt>
      <trkpt lat="45.73333" lon="6.58549">
        <ele>1321.2</ele>
        <time>2000-01-01T17:13:09.000Z</time>
      </trkpt>
      <trkpt lat="45.73339" lon="6.58538">
        <ele>1314</ele>
        <time>2000-01-01T17:13:19.000Z</time>
      </trkpt>
      <trkpt lat="45.73346" lon="6.58532">
        <ele>1314.5</ele>
        <time>2000-01-01T17:13:29.000Z</time>
      </trkpt>
      <trkpt lat="45.73355" lon="6.58536">
        <ele>1314.5</ele>
        <time>2000-01-01T17:13:39.000Z</time>
      </trkpt>
      <trkpt lat="45.73365" lon="6.58536">
        <ele>1305</ele>
        <time>2000-01-01T17:13:49.000Z</time>
      </trkpt>
      <trkpt lat="45.73388" lon="6.58533">
        <ele>1299</ele>
        <time>2000-01-01T17:13:59.000Z</time>
      </trkpt>
      <trkpt lat="45.73396" lon="6.58528">
        <ele>1302.3</ele>
        <time>2000-01-01T17:14:09.000Z</time>
      </trkpt>
      <trkpt lat="45.73402" lon="6.58519">
        <ele>1299.3</ele>
        <time>2000-01-01T17:14:19.000Z</time>
      </trkpt>
      <trkpt lat="45.73402" lon="6.58504">
        <ele>1294</ele>
        <time>2000-01-01T17:14:29.000Z</time>
      </trkpt>
      <trkpt lat="45.73397" lon="6.58492">
        <ele>1295.9</ele>
        <time>2000-01-01T17:14:39.000Z</time>
      </trkpt>
      <trkpt lat="45.73391" lon="6.58481">
        <ele>1295</ele>
        <time>2000-01-01T17:14:49.000Z</time>
      </trkpt>
      <trkpt lat="45.73371" lon="6.58464">
        <ele>1293</ele>
        <time>2000-01-01T17:14:59.000Z</time>
      </trkpt>
      <trkpt lat="45.73361" lon="6.58458">
        <ele>1293.4</ele>
        <time>2000-01-01T17:15:09.000Z</time>
      </trkpt>
      <trkpt lat="45.73355" lon="6.58448">
        <ele>1292</ele>
        <time>2000-01-01T17:15:19.000Z</time>
      </trkpt>
      <trkpt lat="45.7335" lon="6.58435">
        <ele>1290.5</ele>
        <time>2000-01-01T17:15:29.000Z</time>
      </trkpt>
      <trkpt lat="45.73349" lon="6.58422">
        <ele>1290</ele>
        <time>2000-01-01T17:15:39.000Z</time>
      </trkpt>
      <trkpt lat="45.73349" lon="6.58408">
        <ele>1286.8</ele>
        <time>2000-01-01T17:15:49.000Z</time>
      </trkpt>
      <trkpt lat="45.73346" lon="6.58392">
        <ele>1286</ele>
        <time>2000-01-01T17:15:59.000Z</time>
      </trkpt>
      <trkpt lat="45.73341" lon="6.58381">
        <ele>1283.1</ele>
        <time>2000-01-01T17:16:09.000Z</time>
      </trkpt>
      <trkpt lat="45.73327" lon="6.58361">
        <ele>1281</ele>
        <time>2000-01-01T17:16:19.000Z</time>
      </trkpt>
      <trkpt lat="45.73317" lon="6.58338">
        <ele>1274</ele>
        <time>2000-01-01T17:16:29.000Z</time>
      </trkpt>
      <trkpt lat="45.73313" lon="6.58326">
        <ele>1274.5</ele>
        <time>2000-01-01T17:16:39.000Z</time>
      </trkpt>
      <trkpt lat="45.73308" lon="6.58317">
        <ele>1272.9</ele>
        <time>2000-01-01T17:16:49.000Z</time>
      </trkpt>
      <trkpt lat="45.73304" lon="6.58294">
        <ele>1264</ele>
        <time>2000-01-01T17:16:59.000Z</time>
      </trkpt>
      <trkpt lat="45.73304" lon="6.58282">
        <ele>1265.8</ele>
        <time>2000-01-01T17:17:09.000Z</time>
      </trkpt>
      <trkpt lat="45.73323" lon="6.58278">
        <ele>1264</ele>
        <time>2000-01-01T17:17:19.000Z</time>
      </trkpt>
      <trkpt lat="45.73352" lon="6.58282">
        <ele>1256</ele>
        <time>2000-01-01T17:17:29.000Z</time>
      </trkpt>
      <trkpt lat="45.7336" lon="6.58287">
        <ele>1260.2</ele>
        <time>2000-01-01T17:17:39.000Z</time>
      </trkpt>
      <trkpt lat="45.73344" lon="6.58268">
        <ele>1254</ele>
        <time>2000-01-01T17:17:49.000Z</time>
      </trkpt>
      <trkpt lat="45.73336" lon="6.58261">
        <ele>1257.3</ele>
        <time>2000-01-01T17:17:59.000Z</time>
      </trkpt>
      <trkpt lat="45.73329" lon="6.58251">
        <ele>1254</ele>
        <time>2000-01-01T17:18:09.000Z</time>
      </trkpt>
      <trkpt lat="45.73296" lon="6.58219">
        <ele>1247</ele>
        <time>2000-01-01T17:18:19.000Z</time>
      </trkpt>
      <trkpt lat="45.73289" lon="6.58209">
        <ele>1245.7</ele>
        <time>2000-01-01T17:18:29.000Z</time>
      </trkpt>
      <trkpt lat="45.7327" lon="6.58201">
        <ele>1233</ele>
        <time>2000-01-01T17:18:39.000Z</time>
      </trkpt>
      <trkpt lat="45.73261" lon="6.58203">
        <ele>1239.7</ele>
        <time>2000-01-01T17:18:49.000Z</time>
      </trkpt>
      <trkpt lat="45.73252" lon="6.58202">
        <ele>1237.2</ele>
        <time>2000-01-01T17:18:59.000Z</time>
      </trkpt>
      <trkpt lat="45.73242" lon="6.58178">
        <ele>1220</ele>
        <time>2000-01-01T17:19:09.000Z</time>
      </trkpt>
      <trkpt lat="45.73238" lon="6.58172">
        <ele>1224.6</ele>
        <time>2000-01-01T17:19:19.000Z</time>
      </trkpt>
      <trkpt lat="45.73238" lon="6.58161">
        <ele>1222.5</ele>
        <time>2000-01-01T17:19:29.000Z</time>
      </trkpt>
      <trkpt lat="45.73229" lon="6.58153">
        <ele>1206</ele>
        <time>2000-01-01T17:19:39.000Z</time>
      </trkpt>
      <trkpt lat="45.73233" lon="6.5814">
        <ele>1217.1</ele>
        <time>2000-01-01T17:19:49.000Z</time>
      </trkpt>
      <trkpt lat="45.73234" lon="6.58113">
        <ele>1202</ele>
        <time>2000-01-01T17:19:59.000Z</time>
      </trkpt>
      <trkpt lat="45.73237" lon="6.58101">
        <ele>1206.8</ele>
        <time>2000-01-01T17:20:09.000Z</time>
      </trkpt>
      <trkpt lat="45.73234" lon="6.58089">
        <ele>1203.5</ele>
        <time>2000-01-01T17:20:19.000Z</time>
      </trkpt>
      <trkpt lat="45.73233" lon="6.58076">
        <ele>1196</ele>
        <time>2000-01-01T17:20:29.000Z</time>
      </trkpt>
      <trkpt lat="45.73219" lon="6.58055">
        <ele>1189</ele>
        <time>2000-01-01T17:20:39.000Z</time>
      </trkpt>
      <trkpt lat="45.73212" lon="6.58039">
        <ele>1187.6</ele>
        <time>2000-01-01T17:20:49.000Z</time>
      </trkpt>
      <trkpt lat="45.73219" lon="6.58034">
        <ele>1179</ele>
        <time>2000-01-01T17:20:59.000Z</time>
      </trkpt>
      <trkpt lat="45.73212" lon="6.58032">
        <ele>1185.8</ele>
        <time>2000-01-01T17:21:09.000Z</time>
      </trkpt>
      <trkpt lat="45.73205" lon="6.58022">
        <ele>1182.3</ele>
        <time>2000-01-01T17:21:19.000Z</time>
      </trkpt>
      <trkpt lat="45.73206" lon="6.58008">
        <ele>1169</ele>
        <time>2000-01-01T17:21:29.000Z</time>
      </trkpt>
      <trkpt lat="45.73213" lon="6.58">
        <ele>1179.3</ele>
        <time>2000-01-01T17:21:39.000Z</time>
      </trkpt>
      <trkpt lat="45.73203" lon="6.57978">
        <ele>1162</ele>
        <time>2000-01-01T17:21:49.000Z</time>
      </trkpt>
      <trkpt lat="45.73194" lon="6.57953">
        <ele>1160</ele>
        <time>2000-01-01T17:21:59.000Z</time>
      </trkpt>
      <trkpt lat="45.73189" lon="6.57941">
        <ele>1163.6</ele>
        <time>2000-01-01T17:22:09.000Z</time>
      </trkpt>
      <trkpt lat="45.73181" lon="6.5793">
        <ele>1150</ele>
        <time>2000-01-01T17:22:19.000Z</time>
      </trkpt>
      <trkpt lat="45.73163" lon="6.57924">
        <ele>1155.3</ele>
        <time>2000-01-01T17:22:29.000Z</time>
      </trkpt>
      <trkpt lat="45.73155" lon="6.57915">
        <ele>1147</ele>
        <time>2000-01-01T17:22:39.000Z</time>
      </trkpt>
      <trkpt lat="45.73147" lon="6.57916">
        <ele>1148.5</ele>
        <time>2000-01-01T17:22:49.000Z</time>
      </trkpt>
      <trkpt lat="45.7314" lon="6.57919">
        <ele>1145.2</ele>
        <time>2000-01-01T17:22:59.000Z</time>
      </trkpt>
      <trkpt lat="45.73131" lon="6.57911">
        <ele>1147</ele>
        <time>2000-01-01T17:23:09.000Z</time>
      </trkpt>
      <trkpt lat="45.73126" lon="6.57899">
        <ele>1139.2</ele>
        <time>2000-01-01T17:23:19.000Z</time>
      </trkpt>
      <trkpt lat="45.73118" lon="6.57892">
        <ele>1129</ele>
        <time>2000-01-01T17:23:29.000Z</time>
      </trkpt>
      <trkpt lat="45.7311" lon="6.5789">
        <ele>1133.4</ele>
        <time>2000-01-01T17:23:39.000Z</time>
      </trkpt>
      <trkpt lat="45.73103" lon="6.57895">
        <ele>1130.1</ele>
        <time>2000-01-01T17:23:49.000Z</time>
      </trkpt>
      <trkpt lat="45.73094" lon="6.57893">
        <ele>1121</ele>
        <time>2000-01-01T17:23:59.000Z</time>
      </trkpt>
      <trkpt lat="45.73084" lon="6.57893">
        <ele>1124.5</ele>
        <time>2000-01-01T17:24:09.000Z</time>
      </trkpt>
      <trkpt lat="45.73063" lon="6.57885">
        <ele>1114</ele>
        <time>2000-01-01T17:24:19.000Z</time>
      </trkpt>
      <trkpt lat="45.73053" lon="6.57879">
        <ele>1116.4</ele>
        <time>2000-01-01T17:24:29.000Z</time>
      </trkpt>
      <trkpt lat="45.73045" lon="6.57879">
        <ele>1109</ele>
        <time>2000-01-01T17:24:39.000Z</time>
      </trkpt>
      <trkpt lat="45.73039" lon="6.57886">
        <ele>1112.9</ele>
        <time>2000-01-01T17:24:49.000Z</time>
      </trkpt>
      <trkpt lat="45.73039" lon="6.57896">
        <ele>1111.9</ele>
        <time>2000-01-01T17:24:59.000Z</time>
      </trkpt>
      <trkpt lat="45.7303" lon="6.57892">
        <ele>1105</ele>
        <time>2000-01-01T17:25:09.000Z</time>
      </trkpt>
      <trkpt lat="45.73008" lon="6.57896">
        <ele>1096</ele>
        <time>2000-01-01T17:25:19.000Z</time>
      </trkpt>
      <trkpt lat="45.73001" lon="6.57892">
        <ele>1099.8</ele>
        <time>2000-01-01T17:25:29.000Z</time>
      </trkpt>
      <trkpt lat="45.72996" lon="6.57907">
        <ele>1096</ele>
        <time>2000-01-01T17:25:39.000Z</time>
      </trkpt>
      <trkpt lat="45.72997" lon="6.5792">
        <ele>1093.5</ele>
        <time>2000-01-01T17:25:49.000Z</time>
      </trkpt>
      <trkpt lat="45.72989" lon="6.57925">
        <ele>1090.5</ele>
        <time>2000-01-01T17:25:59.000Z</time>
      </trkpt>
      <trkpt lat="45.7298" lon="6.57927">
        <ele>1085</ele>
        <time>2000-01-01T17:26:09.000Z</time>
      </trkpt>
      <trkpt lat="45.72971" lon="6.57931">
        <ele>1084.5</ele>
        <time>2000-01-01T17:26:19.000Z</time>
      </trkpt>
      <trkpt lat="45.72964" lon="6.57935">
        <ele>1081.5</ele>
        <time>2000-01-01T17:26:29.000Z</time>
      </trkpt>
      <trkpt lat="45.72955" lon="6.57934">
        <ele>1079</ele>
        <time>2000-01-01T17:26:39.000Z</time>
      </trkpt>
      <trkpt lat="45.72946" lon="6.57928">
        <ele>1076.5</ele>
        <time>2000-01-01T17:26:49.000Z</time>
      </trkpt>
      <trkpt lat="45.7294" lon="6.57929">
        <ele>1073.8</ele>
        <time>2000-01-01T17:26:59.000Z</time>
      </trkpt>
      <trkpt lat="45.72938" lon="6.57939">
        <ele>1069</ele>
        <time>2000-01-01T17:27:09.000Z</time>
      </trkpt>
      <trkpt lat="45.72929" lon="6.57929">
        <ele>1069</ele>
        <time>2000-01-01T17:27:19.000Z</time>
      </trkpt>
      <trkpt lat="45.72913" lon="6.57915">
        <ele>1069</ele>
        <time>2000-01-01T17:27:29.000Z</time>
      </trkpt>
      <trkpt lat="45.7289" lon="6.57887">
        <ele>1060</ele>
        <time>2000-01-01T17:27:39.000Z</time>
      </trkpt>
      <trkpt lat="45.72881" lon="6.57879">
        <ele>1058.4</ele>
        <time>2000-01-01T17:27:49.000Z</time>
      </trkpt>
      <trkpt lat="45.72872" lon="6.57868">
        <ele>1047</ele>
        <time>2000-01-01T17:27:59.000Z</time>
      </trkpt>
      <trkpt lat="45.72866" lon="6.57864">
        <ele>1055.5</ele>
        <time>2000-01-01T17:28:09.000Z</time>
      </trkpt>
      <trkpt lat="45.72857" lon="6.57871">
        <ele>1051.9</ele>
        <time>2000-01-01T17:28:19.000Z</time>
      </trkpt>
      <trkpt lat="45.7285" lon="6.57865">
        <ele>1037</ele>
        <time>2000-01-01T17:28:29.000Z</time>
      </trkpt>
      <trkpt lat="45.72845" lon="6.57852">
        <ele>1049</ele>
        <time>2000-01-01T17:28:39.000Z</time>
      </trkpt>
      <trkpt lat="45.72844" lon="6.57838">
        <ele>1037</ele>
        <time>2000-01-01T17:28:49.000Z</time>
      </trkpt>
      <trkpt lat="45.72853" lon="6.57781">
        <ele>1031</ele>
        <time>2000-01-01T17:28:59.000Z</time>
      </trkpt>
      <trkpt lat="45.72854" lon="6.57769">
        <ele>1037.7</ele>
        <time>2000-01-01T17:29:09.000Z</time>
      </trkpt>
      <trkpt lat="45.72864" lon="6.57697">
        <ele>1025</ele>
        <time>2000-01-01T17:29:19.000Z</time>
      </trkpt>
      <trkpt lat="45.72864" lon="6.57684">
        <ele>1027.9</ele>
        <time>2000-01-01T17:29:29.000Z</time>
      </trkpt>
      <trkpt lat="45.72857" lon="6.57674">
        <ele>1019</ele>
        <time>2000-01-01T17:29:39.000Z</time>
      </trkpt>
      <trkpt lat="45.72853" lon="6.57664">
        <ele>1023.5</ele>
        <time>2000-01-01T17:29:49.000Z</time>
      </trkpt>
      <trkpt lat="45.7285" lon="6.57654">
        <ele>1020.9</ele>
        <time>2000-01-01T17:29:59.000Z</time>
      </trkpt>
      <trkpt lat="45.72852" lon="6.57641">
        <ele>1012</ele>
        <time>2000-01-01T17:30:09.000Z</time>
      </trkpt>
      <trkpt lat="45.72851" lon="6.57627">
        <ele>1016.3</ele>
        <time>2000-01-01T17:30:19.000Z</time>
      </trkpt>
      <trkpt lat="45.72844" lon="6.57624">
        <ele>1014</ele>
        <time>2000-01-01T17:30:29.000Z</time>
      </trkpt>
      <trkpt lat="45.72842" lon="6.57611">
        <ele>1006</ele>
        <time>2000-01-01T17:30:39.000Z</time>
      </trkpt>
      <trkpt lat="45.72836" lon="6.57614">
        <ele>1010.2</ele>
        <time>2000-01-01T17:30:49.000Z</time>
      </trkpt>
      <trkpt lat="45.72838" lon="6.57601">
        <ele>1007.9</ele>
        <time>2000-01-01T17:30:59.000Z</time>
      </trkpt>
      <trkpt lat="45.72842" lon="6.57588">
        <ele>997</ele>
        <time>2000-01-01T17:31:09.000Z</time>
      </trkpt>
      <trkpt lat="45.72854" lon="6.57564">
        <ele>990</ele>
        <time>2000-01-01T17:31:19.000Z</time>
      </trkpt>
      <trkpt lat="45.72852" lon="6.57557">
        <ele>999.4</ele>
        <time>2000-01-01T17:31:29.000Z</time>
      </trkpt>
      <trkpt lat="45.72843" lon="6.5755">
        <ele>996.7</ele>
        <time>2000-01-01T17:31:39.000Z</time>
      </trkpt>
      <trkpt lat="45.72832" lon="6.57551">
        <ele>987</ele>
        <time>2000-01-01T17:31:49.000Z</time>
      </trkpt>
      <trkpt lat="45.72822" lon="6.57554">
        <ele>994.6</ele>
        <time>2000-01-01T17:31:59.000Z</time>
      </trkpt>
      <trkpt lat="45.72814" lon="6.57558">
        <ele>994</ele>
        <time>2000-01-01T17:32:09.000Z</time>
      </trkpt>
      <trkpt lat="45.72804" lon="6.5756">
        <ele>984</ele>
        <time>2000-01-01T17:32:19.000Z</time>
      </trkpt>
      <trkpt lat="45.72793" lon="6.5756">
        <ele>991.8</ele>
        <time>2000-01-01T17:32:29.000Z</time>
      </trkpt>
      <trkpt lat="45.72783" lon="6.57556">
        <ele>982</ele>
        <time>2000-01-01T17:32:39.000Z</time>
      </trkpt>
      <trkpt lat="45.72773" lon="6.57551">
        <ele>989</ele>
        <time>2000-01-01T17:32:49.000Z</time>
      </trkpt>
      <trkpt lat="45.72764" lon="6.57543">
        <ele>978</ele>
        <time>2000-01-01T17:32:59.000Z</time>
      </trkpt>
      <trkpt lat="45.72756" lon="6.57537">
        <ele>986.7</ele>
        <time>2000-01-01T17:33:09.000Z</time>
      </trkpt>
      <trkpt lat="45.72749" lon="6.57528">
        <ele>985.8</ele>
        <time>2000-01-01T17:33:19.000Z</time>
      </trkpt>
      <trkpt lat="45.72744" lon="6.57515">
        <ele>976</ele>
        <time>2000-01-01T17:33:29.000Z</time>
      </trkpt>
      <trkpt lat="45.72741" lon="6.57502">
        <ele>980.6</ele>
        <time>2000-01-01T17:33:39.000Z</time>
      </trkpt>
      <trkpt lat="45.72739" lon="6.57488">
        <ele>964</ele>
        <time>2000-01-01T17:33:49.000Z</time>
      </trkpt>
      <trkpt lat="45.72736" lon="6.57476">
        <ele>975.2</ele>
        <time>2000-01-01T17:33:59.000Z</time>
      </trkpt>
      <trkpt lat="45.72729" lon="6.57467">
        <ele>972.4</ele>
        <time>2000-01-01T17:34:09.000Z</time>
      </trkpt>
      <trkpt lat="45.72728" lon="6.57457">
        <ele>961</ele>
        <time>2000-01-01T17:34:19.000Z</time>
      </trkpt>
      <trkpt lat="45.72698" lon="6.5744">
        <ele>958</ele>
        <time>2000-01-01T17:34:29.000Z</time>
      </trkpt>
      <trkpt lat="45.72686" lon="6.57437">
        <ele>961.6</ele>
        <time>2000-01-01T17:34:39.000Z</time>
      </trkpt>
      <trkpt lat="45.72675" lon="6.57437">
        <ele>952</ele>
        <time>2000-01-01T17:34:49.000Z</time>
      </trkpt>
      <trkpt lat="45.72664" lon="6.57438">
        <ele>957.6</ele>
        <time>2000-01-01T17:34:59.000Z</time>
      </trkpt>
      <trkpt lat="45.72655" lon="6.57441">
        <ele>951</ele>
        <time>2000-01-01T17:35:09.000Z</time>
      </trkpt>
      <trkpt lat="45.7265" lon="6.57451">
        <ele>955</ele>
        <time>2000-01-01T17:35:19.000Z</time>
      </trkpt>
      <trkpt lat="45.72649" lon="6.57464">
        <ele>955.4</ele>
        <time>2000-01-01T17:35:29.000Z</time>
      </trkpt>
      <trkpt lat="45.72646" lon="6.57478">
        <ele>952</ele>
        <time>2000-01-01T17:35:39.000Z</time>
      </trkpt>
      <trkpt lat="45.7265" lon="6.5749">
        <ele>957.2</ele>
        <time>2000-01-01T17:35:49.000Z</time>
      </trkpt>
      <trkpt lat="45.72647" lon="6.57503">
        <ele>952</ele>
        <time>2000-01-01T17:35:59.000Z</time>
      </trkpt>
      <trkpt lat="45.72649" lon="6.57515">
        <ele>956.9</ele>
        <time>2000-01-01T17:36:09.000Z</time>
      </trkpt>
      <trkpt lat="45.7265" lon="6.57526">
        <ele>956.7</ele>
        <time>2000-01-01T17:36:19.000Z</time>
      </trkpt>
      <trkpt lat="45.72655" lon="6.57538">
        <ele>952</ele>
        <time>2000-01-01T17:36:29.000Z</time>
      </trkpt>
      <trkpt lat="45.72652" lon="6.57552">
        <ele>956.3</ele>
        <time>2000-01-01T17:36:39.000Z</time>
      </trkpt>
      <trkpt lat="45.72647" lon="6.57566">
        <ele>952</ele>
        <time>2000-01-01T17:36:49.000Z</time>
      </trkpt>
      <trkpt lat="45.72647" lon="6.57579">
        <ele>951.7</ele>
        <time>2000-01-01T17:36:59.000Z</time>
      </trkpt>
      <trkpt lat="45.72641" lon="6.5759">
        <ele>951</ele>
        <time>2000-01-01T17:37:09.000Z</time>
      </trkpt>
      <trkpt lat="45.72636" lon="6.57601">
        <ele>945.8</ele>
        <time>2000-01-01T17:37:19.000Z</time>
      </trkpt>
      <trkpt lat="45.72635" lon="6.57614">
        <ele>944.7</ele>
        <time>2000-01-01T17:37:29.000Z</time>
      </trkpt>
      <trkpt lat="45.7263" lon="6.57624">
        <ele>950</ele>
        <time>2000-01-01T17:37:39.000Z</time>
      </trkpt>
      <trkpt lat="45.72626" lon="6.57615">
        <ele>941.8</ele>
        <time>2000-01-01T17:37:49.000Z</time>
      </trkpt>
      <trkpt lat="45.72625" lon="6.576">
        <ele>942.3</ele>
        <time>2000-01-01T17:37:59.000Z</time>
      </trkpt>
      <trkpt lat="45.72622" lon="6.57584">
        <ele>946</ele>
        <time>2000-01-01T17:38:09.000Z</time>
      </trkpt>
      <trkpt lat="45.72615" lon="6.57558">
        <ele>945</ele>
        <time>2000-01-01T17:38:19.000Z</time>
      </trkpt>
      <trkpt lat="45.72609" lon="6.57527">
        <ele>944</ele>
        <time>2000-01-01T17:38:29.000Z</time>
      </trkpt>
      <trkpt lat="45.72604" lon="6.57511">
        <ele>940.6</ele>
        <time>2000-01-01T17:38:39.000Z</time>
      </trkpt>
      <trkpt lat="45.72602" lon="6.57496">
        <ele>944</ele>
        <time>2000-01-01T17:38:49.000Z</time>
      </trkpt>
      <trkpt lat="45.72603" lon="6.57484">
        <ele>940.4</ele>
        <time>2000-01-01T17:38:59.000Z</time>
      </trkpt>
      <trkpt lat="45.726" lon="6.57473">
        <ele>939.4</ele>
        <time>2000-01-01T17:39:09.000Z</time>
      </trkpt>
      <trkpt lat="45.72592" lon="6.57468">
        <ele>936</ele>
        <time>2000-01-01T17:39:19.000Z</time>
      </trkpt>
      <trkpt lat="45.72583" lon="6.57472">
        <ele>933.9</ele>
        <time>2000-01-01T17:39:29.000Z</time>
      </trkpt>
      <trkpt lat="45.72573" lon="6.57474">
        <ele>936</ele>
        <time>2000-01-01T17:39:39.000Z</time>
      </trkpt>
      <trkpt lat="45.72555" lon="6.57485">
        <ele>929</ele>
        <time>2000-01-01T17:39:49.000Z</time>
      </trkpt>
      <trkpt lat="45.72546" lon="6.57488">
        <ele>924.7</ele>
        <time>2000-01-01T17:39:59.000Z</time>
      </trkpt>
      <trkpt lat="45.72528" lon="6.57497">
        <ele>915</ele>
        <time>2000-01-01T17:40:09.000Z</time>
      </trkpt>
      <trkpt lat="45.72509" lon="6.57501">
        <ele>910</ele>
        <time>2000-01-01T17:40:19.000Z</time>
      </trkpt>
      <trkpt lat="45.72489" lon="6.57508">
        <ele>909</ele>
        <time>2000-01-01T17:40:29.000Z</time>
      </trkpt>
      <trkpt lat="45.72479" lon="6.57513">
        <ele>906.8</ele>
        <time>2000-01-01T17:40:39.000Z</time>
      </trkpt>
      <trkpt lat="45.72463" lon="6.5753">
        <ele>909</ele>
        <time>2000-01-01T17:40:49.000Z</time>
      </trkpt>
      <trkpt lat="45.72455" lon="6.57537">
        <ele>900.8</ele>
        <time>2000-01-01T17:40:59.000Z</time>
      </trkpt>
      <trkpt lat="45.72448" lon="6.57548">
        <ele>904</ele>
        <time>2000-01-01T17:41:09.000Z</time>
      </trkpt>
      <trkpt lat="45.7244" lon="6.57557">
        <ele>895.8</ele>
        <time>2000-01-01T17:41:19.000Z</time>
      </trkpt>
      <trkpt lat="45.7243" lon="6.5756">
        <ele>900</ele>
        <time>2000-01-01T17:41:29.000Z</time>
      </trkpt>
      <trkpt lat="45.72421" lon="6.57565">
        <ele>890.4</ele>
        <time>2000-01-01T17:41:39.000Z</time>
      </trkpt>
      <trkpt lat="45.72393" lon="6.57586">
        <ele>893</ele>
        <time>2000-01-01T17:41:49.000Z</time>
      </trkpt>
      <trkpt lat="45.72383" lon="6.57587">
        <ele>881.4</ele>
        <time>2000-01-01T17:41:59.000Z</time>
      </trkpt>
      <trkpt lat="45.72376" lon="6.57593">
        <ele>879.4</ele>
        <time>2000-01-01T17:42:09.000Z</time>
      </trkpt>
      <trkpt lat="45.72377" lon="6.57606">
        <ele>878</ele>
        <time>2000-01-01T17:42:19.000Z</time>
      </trkpt>
      <trkpt lat="45.72382" lon="6.57616">
        <ele>877.5</ele>
        <time>2000-01-01T17:42:29.000Z</time>
      </trkpt>
      <trkpt lat="45.72376" lon="6.5762">
        <ele>875.6</ele>
        <time>2000-01-01T17:42:39.000Z</time>
      </trkpt>
      <trkpt lat="45.72364" lon="6.57611">
        <ele>878</ele>
        <time>2000-01-01T17:42:49.000Z</time>
      </trkpt>
      <trkpt lat="45.72337" lon="6.57607">
        <ele>874</ele>
        <time>2000-01-01T17:42:59.000Z</time>
      </trkpt>
      <trkpt lat="45.72327" lon="6.57602">
        <ele>869.3</ele>
        <time>2000-01-01T17:43:09.000Z</time>
      </trkpt>
      <trkpt lat="45.72307" lon="6.57599">
        <ele>871</ele>
        <time>2000-01-01T17:43:19.000Z</time>
      </trkpt>
      <trkpt lat="45.72305" lon="6.576">
        <ele>865.2</ele>
        <time>2000-01-01T17:43:29.000Z</time>
      </trkpt>
      <trkpt lat="45.72303" lon="6.57605">
        <ele>863.4</ele>
        <time>2000-01-01T17:43:39.000Z</time>
      </trkpt>
      <trkpt lat="45.72312" lon="6.57613">
        <ele>863.6</ele>
        <time>2000-01-01T17:43:49.000Z</time>
      </trkpt>
      <trkpt lat="45.72319" lon="6.57627">
        <ele>871</ele>
        <time>2000-01-01T17:43:59.000Z</time>
      </trkpt>
      <trkpt lat="45.72321" lon="6.57656">
        <ele>871</ele>
        <time>2000-01-01T17:44:09.000Z</time>
      </trkpt>
      <trkpt lat="45.72289" lon="6.57647">
        <ele>849</ele>
        <time>2000-01-01T17:44:19.000Z</time>
      </trkpt>
      <trkpt lat="45.72272" lon="6.57648">
        <ele>841.5</ele>
        <time>2000-01-01T17:44:29.000Z</time>
      </trkpt>
      <trkpt lat="45.72257" lon="6.57653">
        <ele>842</ele>
        <time>2000-01-01T17:44:39.000Z</time>
      </trkpt>
      <trkpt lat="45.72249" lon="6.5766">
        <ele>838.9</ele>
        <time>2000-01-01T17:44:49.000Z</time>
      </trkpt>
      <trkpt lat="45.72242" lon="6.57668">
        <ele>839</ele>
        <time>2000-01-01T17:44:59.000Z</time>
      </trkpt>
      <trkpt lat="45.72213" lon="6.57677">
        <ele>835</ele>
        <time>2000-01-01T17:45:09.000Z</time>
      </trkpt>
      <trkpt lat="45.72199" lon="6.5768">
        <ele>834.7</ele>
        <time>2000-01-01T17:45:19.000Z</time>
      </trkpt>
      <trkpt lat="45.72182" lon="6.57678">
        <ele>828</ele>
        <time>2000-01-01T17:45:29.000Z</time>
      </trkpt>
      <trkpt lat="45.72164" lon="6.57663">
        <ele>828</ele>
        <time>2000-01-01T17:45:39.000Z</time>
      </trkpt>
      <trkpt lat="45.72148" lon="6.57655">
        <ele>826.1</ele>
        <time>2000-01-01T17:45:49.000Z</time>
      </trkpt>
      <trkpt lat="45.72121" lon="6.5764">
        <ele>816</ele>
        <time>2000-01-01T17:45:59.000Z</time>
      </trkpt>
      <trkpt lat="45.72109" lon="6.57639">
        <ele>821.6</ele>
        <time>2000-01-01T17:46:09.000Z</time>
      </trkpt>
      <trkpt lat="45.72098" lon="6.57634">
        <ele>810</ele>
        <time>2000-01-01T17:46:19.000Z</time>
      </trkpt>
      <trkpt lat="45.7209" lon="6.5762">
        <ele>812.5</ele>
        <time>2000-01-01T17:46:29.000Z</time>
      </trkpt>
      <trkpt lat="45.7208" lon="6.57614">
        <ele>793</ele>
        <time>2000-01-01T17:46:39.000Z</time>
      </trkpt>
      <trkpt lat="45.72064" lon="6.57616">
        <ele>802.2</ele>
        <time>2000-01-01T17:46:49.000Z</time>
      </trkpt>
      <trkpt lat="45.72044" lon="6.57602">
        <ele>775</ele>
        <time>2000-01-01T17:46:59.000Z</time>
      </trkpt>
      <trkpt lat="45.72046" lon="6.57594">
        <ele>785.8</ele>
        <time>2000-01-01T17:47:09.000Z</time>
      </trkpt>
      <trkpt lat="45.72041" lon="6.57597">
        <ele>783</ele>
        <time>2000-01-01T17:47:19.000Z</time>
      </trkpt>
      <trkpt lat="45.7204" lon="6.5759">
        <ele>780.8</ele>
        <time>2000-01-01T17:47:29.000Z</time>
      </trkpt>
      <trkpt lat="45.72031" lon="6.576">
        <ele>775</ele>
        <time>2000-01-01T17:47:39.000Z</time>
      </trkpt>
      <trkpt lat="45.72021" lon="6.57613">
        <ele>772.3</ele>
        <time>2000-01-01T17:47:49.000Z</time>
      </trkpt>
      <trkpt lat="45.72009" lon="6.57636">
        <ele>775</ele>
        <time>2000-01-01T17:47:59.000Z</time>
      </trkpt>
      <trkpt lat="45.71989" lon="6.57612">
        <ele>762</ele>
        <time>2000-01-01T17:48:09.000Z</time>
      </trkpt>
      <trkpt lat="45.71978" lon="6.57604">
        <ele>761.1</ele>
        <time>2000-01-01T17:48:19.000Z</time>
      </trkpt>
      <trkpt lat="45.71967" lon="6.576">
        <ele>762</ele>
        <time>2000-01-01T17:48:29.000Z</time>
      </trkpt>
      <trkpt lat="45.71955" lon="6.57598">
        <ele>757.9</ele>
        <time>2000-01-01T17:48:39.000Z</time>
      </trkpt>
      <trkpt lat="45.71945" lon="6.57605">
        <ele>759</ele>
        <time>2000-01-01T17:48:49.000Z</time>
      </trkpt>
      <trkpt lat="45.71935" lon="6.57602">
        <ele>756</ele>
        <time>2000-01-01T17:48:59.000Z</time>
      </trkpt>
      <trkpt lat="45.71921" lon="6.57601">
        <ele>759</ele>
        <time>2000-01-01T17:49:09.000Z</time>
      </trkpt>
      <trkpt lat="45.71908" lon="6.57601">
        <ele>753.3</ele>
        <time>2000-01-01T17:49:19.000Z</time>
      </trkpt>
      <trkpt lat="45.71895" lon="6.57596">
        <ele>750</ele>
        <time>2000-01-01T17:49:29.000Z</time>
      </trkpt>
      <trkpt lat="45.71881" lon="6.57585">
        <ele>748</ele>
        <time>2000-01-01T17:49:39.000Z</time>
      </trkpt>
      <trkpt lat="45.71868" lon="6.57579">
        <ele>747</ele>
        <time>2000-01-01T17:49:49.000Z</time>
      </trkpt>
      <trkpt lat="45.71847" lon="6.57564">
        <ele>742</ele>
        <time>2000-01-01T17:49:59.000Z</time>
      </trkpt>
      <trkpt lat="45.71828" lon="6.57545">
        <ele>740</ele>
        <time>2000-01-01T17:50:09.000Z</time>
      </trkpt>
      <trkpt lat="45.71818" lon="6.57533">
        <ele>739.3</ele>
        <time>2000-01-01T17:50:19.000Z</time>
      </trkpt>
      <trkpt lat="45.71807" lon="6.57531">
        <ele>740</ele>
        <time>2000-01-01T17:50:29.000Z</time>
      </trkpt>
      <trkpt lat="45.718" lon="6.57515">
        <ele>738.8</ele>
        <time>2000-01-01T17:50:39.000Z</time>
      </trkpt>
      <trkpt lat="45.71797" lon="6.57505">
        <ele>737</ele>
        <time>2000-01-01T17:50:49.000Z</time>
      </trkpt>
      <trkpt lat="45.71796" lon="6.57488">
        <ele>737</ele>
        <time>2000-01-01T17:50:59.000Z</time>
      </trkpt>
      <trkpt lat="45.71818" lon="6.57457">
        <ele>734</ele>
        <time>2000-01-01T17:51:09.000Z</time>
      </trkpt>
      <trkpt lat="45.71817" lon="6.57442">
        <ele>736.1</ele>
        <time>2000-01-01T17:51:19.000Z</time>
      </trkpt>
      <trkpt lat="45.71808" lon="6.5742">
        <ele>734</ele>
        <time>2000-01-01T17:51:29.000Z</time>
      </trkpt>
      <trkpt lat="45.71801" lon="6.57388">
        <ele>733</ele>
        <time>2000-01-01T17:51:39.000Z</time>
      </trkpt>
      <trkpt lat="45.71794" lon="6.57364">
        <ele>735.5</ele>
        <time>2000-01-01T17:51:49.000Z</time>
      </trkpt>
      <trkpt lat="45.71798" lon="6.57339">
        <ele>733</ele>
        <time>2000-01-01T17:51:59.000Z</time>
      </trkpt>
      <trkpt lat="45.71802" lon="6.57327">
        <ele>735</ele>
        <time>2000-01-01T17:52:09.000Z</time>
      </trkpt>
      <trkpt lat="45.71796" lon="6.573">
        <ele>735</ele>
        <time>2000-01-01T17:52:19.000Z</time>
      </trkpt>
      <trkpt lat="45.71787" lon="6.57288">
        <ele>735</ele>
        <time>2000-01-01T17:52:29.000Z</time>
      </trkpt>
      <trkpt lat="45.71765" lon="6.57272">
        <ele>738</ele>
        <time>2000-01-01T17:52:39.000Z</time>
      </trkpt>
      <trkpt lat="45.71754" lon="6.57268">
        <ele>736.7</ele>
        <time>2000-01-01T17:52:49.000Z</time>
      </trkpt>
      <trkpt lat="45.71729" lon="6.57253">
        <ele>738</ele>
        <time>2000-01-01T17:52:59.000Z</time>
      </trkpt>
      <trkpt lat="45.71716" lon="6.5725">
        <ele>737</ele>
        <time>2000-01-01T17:53:09.000Z</time>
      </trkpt>
      <trkpt lat="45.71704" lon="6.57255">
        <ele>739</ele>
        <time>2000-01-01T17:53:19.000Z</time>
      </trkpt>
      <trkpt lat="45.71693" lon="6.57247">
        <ele>737.1</ele>
        <time>2000-01-01T17:53:29.000Z</time>
      </trkpt>
      <trkpt lat="45.71677" lon="6.57229">
        <ele>741</ele>
        <time>2000-01-01T17:53:39.000Z</time>
      </trkpt>
      <trkpt lat="45.71669" lon="6.57221">
        <ele>737.9</ele>
        <time>2000-01-01T17:53:49.000Z</time>
      </trkpt>
      <trkpt lat="45.71659" lon="6.57216">
        <ele>744</ele>
        <time>2000-01-01T17:53:59.000Z</time>
      </trkpt>
    </trkseg>
  </trk>
</gpx>